<?xml version="1.0" encoding="UTF-8" standalone="no" ?>
<gpx xmlns="http://www.topografix.com/GPX/1/1" xmlns:xsi="http://www.w3.org/2001/XMLSchema-instance" xsi:schemaLocation="http://www.topografix.com/GPX/1/1 http://www.topografix.com/GPX/1/1/gpx.xsd" version="1.1" creator="VisuGPX - https://www.visugpx.com">
  <metadata>
    <name>lac leman velo</name>
    <desc><![CDATA[tour dans le sens horaire]]></desc>
  </metadata>
  <trk>
    <name><![CDATA[lac leman]]></name>
    <desc><![CDATA[belle boucle avec mib]]></desc>
    <trkseg>
      <trkpt lat="46.22034" lon="6.17943">
        <ele>381.20001220703</ele>
        <time>2013-05-10T07:37:58.000Z</time>
      </trkpt>
      <trkpt lat="46.21997" lon="6.17914">
        <ele>378.79998779297</ele>
        <time>2013-05-10T07:38:05.000Z</time>
      </trkpt>
      <trkpt lat="46.21957" lon="6.17887">
        <ele>376.79998779297</ele>
        <time>2013-05-10T07:38:12.000Z</time>
      </trkpt>
      <trkpt lat="46.21909" lon="6.17853">
        <ele>377.39999389648</ele>
        <time>2013-05-10T07:38:20.000Z</time>
      </trkpt>
      <trkpt lat="46.21849" lon="6.17809">
        <ele>377.39999389648</ele>
        <time>2013-05-10T07:38:30.000Z</time>
      </trkpt>
      <trkpt lat="46.21794" lon="6.17768">
        <ele>377.39999389648</ele>
        <time>2013-05-10T07:38:39.000Z</time>
      </trkpt>
      <trkpt lat="46.21739" lon="6.17729">
        <ele>377.39999389648</ele>
        <time>2013-05-10T07:38:48.000Z</time>
      </trkpt>
      <trkpt lat="46.2169" lon="6.17694">
        <ele>376.79998779297</ele>
        <time>2013-05-10T07:38:56.000Z</time>
      </trkpt>
      <trkpt lat="46.21654" lon="6.17668">
        <ele>376.79998779297</ele>
        <time>2013-05-10T07:39:02.000Z</time>
      </trkpt>
      <trkpt lat="46.21592" lon="6.17625">
        <ele>376</ele>
        <time>2013-05-10T07:39:12.000Z</time>
      </trkpt>
      <trkpt lat="46.21531" lon="6.17582">
        <ele>375.39999389648</ele>
        <time>2013-05-10T07:39:22.000Z</time>
      </trkpt>
      <trkpt lat="46.21494" lon="6.17557">
        <ele>376</ele>
        <time>2013-05-10T07:39:28.000Z</time>
      </trkpt>
      <trkpt lat="46.21448" lon="6.17521">
        <ele>376.79998779297</ele>
        <time>2013-05-10T07:39:36.000Z</time>
      </trkpt>
      <trkpt lat="46.21401" lon="6.17485">
        <ele>376.39999389648</ele>
        <time>2013-05-10T07:39:44.000Z</time>
      </trkpt>
      <trkpt lat="46.2134" lon="6.17439">
        <ele>375.39999389648</ele>
        <time>2013-05-10T07:39:54.000Z</time>
      </trkpt>
      <trkpt lat="46.21334" lon="6.17435">
        <ele>376</ele>
        <time>2013-05-10T07:39:55.000Z</time>
      </trkpt>
      <trkpt lat="46.21317" lon="6.17418">
        <ele>376</ele>
        <time>2013-05-10T07:39:58.000Z</time>
      </trkpt>
      <trkpt lat="46.21277" lon="6.17379">
        <ele>376</ele>
        <time>2013-05-10T07:40:05.000Z</time>
      </trkpt>
      <trkpt lat="46.21266" lon="6.17367">
        <ele>376</ele>
        <time>2013-05-10T07:40:07.000Z</time>
      </trkpt>
      <trkpt lat="46.21243" lon="6.17347">
        <ele>376</ele>
        <time>2013-05-10T07:40:11.000Z</time>
      </trkpt>
      <trkpt lat="46.21214" lon="6.17306">
        <ele>376.39999389648</ele>
        <time>2013-05-10T07:40:17.000Z</time>
      </trkpt>
      <trkpt lat="46.21187" lon="6.17249">
        <ele>375.39999389648</ele>
        <time>2013-05-10T07:40:24.000Z</time>
      </trkpt>
      <trkpt lat="46.21168" lon="6.17198">
        <ele>376</ele>
        <time>2013-05-10T07:40:30.000Z</time>
      </trkpt>
      <trkpt lat="46.21143" lon="6.17141">
        <ele>376</ele>
        <time>2013-05-10T07:40:37.000Z</time>
      </trkpt>
      <trkpt lat="46.21118" lon="6.17086">
        <ele>376</ele>
        <time>2013-05-10T07:40:44.000Z</time>
      </trkpt>
      <trkpt lat="46.21079" lon="6.16999">
        <ele>376.79998779297</ele>
        <time>2013-05-10T07:40:55.000Z</time>
      </trkpt>
      <trkpt lat="46.21058" lon="6.16951">
        <ele>377.39999389648</ele>
        <time>2013-05-10T07:41:01.000Z</time>
      </trkpt>
      <trkpt lat="46.21037" lon="6.16904">
        <ele>376.79998779297</ele>
        <time>2013-05-10T07:41:07.000Z</time>
      </trkpt>
      <trkpt lat="46.21017" lon="6.16856">
        <ele>377.79998779297</ele>
        <time>2013-05-10T07:41:13.000Z</time>
      </trkpt>
      <trkpt lat="46.20994" lon="6.16806">
        <ele>377.79998779297</ele>
        <time>2013-05-10T07:41:19.000Z</time>
      </trkpt>
      <trkpt lat="46.20968" lon="6.1675">
        <ele>377.79998779297</ele>
        <time>2013-05-10T07:41:26.000Z</time>
      </trkpt>
      <trkpt lat="46.20949" lon="6.16706">
        <ele>377.79998779297</ele>
        <time>2013-05-10T07:41:31.000Z</time>
      </trkpt>
      <trkpt lat="46.20928" lon="6.16658">
        <ele>378.79998779297</ele>
        <time>2013-05-10T07:41:37.000Z</time>
      </trkpt>
      <trkpt lat="46.20912" lon="6.16625">
        <ele>379.79998779297</ele>
        <time>2013-05-10T07:41:41.000Z</time>
      </trkpt>
      <trkpt lat="46.20886" lon="6.16568">
        <ele>378.79998779297</ele>
        <time>2013-05-10T07:41:48.000Z</time>
      </trkpt>
      <trkpt lat="46.20867" lon="6.16525">
        <ele>379.20001220703</ele>
        <time>2013-05-10T07:41:53.000Z</time>
      </trkpt>
      <trkpt lat="46.20846" lon="6.16476">
        <ele>379.20001220703</ele>
        <time>2013-05-10T07:41:59.000Z</time>
      </trkpt>
      <trkpt lat="46.20821" lon="6.16408">
        <ele>379.20001220703</ele>
        <time>2013-05-10T07:42:07.000Z</time>
      </trkpt>
      <trkpt lat="46.20802" lon="6.16335">
        <ele>379.79998779297</ele>
        <time>2013-05-10T07:42:15.000Z</time>
      </trkpt>
      <trkpt lat="46.20787" lon="6.1627">
        <ele>379.20001220703</ele>
        <time>2013-05-10T07:42:22.000Z</time>
      </trkpt>
      <trkpt lat="46.20772" lon="6.16219">
        <ele>379.20001220703</ele>
        <time>2013-05-10T07:42:28.000Z</time>
      </trkpt>
      <trkpt lat="46.20766" lon="6.16204">
        <ele>378.79998779297</ele>
        <time>2013-05-10T07:42:30.000Z</time>
      </trkpt>
      <trkpt lat="46.20753" lon="6.16175">
        <ele>378.79998779297</ele>
        <time>2013-05-10T07:42:34.000Z</time>
      </trkpt>
      <trkpt lat="46.20733" lon="6.16126">
        <ele>377.79998779297</ele>
        <time>2013-05-10T07:42:41.000Z</time>
      </trkpt>
      <trkpt lat="46.2073" lon="6.1612">
        <ele>378.39999389648</ele>
        <time>2013-05-10T07:42:42.000Z</time>
      </trkpt>
      <trkpt lat="46.20728" lon="6.16104">
        <ele>377.79998779297</ele>
        <time>2013-05-10T07:42:45.000Z</time>
      </trkpt>
      <trkpt lat="46.2073" lon="6.161">
        <ele>377.79998779297</ele>
        <time>2013-05-10T07:42:46.000Z</time>
      </trkpt>
      <trkpt lat="46.20724" lon="6.16076">
        <ele>378.39999389648</ele>
        <time>2013-05-10T07:42:50.000Z</time>
      </trkpt>
      <trkpt lat="46.20696" lon="6.16016">
        <ele>378.39999389648</ele>
        <time>2013-05-10T07:42:58.000Z</time>
      </trkpt>
      <trkpt lat="46.20662" lon="6.15951">
        <ele>377.79998779297</ele>
        <time>2013-05-10T07:43:06.000Z</time>
      </trkpt>
      <trkpt lat="46.20632" lon="6.15885">
        <ele>377.79998779297</ele>
        <time>2013-05-10T07:43:14.000Z</time>
      </trkpt>
      <trkpt lat="46.20605" lon="6.1583">
        <ele>379.20001220703</ele>
        <time>2013-05-10T07:43:21.000Z</time>
      </trkpt>
      <trkpt lat="46.20576" lon="6.15766">
        <ele>379.79998779297</ele>
        <time>2013-05-10T07:43:29.000Z</time>
      </trkpt>
      <trkpt lat="46.20572" lon="6.15759">
        <ele>379.79998779297</ele>
        <time>2013-05-10T07:43:30.000Z</time>
      </trkpt>
      <trkpt lat="46.20554" lon="6.15746">
        <ele>379.79998779297</ele>
        <time>2013-05-10T07:43:34.000Z</time>
      </trkpt>
      <trkpt lat="46.20549" lon="6.15739">
        <ele>380.20001220703</ele>
        <time>2013-05-10T07:43:36.000Z</time>
      </trkpt>
      <trkpt lat="46.20533" lon="6.15703">
        <ele>380.79998779297</ele>
        <time>2013-05-10T07:43:42.000Z</time>
      </trkpt>
      <trkpt lat="46.20503" lon="6.15639">
        <ele>381.20001220703</ele>
        <time>2013-05-10T07:43:51.000Z</time>
      </trkpt>
      <trkpt lat="46.20467" lon="6.15563">
        <ele>381.20001220703</ele>
        <time>2013-05-10T07:44:01.000Z</time>
      </trkpt>
      <trkpt lat="46.20437" lon="6.15502">
        <ele>380.79998779297</ele>
        <time>2013-05-10T07:44:09.000Z</time>
      </trkpt>
      <trkpt lat="46.20427" lon="6.15483">
        <ele>380.20001220703</ele>
        <time>2013-05-10T07:44:12.000Z</time>
      </trkpt>
      <trkpt lat="46.20424" lon="6.15457">
        <ele>380.79998779297</ele>
        <time>2013-05-10T07:44:16.000Z</time>
      </trkpt>
      <trkpt lat="46.20426" lon="6.15451">
        <ele>380.79998779297</ele>
        <time>2013-05-10T07:44:17.000Z</time>
      </trkpt>
      <trkpt lat="46.20428" lon="6.15412">
        <ele>381.20001220703</ele>
        <time>2013-05-10T07:44:22.000Z</time>
      </trkpt>
      <trkpt lat="46.20426" lon="6.15403">
        <ele>381.20001220703</ele>
        <time>2013-05-10T07:44:23.000Z</time>
      </trkpt>
      <trkpt lat="46.20427" lon="6.15357">
        <ele>381.20001220703</ele>
        <time>2013-05-10T07:44:28.000Z</time>
      </trkpt>
      <trkpt lat="46.20436" lon="6.15316">
        <ele>380.20001220703</ele>
        <time>2013-05-10T07:44:33.000Z</time>
      </trkpt>
      <trkpt lat="46.20445" lon="6.15273">
        <ele>380.79998779297</ele>
        <time>2013-05-10T07:44:39.000Z</time>
      </trkpt>
      <trkpt lat="46.20457" lon="6.15226">
        <ele>380.20001220703</ele>
        <time>2013-05-10T07:44:46.000Z</time>
      </trkpt>
      <trkpt lat="46.20464" lon="6.15201">
        <ele>380.20001220703</ele>
        <time>2013-05-10T07:44:50.000Z</time>
      </trkpt>
      <trkpt lat="46.20469" lon="6.15179">
        <ele>379.79998779297</ele>
        <time>2013-05-10T07:44:54.000Z</time>
      </trkpt>
      <trkpt lat="46.20477" lon="6.15147">
        <ele>379.79998779297</ele>
        <time>2013-05-10T07:45:00.000Z</time>
      </trkpt>
      <trkpt lat="46.20482" lon="6.15135">
        <ele>379.79998779297</ele>
        <time>2013-05-10T07:45:02.000Z</time>
      </trkpt>
      <trkpt lat="46.20486" lon="6.15116">
        <ele>379.79998779297</ele>
        <time>2013-05-10T07:45:05.000Z</time>
      </trkpt>
      <trkpt lat="46.20493" lon="6.15085">
        <ele>380.79998779297</ele>
        <time>2013-05-10T07:45:11.000Z</time>
      </trkpt>
      <trkpt lat="46.20502" lon="6.15068">
        <ele>380.79998779297</ele>
        <time>2013-05-10T07:45:17.000Z</time>
      </trkpt>
      <trkpt lat="46.20504" lon="6.15047">
        <ele>381.20001220703</ele>
        <time>2013-05-10T07:45:22.000Z</time>
      </trkpt>
      <trkpt lat="46.20503" lon="6.15023">
        <ele>381.60000610352</ele>
        <time>2013-05-10T07:45:27.000Z</time>
      </trkpt>
      <trkpt lat="46.205" lon="6.15005">
        <ele>381.20001220703</ele>
        <time>2013-05-10T07:45:31.000Z</time>
      </trkpt>
      <trkpt lat="46.20498" lon="6.14987">
        <ele>381.20001220703</ele>
        <time>2013-05-10T07:45:36.000Z</time>
      </trkpt>
      <trkpt lat="46.20499" lon="6.14985">
        <ele>381.60000610352</ele>
        <time>2013-05-10T07:45:37.000Z</time>
      </trkpt>
      <trkpt lat="46.20501" lon="6.14982">
        <ele>380.20001220703</ele>
        <time>2013-05-10T07:45:48.000Z</time>
      </trkpt>
      <trkpt lat="46.2051" lon="6.14968">
        <ele>380.79998779297</ele>
        <time>2013-05-10T07:45:53.000Z</time>
      </trkpt>
      <trkpt lat="46.20529" lon="6.14949">
        <ele>380.79998779297</ele>
        <time>2013-05-10T07:46:00.000Z</time>
      </trkpt>
      <trkpt lat="46.20552" lon="6.14928">
        <ele>381.20001220703</ele>
        <time>2013-05-10T07:46:07.000Z</time>
      </trkpt>
      <trkpt lat="46.20561" lon="6.14919">
        <ele>381.20001220703</ele>
        <time>2013-05-10T07:46:11.000Z</time>
      </trkpt>
      <trkpt lat="46.20563" lon="6.14915">
        <ele>381.20001220703</ele>
        <time>2013-05-10T07:46:13.000Z</time>
      </trkpt>
      <trkpt lat="46.2058" lon="6.14899">
        <ele>380.79998779297</ele>
        <time>2013-05-10T07:46:20.000Z</time>
      </trkpt>
      <trkpt lat="46.20585" lon="6.14894">
        <ele>380.79998779297</ele>
        <time>2013-05-10T07:46:22.000Z</time>
      </trkpt>
      <trkpt lat="46.20592" lon="6.14888">
        <ele>380.79998779297</ele>
        <time>2013-05-10T07:46:26.000Z</time>
      </trkpt>
      <trkpt lat="46.20595" lon="6.14885">
        <ele>380.79998779297</ele>
        <time>2013-05-10T07:46:27.000Z</time>
      </trkpt>
      <trkpt lat="46.2062" lon="6.14863">
        <ele>381.20001220703</ele>
        <time>2013-05-10T07:46:33.000Z</time>
      </trkpt>
      <trkpt lat="46.20662" lon="6.14823">
        <ele>381.20001220703</ele>
        <time>2013-05-10T07:46:42.000Z</time>
      </trkpt>
      <trkpt lat="46.20666" lon="6.14818">
        <ele>381.20001220703</ele>
        <time>2013-05-10T07:46:43.000Z</time>
      </trkpt>
      <trkpt lat="46.20682" lon="6.14803">
        <ele>381.20001220703</ele>
        <time>2013-05-10T07:46:47.000Z</time>
      </trkpt>
      <trkpt lat="46.20701" lon="6.14804">
        <ele>380.79998779297</ele>
        <time>2013-05-10T07:46:51.000Z</time>
      </trkpt>
      <trkpt lat="46.20705" lon="6.14808">
        <ele>380.79998779297</ele>
        <time>2013-05-10T07:46:52.000Z</time>
      </trkpt>
      <trkpt lat="46.20744" lon="6.1485">
        <ele>379.20001220703</ele>
        <time>2013-05-10T07:47:00.000Z</time>
      </trkpt>
      <trkpt lat="46.20753" lon="6.14861">
        <ele>378.79998779297</ele>
        <time>2013-05-10T07:47:02.000Z</time>
      </trkpt>
      <trkpt lat="46.20792" lon="6.14904">
        <ele>376.79998779297</ele>
        <time>2013-05-10T07:47:10.000Z</time>
      </trkpt>
      <trkpt lat="46.20807" lon="6.14921">
        <ele>376</ele>
        <time>2013-05-10T07:47:13.000Z</time>
      </trkpt>
      <trkpt lat="46.20824" lon="6.14936">
        <ele>376</ele>
        <time>2013-05-10T07:47:16.000Z</time>
      </trkpt>
      <trkpt lat="46.20858" lon="6.14979">
        <ele>375</ele>
        <time>2013-05-10T07:47:23.000Z</time>
      </trkpt>
      <trkpt lat="46.20866" lon="6.14994">
        <ele>375</ele>
        <time>2013-05-10T07:47:25.000Z</time>
      </trkpt>
      <trkpt lat="46.20924" lon="6.1506">
        <ele>374.39999389648</ele>
        <time>2013-05-10T07:47:36.000Z</time>
      </trkpt>
      <trkpt lat="46.20974" lon="6.15112">
        <ele>373.60000610352</ele>
        <time>2013-05-10T07:47:45.000Z</time>
      </trkpt>
      <trkpt lat="46.21015" lon="6.15162">
        <ele>373.60000610352</ele>
        <time>2013-05-10T07:47:53.000Z</time>
      </trkpt>
      <trkpt lat="46.2105" lon="6.15204">
        <ele>373.60000610352</ele>
        <time>2013-05-10T07:48:00.000Z</time>
      </trkpt>
      <trkpt lat="46.21103" lon="6.15261">
        <ele>374</ele>
        <time>2013-05-10T07:48:10.000Z</time>
      </trkpt>
      <trkpt lat="46.2112" lon="6.15276">
        <ele>374</ele>
        <time>2013-05-10T07:48:13.000Z</time>
      </trkpt>
      <trkpt lat="46.21152" lon="6.15289">
        <ele>373</ele>
        <time>2013-05-10T07:48:18.000Z</time>
      </trkpt>
      <trkpt lat="46.21186" lon="6.15284">
        <ele>372.60000610352</ele>
        <time>2013-05-10T07:48:23.000Z</time>
      </trkpt>
      <trkpt lat="46.21255" lon="6.15266">
        <ele>373</ele>
        <time>2013-05-10T07:48:33.000Z</time>
      </trkpt>
      <trkpt lat="46.21318" lon="6.15248">
        <ele>373.60000610352</ele>
        <time>2013-05-10T07:48:42.000Z</time>
      </trkpt>
      <trkpt lat="46.2138" lon="6.15231">
        <ele>374.39999389648</ele>
        <time>2013-05-10T07:48:51.000Z</time>
      </trkpt>
      <trkpt lat="46.21434" lon="6.15216">
        <ele>374.39999389648</ele>
        <time>2013-05-10T07:48:59.000Z</time>
      </trkpt>
      <trkpt lat="46.21503" lon="6.15197">
        <ele>375.39999389648</ele>
        <time>2013-05-10T07:49:09.000Z</time>
      </trkpt>
      <trkpt lat="46.21557" lon="6.15183">
        <ele>376</ele>
        <time>2013-05-10T07:49:17.000Z</time>
      </trkpt>
      <trkpt lat="46.21602" lon="6.15166">
        <ele>376.79998779297</ele>
        <time>2013-05-10T07:49:24.000Z</time>
      </trkpt>
      <trkpt lat="46.21615" lon="6.15159">
        <ele>376.79998779297</ele>
        <time>2013-05-10T07:49:26.000Z</time>
      </trkpt>
      <trkpt lat="46.21664" lon="6.15127">
        <ele>376.39999389648</ele>
        <time>2013-05-10T07:49:34.000Z</time>
      </trkpt>
      <trkpt lat="46.21717" lon="6.15086">
        <ele>377.39999389648</ele>
        <time>2013-05-10T07:49:43.000Z</time>
      </trkpt>
      <trkpt lat="46.2176" lon="6.15048">
        <ele>379.20001220703</ele>
        <time>2013-05-10T07:49:51.000Z</time>
      </trkpt>
      <trkpt lat="46.21794" lon="6.15014">
        <ele>381.20001220703</ele>
        <time>2013-05-10T07:49:58.000Z</time>
      </trkpt>
      <trkpt lat="46.21826" lon="6.1498">
        <ele>383.60000610352</ele>
        <time>2013-05-10T07:50:05.000Z</time>
      </trkpt>
      <trkpt lat="46.21857" lon="6.14945">
        <ele>385</ele>
        <time>2013-05-10T07:50:12.000Z</time>
      </trkpt>
      <trkpt lat="46.21862" lon="6.1494">
        <ele>385.60000610352</ele>
        <time>2013-05-10T07:50:13.000Z</time>
      </trkpt>
      <trkpt lat="46.21888" lon="6.14923">
        <ele>386.39999389648</ele>
        <time>2013-05-10T07:50:18.000Z</time>
      </trkpt>
      <trkpt lat="46.21899" lon="6.1492">
        <ele>387</ele>
        <time>2013-05-10T07:50:20.000Z</time>
      </trkpt>
      <trkpt lat="46.21916" lon="6.14921">
        <ele>387.39999389648</ele>
        <time>2013-05-10T07:50:23.000Z</time>
      </trkpt>
      <trkpt lat="46.21939" lon="6.1493">
        <ele>388</ele>
        <time>2013-05-10T07:50:27.000Z</time>
      </trkpt>
      <trkpt lat="46.22001" lon="6.14972">
        <ele>391.79998779297</ele>
        <time>2013-05-10T07:50:38.000Z</time>
      </trkpt>
      <trkpt lat="46.22037" lon="6.14995">
        <ele>392.20001220703</ele>
        <time>2013-05-10T07:50:44.000Z</time>
      </trkpt>
      <trkpt lat="46.2205" lon="6.15001">
        <ele>391.79998779297</ele>
        <time>2013-05-10T07:50:46.000Z</time>
      </trkpt>
      <trkpt lat="46.22089" lon="6.15001">
        <ele>393.60000610352</ele>
        <time>2013-05-10T07:50:52.000Z</time>
      </trkpt>
      <trkpt lat="46.2215" lon="6.1497">
        <ele>394.60000610352</ele>
        <time>2013-05-10T07:51:01.000Z</time>
      </trkpt>
      <trkpt lat="46.2218" lon="6.14956">
        <ele>394.20001220703</ele>
        <time>2013-05-10T07:51:05.000Z</time>
      </trkpt>
      <trkpt lat="46.22249" lon="6.14922">
        <ele>392.79998779297</ele>
        <time>2013-05-10T07:51:14.000Z</time>
      </trkpt>
      <trkpt lat="46.22337" lon="6.14878">
        <ele>394.60000610352</ele>
        <time>2013-05-10T07:51:25.000Z</time>
      </trkpt>
      <trkpt lat="46.22359" lon="6.14867">
        <ele>395.20001220703</ele>
        <time>2013-05-10T07:51:28.000Z</time>
      </trkpt>
      <trkpt lat="46.22377" lon="6.14849">
        <ele>396.20001220703</ele>
        <time>2013-05-10T07:51:33.000Z</time>
      </trkpt>
      <trkpt lat="46.22381" lon="6.14847">
        <ele>396.60000610352</ele>
        <time>2013-05-10T07:51:34.000Z</time>
      </trkpt>
      <trkpt lat="46.22391" lon="6.14841">
        <ele>395.60000610352</ele>
        <time>2013-05-10T07:51:37.000Z</time>
      </trkpt>
      <trkpt lat="46.22403" lon="6.14841">
        <ele>393.20001220703</ele>
        <time>2013-05-10T07:51:42.000Z</time>
      </trkpt>
      <trkpt lat="46.2243" lon="6.14833">
        <ele>391.20001220703</ele>
        <time>2013-05-10T07:51:47.000Z</time>
      </trkpt>
      <trkpt lat="46.22468" lon="6.14817">
        <ele>389.79998779297</ele>
        <time>2013-05-10T07:51:53.000Z</time>
      </trkpt>
      <trkpt lat="46.22488" lon="6.14809">
        <ele>389.39999389648</ele>
        <time>2013-05-10T07:51:56.000Z</time>
      </trkpt>
      <trkpt lat="46.225" lon="6.14801">
        <ele>388.79998779297</ele>
        <time>2013-05-10T07:51:58.000Z</time>
      </trkpt>
      <trkpt lat="46.22557" lon="6.14798">
        <ele>386</ele>
        <time>2013-05-10T07:52:06.000Z</time>
      </trkpt>
      <trkpt lat="46.22565" lon="6.14799">
        <ele>386</ele>
        <time>2013-05-10T07:52:07.000Z</time>
      </trkpt>
      <trkpt lat="46.22599" lon="6.14816">
        <ele>386</ele>
        <time>2013-05-10T07:52:12.000Z</time>
      </trkpt>
      <trkpt lat="46.22641" lon="6.14834">
        <ele>385.60000610352</ele>
        <time>2013-05-10T07:52:18.000Z</time>
      </trkpt>
      <trkpt lat="46.22684" lon="6.14855">
        <ele>385.60000610352</ele>
        <time>2013-05-10T07:52:24.000Z</time>
      </trkpt>
      <trkpt lat="46.22706" lon="6.14863">
        <ele>386.39999389648</ele>
        <time>2013-05-10T07:52:27.000Z</time>
      </trkpt>
      <trkpt lat="46.22748" lon="6.14883">
        <ele>386.39999389648</ele>
        <time>2013-05-10T07:52:33.000Z</time>
      </trkpt>
      <trkpt lat="46.2281" lon="6.14902">
        <ele>387.39999389648</ele>
        <time>2013-05-10T07:52:41.000Z</time>
      </trkpt>
      <trkpt lat="46.22849" lon="6.14912">
        <ele>387.39999389648</ele>
        <time>2013-05-10T07:52:46.000Z</time>
      </trkpt>
      <trkpt lat="46.22905" lon="6.14927">
        <ele>387</ele>
        <time>2013-05-10T07:52:53.000Z</time>
      </trkpt>
      <trkpt lat="46.22964" lon="6.14938">
        <ele>386.39999389648</ele>
        <time>2013-05-10T07:53:00.000Z</time>
      </trkpt>
      <trkpt lat="46.23021" lon="6.14947">
        <ele>385</ele>
        <time>2013-05-10T07:53:07.000Z</time>
      </trkpt>
      <trkpt lat="46.23076" lon="6.14952">
        <ele>383.60000610352</ele>
        <time>2013-05-10T07:53:14.000Z</time>
      </trkpt>
      <trkpt lat="46.23114" lon="6.14956">
        <ele>382.60000610352</ele>
        <time>2013-05-10T07:53:19.000Z</time>
      </trkpt>
      <trkpt lat="46.23166" lon="6.14957">
        <ele>382.20001220703</ele>
        <time>2013-05-10T07:53:26.000Z</time>
      </trkpt>
      <trkpt lat="46.23226" lon="6.14956">
        <ele>382.60000610352</ele>
        <time>2013-05-10T07:53:34.000Z</time>
      </trkpt>
      <trkpt lat="46.23278" lon="6.14953">
        <ele>382.60000610352</ele>
        <time>2013-05-10T07:53:41.000Z</time>
      </trkpt>
      <trkpt lat="46.23346" lon="6.14945">
        <ele>384</ele>
        <time>2013-05-10T07:53:50.000Z</time>
      </trkpt>
      <trkpt lat="46.23422" lon="6.14939">
        <ele>387</ele>
        <time>2013-05-10T07:54:00.000Z</time>
      </trkpt>
      <trkpt lat="46.23468" lon="6.14934">
        <ele>389.39999389648</ele>
        <time>2013-05-10T07:54:06.000Z</time>
      </trkpt>
      <trkpt lat="46.2353" lon="6.14927">
        <ele>388.79998779297</ele>
        <time>2013-05-10T07:54:14.000Z</time>
      </trkpt>
      <trkpt lat="46.2359" lon="6.1492">
        <ele>387.39999389648</ele>
        <time>2013-05-10T07:54:22.000Z</time>
      </trkpt>
      <trkpt lat="46.23649" lon="6.14914">
        <ele>386.39999389648</ele>
        <time>2013-05-10T07:54:30.000Z</time>
      </trkpt>
      <trkpt lat="46.23671" lon="6.14912">
        <ele>385</ele>
        <time>2013-05-10T07:54:33.000Z</time>
      </trkpt>
      <trkpt lat="46.23691" lon="6.14915">
        <ele>385</ele>
        <time>2013-05-10T07:54:37.000Z</time>
      </trkpt>
      <trkpt lat="46.23713" lon="6.14913">
        <ele>385.60000610352</ele>
        <time>2013-05-10T07:54:41.000Z</time>
      </trkpt>
      <trkpt lat="46.23731" lon="6.14916">
        <ele>386</ele>
        <time>2013-05-10T07:54:44.000Z</time>
      </trkpt>
      <trkpt lat="46.23778" lon="6.1492">
        <ele>386</ele>
        <time>2013-05-10T07:54:51.000Z</time>
      </trkpt>
      <trkpt lat="46.23833" lon="6.14928">
        <ele>387.39999389648</ele>
        <time>2013-05-10T07:54:59.000Z</time>
      </trkpt>
      <trkpt lat="46.23853" lon="6.14933">
        <ele>387</ele>
        <time>2013-05-10T07:55:02.000Z</time>
      </trkpt>
      <trkpt lat="46.23878" lon="6.14932">
        <ele>387</ele>
        <time>2013-05-10T07:55:06.000Z</time>
      </trkpt>
      <trkpt lat="46.23916" lon="6.14947">
        <ele>387</ele>
        <time>2013-05-10T07:55:12.000Z</time>
      </trkpt>
      <trkpt lat="46.23958" lon="6.14968">
        <ele>388.39999389648</ele>
        <time>2013-05-10T07:55:18.000Z</time>
      </trkpt>
      <trkpt lat="46.24001" lon="6.14993">
        <ele>388.39999389648</ele>
        <time>2013-05-10T07:55:24.000Z</time>
      </trkpt>
      <trkpt lat="46.24037" lon="6.15022">
        <ele>388.79998779297</ele>
        <time>2013-05-10T07:55:29.000Z</time>
      </trkpt>
      <trkpt lat="46.24043" lon="6.15027">
        <ele>389.39999389648</ele>
        <time>2013-05-10T07:55:30.000Z</time>
      </trkpt>
      <trkpt lat="46.24095" lon="6.15063">
        <ele>388</ele>
        <time>2013-05-10T07:55:38.000Z</time>
      </trkpt>
      <trkpt lat="46.24157" lon="6.15112">
        <ele>386.39999389648</ele>
        <time>2013-05-10T07:55:47.000Z</time>
      </trkpt>
      <trkpt lat="46.24229" lon="6.1516">
        <ele>384.60000610352</ele>
        <time>2013-05-10T07:55:57.000Z</time>
      </trkpt>
      <trkpt lat="46.24296" lon="6.1519">
        <ele>384</ele>
        <time>2013-05-10T07:56:06.000Z</time>
      </trkpt>
      <trkpt lat="46.24357" lon="6.15207">
        <ele>384</ele>
        <time>2013-05-10T07:56:14.000Z</time>
      </trkpt>
      <trkpt lat="46.24428" lon="6.15217">
        <ele>384</ele>
        <time>2013-05-10T07:56:23.000Z</time>
      </trkpt>
      <trkpt lat="46.24491" lon="6.15218">
        <ele>383.20001220703</ele>
        <time>2013-05-10T07:56:31.000Z</time>
      </trkpt>
      <trkpt lat="46.24544" lon="6.15205">
        <ele>382.60000610352</ele>
        <time>2013-05-10T07:56:38.000Z</time>
      </trkpt>
      <trkpt lat="46.24597" lon="6.15186">
        <ele>382.20001220703</ele>
        <time>2013-05-10T07:56:45.000Z</time>
      </trkpt>
      <trkpt lat="46.24617" lon="6.15171">
        <ele>382.60000610352</ele>
        <time>2013-05-10T07:56:48.000Z</time>
      </trkpt>
      <trkpt lat="46.24661" lon="6.15157">
        <ele>383.20001220703</ele>
        <time>2013-05-10T07:56:54.000Z</time>
      </trkpt>
      <trkpt lat="46.24717" lon="6.15138">
        <ele>384.60000610352</ele>
        <time>2013-05-10T07:57:02.000Z</time>
      </trkpt>
      <trkpt lat="46.24763" lon="6.15122">
        <ele>385.60000610352</ele>
        <time>2013-05-10T07:57:09.000Z</time>
      </trkpt>
      <trkpt lat="46.24813" lon="6.15102">
        <ele>388</ele>
        <time>2013-05-10T07:57:17.000Z</time>
      </trkpt>
      <trkpt lat="46.2486" lon="6.15093">
        <ele>387</ele>
        <time>2013-05-10T07:57:24.000Z</time>
      </trkpt>
      <trkpt lat="46.24902" lon="6.15095">
        <ele>386.39999389648</ele>
        <time>2013-05-10T07:57:30.000Z</time>
      </trkpt>
      <trkpt lat="46.24954" lon="6.15101">
        <ele>385</ele>
        <time>2013-05-10T07:57:37.000Z</time>
      </trkpt>
      <trkpt lat="46.25015" lon="6.15108">
        <ele>383.60000610352</ele>
        <time>2013-05-10T07:57:45.000Z</time>
      </trkpt>
      <trkpt lat="46.25078" lon="6.15116">
        <ele>383.20001220703</ele>
        <time>2013-05-10T07:57:53.000Z</time>
      </trkpt>
      <trkpt lat="46.25134" lon="6.15128">
        <ele>382.20001220703</ele>
        <time>2013-05-10T07:58:00.000Z</time>
      </trkpt>
      <trkpt lat="46.2518" lon="6.15153">
        <ele>382.20001220703</ele>
        <time>2013-05-10T07:58:06.000Z</time>
      </trkpt>
      <trkpt lat="46.25215" lon="6.15184">
        <ele>381.60000610352</ele>
        <time>2013-05-10T07:58:11.000Z</time>
      </trkpt>
      <trkpt lat="46.25259" lon="6.15236">
        <ele>380.79998779297</ele>
        <time>2013-05-10T07:58:18.000Z</time>
      </trkpt>
      <trkpt lat="46.25321" lon="6.1531">
        <ele>381.20001220703</ele>
        <time>2013-05-10T07:58:28.000Z</time>
      </trkpt>
      <trkpt lat="46.25351" lon="6.15346">
        <ele>381.20001220703</ele>
        <time>2013-05-10T07:58:33.000Z</time>
      </trkpt>
      <trkpt lat="46.25386" lon="6.15388">
        <ele>381.20001220703</ele>
        <time>2013-05-10T07:58:39.000Z</time>
      </trkpt>
      <trkpt lat="46.2542" lon="6.15431">
        <ele>380.79998779297</ele>
        <time>2013-05-10T07:58:45.000Z</time>
      </trkpt>
      <trkpt lat="46.25473" lon="6.15496">
        <ele>379.79998779297</ele>
        <time>2013-05-10T07:58:54.000Z</time>
      </trkpt>
      <trkpt lat="46.25502" lon="6.15531">
        <ele>380.20001220703</ele>
        <time>2013-05-10T07:58:59.000Z</time>
      </trkpt>
      <trkpt lat="46.25549" lon="6.15585">
        <ele>381.20001220703</ele>
        <time>2013-05-10T07:59:07.000Z</time>
      </trkpt>
      <trkpt lat="46.25574" lon="6.15606">
        <ele>380.79998779297</ele>
        <time>2013-05-10T07:59:11.000Z</time>
      </trkpt>
      <trkpt lat="46.25617" lon="6.15625">
        <ele>381.20001220703</ele>
        <time>2013-05-10T07:59:17.000Z</time>
      </trkpt>
      <trkpt lat="46.25684" lon="6.15646">
        <ele>382.60000610352</ele>
        <time>2013-05-10T07:59:26.000Z</time>
      </trkpt>
      <trkpt lat="46.25749" lon="6.15671">
        <ele>383.20001220703</ele>
        <time>2013-05-10T07:59:35.000Z</time>
      </trkpt>
      <trkpt lat="46.25809" lon="6.15706">
        <ele>385</ele>
        <time>2013-05-10T07:59:44.000Z</time>
      </trkpt>
      <trkpt lat="46.25854" lon="6.15736">
        <ele>386.39999389648</ele>
        <time>2013-05-10T07:59:51.000Z</time>
      </trkpt>
      <trkpt lat="46.25906" lon="6.15778">
        <ele>387.39999389648</ele>
        <time>2013-05-10T07:59:59.000Z</time>
      </trkpt>
      <trkpt lat="46.25961" lon="6.15824">
        <ele>388.39999389648</ele>
        <time>2013-05-10T08:00:08.000Z</time>
      </trkpt>
      <trkpt lat="46.25996" lon="6.15855">
        <ele>388.79998779297</ele>
        <time>2013-05-10T08:00:14.000Z</time>
      </trkpt>
      <trkpt lat="46.26035" lon="6.1589">
        <ele>388.39999389648</ele>
        <time>2013-05-10T08:00:21.000Z</time>
      </trkpt>
      <trkpt lat="46.26078" lon="6.15925">
        <ele>388.39999389648</ele>
        <time>2013-05-10T08:00:28.000Z</time>
      </trkpt>
      <trkpt lat="46.26125" lon="6.15964">
        <ele>389.79998779297</ele>
        <time>2013-05-10T08:00:36.000Z</time>
      </trkpt>
      <trkpt lat="46.26155" lon="6.15989">
        <ele>390.79998779297</ele>
        <time>2013-05-10T08:00:41.000Z</time>
      </trkpt>
      <trkpt lat="46.26173" lon="6.16003">
        <ele>391.79998779297</ele>
        <time>2013-05-10T08:00:44.000Z</time>
      </trkpt>
      <trkpt lat="46.26216" lon="6.16039">
        <ele>390.79998779297</ele>
        <time>2013-05-10T08:00:51.000Z</time>
      </trkpt>
      <trkpt lat="46.26275" lon="6.16085">
        <ele>390.79998779297</ele>
        <time>2013-05-10T08:01:00.000Z</time>
      </trkpt>
      <trkpt lat="46.26338" lon="6.16135">
        <ele>390.79998779297</ele>
        <time>2013-05-10T08:01:10.000Z</time>
      </trkpt>
      <trkpt lat="46.26398" lon="6.16176">
        <ele>390.79998779297</ele>
        <time>2013-05-10T08:01:19.000Z</time>
      </trkpt>
      <trkpt lat="46.26452" lon="6.1621">
        <ele>390.79998779297</ele>
        <time>2013-05-10T08:01:27.000Z</time>
      </trkpt>
      <trkpt lat="46.2652" lon="6.16252">
        <ele>390.79998779297</ele>
        <time>2013-05-10T08:01:37.000Z</time>
      </trkpt>
      <trkpt lat="46.26589" lon="6.16296">
        <ele>390.79998779297</ele>
        <time>2013-05-10T08:01:47.000Z</time>
      </trkpt>
      <trkpt lat="46.26649" lon="6.16333">
        <ele>389.79998779297</ele>
        <time>2013-05-10T08:01:56.000Z</time>
      </trkpt>
      <trkpt lat="46.26709" lon="6.16372">
        <ele>389.39999389648</ele>
        <time>2013-05-10T08:02:05.000Z</time>
      </trkpt>
      <trkpt lat="46.26777" lon="6.16415">
        <ele>389.39999389648</ele>
        <time>2013-05-10T08:02:15.000Z</time>
      </trkpt>
      <trkpt lat="46.26826" lon="6.16447">
        <ele>389.39999389648</ele>
        <time>2013-05-10T08:02:22.000Z</time>
      </trkpt>
      <trkpt lat="46.26878" lon="6.16479">
        <ele>388</ele>
        <time>2013-05-10T08:02:29.000Z</time>
      </trkpt>
      <trkpt lat="46.26928" lon="6.1651">
        <ele>388.39999389648</ele>
        <time>2013-05-10T08:02:36.000Z</time>
      </trkpt>
      <trkpt lat="46.26993" lon="6.16549">
        <ele>388.79998779297</ele>
        <time>2013-05-10T08:02:45.000Z</time>
      </trkpt>
      <trkpt lat="46.27038" lon="6.16577">
        <ele>388.39999389648</ele>
        <time>2013-05-10T08:02:51.000Z</time>
      </trkpt>
      <trkpt lat="46.27108" lon="6.16616">
        <ele>388.39999389648</ele>
        <time>2013-05-10T08:03:00.000Z</time>
      </trkpt>
      <trkpt lat="46.27188" lon="6.16657">
        <ele>388.79998779297</ele>
        <time>2013-05-10T08:03:10.000Z</time>
      </trkpt>
      <trkpt lat="46.27218" lon="6.16674">
        <ele>388.39999389648</ele>
        <time>2013-05-10T08:03:14.000Z</time>
      </trkpt>
      <trkpt lat="46.27277" lon="6.16702">
        <ele>388.39999389648</ele>
        <time>2013-05-10T08:03:22.000Z</time>
      </trkpt>
      <trkpt lat="46.27292" lon="6.16711">
        <ele>388</ele>
        <time>2013-05-10T08:03:24.000Z</time>
      </trkpt>
      <trkpt lat="46.27334" lon="6.16734">
        <ele>389.39999389648</ele>
        <time>2013-05-10T08:03:30.000Z</time>
      </trkpt>
      <trkpt lat="46.27364" lon="6.16748">
        <ele>389.79998779297</ele>
        <time>2013-05-10T08:03:34.000Z</time>
      </trkpt>
      <trkpt lat="46.27388" lon="6.16756">
        <ele>388.79998779297</ele>
        <time>2013-05-10T08:03:37.000Z</time>
      </trkpt>
      <trkpt lat="46.27422" lon="6.16782">
        <ele>386</ele>
        <time>2013-05-10T08:03:42.000Z</time>
      </trkpt>
      <trkpt lat="46.27464" lon="6.1684">
        <ele>382.60000610352</ele>
        <time>2013-05-10T08:03:48.000Z</time>
      </trkpt>
      <trkpt lat="46.27486" lon="6.16865">
        <ele>382.20001220703</ele>
        <time>2013-05-10T08:03:52.000Z</time>
      </trkpt>
      <trkpt lat="46.27491" lon="6.16869">
        <ele>381.60000610352</ele>
        <time>2013-05-10T08:03:53.000Z</time>
      </trkpt>
      <trkpt lat="46.27509" lon="6.16883">
        <ele>381.60000610352</ele>
        <time>2013-05-10T08:03:57.000Z</time>
      </trkpt>
      <trkpt lat="46.27526" lon="6.16897">
        <ele>381.60000610352</ele>
        <time>2013-05-10T08:04:01.000Z</time>
      </trkpt>
      <trkpt lat="46.27554" lon="6.16922">
        <ele>380.20001220703</ele>
        <time>2013-05-10T08:04:06.000Z</time>
      </trkpt>
      <trkpt lat="46.27582" lon="6.16944">
        <ele>379.79998779297</ele>
        <time>2013-05-10T08:04:10.000Z</time>
      </trkpt>
      <trkpt lat="46.27613" lon="6.16959">
        <ele>378.79998779297</ele>
        <time>2013-05-10T08:04:14.000Z</time>
      </trkpt>
      <trkpt lat="46.27647" lon="6.16961">
        <ele>377.39999389648</ele>
        <time>2013-05-10T08:04:18.000Z</time>
      </trkpt>
      <trkpt lat="46.27655" lon="6.16957">
        <ele>377.39999389648</ele>
        <time>2013-05-10T08:04:19.000Z</time>
      </trkpt>
      <trkpt lat="46.27717" lon="6.16919">
        <ele>374.39999389648</ele>
        <time>2013-05-10T08:04:27.000Z</time>
      </trkpt>
      <trkpt lat="46.27775" lon="6.16881">
        <ele>375.39999389648</ele>
        <time>2013-05-10T08:04:35.000Z</time>
      </trkpt>
      <trkpt lat="46.27837" lon="6.16841">
        <ele>377.39999389648</ele>
        <time>2013-05-10T08:04:44.000Z</time>
      </trkpt>
      <trkpt lat="46.27893" lon="6.16805">
        <ele>378.39999389648</ele>
        <time>2013-05-10T08:04:52.000Z</time>
      </trkpt>
      <trkpt lat="46.27934" lon="6.16779">
        <ele>379.79998779297</ele>
        <time>2013-05-10T08:04:58.000Z</time>
      </trkpt>
      <trkpt lat="46.28" lon="6.16731">
        <ele>387.39999389648</ele>
        <time>2013-05-10T08:05:08.000Z</time>
      </trkpt>
      <trkpt lat="46.28057" lon="6.16696">
        <ele>389.39999389648</ele>
        <time>2013-05-10T08:05:17.000Z</time>
      </trkpt>
      <trkpt lat="46.28105" lon="6.16667">
        <ele>390.39999389648</ele>
        <time>2013-05-10T08:05:25.000Z</time>
      </trkpt>
      <trkpt lat="46.28145" lon="6.16644">
        <ele>394.60000610352</ele>
        <time>2013-05-10T08:05:32.000Z</time>
      </trkpt>
      <trkpt lat="46.28181" lon="6.16618">
        <ele>397</ele>
        <time>2013-05-10T08:05:38.000Z</time>
      </trkpt>
      <trkpt lat="46.28217" lon="6.16598">
        <ele>396.60000610352</ele>
        <time>2013-05-10T08:05:44.000Z</time>
      </trkpt>
      <trkpt lat="46.28257" lon="6.16594">
        <ele>396.60000610352</ele>
        <time>2013-05-10T08:05:50.000Z</time>
      </trkpt>
      <trkpt lat="46.28307" lon="6.16593">
        <ele>394.20001220703</ele>
        <time>2013-05-10T08:05:57.000Z</time>
      </trkpt>
      <trkpt lat="46.28395" lon="6.16591">
        <ele>392.20001220703</ele>
        <time>2013-05-10T08:06:09.000Z</time>
      </trkpt>
      <trkpt lat="46.28455" lon="6.16589">
        <ele>392.79998779297</ele>
        <time>2013-05-10T08:06:17.000Z</time>
      </trkpt>
      <trkpt lat="46.285" lon="6.16589">
        <ele>391.79998779297</ele>
        <time>2013-05-10T08:06:23.000Z</time>
      </trkpt>
      <trkpt lat="46.28554" lon="6.16588">
        <ele>391.79998779297</ele>
        <time>2013-05-10T08:06:31.000Z</time>
      </trkpt>
      <trkpt lat="46.28613" lon="6.16586">
        <ele>391.79998779297</ele>
        <time>2013-05-10T08:06:39.000Z</time>
      </trkpt>
      <trkpt lat="46.28667" lon="6.16585">
        <ele>390.39999389648</ele>
        <time>2013-05-10T08:06:46.000Z</time>
      </trkpt>
      <trkpt lat="46.28717" lon="6.16584">
        <ele>390.39999389648</ele>
        <time>2013-05-10T08:06:53.000Z</time>
      </trkpt>
      <trkpt lat="46.2875" lon="6.16583">
        <ele>389.79998779297</ele>
        <time>2013-05-10T08:06:58.000Z</time>
      </trkpt>
      <trkpt lat="46.28795" lon="6.16582">
        <ele>390.39999389648</ele>
        <time>2013-05-10T08:07:04.000Z</time>
      </trkpt>
      <trkpt lat="46.28857" lon="6.1658">
        <ele>390.79998779297</ele>
        <time>2013-05-10T08:07:12.000Z</time>
      </trkpt>
      <trkpt lat="46.28926" lon="6.1658">
        <ele>392.79998779297</ele>
        <time>2013-05-10T08:07:21.000Z</time>
      </trkpt>
      <trkpt lat="46.28975" lon="6.16581">
        <ele>394.60000610352</ele>
        <time>2013-05-10T08:07:28.000Z</time>
      </trkpt>
      <trkpt lat="46.29031" lon="6.16585">
        <ele>394.20001220703</ele>
        <time>2013-05-10T08:07:36.000Z</time>
      </trkpt>
      <trkpt lat="46.29083" lon="6.16584">
        <ele>393.20001220703</ele>
        <time>2013-05-10T08:07:43.000Z</time>
      </trkpt>
      <trkpt lat="46.29157" lon="6.16581">
        <ele>393.20001220703</ele>
        <time>2013-05-10T08:07:53.000Z</time>
      </trkpt>
      <trkpt lat="46.29216" lon="6.16579">
        <ele>392.79998779297</ele>
        <time>2013-05-10T08:08:01.000Z</time>
      </trkpt>
      <trkpt lat="46.29262" lon="6.16582">
        <ele>392.20001220703</ele>
        <time>2013-05-10T08:08:07.000Z</time>
      </trkpt>
      <trkpt lat="46.29318" lon="6.16599">
        <ele>390.39999389648</ele>
        <time>2013-05-10T08:08:14.000Z</time>
      </trkpt>
      <trkpt lat="46.29373" lon="6.16626">
        <ele>391.20001220703</ele>
        <time>2013-05-10T08:08:21.000Z</time>
      </trkpt>
      <trkpt lat="46.29422" lon="6.16654">
        <ele>391.79998779297</ele>
        <time>2013-05-10T08:08:27.000Z</time>
      </trkpt>
      <trkpt lat="46.29479" lon="6.16688">
        <ele>393.20001220703</ele>
        <time>2013-05-10T08:08:34.000Z</time>
      </trkpt>
      <trkpt lat="46.29526" lon="6.1672">
        <ele>392.79998779297</ele>
        <time>2013-05-10T08:08:40.000Z</time>
      </trkpt>
      <trkpt lat="46.29575" lon="6.16752">
        <ele>392.79998779297</ele>
        <time>2013-05-10T08:08:47.000Z</time>
      </trkpt>
      <trkpt lat="46.29631" lon="6.16792">
        <ele>393.60000610352</ele>
        <time>2013-05-10T08:08:55.000Z</time>
      </trkpt>
      <trkpt lat="46.29692" lon="6.16846">
        <ele>394.60000610352</ele>
        <time>2013-05-10T08:09:04.000Z</time>
      </trkpt>
      <trkpt lat="46.29699" lon="6.16853">
        <ele>394.20001220703</ele>
        <time>2013-05-10T08:09:05.000Z</time>
      </trkpt>
      <trkpt lat="46.29734" lon="6.16904">
        <ele>391.20001220703</ele>
        <time>2013-05-10T08:09:11.000Z</time>
      </trkpt>
      <trkpt lat="46.29777" lon="6.16941">
        <ele>390.39999389648</ele>
        <time>2013-05-10T08:09:17.000Z</time>
      </trkpt>
      <trkpt lat="46.29806" lon="6.16979">
        <ele>389.79998779297</ele>
        <time>2013-05-10T08:09:22.000Z</time>
      </trkpt>
      <trkpt lat="46.29852" lon="6.17041">
        <ele>388.39999389648</ele>
        <time>2013-05-10T08:09:30.000Z</time>
      </trkpt>
      <trkpt lat="46.29899" lon="6.17121">
        <ele>387.39999389648</ele>
        <time>2013-05-10T08:09:39.000Z</time>
      </trkpt>
      <trkpt lat="46.29948" lon="6.17216">
        <ele>386</ele>
        <time>2013-05-10T08:09:49.000Z</time>
      </trkpt>
      <trkpt lat="46.29954" lon="6.17225">
        <ele>386</ele>
        <time>2013-05-10T08:09:50.000Z</time>
      </trkpt>
      <trkpt lat="46.29986" lon="6.17291">
        <ele>385</ele>
        <time>2013-05-10T08:09:57.000Z</time>
      </trkpt>
      <trkpt lat="46.30016" lon="6.17361">
        <ele>384.60000610352</ele>
        <time>2013-05-10T08:10:04.000Z</time>
      </trkpt>
      <trkpt lat="46.30045" lon="6.17419">
        <ele>384.60000610352</ele>
        <time>2013-05-10T08:10:10.000Z</time>
      </trkpt>
      <trkpt lat="46.30069" lon="6.17466">
        <ele>384.60000610352</ele>
        <time>2013-05-10T08:10:15.000Z</time>
      </trkpt>
      <trkpt lat="46.30104" lon="6.17525">
        <ele>384.60000610352</ele>
        <time>2013-05-10T08:10:22.000Z</time>
      </trkpt>
      <trkpt lat="46.30138" lon="6.17585">
        <ele>384</ele>
        <time>2013-05-10T08:10:29.000Z</time>
      </trkpt>
      <trkpt lat="46.3018" lon="6.17655">
        <ele>383.60000610352</ele>
        <time>2013-05-10T08:10:37.000Z</time>
      </trkpt>
      <trkpt lat="46.30244" lon="6.17752">
        <ele>383.20001220703</ele>
        <time>2013-05-10T08:10:48.000Z</time>
      </trkpt>
      <trkpt lat="46.30296" lon="6.17823">
        <ele>382.20001220703</ele>
        <time>2013-05-10T08:10:56.000Z</time>
      </trkpt>
      <trkpt lat="46.3036" lon="6.17906">
        <ele>380.79998779297</ele>
        <time>2013-05-10T08:11:05.000Z</time>
      </trkpt>
      <trkpt lat="46.30419" lon="6.17978">
        <ele>378.39999389648</ele>
        <time>2013-05-10T08:11:13.000Z</time>
      </trkpt>
      <trkpt lat="46.30494" lon="6.1806">
        <ele>377.39999389648</ele>
        <time>2013-05-10T08:11:23.000Z</time>
      </trkpt>
      <trkpt lat="46.30552" lon="6.18115">
        <ele>377.79998779297</ele>
        <time>2013-05-10T08:11:31.000Z</time>
      </trkpt>
      <trkpt lat="46.30623" lon="6.1818">
        <ele>378.39999389648</ele>
        <time>2013-05-10T08:11:41.000Z</time>
      </trkpt>
      <trkpt lat="46.30674" lon="6.18226">
        <ele>381.20001220703</ele>
        <time>2013-05-10T08:11:49.000Z</time>
      </trkpt>
      <trkpt lat="46.30712" lon="6.18261">
        <ele>383.60000610352</ele>
        <time>2013-05-10T08:11:56.000Z</time>
      </trkpt>
      <trkpt lat="46.30748" lon="6.18295">
        <ele>386.39999389648</ele>
        <time>2013-05-10T08:12:03.000Z</time>
      </trkpt>
      <trkpt lat="46.30787" lon="6.18332">
        <ele>389.39999389648</ele>
        <time>2013-05-10T08:12:11.000Z</time>
      </trkpt>
      <trkpt lat="46.30818" lon="6.18359">
        <ele>390.39999389648</ele>
        <time>2013-05-10T08:12:17.000Z</time>
      </trkpt>
      <trkpt lat="46.30866" lon="6.18406">
        <ele>389.39999389648</ele>
        <time>2013-05-10T08:12:26.000Z</time>
      </trkpt>
      <trkpt lat="46.30919" lon="6.18454">
        <ele>389.39999389648</ele>
        <time>2013-05-10T08:12:35.000Z</time>
      </trkpt>
      <trkpt lat="46.30964" lon="6.18495">
        <ele>388.79998779297</ele>
        <time>2013-05-10T08:12:42.000Z</time>
      </trkpt>
      <trkpt lat="46.31004" lon="6.18533">
        <ele>387.39999389648</ele>
        <time>2013-05-10T08:12:48.000Z</time>
      </trkpt>
      <trkpt lat="46.31062" lon="6.18588">
        <ele>386.39999389648</ele>
        <time>2013-05-10T08:12:56.000Z</time>
      </trkpt>
      <trkpt lat="46.31118" lon="6.18639">
        <ele>385.60000610352</ele>
        <time>2013-05-10T08:13:04.000Z</time>
      </trkpt>
      <trkpt lat="46.3118" lon="6.18696">
        <ele>385</ele>
        <time>2013-05-10T08:13:13.000Z</time>
      </trkpt>
      <trkpt lat="46.31221" lon="6.18732">
        <ele>385.60000610352</ele>
        <time>2013-05-10T08:13:19.000Z</time>
      </trkpt>
      <trkpt lat="46.31262" lon="6.1877">
        <ele>387</ele>
        <time>2013-05-10T08:13:25.000Z</time>
      </trkpt>
      <trkpt lat="46.31306" lon="6.18816">
        <ele>387.39999389648</ele>
        <time>2013-05-10T08:13:32.000Z</time>
      </trkpt>
      <trkpt lat="46.31341" lon="6.18864">
        <ele>386</ele>
        <time>2013-05-10T08:13:38.000Z</time>
      </trkpt>
      <trkpt lat="46.31379" lon="6.18928">
        <ele>385</ele>
        <time>2013-05-10T08:13:45.000Z</time>
      </trkpt>
      <trkpt lat="46.31421" lon="6.19004">
        <ele>383.60000610352</ele>
        <time>2013-05-10T08:13:53.000Z</time>
      </trkpt>
      <trkpt lat="46.31467" lon="6.19088">
        <ele>380.79998779297</ele>
        <time>2013-05-10T08:14:02.000Z</time>
      </trkpt>
      <trkpt lat="46.31491" lon="6.19132">
        <ele>379.20001220703</ele>
        <time>2013-05-10T08:14:07.000Z</time>
      </trkpt>
      <trkpt lat="46.31515" lon="6.19174">
        <ele>378.39999389648</ele>
        <time>2013-05-10T08:14:12.000Z</time>
      </trkpt>
      <trkpt lat="46.31538" lon="6.19217">
        <ele>377.39999389648</ele>
        <time>2013-05-10T08:14:17.000Z</time>
      </trkpt>
      <trkpt lat="46.31577" lon="6.19278">
        <ele>378.39999389648</ele>
        <time>2013-05-10T08:14:24.000Z</time>
      </trkpt>
      <trkpt lat="46.31592" lon="6.19305">
        <ele>377.79998779297</ele>
        <time>2013-05-10T08:14:27.000Z</time>
      </trkpt>
      <trkpt lat="46.31642" lon="6.19348">
        <ele>377.79998779297</ele>
        <time>2013-05-10T08:14:34.000Z</time>
      </trkpt>
      <trkpt lat="46.31686" lon="6.1938">
        <ele>381.60000610352</ele>
        <time>2013-05-10T08:14:40.000Z</time>
      </trkpt>
      <trkpt lat="46.31692" lon="6.19385">
        <ele>381.60000610352</ele>
        <time>2013-05-10T08:14:41.000Z</time>
      </trkpt>
      <trkpt lat="46.31716" lon="6.19411">
        <ele>380.79998779297</ele>
        <time>2013-05-10T08:14:45.000Z</time>
      </trkpt>
      <trkpt lat="46.31776" lon="6.1945">
        <ele>381.60000610352</ele>
        <time>2013-05-10T08:14:55.000Z</time>
      </trkpt>
      <trkpt lat="46.31831" lon="6.19481">
        <ele>383.60000610352</ele>
        <time>2013-05-10T08:15:04.000Z</time>
      </trkpt>
      <trkpt lat="46.31876" lon="6.19509">
        <ele>384.60000610352</ele>
        <time>2013-05-10T08:15:11.000Z</time>
      </trkpt>
      <trkpt lat="46.31932" lon="6.19541">
        <ele>386</ele>
        <time>2013-05-10T08:15:20.000Z</time>
      </trkpt>
      <trkpt lat="46.31975" lon="6.19565">
        <ele>387.39999389648</ele>
        <time>2013-05-10T08:15:27.000Z</time>
      </trkpt>
      <trkpt lat="46.31994" lon="6.19578">
        <ele>387.39999389648</ele>
        <time>2013-05-10T08:15:30.000Z</time>
      </trkpt>
      <trkpt lat="46.32043" lon="6.19603">
        <ele>388.79998779297</ele>
        <time>2013-05-10T08:15:38.000Z</time>
      </trkpt>
      <trkpt lat="46.32086" lon="6.19627">
        <ele>390.79998779297</ele>
        <time>2013-05-10T08:15:45.000Z</time>
      </trkpt>
      <trkpt lat="46.32132" lon="6.19653">
        <ele>390.79998779297</ele>
        <time>2013-05-10T08:15:52.000Z</time>
      </trkpt>
      <trkpt lat="46.32184" lon="6.19681">
        <ele>390.39999389648</ele>
        <time>2013-05-10T08:16:00.000Z</time>
      </trkpt>
      <trkpt lat="46.32249" lon="6.19717">
        <ele>389.39999389648</ele>
        <time>2013-05-10T08:16:10.000Z</time>
      </trkpt>
      <trkpt lat="46.32295" lon="6.19743">
        <ele>389.79998779297</ele>
        <time>2013-05-10T08:16:17.000Z</time>
      </trkpt>
      <trkpt lat="46.32369" lon="6.19785">
        <ele>388.79998779297</ele>
        <time>2013-05-10T08:16:28.000Z</time>
      </trkpt>
      <trkpt lat="46.32417" lon="6.1981">
        <ele>387.39999389648</ele>
        <time>2013-05-10T08:16:35.000Z</time>
      </trkpt>
      <trkpt lat="46.32484" lon="6.19839">
        <ele>384.60000610352</ele>
        <time>2013-05-10T08:16:44.000Z</time>
      </trkpt>
      <trkpt lat="46.32547" lon="6.19863">
        <ele>383.60000610352</ele>
        <time>2013-05-10T08:16:52.000Z</time>
      </trkpt>
      <trkpt lat="46.32593" lon="6.19882">
        <ele>383.60000610352</ele>
        <time>2013-05-10T08:16:58.000Z</time>
      </trkpt>
      <trkpt lat="46.32638" lon="6.19903">
        <ele>384</ele>
        <time>2013-05-10T08:17:04.000Z</time>
      </trkpt>
      <trkpt lat="46.32694" lon="6.19936">
        <ele>385.60000610352</ele>
        <time>2013-05-10T08:17:12.000Z</time>
      </trkpt>
      <trkpt lat="46.32741" lon="6.19965">
        <ele>387.39999389648</ele>
        <time>2013-05-10T08:17:19.000Z</time>
      </trkpt>
      <trkpt lat="46.32772" lon="6.19991">
        <ele>387</ele>
        <time>2013-05-10T08:17:24.000Z</time>
      </trkpt>
      <trkpt lat="46.32813" lon="6.20024">
        <ele>385.60000610352</ele>
        <time>2013-05-10T08:17:30.000Z</time>
      </trkpt>
      <trkpt lat="46.32882" lon="6.20082">
        <ele>383.60000610352</ele>
        <time>2013-05-10T08:17:40.000Z</time>
      </trkpt>
      <trkpt lat="46.32948" lon="6.20129">
        <ele>382.60000610352</ele>
        <time>2013-05-10T08:17:49.000Z</time>
      </trkpt>
      <trkpt lat="46.33021" lon="6.20172">
        <ele>382.20001220703</ele>
        <time>2013-05-10T08:17:58.000Z</time>
      </trkpt>
      <trkpt lat="46.33106" lon="6.20211">
        <ele>381.20001220703</ele>
        <time>2013-05-10T08:18:08.000Z</time>
      </trkpt>
      <trkpt lat="46.33184" lon="6.20235">
        <ele>380.20001220703</ele>
        <time>2013-05-10T08:18:17.000Z</time>
      </trkpt>
      <trkpt lat="46.33254" lon="6.20245">
        <ele>379.79998779297</ele>
        <time>2013-05-10T08:18:25.000Z</time>
      </trkpt>
      <trkpt lat="46.33332" lon="6.20248">
        <ele>381.20001220703</ele>
        <time>2013-05-10T08:18:34.000Z</time>
      </trkpt>
      <trkpt lat="46.33431" lon="6.20246">
        <ele>381.20001220703</ele>
        <time>2013-05-10T08:18:46.000Z</time>
      </trkpt>
      <trkpt lat="46.33515" lon="6.20246">
        <ele>380.79998779297</ele>
        <time>2013-05-10T08:18:56.000Z</time>
      </trkpt>
      <trkpt lat="46.33593" lon="6.20254">
        <ele>379.79998779297</ele>
        <time>2013-05-10T08:19:05.000Z</time>
      </trkpt>
      <trkpt lat="46.33663" lon="6.20271">
        <ele>378.79998779297</ele>
        <time>2013-05-10T08:19:13.000Z</time>
      </trkpt>
      <trkpt lat="46.33703" lon="6.20286">
        <ele>378.39999389648</ele>
        <time>2013-05-10T08:19:18.000Z</time>
      </trkpt>
      <trkpt lat="46.33757" lon="6.20307">
        <ele>379.79998779297</ele>
        <time>2013-05-10T08:19:25.000Z</time>
      </trkpt>
      <trkpt lat="46.33833" lon="6.20346">
        <ele>381.60000610352</ele>
        <time>2013-05-10T08:19:35.000Z</time>
      </trkpt>
      <trkpt lat="46.33896" lon="6.20388">
        <ele>382.60000610352</ele>
        <time>2013-05-10T08:19:44.000Z</time>
      </trkpt>
      <trkpt lat="46.33962" lon="6.2043">
        <ele>384</ele>
        <time>2013-05-10T08:19:53.000Z</time>
      </trkpt>
      <trkpt lat="46.34006" lon="6.20459">
        <ele>383.60000610352</ele>
        <time>2013-05-10T08:19:59.000Z</time>
      </trkpt>
      <trkpt lat="46.34048" lon="6.2049">
        <ele>384.60000610352</ele>
        <time>2013-05-10T08:20:05.000Z</time>
      </trkpt>
      <trkpt lat="46.34099" lon="6.20515">
        <ele>383.60000610352</ele>
        <time>2013-05-10T08:20:12.000Z</time>
      </trkpt>
      <trkpt lat="46.34135" lon="6.20527">
        <ele>383.60000610352</ele>
        <time>2013-05-10T08:20:17.000Z</time>
      </trkpt>
      <trkpt lat="46.34193" lon="6.20546">
        <ele>380.79998779297</ele>
        <time>2013-05-10T08:20:25.000Z</time>
      </trkpt>
      <trkpt lat="46.34238" lon="6.20556">
        <ele>381.60000610352</ele>
        <time>2013-05-10T08:20:31.000Z</time>
      </trkpt>
      <trkpt lat="46.34287" lon="6.20567">
        <ele>381.60000610352</ele>
        <time>2013-05-10T08:20:37.000Z</time>
      </trkpt>
      <trkpt lat="46.34344" lon="6.2058">
        <ele>380.20001220703</ele>
        <time>2013-05-10T08:20:44.000Z</time>
      </trkpt>
      <trkpt lat="46.34401" lon="6.20594">
        <ele>379.20001220703</ele>
        <time>2013-05-10T08:20:51.000Z</time>
      </trkpt>
      <trkpt lat="46.34483" lon="6.20615">
        <ele>378.79998779297</ele>
        <time>2013-05-10T08:21:01.000Z</time>
      </trkpt>
      <trkpt lat="46.3454" lon="6.20628">
        <ele>379.20001220703</ele>
        <time>2013-05-10T08:21:08.000Z</time>
      </trkpt>
      <trkpt lat="46.34555" lon="6.20633">
        <ele>379.20001220703</ele>
        <time>2013-05-10T08:21:10.000Z</time>
      </trkpt>
      <trkpt lat="46.34628" lon="6.20649">
        <ele>378.39999389648</ele>
        <time>2013-05-10T08:21:19.000Z</time>
      </trkpt>
      <trkpt lat="46.34691" lon="6.20663">
        <ele>378.79998779297</ele>
        <time>2013-05-10T08:21:27.000Z</time>
      </trkpt>
      <trkpt lat="46.34753" lon="6.20678">
        <ele>378.79998779297</ele>
        <time>2013-05-10T08:21:35.000Z</time>
      </trkpt>
      <trkpt lat="46.34809" lon="6.20692">
        <ele>378.79998779297</ele>
        <time>2013-05-10T08:21:42.000Z</time>
      </trkpt>
      <trkpt lat="46.34881" lon="6.20716">
        <ele>379.20001220703</ele>
        <time>2013-05-10T08:21:51.000Z</time>
      </trkpt>
      <trkpt lat="46.3495" lon="6.20749">
        <ele>380.20001220703</ele>
        <time>2013-05-10T08:22:00.000Z</time>
      </trkpt>
      <trkpt lat="46.35001" lon="6.20778">
        <ele>381.20001220703</ele>
        <time>2013-05-10T08:22:07.000Z</time>
      </trkpt>
      <trkpt lat="46.35059" lon="6.20817">
        <ele>382.20001220703</ele>
        <time>2013-05-10T08:22:15.000Z</time>
      </trkpt>
      <trkpt lat="46.35107" lon="6.20857">
        <ele>382.60000610352</ele>
        <time>2013-05-10T08:22:22.000Z</time>
      </trkpt>
      <trkpt lat="46.35164" lon="6.20908">
        <ele>383.20001220703</ele>
        <time>2013-05-10T08:22:30.000Z</time>
      </trkpt>
      <trkpt lat="46.35221" lon="6.20961">
        <ele>381.60000610352</ele>
        <time>2013-05-10T08:22:38.000Z</time>
      </trkpt>
      <trkpt lat="46.35277" lon="6.21014">
        <ele>381.60000610352</ele>
        <time>2013-05-10T08:22:46.000Z</time>
      </trkpt>
      <trkpt lat="46.35324" lon="6.21063">
        <ele>382.20001220703</ele>
        <time>2013-05-10T08:22:53.000Z</time>
      </trkpt>
      <trkpt lat="46.35344" lon="6.21087">
        <ele>381.60000610352</ele>
        <time>2013-05-10T08:22:56.000Z</time>
      </trkpt>
      <trkpt lat="46.35401" lon="6.21139">
        <ele>380.20001220703</ele>
        <time>2013-05-10T08:23:04.000Z</time>
      </trkpt>
      <trkpt lat="46.35453" lon="6.21184">
        <ele>380.79998779297</ele>
        <time>2013-05-10T08:23:11.000Z</time>
      </trkpt>
      <trkpt lat="46.35497" lon="6.21224">
        <ele>380.79998779297</ele>
        <time>2013-05-10T08:23:17.000Z</time>
      </trkpt>
      <trkpt lat="46.35601" lon="6.21324">
        <ele>381.20001220703</ele>
        <time>2013-05-10T08:23:32.000Z</time>
      </trkpt>
      <trkpt lat="46.35712" lon="6.21431">
        <ele>383.20001220703</ele>
        <time>2013-05-10T08:23:48.000Z</time>
      </trkpt>
      <trkpt lat="46.35753" lon="6.21471">
        <ele>383.20001220703</ele>
        <time>2013-05-10T08:23:54.000Z</time>
      </trkpt>
      <trkpt lat="46.35822" lon="6.21539">
        <ele>382.60000610352</ele>
        <time>2013-05-10T08:24:04.000Z</time>
      </trkpt>
      <trkpt lat="46.3585" lon="6.21566">
        <ele>382.20001220703</ele>
        <time>2013-05-10T08:24:09.000Z</time>
      </trkpt>
      <trkpt lat="46.35859" lon="6.21575">
        <ele>382.20001220703</ele>
        <time>2013-05-10T08:24:11.000Z</time>
      </trkpt>
      <trkpt lat="46.35869" lon="6.21582">
        <ele>382.20001220703</ele>
        <time>2013-05-10T08:24:13.000Z</time>
      </trkpt>
      <trkpt lat="46.35882" lon="6.21595">
        <ele>382.20001220703</ele>
        <time>2013-05-10T08:24:16.000Z</time>
      </trkpt>
      <trkpt lat="46.3589" lon="6.21609">
        <ele>382.20001220703</ele>
        <time>2013-05-10T08:24:18.000Z</time>
      </trkpt>
      <trkpt lat="46.35924" lon="6.21648">
        <ele>382.20001220703</ele>
        <time>2013-05-10T08:24:24.000Z</time>
      </trkpt>
      <trkpt lat="46.35955" lon="6.21683">
        <ele>382.20001220703</ele>
        <time>2013-05-10T08:24:29.000Z</time>
      </trkpt>
      <trkpt lat="46.36012" lon="6.21746">
        <ele>382.60000610352</ele>
        <time>2013-05-10T08:24:38.000Z</time>
      </trkpt>
      <trkpt lat="46.3607" lon="6.21807">
        <ele>383.60000610352</ele>
        <time>2013-05-10T08:24:47.000Z</time>
      </trkpt>
      <trkpt lat="46.36143" lon="6.21878">
        <ele>384</ele>
        <time>2013-05-10T08:24:58.000Z</time>
      </trkpt>
      <trkpt lat="46.36212" lon="6.21938">
        <ele>386</ele>
        <time>2013-05-10T08:25:08.000Z</time>
      </trkpt>
      <trkpt lat="46.36268" lon="6.21983">
        <ele>387</ele>
        <time>2013-05-10T08:25:16.000Z</time>
      </trkpt>
      <trkpt lat="46.36331" lon="6.22028">
        <ele>388.79998779297</ele>
        <time>2013-05-10T08:25:25.000Z</time>
      </trkpt>
      <trkpt lat="46.36402" lon="6.22079">
        <ele>389.79998779297</ele>
        <time>2013-05-10T08:25:35.000Z</time>
      </trkpt>
      <trkpt lat="46.36461" lon="6.2212">
        <ele>390.79998779297</ele>
        <time>2013-05-10T08:25:43.000Z</time>
      </trkpt>
      <trkpt lat="46.36526" lon="6.22165">
        <ele>392.20001220703</ele>
        <time>2013-05-10T08:25:52.000Z</time>
      </trkpt>
      <trkpt lat="46.36605" lon="6.22222">
        <ele>392.20001220703</ele>
        <time>2013-05-10T08:26:03.000Z</time>
      </trkpt>
      <trkpt lat="46.36677" lon="6.22282">
        <ele>391.79998779297</ele>
        <time>2013-05-10T08:26:13.000Z</time>
      </trkpt>
      <trkpt lat="46.36743" lon="6.2235">
        <ele>391.79998779297</ele>
        <time>2013-05-10T08:26:23.000Z</time>
      </trkpt>
      <trkpt lat="46.36789" lon="6.22413">
        <ele>391.20001220703</ele>
        <time>2013-05-10T08:26:31.000Z</time>
      </trkpt>
      <trkpt lat="46.36831" lon="6.22478">
        <ele>390.79998779297</ele>
        <time>2013-05-10T08:26:39.000Z</time>
      </trkpt>
      <trkpt lat="46.36863" lon="6.22526">
        <ele>390.39999389648</ele>
        <time>2013-05-10T08:26:45.000Z</time>
      </trkpt>
      <trkpt lat="46.3689" lon="6.22578">
        <ele>390.39999389648</ele>
        <time>2013-05-10T08:26:51.000Z</time>
      </trkpt>
      <trkpt lat="46.36931" lon="6.22659">
        <ele>391.20001220703</ele>
        <time>2013-05-10T08:27:01.000Z</time>
      </trkpt>
      <trkpt lat="46.36983" lon="6.22768">
        <ele>392.79998779297</ele>
        <time>2013-05-10T08:27:14.000Z</time>
      </trkpt>
      <trkpt lat="46.37017" lon="6.22836">
        <ele>392.20001220703</ele>
        <time>2013-05-10T08:27:22.000Z</time>
      </trkpt>
      <trkpt lat="46.37047" lon="6.22895">
        <ele>392.20001220703</ele>
        <time>2013-05-10T08:27:29.000Z</time>
      </trkpt>
      <trkpt lat="46.37079" lon="6.22948">
        <ele>392.79998779297</ele>
        <time>2013-05-10T08:27:36.000Z</time>
      </trkpt>
      <trkpt lat="46.37121" lon="6.23011">
        <ele>393.60000610352</ele>
        <time>2013-05-10T08:27:45.000Z</time>
      </trkpt>
      <trkpt lat="46.37162" lon="6.23063">
        <ele>393.60000610352</ele>
        <time>2013-05-10T08:27:53.000Z</time>
      </trkpt>
      <trkpt lat="46.37199" lon="6.23105">
        <ele>392.79998779297</ele>
        <time>2013-05-10T08:27:59.000Z</time>
      </trkpt>
      <trkpt lat="46.37252" lon="6.23164">
        <ele>391.79998779297</ele>
        <time>2013-05-10T08:28:07.000Z</time>
      </trkpt>
      <trkpt lat="46.37305" lon="6.23221">
        <ele>388.79998779297</ele>
        <time>2013-05-10T08:28:14.000Z</time>
      </trkpt>
      <trkpt lat="46.37365" lon="6.23284">
        <ele>386</ele>
        <time>2013-05-10T08:28:21.000Z</time>
      </trkpt>
      <trkpt lat="46.37411" lon="6.23322">
        <ele>385</ele>
        <time>2013-05-10T08:28:26.000Z</time>
      </trkpt>
      <trkpt lat="46.37497" lon="6.23388">
        <ele>385.60000610352</ele>
        <time>2013-05-10T08:28:36.000Z</time>
      </trkpt>
      <trkpt lat="46.37597" lon="6.23464">
        <ele>385</ele>
        <time>2013-05-10T08:28:48.000Z</time>
      </trkpt>
      <trkpt lat="46.37661" lon="6.23515">
        <ele>384.60000610352</ele>
        <time>2013-05-10T08:28:56.000Z</time>
      </trkpt>
      <trkpt lat="46.37695" lon="6.2356">
        <ele>383.60000610352</ele>
        <time>2013-05-10T08:29:01.000Z</time>
      </trkpt>
      <trkpt lat="46.37721" lon="6.23615">
        <ele>383.20001220703</ele>
        <time>2013-05-10T08:29:06.000Z</time>
      </trkpt>
      <trkpt lat="46.37763" lon="6.23704">
        <ele>380.79998779297</ele>
        <time>2013-05-10T08:29:14.000Z</time>
      </trkpt>
      <trkpt lat="46.37794" lon="6.23768">
        <ele>379.79998779297</ele>
        <time>2013-05-10T08:29:20.000Z</time>
      </trkpt>
      <trkpt lat="46.37813" lon="6.23805">
        <ele>379.20001220703</ele>
        <time>2013-05-10T08:29:24.000Z</time>
      </trkpt>
      <trkpt lat="46.37827" lon="6.23838">
        <ele>379.79998779297</ele>
        <time>2013-05-10T08:29:28.000Z</time>
      </trkpt>
      <trkpt lat="46.37839" lon="6.23849">
        <ele>379.79998779297</ele>
        <time>2013-05-10T08:29:30.000Z</time>
      </trkpt>
      <trkpt lat="46.37878" lon="6.239">
        <ele>378.79998779297</ele>
        <time>2013-05-10T08:29:37.000Z</time>
      </trkpt>
      <trkpt lat="46.37935" lon="6.23977">
        <ele>377.39999389648</ele>
        <time>2013-05-10T08:29:46.000Z</time>
      </trkpt>
      <trkpt lat="46.37991" lon="6.24056">
        <ele>376.39999389648</ele>
        <time>2013-05-10T08:29:55.000Z</time>
      </trkpt>
      <trkpt lat="46.37997" lon="6.24065">
        <ele>376.39999389648</ele>
        <time>2013-05-10T08:29:56.000Z</time>
      </trkpt>
      <trkpt lat="46.38025" lon="6.24133">
        <ele>375.39999389648</ele>
        <time>2013-05-10T08:30:02.000Z</time>
      </trkpt>
      <trkpt lat="46.38034" lon="6.24155">
        <ele>375.39999389648</ele>
        <time>2013-05-10T08:30:04.000Z</time>
      </trkpt>
      <trkpt lat="46.3806" lon="6.2419">
        <ele>375.39999389648</ele>
        <time>2013-05-10T08:30:08.000Z</time>
      </trkpt>
      <trkpt lat="46.38089" lon="6.24217">
        <ele>376</ele>
        <time>2013-05-10T08:30:12.000Z</time>
      </trkpt>
      <trkpt lat="46.3813" lon="6.24257">
        <ele>376.79998779297</ele>
        <time>2013-05-10T08:30:18.000Z</time>
      </trkpt>
      <trkpt lat="46.38206" lon="6.24328">
        <ele>376.39999389648</ele>
        <time>2013-05-10T08:30:29.000Z</time>
      </trkpt>
      <trkpt lat="46.38214" lon="6.24334">
        <ele>376.79998779297</ele>
        <time>2013-05-10T08:30:30.000Z</time>
      </trkpt>
      <trkpt lat="46.38255" lon="6.24348">
        <ele>376.79998779297</ele>
        <time>2013-05-10T08:30:35.000Z</time>
      </trkpt>
      <trkpt lat="46.38295" lon="6.24366">
        <ele>377.39999389648</ele>
        <time>2013-05-10T08:30:40.000Z</time>
      </trkpt>
      <trkpt lat="46.38336" lon="6.24398">
        <ele>378.79998779297</ele>
        <time>2013-05-10T08:30:46.000Z</time>
      </trkpt>
      <trkpt lat="46.3837" lon="6.24441">
        <ele>379.20001220703</ele>
        <time>2013-05-10T08:30:52.000Z</time>
      </trkpt>
      <trkpt lat="46.38407" lon="6.24508">
        <ele>378.79998779297</ele>
        <time>2013-05-10T08:31:00.000Z</time>
      </trkpt>
      <trkpt lat="46.38452" lon="6.24572">
        <ele>376.39999389648</ele>
        <time>2013-05-10T08:31:08.000Z</time>
      </trkpt>
      <trkpt lat="46.38487" lon="6.24598">
        <ele>376</ele>
        <time>2013-05-10T08:31:13.000Z</time>
      </trkpt>
      <trkpt lat="46.38531" lon="6.24619">
        <ele>378.39999389648</ele>
        <time>2013-05-10T08:31:19.000Z</time>
      </trkpt>
      <trkpt lat="46.38608" lon="6.24646">
        <ele>379.79998779297</ele>
        <time>2013-05-10T08:31:29.000Z</time>
      </trkpt>
      <trkpt lat="46.38677" lon="6.24674">
        <ele>381.60000610352</ele>
        <time>2013-05-10T08:31:38.000Z</time>
      </trkpt>
      <trkpt lat="46.38722" lon="6.24706">
        <ele>382.60000610352</ele>
        <time>2013-05-10T08:31:45.000Z</time>
      </trkpt>
      <trkpt lat="46.38755" lon="6.24743">
        <ele>382.60000610352</ele>
        <time>2013-05-10T08:31:51.000Z</time>
      </trkpt>
      <trkpt lat="46.38807" lon="6.24807">
        <ele>383.20001220703</ele>
        <time>2013-05-10T08:32:01.000Z</time>
      </trkpt>
      <trkpt lat="46.38835" lon="6.24839">
        <ele>383.60000610352</ele>
        <time>2013-05-10T08:32:06.000Z</time>
      </trkpt>
      <trkpt lat="46.38865" lon="6.24881">
        <ele>383.20001220703</ele>
        <time>2013-05-10T08:32:12.000Z</time>
      </trkpt>
      <trkpt lat="46.38902" lon="6.24927">
        <ele>383.60000610352</ele>
        <time>2013-05-10T08:32:19.000Z</time>
      </trkpt>
      <trkpt lat="46.38939" lon="6.24975">
        <ele>383.20001220703</ele>
        <time>2013-05-10T08:32:26.000Z</time>
      </trkpt>
      <trkpt lat="46.39001" lon="6.25053">
        <ele>383.60000610352</ele>
        <time>2013-05-10T08:32:37.000Z</time>
      </trkpt>
      <trkpt lat="46.39064" lon="6.25134">
        <ele>385</ele>
        <time>2013-05-10T08:32:48.000Z</time>
      </trkpt>
      <trkpt lat="46.39115" lon="6.25199">
        <ele>386</ele>
        <time>2013-05-10T08:32:57.000Z</time>
      </trkpt>
      <trkpt lat="46.39151" lon="6.25243">
        <ele>387.39999389648</ele>
        <time>2013-05-10T08:33:03.000Z</time>
      </trkpt>
      <trkpt lat="46.39216" lon="6.25325">
        <ele>387.39999389648</ele>
        <time>2013-05-10T08:33:14.000Z</time>
      </trkpt>
      <trkpt lat="46.39247" lon="6.25364">
        <ele>387</ele>
        <time>2013-05-10T08:33:19.000Z</time>
      </trkpt>
      <trkpt lat="46.39297" lon="6.25427">
        <ele>387</ele>
        <time>2013-05-10T08:33:27.000Z</time>
      </trkpt>
      <trkpt lat="46.39345" lon="6.25487">
        <ele>387.39999389648</ele>
        <time>2013-05-10T08:33:35.000Z</time>
      </trkpt>
      <trkpt lat="46.39406" lon="6.25563">
        <ele>388.79998779297</ele>
        <time>2013-05-10T08:33:45.000Z</time>
      </trkpt>
      <trkpt lat="46.39447" lon="6.25615">
        <ele>389.79998779297</ele>
        <time>2013-05-10T08:33:52.000Z</time>
      </trkpt>
      <trkpt lat="46.39496" lon="6.25677">
        <ele>389.79998779297</ele>
        <time>2013-05-10T08:34:00.000Z</time>
      </trkpt>
      <trkpt lat="46.39552" lon="6.25747">
        <ele>391.20001220703</ele>
        <time>2013-05-10T08:34:09.000Z</time>
      </trkpt>
      <trkpt lat="46.39604" lon="6.25813">
        <ele>392.79998779297</ele>
        <time>2013-05-10T08:34:18.000Z</time>
      </trkpt>
      <trkpt lat="46.39641" lon="6.25858">
        <ele>393.60000610352</ele>
        <time>2013-05-10T08:34:25.000Z</time>
      </trkpt>
      <trkpt lat="46.39669" lon="6.25893">
        <ele>394.20001220703</ele>
        <time>2013-05-10T08:34:31.000Z</time>
      </trkpt>
      <trkpt lat="46.39698" lon="6.2593">
        <ele>395.20001220703</ele>
        <time>2013-05-10T08:34:38.000Z</time>
      </trkpt>
      <trkpt lat="46.3971" lon="6.25945">
        <ele>396.20001220703</ele>
        <time>2013-05-10T08:34:41.000Z</time>
      </trkpt>
      <trkpt lat="46.39747" lon="6.2599">
        <ele>398.60000610352</ele>
        <time>2013-05-10T08:34:50.000Z</time>
      </trkpt>
      <trkpt lat="46.39782" lon="6.26035">
        <ele>400</ele>
        <time>2013-05-10T08:34:58.000Z</time>
      </trkpt>
      <trkpt lat="46.39821" lon="6.26084">
        <ele>401</ele>
        <time>2013-05-10T08:35:06.000Z</time>
      </trkpt>
      <trkpt lat="46.39876" lon="6.26157">
        <ele>403.39999389648</ele>
        <time>2013-05-10T08:35:17.000Z</time>
      </trkpt>
      <trkpt lat="46.3994" lon="6.26238">
        <ele>405.20001220703</ele>
        <time>2013-05-10T08:35:29.000Z</time>
      </trkpt>
      <trkpt lat="46.4" lon="6.26314">
        <ele>406.60000610352</ele>
        <time>2013-05-10T08:35:40.000Z</time>
      </trkpt>
      <trkpt lat="46.4005" lon="6.26378">
        <ele>407.60000610352</ele>
        <time>2013-05-10T08:35:49.000Z</time>
      </trkpt>
      <trkpt lat="46.40101" lon="6.26441">
        <ele>407.20001220703</ele>
        <time>2013-05-10T08:35:58.000Z</time>
      </trkpt>
      <trkpt lat="46.40158" lon="6.26513">
        <ele>406.60000610352</ele>
        <time>2013-05-10T08:36:08.000Z</time>
      </trkpt>
      <trkpt lat="46.40215" lon="6.26585">
        <ele>407.20001220703</ele>
        <time>2013-05-10T08:36:18.000Z</time>
      </trkpt>
      <trkpt lat="46.40275" lon="6.26661">
        <ele>407.60000610352</ele>
        <time>2013-05-10T08:36:28.000Z</time>
      </trkpt>
      <trkpt lat="46.40336" lon="6.26735">
        <ele>408.60000610352</ele>
        <time>2013-05-10T08:36:38.000Z</time>
      </trkpt>
      <trkpt lat="46.40389" lon="6.26785">
        <ele>409</ele>
        <time>2013-05-10T08:36:46.000Z</time>
      </trkpt>
      <trkpt lat="46.40442" lon="6.26819">
        <ele>408.20001220703</ele>
        <time>2013-05-10T08:36:53.000Z</time>
      </trkpt>
      <trkpt lat="46.40486" lon="6.26839">
        <ele>407.20001220703</ele>
        <time>2013-05-10T08:36:58.000Z</time>
      </trkpt>
      <trkpt lat="46.40549" lon="6.26858">
        <ele>405.79998779297</ele>
        <time>2013-05-10T08:37:04.000Z</time>
      </trkpt>
      <trkpt lat="46.40622" lon="6.26891">
        <ele>402.39999389648</ele>
        <time>2013-05-10T08:37:11.000Z</time>
      </trkpt>
      <trkpt lat="46.40667" lon="6.26925">
        <ele>402.39999389648</ele>
        <time>2013-05-10T08:37:16.000Z</time>
      </trkpt>
      <trkpt lat="46.40703" lon="6.26962">
        <ele>403.39999389648</ele>
        <time>2013-05-10T08:37:21.000Z</time>
      </trkpt>
      <trkpt lat="46.4074" lon="6.27006">
        <ele>404.20001220703</ele>
        <time>2013-05-10T08:37:28.000Z</time>
      </trkpt>
      <trkpt lat="46.40783" lon="6.27056">
        <ele>406.20001220703</ele>
        <time>2013-05-10T08:37:36.000Z</time>
      </trkpt>
      <trkpt lat="46.4083" lon="6.27112">
        <ele>406.60000610352</ele>
        <time>2013-05-10T08:37:45.000Z</time>
      </trkpt>
      <trkpt lat="46.40869" lon="6.27157">
        <ele>407.60000610352</ele>
        <time>2013-05-10T08:37:52.000Z</time>
      </trkpt>
      <trkpt lat="46.40934" lon="6.27232">
        <ele>408.20001220703</ele>
        <time>2013-05-10T08:38:03.000Z</time>
      </trkpt>
      <trkpt lat="46.40975" lon="6.27283">
        <ele>407.60000610352</ele>
        <time>2013-05-10T08:38:10.000Z</time>
      </trkpt>
      <trkpt lat="46.41028" lon="6.27344">
        <ele>407.60000610352</ele>
        <time>2013-05-10T08:38:18.000Z</time>
      </trkpt>
      <trkpt lat="46.41079" lon="6.27404">
        <ele>407.60000610352</ele>
        <time>2013-05-10T08:38:26.000Z</time>
      </trkpt>
      <trkpt lat="46.41119" lon="6.27451">
        <ele>406.60000610352</ele>
        <time>2013-05-10T08:38:32.000Z</time>
      </trkpt>
      <trkpt lat="46.4118" lon="6.2752">
        <ele>405.79998779297</ele>
        <time>2013-05-10T08:38:41.000Z</time>
      </trkpt>
      <trkpt lat="46.41245" lon="6.27597">
        <ele>404.79998779297</ele>
        <time>2013-05-10T08:38:51.000Z</time>
      </trkpt>
      <trkpt lat="46.41304" lon="6.27666">
        <ele>403.79998779297</ele>
        <time>2013-05-10T08:39:00.000Z</time>
      </trkpt>
      <trkpt lat="46.41362" lon="6.27734">
        <ele>403.39999389648</ele>
        <time>2013-05-10T08:39:09.000Z</time>
      </trkpt>
      <trkpt lat="46.41419" lon="6.27799">
        <ele>402.39999389648</ele>
        <time>2013-05-10T08:39:18.000Z</time>
      </trkpt>
      <trkpt lat="46.41475" lon="6.27869">
        <ele>402.39999389648</ele>
        <time>2013-05-10T08:39:27.000Z</time>
      </trkpt>
      <trkpt lat="46.4152" lon="6.27919">
        <ele>401.39999389648</ele>
        <time>2013-05-10T08:39:34.000Z</time>
      </trkpt>
      <trkpt lat="46.41535" lon="6.27953">
        <ele>401.39999389648</ele>
        <time>2013-05-10T08:39:38.000Z</time>
      </trkpt>
      <trkpt lat="46.41538" lon="6.27968">
        <ele>401</ele>
        <time>2013-05-10T08:39:41.000Z</time>
      </trkpt>
      <trkpt lat="46.41549" lon="6.27965">
        <ele>401.39999389648</ele>
        <time>2013-05-10T08:39:44.000Z</time>
      </trkpt>
      <trkpt lat="46.41569" lon="6.27974">
        <ele>401.79998779297</ele>
        <time>2013-05-10T08:39:48.000Z</time>
      </trkpt>
      <trkpt lat="46.41608" lon="6.28016">
        <ele>400.39999389648</ele>
        <time>2013-05-10T08:39:55.000Z</time>
      </trkpt>
      <trkpt lat="46.41659" lon="6.28075">
        <ele>400</ele>
        <time>2013-05-10T08:40:03.000Z</time>
      </trkpt>
      <trkpt lat="46.4173" lon="6.28159">
        <ele>399</ele>
        <time>2013-05-10T08:40:14.000Z</time>
      </trkpt>
      <trkpt lat="46.41782" lon="6.2822">
        <ele>399</ele>
        <time>2013-05-10T08:40:22.000Z</time>
      </trkpt>
      <trkpt lat="46.41827" lon="6.28276">
        <ele>399</ele>
        <time>2013-05-10T08:40:29.000Z</time>
      </trkpt>
      <trkpt lat="46.41833" lon="6.28284">
        <ele>399</ele>
        <time>2013-05-10T08:40:30.000Z</time>
      </trkpt>
      <trkpt lat="46.4188" lon="6.28333">
        <ele>398</ele>
        <time>2013-05-10T08:40:37.000Z</time>
      </trkpt>
      <trkpt lat="46.41912" lon="6.2837">
        <ele>397.60000610352</ele>
        <time>2013-05-10T08:40:42.000Z</time>
      </trkpt>
      <trkpt lat="46.4195" lon="6.2841">
        <ele>397</ele>
        <time>2013-05-10T08:40:48.000Z</time>
      </trkpt>
      <trkpt lat="46.41963" lon="6.28426">
        <ele>397</ele>
        <time>2013-05-10T08:40:50.000Z</time>
      </trkpt>
      <trkpt lat="46.41979" lon="6.28452">
        <ele>397</ele>
        <time>2013-05-10T08:40:53.000Z</time>
      </trkpt>
      <trkpt lat="46.42006" lon="6.28478">
        <ele>396.60000610352</ele>
        <time>2013-05-10T08:40:57.000Z</time>
      </trkpt>
      <trkpt lat="46.42011" lon="6.28486">
        <ele>396.60000610352</ele>
        <time>2013-05-10T08:40:58.000Z</time>
      </trkpt>
      <trkpt lat="46.42057" lon="6.28539">
        <ele>396.20001220703</ele>
        <time>2013-05-10T08:41:05.000Z</time>
      </trkpt>
      <trkpt lat="46.42112" lon="6.28601">
        <ele>395.60000610352</ele>
        <time>2013-05-10T08:41:14.000Z</time>
      </trkpt>
      <trkpt lat="46.4215" lon="6.28646">
        <ele>394.60000610352</ele>
        <time>2013-05-10T08:41:21.000Z</time>
      </trkpt>
      <trkpt lat="46.42209" lon="6.28716">
        <ele>392.79998779297</ele>
        <time>2013-05-10T08:41:31.000Z</time>
      </trkpt>
      <trkpt lat="46.42264" lon="6.28796">
        <ele>391.79998779297</ele>
        <time>2013-05-10T08:41:41.000Z</time>
      </trkpt>
      <trkpt lat="46.42306" lon="6.28861">
        <ele>392.79998779297</ele>
        <time>2013-05-10T08:41:49.000Z</time>
      </trkpt>
      <trkpt lat="46.42368" lon="6.28961">
        <ele>393.60000610352</ele>
        <time>2013-05-10T08:42:01.000Z</time>
      </trkpt>
      <trkpt lat="46.42415" lon="6.29036">
        <ele>394.20001220703</ele>
        <time>2013-05-10T08:42:10.000Z</time>
      </trkpt>
      <trkpt lat="46.42481" lon="6.29137">
        <ele>393.60000610352</ele>
        <time>2013-05-10T08:42:22.000Z</time>
      </trkpt>
      <trkpt lat="46.4252" lon="6.29201">
        <ele>393.20001220703</ele>
        <time>2013-05-10T08:42:29.000Z</time>
      </trkpt>
      <trkpt lat="46.42558" lon="6.2927">
        <ele>393.20001220703</ele>
        <time>2013-05-10T08:42:36.000Z</time>
      </trkpt>
      <trkpt lat="46.42598" lon="6.29355">
        <ele>392.79998779297</ele>
        <time>2013-05-10T08:42:44.000Z</time>
      </trkpt>
      <trkpt lat="46.4263" lon="6.29437">
        <ele>391.79998779297</ele>
        <time>2013-05-10T08:42:51.000Z</time>
      </trkpt>
      <trkpt lat="46.42671" lon="6.29539">
        <ele>390.79998779297</ele>
        <time>2013-05-10T08:43:00.000Z</time>
      </trkpt>
      <trkpt lat="46.42697" lon="6.296">
        <ele>391.79998779297</ele>
        <time>2013-05-10T08:43:06.000Z</time>
      </trkpt>
      <trkpt lat="46.42718" lon="6.2965">
        <ele>392.79998779297</ele>
        <time>2013-05-10T08:43:12.000Z</time>
      </trkpt>
      <trkpt lat="46.42746" lon="6.29717">
        <ele>395.60000610352</ele>
        <time>2013-05-10T08:43:20.000Z</time>
      </trkpt>
      <trkpt lat="46.42775" lon="6.29787">
        <ele>399.39999389648</ele>
        <time>2013-05-10T08:43:29.000Z</time>
      </trkpt>
      <trkpt lat="46.42802" lon="6.29834">
        <ele>401</ele>
        <time>2013-05-10T08:43:35.000Z</time>
      </trkpt>
      <trkpt lat="46.42843" lon="6.29892">
        <ele>401.39999389648</ele>
        <time>2013-05-10T08:43:43.000Z</time>
      </trkpt>
      <trkpt lat="46.42892" lon="6.29957">
        <ele>401.79998779297</ele>
        <time>2013-05-10T08:43:52.000Z</time>
      </trkpt>
      <trkpt lat="46.42954" lon="6.30036">
        <ele>401</ele>
        <time>2013-05-10T08:44:02.000Z</time>
      </trkpt>
      <trkpt lat="46.4302" lon="6.30121">
        <ele>400</ele>
        <time>2013-05-10T08:44:12.000Z</time>
      </trkpt>
      <trkpt lat="46.43072" lon="6.30188">
        <ele>399</ele>
        <time>2013-05-10T08:44:19.000Z</time>
      </trkpt>
      <trkpt lat="46.43137" lon="6.30273">
        <ele>398</ele>
        <time>2013-05-10T08:44:28.000Z</time>
      </trkpt>
      <trkpt lat="46.43227" lon="6.30391">
        <ele>396.20001220703</ele>
        <time>2013-05-10T08:44:41.000Z</time>
      </trkpt>
      <trkpt lat="46.43291" lon="6.30474">
        <ele>396.60000610352</ele>
        <time>2013-05-10T08:44:51.000Z</time>
      </trkpt>
      <trkpt lat="46.43365" lon="6.3057">
        <ele>397.60000610352</ele>
        <time>2013-05-10T08:45:02.000Z</time>
      </trkpt>
      <trkpt lat="46.43438" lon="6.30664">
        <ele>397</ele>
        <time>2013-05-10T08:45:13.000Z</time>
      </trkpt>
      <trkpt lat="46.43513" lon="6.30763">
        <ele>398</ele>
        <time>2013-05-10T08:45:25.000Z</time>
      </trkpt>
      <trkpt lat="46.43593" lon="6.30866">
        <ele>399</ele>
        <time>2013-05-10T08:45:38.000Z</time>
      </trkpt>
      <trkpt lat="46.43672" lon="6.30969">
        <ele>399.39999389648</ele>
        <time>2013-05-10T08:45:51.000Z</time>
      </trkpt>
      <trkpt lat="46.43731" lon="6.31045">
        <ele>396.60000610352</ele>
        <time>2013-05-10T08:46:00.000Z</time>
      </trkpt>
      <trkpt lat="46.43785" lon="6.31115">
        <ele>394.60000610352</ele>
        <time>2013-05-10T08:46:08.000Z</time>
      </trkpt>
      <trkpt lat="46.43884" lon="6.31246">
        <ele>393.60000610352</ele>
        <time>2013-05-10T08:46:22.000Z</time>
      </trkpt>
      <trkpt lat="46.43963" lon="6.31348">
        <ele>392.20001220703</ele>
        <time>2013-05-10T08:46:33.000Z</time>
      </trkpt>
      <trkpt lat="46.44039" lon="6.31448">
        <ele>390.79998779297</ele>
        <time>2013-05-10T08:46:44.000Z</time>
      </trkpt>
      <trkpt lat="46.44127" lon="6.31561">
        <ele>388.79998779297</ele>
        <time>2013-05-10T08:46:56.000Z</time>
      </trkpt>
      <trkpt lat="46.44179" lon="6.31626">
        <ele>388.39999389648</ele>
        <time>2013-05-10T08:47:03.000Z</time>
      </trkpt>
      <trkpt lat="46.44223" lon="6.31681">
        <ele>388</ele>
        <time>2013-05-10T08:47:09.000Z</time>
      </trkpt>
      <trkpt lat="46.44283" lon="6.31759">
        <ele>387</ele>
        <time>2013-05-10T08:47:17.000Z</time>
      </trkpt>
      <trkpt lat="46.44327" lon="6.31816">
        <ele>388</ele>
        <time>2013-05-10T08:47:23.000Z</time>
      </trkpt>
      <trkpt lat="46.44376" lon="6.31887">
        <ele>387</ele>
        <time>2013-05-10T08:47:30.000Z</time>
      </trkpt>
      <trkpt lat="46.44418" lon="6.31958">
        <ele>387.39999389648</ele>
        <time>2013-05-10T08:47:37.000Z</time>
      </trkpt>
      <trkpt lat="46.44454" lon="6.32019">
        <ele>387</ele>
        <time>2013-05-10T08:47:43.000Z</time>
      </trkpt>
      <trkpt lat="46.44513" lon="6.32119">
        <ele>386.39999389648</ele>
        <time>2013-05-10T08:47:53.000Z</time>
      </trkpt>
      <trkpt lat="46.44565" lon="6.32206">
        <ele>387</ele>
        <time>2013-05-10T08:48:02.000Z</time>
      </trkpt>
      <trkpt lat="46.44604" lon="6.32273">
        <ele>385</ele>
        <time>2013-05-10T08:48:09.000Z</time>
      </trkpt>
      <trkpt lat="46.4464" lon="6.32333">
        <ele>384</ele>
        <time>2013-05-10T08:48:15.000Z</time>
      </trkpt>
      <trkpt lat="46.4467" lon="6.32382">
        <ele>384</ele>
        <time>2013-05-10T08:48:20.000Z</time>
      </trkpt>
      <trkpt lat="46.44725" lon="6.32475">
        <ele>387</ele>
        <time>2013-05-10T08:48:30.000Z</time>
      </trkpt>
      <trkpt lat="46.44764" lon="6.32543">
        <ele>388</ele>
        <time>2013-05-10T08:48:38.000Z</time>
      </trkpt>
      <trkpt lat="46.44793" lon="6.3259">
        <ele>390.79998779297</ele>
        <time>2013-05-10T08:48:44.000Z</time>
      </trkpt>
      <trkpt lat="46.44826" lon="6.32644">
        <ele>393.20001220703</ele>
        <time>2013-05-10T08:48:51.000Z</time>
      </trkpt>
      <trkpt lat="46.44864" lon="6.32712">
        <ele>392.20001220703</ele>
        <time>2013-05-10T08:48:59.000Z</time>
      </trkpt>
      <trkpt lat="46.44916" lon="6.32799">
        <ele>390.79998779297</ele>
        <time>2013-05-10T08:49:09.000Z</time>
      </trkpt>
      <trkpt lat="46.44961" lon="6.32879">
        <ele>389.79998779297</ele>
        <time>2013-05-10T08:49:18.000Z</time>
      </trkpt>
      <trkpt lat="46.45012" lon="6.32963">
        <ele>389.39999389648</ele>
        <time>2013-05-10T08:49:27.000Z</time>
      </trkpt>
      <trkpt lat="46.45055" lon="6.33036">
        <ele>389.39999389648</ele>
        <time>2013-05-10T08:49:35.000Z</time>
      </trkpt>
      <trkpt lat="46.45102" lon="6.33116">
        <ele>388.79998779297</ele>
        <time>2013-05-10T08:49:44.000Z</time>
      </trkpt>
      <trkpt lat="46.45148" lon="6.33194">
        <ele>388.39999389648</ele>
        <time>2013-05-10T08:49:53.000Z</time>
      </trkpt>
      <trkpt lat="46.4519" lon="6.33265">
        <ele>388.79998779297</ele>
        <time>2013-05-10T08:50:01.000Z</time>
      </trkpt>
      <trkpt lat="46.45245" lon="6.33359">
        <ele>389.39999389648</ele>
        <time>2013-05-10T08:50:11.000Z</time>
      </trkpt>
      <trkpt lat="46.45281" lon="6.33416">
        <ele>388.39999389648</ele>
        <time>2013-05-10T08:50:17.000Z</time>
      </trkpt>
      <trkpt lat="46.45329" lon="6.33458">
        <ele>387.39999389648</ele>
        <time>2013-05-10T08:50:23.000Z</time>
      </trkpt>
      <trkpt lat="46.45394" lon="6.33503">
        <ele>387</ele>
        <time>2013-05-10T08:50:31.000Z</time>
      </trkpt>
      <trkpt lat="46.45434" lon="6.33528">
        <ele>386.39999389648</ele>
        <time>2013-05-10T08:50:36.000Z</time>
      </trkpt>
      <trkpt lat="46.4546" lon="6.3354">
        <ele>385</ele>
        <time>2013-05-10T08:50:39.000Z</time>
      </trkpt>
      <trkpt lat="46.45508" lon="6.33573">
        <ele>385</ele>
        <time>2013-05-10T08:50:45.000Z</time>
      </trkpt>
      <trkpt lat="46.45581" lon="6.33623">
        <ele>382.60000610352</ele>
        <time>2013-05-10T08:50:54.000Z</time>
      </trkpt>
      <trkpt lat="46.45626" lon="6.33662">
        <ele>382.60000610352</ele>
        <time>2013-05-10T08:51:00.000Z</time>
      </trkpt>
      <trkpt lat="46.45662" lon="6.33699">
        <ele>382.60000610352</ele>
        <time>2013-05-10T08:51:05.000Z</time>
      </trkpt>
      <trkpt lat="46.45696" lon="6.33732">
        <ele>384.60000610352</ele>
        <time>2013-05-10T08:51:10.000Z</time>
      </trkpt>
      <trkpt lat="46.45726" lon="6.33763">
        <ele>388</ele>
        <time>2013-05-10T08:51:15.000Z</time>
      </trkpt>
      <trkpt lat="46.45743" lon="6.33785">
        <ele>388.79998779297</ele>
        <time>2013-05-10T08:51:18.000Z</time>
      </trkpt>
      <trkpt lat="46.45777" lon="6.33832">
        <ele>390.39999389648</ele>
        <time>2013-05-10T08:51:24.000Z</time>
      </trkpt>
      <trkpt lat="46.45819" lon="6.33876">
        <ele>393.60000610352</ele>
        <time>2013-05-10T08:51:31.000Z</time>
      </trkpt>
      <trkpt lat="46.45831" lon="6.33887">
        <ele>393.20001220703</ele>
        <time>2013-05-10T08:51:33.000Z</time>
      </trkpt>
      <trkpt lat="46.45862" lon="6.33932">
        <ele>389.79998779297</ele>
        <time>2013-05-10T08:51:39.000Z</time>
      </trkpt>
      <trkpt lat="46.45891" lon="6.33964">
        <ele>389.79998779297</ele>
        <time>2013-05-10T08:51:44.000Z</time>
      </trkpt>
      <trkpt lat="46.45927" lon="6.34005">
        <ele>387.39999389648</ele>
        <time>2013-05-10T08:51:50.000Z</time>
      </trkpt>
      <trkpt lat="46.45978" lon="6.34068">
        <ele>385.60000610352</ele>
        <time>2013-05-10T08:51:59.000Z</time>
      </trkpt>
      <trkpt lat="46.46011" lon="6.34106">
        <ele>385</ele>
        <time>2013-05-10T08:52:05.000Z</time>
      </trkpt>
      <trkpt lat="46.4605" lon="6.34151">
        <ele>385.60000610352</ele>
        <time>2013-05-10T08:52:12.000Z</time>
      </trkpt>
      <trkpt lat="46.46091" lon="6.34197">
        <ele>385.60000610352</ele>
        <time>2013-05-10T08:52:19.000Z</time>
      </trkpt>
      <trkpt lat="46.46128" lon="6.3424">
        <ele>384.60000610352</ele>
        <time>2013-05-10T08:52:25.000Z</time>
      </trkpt>
      <trkpt lat="46.4618" lon="6.34302">
        <ele>384</ele>
        <time>2013-05-10T08:52:33.000Z</time>
      </trkpt>
      <trkpt lat="46.46226" lon="6.34361">
        <ele>382.60000610352</ele>
        <time>2013-05-10T08:52:40.000Z</time>
      </trkpt>
      <trkpt lat="46.46248" lon="6.34414">
        <ele>383.20001220703</ele>
        <time>2013-05-10T08:52:45.000Z</time>
      </trkpt>
      <trkpt lat="46.46251" lon="6.34426">
        <ele>383.20001220703</ele>
        <time>2013-05-10T08:52:46.000Z</time>
      </trkpt>
      <trkpt lat="46.46257" lon="6.34507">
        <ele>382.60000610352</ele>
        <time>2013-05-10T08:52:53.000Z</time>
      </trkpt>
      <trkpt lat="46.46265" lon="6.34624">
        <ele>382.60000610352</ele>
        <time>2013-05-10T08:53:03.000Z</time>
      </trkpt>
      <trkpt lat="46.46273" lon="6.34726">
        <ele>383.20001220703</ele>
        <time>2013-05-10T08:53:12.000Z</time>
      </trkpt>
      <trkpt lat="46.46281" lon="6.34833">
        <ele>383.20001220703</ele>
        <time>2013-05-10T08:53:22.000Z</time>
      </trkpt>
      <trkpt lat="46.46288" lon="6.3493">
        <ele>383.20001220703</ele>
        <time>2013-05-10T08:53:31.000Z</time>
      </trkpt>
      <trkpt lat="46.46294" lon="6.35009">
        <ele>383.60000610352</ele>
        <time>2013-05-10T08:53:38.000Z</time>
      </trkpt>
      <trkpt lat="46.46302" lon="6.35123">
        <ele>384.60000610352</ele>
        <time>2013-05-10T08:53:49.000Z</time>
      </trkpt>
      <trkpt lat="46.46304" lon="6.3516">
        <ele>384.60000610352</ele>
        <time>2013-05-10T08:53:53.000Z</time>
      </trkpt>
      <trkpt lat="46.46303" lon="6.35179">
        <ele>385</ele>
        <time>2013-05-10T08:53:55.000Z</time>
      </trkpt>
      <trkpt lat="46.46307" lon="6.35215">
        <ele>385</ele>
        <time>2013-05-10T08:53:59.000Z</time>
      </trkpt>
      <trkpt lat="46.46314" lon="6.35277">
        <ele>384.60000610352</ele>
        <time>2013-05-10T08:54:05.000Z</time>
      </trkpt>
      <trkpt lat="46.46323" lon="6.35382">
        <ele>383.20001220703</ele>
        <time>2013-05-10T08:54:14.000Z</time>
      </trkpt>
      <trkpt lat="46.46334" lon="6.35528">
        <ele>381.60000610352</ele>
        <time>2013-05-10T08:54:26.000Z</time>
      </trkpt>
      <trkpt lat="46.46343" lon="6.35646">
        <ele>382.20001220703</ele>
        <time>2013-05-10T08:54:36.000Z</time>
      </trkpt>
      <trkpt lat="46.46347" lon="6.35717">
        <ele>383.20001220703</ele>
        <time>2013-05-10T08:54:42.000Z</time>
      </trkpt>
      <trkpt lat="46.46352" lon="6.35785">
        <ele>384</ele>
        <time>2013-05-10T08:54:48.000Z</time>
      </trkpt>
      <trkpt lat="46.46359" lon="6.35872">
        <ele>385</ele>
        <time>2013-05-10T08:54:56.000Z</time>
      </trkpt>
      <trkpt lat="46.46367" lon="6.35974">
        <ele>385.60000610352</ele>
        <time>2013-05-10T08:55:06.000Z</time>
      </trkpt>
      <trkpt lat="46.46375" lon="6.36076">
        <ele>385.60000610352</ele>
        <time>2013-05-10T08:55:16.000Z</time>
      </trkpt>
      <trkpt lat="46.46385" lon="6.36195">
        <ele>386</ele>
        <time>2013-05-10T08:55:27.000Z</time>
      </trkpt>
      <trkpt lat="46.46392" lon="6.36292">
        <ele>386.39999389648</ele>
        <time>2013-05-10T08:55:36.000Z</time>
      </trkpt>
      <trkpt lat="46.46393" lon="6.36334">
        <ele>385</ele>
        <time>2013-05-10T08:55:40.000Z</time>
      </trkpt>
      <trkpt lat="46.46402" lon="6.36405">
        <ele>386</ele>
        <time>2013-05-10T08:55:46.000Z</time>
      </trkpt>
      <trkpt lat="46.46403" lon="6.36416">
        <ele>386</ele>
        <time>2013-05-10T08:55:47.000Z</time>
      </trkpt>
      <trkpt lat="46.46423" lon="6.36513">
        <ele>384.60000610352</ele>
        <time>2013-05-10T08:55:56.000Z</time>
      </trkpt>
      <trkpt lat="46.46439" lon="6.36602">
        <ele>383.60000610352</ele>
        <time>2013-05-10T08:56:04.000Z</time>
      </trkpt>
      <trkpt lat="46.46448" lon="6.36658">
        <ele>383.20001220703</ele>
        <time>2013-05-10T08:56:09.000Z</time>
      </trkpt>
      <trkpt lat="46.46466" lon="6.36744">
        <ele>383.20001220703</ele>
        <time>2013-05-10T08:56:17.000Z</time>
      </trkpt>
      <trkpt lat="46.46482" lon="6.36833">
        <ele>384</ele>
        <time>2013-05-10T08:56:25.000Z</time>
      </trkpt>
      <trkpt lat="46.46495" lon="6.36898">
        <ele>384</ele>
        <time>2013-05-10T08:56:31.000Z</time>
      </trkpt>
      <trkpt lat="46.46512" lon="6.36987">
        <ele>384</ele>
        <time>2013-05-10T08:56:39.000Z</time>
      </trkpt>
      <trkpt lat="46.46534" lon="6.37104">
        <ele>383.20001220703</ele>
        <time>2013-05-10T08:56:49.000Z</time>
      </trkpt>
      <trkpt lat="46.46562" lon="6.37248">
        <ele>382.20001220703</ele>
        <time>2013-05-10T08:57:01.000Z</time>
      </trkpt>
      <trkpt lat="46.46576" lon="6.37355">
        <ele>382.20001220703</ele>
        <time>2013-05-10T08:57:10.000Z</time>
      </trkpt>
      <trkpt lat="46.46587" lon="6.37469">
        <ele>382.60000610352</ele>
        <time>2013-05-10T08:57:20.000Z</time>
      </trkpt>
      <trkpt lat="46.46599" lon="6.3758">
        <ele>383.60000610352</ele>
        <time>2013-05-10T08:57:30.000Z</time>
      </trkpt>
      <trkpt lat="46.46613" lon="6.37717">
        <ele>383.20001220703</ele>
        <time>2013-05-10T08:57:42.000Z</time>
      </trkpt>
      <trkpt lat="46.46624" lon="6.37824">
        <ele>381.60000610352</ele>
        <time>2013-05-10T08:57:51.000Z</time>
      </trkpt>
      <trkpt lat="46.46631" lon="6.37879">
        <ele>381.20001220703</ele>
        <time>2013-05-10T08:57:56.000Z</time>
      </trkpt>
      <trkpt lat="46.46639" lon="6.37966">
        <ele>381.60000610352</ele>
        <time>2013-05-10T08:58:04.000Z</time>
      </trkpt>
      <trkpt lat="46.46655" lon="6.38076">
        <ele>382.60000610352</ele>
        <time>2013-05-10T08:58:14.000Z</time>
      </trkpt>
      <trkpt lat="46.46679" lon="6.38196">
        <ele>383.20001220703</ele>
        <time>2013-05-10T08:58:25.000Z</time>
      </trkpt>
      <trkpt lat="46.46699" lon="6.38294">
        <ele>384</ele>
        <time>2013-05-10T08:58:34.000Z</time>
      </trkpt>
      <trkpt lat="46.4672" lon="6.38403">
        <ele>384.60000610352</ele>
        <time>2013-05-10T08:58:44.000Z</time>
      </trkpt>
      <trkpt lat="46.46744" lon="6.38524">
        <ele>385</ele>
        <time>2013-05-10T08:58:55.000Z</time>
      </trkpt>
      <trkpt lat="46.4677" lon="6.38658">
        <ele>385</ele>
        <time>2013-05-10T08:59:07.000Z</time>
      </trkpt>
      <trkpt lat="46.46798" lon="6.38803">
        <ele>385.60000610352</ele>
        <time>2013-05-10T08:59:20.000Z</time>
      </trkpt>
      <trkpt lat="46.46819" lon="6.38911">
        <ele>387.39999389648</ele>
        <time>2013-05-10T08:59:30.000Z</time>
      </trkpt>
      <trkpt lat="46.46837" lon="6.39015">
        <ele>388.79998779297</ele>
        <time>2013-05-10T08:59:40.000Z</time>
      </trkpt>
      <trkpt lat="46.46856" lon="6.39118">
        <ele>389.79998779297</ele>
        <time>2013-05-10T08:59:50.000Z</time>
      </trkpt>
      <trkpt lat="46.46875" lon="6.39212">
        <ele>391.20001220703</ele>
        <time>2013-05-10T08:59:59.000Z</time>
      </trkpt>
      <trkpt lat="46.46893" lon="6.3929">
        <ele>392.79998779297</ele>
        <time>2013-05-10T09:00:07.000Z</time>
      </trkpt>
      <trkpt lat="46.46912" lon="6.39386">
        <ele>395.20001220703</ele>
        <time>2013-05-10T09:00:17.000Z</time>
      </trkpt>
      <trkpt lat="46.4693" lon="6.39476">
        <ele>398</ele>
        <time>2013-05-10T09:00:27.000Z</time>
      </trkpt>
      <trkpt lat="46.46947" lon="6.39565">
        <ele>400.39999389648</ele>
        <time>2013-05-10T09:00:37.000Z</time>
      </trkpt>
      <trkpt lat="46.46963" lon="6.39643">
        <ele>402.39999389648</ele>
        <time>2013-05-10T09:00:46.000Z</time>
      </trkpt>
      <trkpt lat="46.46966" lon="6.39662">
        <ele>402.79998779297</ele>
        <time>2013-05-10T09:00:48.000Z</time>
      </trkpt>
      <trkpt lat="46.46983" lon="6.39715">
        <ele>407.60000610352</ele>
        <time>2013-05-10T09:00:53.000Z</time>
      </trkpt>
      <trkpt lat="46.46983" lon="6.39733">
        <ele>408.60000610352</ele>
        <time>2013-05-10T09:00:55.000Z</time>
      </trkpt>
      <trkpt lat="46.4698" lon="6.39751">
        <ele>408.20001220703</ele>
        <time>2013-05-10T09:00:57.000Z</time>
      </trkpt>
      <trkpt lat="46.46962" lon="6.39822">
        <ele>407.60000610352</ele>
        <time>2013-05-10T09:01:05.000Z</time>
      </trkpt>
      <trkpt lat="46.46941" lon="6.39887">
        <ele>407.20001220703</ele>
        <time>2013-05-10T09:01:12.000Z</time>
      </trkpt>
      <trkpt lat="46.4692" lon="6.39945">
        <ele>406.60000610352</ele>
        <time>2013-05-10T09:01:18.000Z</time>
      </trkpt>
      <trkpt lat="46.46903" lon="6.40012">
        <ele>404.79998779297</ele>
        <time>2013-05-10T09:01:24.000Z</time>
      </trkpt>
      <trkpt lat="46.46901" lon="6.40025">
        <ele>404.20001220703</ele>
        <time>2013-05-10T09:01:25.000Z</time>
      </trkpt>
      <trkpt lat="46.46906" lon="6.4008">
        <ele>402.79998779297</ele>
        <time>2013-05-10T09:01:29.000Z</time>
      </trkpt>
      <trkpt lat="46.46915" lon="6.40107">
        <ele>401.79998779297</ele>
        <time>2013-05-10T09:01:31.000Z</time>
      </trkpt>
      <trkpt lat="46.46949" lon="6.40166">
        <ele>400</ele>
        <time>2013-05-10T09:01:36.000Z</time>
      </trkpt>
      <trkpt lat="46.47008" lon="6.40236">
        <ele>398.60000610352</ele>
        <time>2013-05-10T09:01:43.000Z</time>
      </trkpt>
      <trkpt lat="46.47076" lon="6.403">
        <ele>398</ele>
        <time>2013-05-10T09:01:51.000Z</time>
      </trkpt>
      <trkpt lat="46.47148" lon="6.40367">
        <ele>398.60000610352</ele>
        <time>2013-05-10T09:02:00.000Z</time>
      </trkpt>
      <trkpt lat="46.472" lon="6.40428">
        <ele>399</ele>
        <time>2013-05-10T09:02:08.000Z</time>
      </trkpt>
      <trkpt lat="46.4725" lon="6.40504">
        <ele>400.39999389648</ele>
        <time>2013-05-10T09:02:17.000Z</time>
      </trkpt>
      <trkpt lat="46.47279" lon="6.40559">
        <ele>400.39999389648</ele>
        <time>2013-05-10T09:02:23.000Z</time>
      </trkpt>
      <trkpt lat="46.47324" lon="6.40652">
        <ele>401.79998779297</ele>
        <time>2013-05-10T09:02:33.000Z</time>
      </trkpt>
      <trkpt lat="46.47351" lon="6.40714">
        <ele>402.79998779297</ele>
        <time>2013-05-10T09:02:40.000Z</time>
      </trkpt>
      <trkpt lat="46.47374" lon="6.40777">
        <ele>405.20001220703</ele>
        <time>2013-05-10T09:02:47.000Z</time>
      </trkpt>
      <trkpt lat="46.47384" lon="6.40838">
        <ele>407.20001220703</ele>
        <time>2013-05-10T09:02:54.000Z</time>
      </trkpt>
      <trkpt lat="46.47388" lon="6.40899">
        <ele>409.60000610352</ele>
        <time>2013-05-10T09:03:01.000Z</time>
      </trkpt>
      <trkpt lat="46.4739" lon="6.41006">
        <ele>413.39999389648</ele>
        <time>2013-05-10T09:03:13.000Z</time>
      </trkpt>
      <trkpt lat="46.47391" lon="6.41077">
        <ele>415.39999389648</ele>
        <time>2013-05-10T09:03:21.000Z</time>
      </trkpt>
      <trkpt lat="46.47393" lon="6.41178">
        <ele>415.39999389648</ele>
        <time>2013-05-10T09:03:31.000Z</time>
      </trkpt>
      <trkpt lat="46.47398" lon="6.4125">
        <ele>415.39999389648</ele>
        <time>2013-05-10T09:03:38.000Z</time>
      </trkpt>
      <trkpt lat="46.47396" lon="6.41276">
        <ele>414.79998779297</ele>
        <time>2013-05-10T09:03:41.000Z</time>
      </trkpt>
      <trkpt lat="46.47392" lon="6.41299">
        <ele>414.39999389648</ele>
        <time>2013-05-10T09:03:44.000Z</time>
      </trkpt>
      <trkpt lat="46.47395" lon="6.41343">
        <ele>414.39999389648</ele>
        <time>2013-05-10T09:03:49.000Z</time>
      </trkpt>
      <trkpt lat="46.47398" lon="6.41438">
        <ele>413.79998779297</ele>
        <time>2013-05-10T09:03:58.000Z</time>
      </trkpt>
      <trkpt lat="46.474" lon="6.41537">
        <ele>413</ele>
        <time>2013-05-10T09:04:07.000Z</time>
      </trkpt>
      <trkpt lat="46.47403" lon="6.41653">
        <ele>412.39999389648</ele>
        <time>2013-05-10T09:04:17.000Z</time>
      </trkpt>
      <trkpt lat="46.47407" lon="6.41781">
        <ele>412.39999389648</ele>
        <time>2013-05-10T09:04:28.000Z</time>
      </trkpt>
      <trkpt lat="46.47408" lon="6.41813">
        <ele>412.39999389648</ele>
        <time>2013-05-10T09:04:31.000Z</time>
      </trkpt>
      <trkpt lat="46.47412" lon="6.41855">
        <ele>412</ele>
        <time>2013-05-10T09:04:36.000Z</time>
      </trkpt>
      <trkpt lat="46.4741" lon="6.41866">
        <ele>412</ele>
        <time>2013-05-10T09:04:39.000Z</time>
      </trkpt>
      <trkpt lat="46.47408" lon="6.41874">
        <ele>412</ele>
        <time>2013-05-10T09:04:41.000Z</time>
      </trkpt>
      <trkpt lat="46.47408" lon="6.41911">
        <ele>412.39999389648</ele>
        <time>2013-05-10T09:04:46.000Z</time>
      </trkpt>
      <trkpt lat="46.4741" lon="6.41964">
        <ele>412</ele>
        <time>2013-05-10T09:04:51.000Z</time>
      </trkpt>
      <trkpt lat="46.47414" lon="6.42064">
        <ele>412</ele>
        <time>2013-05-10T09:05:00.000Z</time>
      </trkpt>
      <trkpt lat="46.47417" lon="6.42189">
        <ele>412</ele>
        <time>2013-05-10T09:05:11.000Z</time>
      </trkpt>
      <trkpt lat="46.47421" lon="6.42325">
        <ele>412.39999389648</ele>
        <time>2013-05-10T09:05:23.000Z</time>
      </trkpt>
      <trkpt lat="46.47424" lon="6.42423">
        <ele>412</ele>
        <time>2013-05-10T09:05:32.000Z</time>
      </trkpt>
      <trkpt lat="46.47428" lon="6.42554">
        <ele>410.60000610352</ele>
        <time>2013-05-10T09:05:44.000Z</time>
      </trkpt>
      <trkpt lat="46.47428" lon="6.42564">
        <ele>410.60000610352</ele>
        <time>2013-05-10T09:05:45.000Z</time>
      </trkpt>
      <trkpt lat="46.47434" lon="6.42596">
        <ele>410.60000610352</ele>
        <time>2013-05-10T09:05:49.000Z</time>
      </trkpt>
      <trkpt lat="46.47434" lon="6.42604">
        <ele>410.60000610352</ele>
        <time>2013-05-10T09:05:50.000Z</time>
      </trkpt>
      <trkpt lat="46.47434" lon="6.4262">
        <ele>411</ele>
        <time>2013-05-10T09:05:52.000Z</time>
      </trkpt>
      <trkpt lat="46.47423" lon="6.4265">
        <ele>411</ele>
        <time>2013-05-10T09:05:56.000Z</time>
      </trkpt>
      <trkpt lat="46.47404" lon="6.4266">
        <ele>410.60000610352</ele>
        <time>2013-05-10T09:05:59.000Z</time>
      </trkpt>
      <trkpt lat="46.47377" lon="6.42666">
        <ele>409</ele>
        <time>2013-05-10T09:06:03.000Z</time>
      </trkpt>
      <trkpt lat="46.47332" lon="6.42663">
        <ele>406.20001220703</ele>
        <time>2013-05-10T09:06:09.000Z</time>
      </trkpt>
      <trkpt lat="46.47316" lon="6.42659">
        <ele>405.79998779297</ele>
        <time>2013-05-10T09:06:11.000Z</time>
      </trkpt>
      <trkpt lat="46.47275" lon="6.42658">
        <ele>403.79998779297</ele>
        <time>2013-05-10T09:06:16.000Z</time>
      </trkpt>
      <trkpt lat="46.47244" lon="6.42678">
        <ele>402.79998779297</ele>
        <time>2013-05-10T09:06:20.000Z</time>
      </trkpt>
      <trkpt lat="46.47212" lon="6.42718">
        <ele>401.79998779297</ele>
        <time>2013-05-10T09:06:25.000Z</time>
      </trkpt>
      <trkpt lat="46.47202" lon="6.4276">
        <ele>399.39999389648</ele>
        <time>2013-05-10T09:06:29.000Z</time>
      </trkpt>
      <trkpt lat="46.47205" lon="6.42875">
        <ele>396.20001220703</ele>
        <time>2013-05-10T09:06:38.000Z</time>
      </trkpt>
      <trkpt lat="46.47204" lon="6.4297">
        <ele>393.60000610352</ele>
        <time>2013-05-10T09:06:45.000Z</time>
      </trkpt>
      <trkpt lat="46.47207" lon="6.42997">
        <ele>393.20001220703</ele>
        <time>2013-05-10T09:06:47.000Z</time>
      </trkpt>
      <trkpt lat="46.47236" lon="6.43071">
        <ele>391.79998779297</ele>
        <time>2013-05-10T09:06:53.000Z</time>
      </trkpt>
      <trkpt lat="46.47237" lon="6.4312">
        <ele>391.79998779297</ele>
        <time>2013-05-10T09:06:57.000Z</time>
      </trkpt>
      <trkpt lat="46.47236" lon="6.43164">
        <ele>392.20001220703</ele>
        <time>2013-05-10T09:07:01.000Z</time>
      </trkpt>
      <trkpt lat="46.47241" lon="6.43194">
        <ele>392.20001220703</ele>
        <time>2013-05-10T09:07:04.000Z</time>
      </trkpt>
      <trkpt lat="46.47262" lon="6.43244">
        <ele>393.60000610352</ele>
        <time>2013-05-10T09:07:10.000Z</time>
      </trkpt>
      <trkpt lat="46.47288" lon="6.43289">
        <ele>396.20001220703</ele>
        <time>2013-05-10T09:07:17.000Z</time>
      </trkpt>
      <trkpt lat="46.47315" lon="6.43339">
        <ele>398</ele>
        <time>2013-05-10T09:07:25.000Z</time>
      </trkpt>
      <trkpt lat="46.47337" lon="6.43381">
        <ele>397.60000610352</ele>
        <time>2013-05-10T09:07:31.000Z</time>
      </trkpt>
      <trkpt lat="46.4735" lon="6.43404">
        <ele>397</ele>
        <time>2013-05-10T09:07:34.000Z</time>
      </trkpt>
      <trkpt lat="46.47362" lon="6.4344">
        <ele>395.60000610352</ele>
        <time>2013-05-10T09:07:38.000Z</time>
      </trkpt>
      <trkpt lat="46.47362" lon="6.4344">
        <ele>395.60000610352</ele>
        <time>2013-05-10T09:07:38.000Z</time>
      </trkpt>
      <trkpt lat="46.47363" lon="6.43455">
        <ele>396.20001220703</ele>
        <time>2013-05-10T09:07:39.000Z</time>
      </trkpt>
      <trkpt lat="46.47364" lon="6.43495">
        <ele>396.20001220703</ele>
        <time>2013-05-10T09:07:44.000Z</time>
      </trkpt>
      <trkpt lat="46.47365" lon="6.43504">
        <ele>396.60000610352</ele>
        <time>2013-05-10T09:07:45.000Z</time>
      </trkpt>
      <trkpt lat="46.4737" lon="6.43567">
        <ele>397.60000610352</ele>
        <time>2013-05-10T09:07:51.000Z</time>
      </trkpt>
      <trkpt lat="46.47377" lon="6.43631">
        <ele>398.60000610352</ele>
        <time>2013-05-10T09:07:58.000Z</time>
      </trkpt>
      <trkpt lat="46.47392" lon="6.43707">
        <ele>400</ele>
        <time>2013-05-10T09:08:06.000Z</time>
      </trkpt>
      <trkpt lat="46.47413" lon="6.43792">
        <ele>401.79998779297</ele>
        <time>2013-05-10T09:08:15.000Z</time>
      </trkpt>
      <trkpt lat="46.47431" lon="6.43867">
        <ele>403.39999389648</ele>
        <time>2013-05-10T09:08:23.000Z</time>
      </trkpt>
      <trkpt lat="46.47443" lon="6.43926">
        <ele>403.39999389648</ele>
        <time>2013-05-10T09:08:29.000Z</time>
      </trkpt>
      <trkpt lat="46.47464" lon="6.4401">
        <ele>403.79998779297</ele>
        <time>2013-05-10T09:08:38.000Z</time>
      </trkpt>
      <trkpt lat="46.47479" lon="6.44077">
        <ele>404.79998779297</ele>
        <time>2013-05-10T09:08:45.000Z</time>
      </trkpt>
      <trkpt lat="46.47501" lon="6.44164">
        <ele>405.20001220703</ele>
        <time>2013-05-10T09:08:54.000Z</time>
      </trkpt>
      <trkpt lat="46.47526" lon="6.44231">
        <ele>405.20001220703</ele>
        <time>2013-05-10T09:09:01.000Z</time>
      </trkpt>
      <trkpt lat="46.47561" lon="6.44307">
        <ele>403.39999389648</ele>
        <time>2013-05-10T09:09:09.000Z</time>
      </trkpt>
      <trkpt lat="46.47588" lon="6.44364">
        <ele>403.79998779297</ele>
        <time>2013-05-10T09:09:15.000Z</time>
      </trkpt>
      <trkpt lat="46.47629" lon="6.44462">
        <ele>403.79998779297</ele>
        <time>2013-05-10T09:09:25.000Z</time>
      </trkpt>
      <trkpt lat="46.4764" lon="6.4453">
        <ele>403.39999389648</ele>
        <time>2013-05-10T09:09:31.000Z</time>
      </trkpt>
      <trkpt lat="46.47654" lon="6.44644">
        <ele>401.79998779297</ele>
        <time>2013-05-10T09:09:41.000Z</time>
      </trkpt>
      <trkpt lat="46.47668" lon="6.4476">
        <ele>401</ele>
        <time>2013-05-10T09:09:51.000Z</time>
      </trkpt>
      <trkpt lat="46.47688" lon="6.44863">
        <ele>400.39999389648</ele>
        <time>2013-05-10T09:10:00.000Z</time>
      </trkpt>
      <trkpt lat="46.4771" lon="6.44926">
        <ele>400.39999389648</ele>
        <time>2013-05-10T09:10:06.000Z</time>
      </trkpt>
      <trkpt lat="46.47752" lon="6.45023">
        <ele>399.39999389648</ele>
        <time>2013-05-10T09:10:16.000Z</time>
      </trkpt>
      <trkpt lat="46.47782" lon="6.45089">
        <ele>399</ele>
        <time>2013-05-10T09:10:23.000Z</time>
      </trkpt>
      <trkpt lat="46.47828" lon="6.45184">
        <ele>398.60000610352</ele>
        <time>2013-05-10T09:10:33.000Z</time>
      </trkpt>
      <trkpt lat="46.47864" lon="6.45261">
        <ele>398.60000610352</ele>
        <time>2013-05-10T09:10:41.000Z</time>
      </trkpt>
      <trkpt lat="46.47892" lon="6.45317">
        <ele>399</ele>
        <time>2013-05-10T09:10:47.000Z</time>
      </trkpt>
      <trkpt lat="46.47936" lon="6.4541">
        <ele>399.39999389648</ele>
        <time>2013-05-10T09:10:57.000Z</time>
      </trkpt>
      <trkpt lat="46.47948" lon="6.45437">
        <ele>399.39999389648</ele>
        <time>2013-05-10T09:11:00.000Z</time>
      </trkpt>
      <trkpt lat="46.47948" lon="6.45473">
        <ele>397</ele>
        <time>2013-05-10T09:11:04.000Z</time>
      </trkpt>
      <trkpt lat="46.47946" lon="6.45497">
        <ele>395.20001220703</ele>
        <time>2013-05-10T09:11:06.000Z</time>
      </trkpt>
      <trkpt lat="46.47945" lon="6.45581">
        <ele>389.79998779297</ele>
        <time>2013-05-10T09:11:12.000Z</time>
      </trkpt>
      <trkpt lat="46.47946" lon="6.45659">
        <ele>384</ele>
        <time>2013-05-10T09:11:17.000Z</time>
      </trkpt>
      <trkpt lat="46.47942" lon="6.45711">
        <ele>380.79998779297</ele>
        <time>2013-05-10T09:11:21.000Z</time>
      </trkpt>
      <trkpt lat="46.47938" lon="6.45761">
        <ele>378.79998779297</ele>
        <time>2013-05-10T09:11:25.000Z</time>
      </trkpt>
      <trkpt lat="46.47947" lon="6.4582">
        <ele>379.20001220703</ele>
        <time>2013-05-10T09:11:30.000Z</time>
      </trkpt>
      <trkpt lat="46.47956" lon="6.4584">
        <ele>379.79998779297</ele>
        <time>2013-05-10T09:11:32.000Z</time>
      </trkpt>
      <trkpt lat="46.48" lon="6.45924">
        <ele>380.79998779297</ele>
        <time>2013-05-10T09:11:41.000Z</time>
      </trkpt>
      <trkpt lat="46.48041" lon="6.46003">
        <ele>380.79998779297</ele>
        <time>2013-05-10T09:11:50.000Z</time>
      </trkpt>
      <trkpt lat="46.48045" lon="6.46012">
        <ele>380.79998779297</ele>
        <time>2013-05-10T09:11:51.000Z</time>
      </trkpt>
      <trkpt lat="46.48073" lon="6.46042">
        <ele>381.20001220703</ele>
        <time>2013-05-10T09:11:56.000Z</time>
      </trkpt>
      <trkpt lat="46.48104" lon="6.46058">
        <ele>379.20001220703</ele>
        <time>2013-05-10T09:12:01.000Z</time>
      </trkpt>
      <trkpt lat="46.4814" lon="6.46067">
        <ele>377.79998779297</ele>
        <time>2013-05-10T09:12:06.000Z</time>
      </trkpt>
      <trkpt lat="46.48178" lon="6.4608">
        <ele>378.39999389648</ele>
        <time>2013-05-10T09:12:11.000Z</time>
      </trkpt>
      <trkpt lat="46.48253" lon="6.46098">
        <ele>381.60000610352</ele>
        <time>2013-05-10T09:12:21.000Z</time>
      </trkpt>
      <trkpt lat="46.48307" lon="6.46112">
        <ele>383.20001220703</ele>
        <time>2013-05-10T09:12:29.000Z</time>
      </trkpt>
      <trkpt lat="46.48368" lon="6.46127">
        <ele>385</ele>
        <time>2013-05-10T09:12:38.000Z</time>
      </trkpt>
      <trkpt lat="46.48416" lon="6.46134">
        <ele>385.60000610352</ele>
        <time>2013-05-10T09:12:45.000Z</time>
      </trkpt>
      <trkpt lat="46.48473" lon="6.46139">
        <ele>385.60000610352</ele>
        <time>2013-05-10T09:12:53.000Z</time>
      </trkpt>
      <trkpt lat="46.48531" lon="6.46138">
        <ele>386</ele>
        <time>2013-05-10T09:13:01.000Z</time>
      </trkpt>
      <trkpt lat="46.48587" lon="6.46132">
        <ele>387</ele>
        <time>2013-05-10T09:13:09.000Z</time>
      </trkpt>
      <trkpt lat="46.48628" lon="6.46126">
        <ele>387.39999389648</ele>
        <time>2013-05-10T09:13:16.000Z</time>
      </trkpt>
      <trkpt lat="46.48644" lon="6.46127">
        <ele>388</ele>
        <time>2013-05-10T09:13:19.000Z</time>
      </trkpt>
      <trkpt lat="46.48654" lon="6.46129">
        <ele>387.39999389648</ele>
        <time>2013-05-10T09:13:23.000Z</time>
      </trkpt>
      <trkpt lat="46.48669" lon="6.46142">
        <ele>388</ele>
        <time>2013-05-10T09:13:29.000Z</time>
      </trkpt>
      <trkpt lat="46.48684" lon="6.46159">
        <ele>388</ele>
        <time>2013-05-10T09:13:34.000Z</time>
      </trkpt>
      <trkpt lat="46.48706" lon="6.46189">
        <ele>388.79998779297</ele>
        <time>2013-05-10T09:13:39.000Z</time>
      </trkpt>
      <trkpt lat="46.48743" lon="6.46242">
        <ele>388.79998779297</ele>
        <time>2013-05-10T09:13:46.000Z</time>
      </trkpt>
      <trkpt lat="46.48779" lon="6.463">
        <ele>388</ele>
        <time>2013-05-10T09:13:53.000Z</time>
      </trkpt>
      <trkpt lat="46.48812" lon="6.4635">
        <ele>386</ele>
        <time>2013-05-10T09:13:59.000Z</time>
      </trkpt>
      <trkpt lat="46.48828" lon="6.46374">
        <ele>386</ele>
        <time>2013-05-10T09:14:02.000Z</time>
      </trkpt>
      <trkpt lat="46.48863" lon="6.46433">
        <ele>385.60000610352</ele>
        <time>2013-05-10T09:14:09.000Z</time>
      </trkpt>
      <trkpt lat="46.4893" lon="6.46531">
        <ele>384.60000610352</ele>
        <time>2013-05-10T09:14:21.000Z</time>
      </trkpt>
      <trkpt lat="46.48954" lon="6.46565">
        <ele>384.60000610352</ele>
        <time>2013-05-10T09:14:25.000Z</time>
      </trkpt>
      <trkpt lat="46.4898" lon="6.46606">
        <ele>384</ele>
        <time>2013-05-10T09:14:30.000Z</time>
      </trkpt>
      <trkpt lat="46.49005" lon="6.46641">
        <ele>383.60000610352</ele>
        <time>2013-05-10T09:14:34.000Z</time>
      </trkpt>
      <trkpt lat="46.49038" lon="6.46695">
        <ele>383.60000610352</ele>
        <time>2013-05-10T09:14:40.000Z</time>
      </trkpt>
      <trkpt lat="46.49072" lon="6.46747">
        <ele>387</ele>
        <time>2013-05-10T09:14:46.000Z</time>
      </trkpt>
      <trkpt lat="46.49105" lon="6.46801">
        <ele>388</ele>
        <time>2013-05-10T09:14:52.000Z</time>
      </trkpt>
      <trkpt lat="46.49139" lon="6.46867">
        <ele>390.39999389648</ele>
        <time>2013-05-10T09:14:59.000Z</time>
      </trkpt>
      <trkpt lat="46.49167" lon="6.46929">
        <ele>390.39999389648</ele>
        <time>2013-05-10T09:15:05.000Z</time>
      </trkpt>
      <trkpt lat="46.49196" lon="6.47">
        <ele>390.79998779297</ele>
        <time>2013-05-10T09:15:11.000Z</time>
      </trkpt>
      <trkpt lat="46.49243" lon="6.47129">
        <ele>388.79998779297</ele>
        <time>2013-05-10T09:15:21.000Z</time>
      </trkpt>
      <trkpt lat="46.49266" lon="6.47193">
        <ele>388</ele>
        <time>2013-05-10T09:15:26.000Z</time>
      </trkpt>
      <trkpt lat="46.49282" lon="6.47245">
        <ele>388.39999389648</ele>
        <time>2013-05-10T09:15:30.000Z</time>
      </trkpt>
      <trkpt lat="46.4931" lon="6.47329">
        <ele>387</ele>
        <time>2013-05-10T09:15:36.000Z</time>
      </trkpt>
      <trkpt lat="46.49334" lon="6.47397">
        <ele>384.60000610352</ele>
        <time>2013-05-10T09:15:41.000Z</time>
      </trkpt>
      <trkpt lat="46.49383" lon="6.47536">
        <ele>381.60000610352</ele>
        <time>2013-05-10T09:15:52.000Z</time>
      </trkpt>
      <trkpt lat="46.49432" lon="6.47675">
        <ele>382.20001220703</ele>
        <time>2013-05-10T09:16:03.000Z</time>
      </trkpt>
      <trkpt lat="46.49467" lon="6.47777">
        <ele>383.60000610352</ele>
        <time>2013-05-10T09:16:12.000Z</time>
      </trkpt>
      <trkpt lat="46.4951" lon="6.47903">
        <ele>384.60000610352</ele>
        <time>2013-05-10T09:16:24.000Z</time>
      </trkpt>
      <trkpt lat="46.49522" lon="6.47942">
        <ele>385.60000610352</ele>
        <time>2013-05-10T09:16:28.000Z</time>
      </trkpt>
      <trkpt lat="46.49535" lon="6.47987">
        <ele>385.60000610352</ele>
        <time>2013-05-10T09:16:33.000Z</time>
      </trkpt>
      <trkpt lat="46.49568" lon="6.4805">
        <ele>385.60000610352</ele>
        <time>2013-05-10T09:16:40.000Z</time>
      </trkpt>
      <trkpt lat="46.49606" lon="6.48112">
        <ele>386</ele>
        <time>2013-05-10T09:16:47.000Z</time>
      </trkpt>
      <trkpt lat="46.4964" lon="6.48148">
        <ele>386.39999389648</ele>
        <time>2013-05-10T09:16:52.000Z</time>
      </trkpt>
      <trkpt lat="46.49679" lon="6.4817">
        <ele>387</ele>
        <time>2013-05-10T09:16:57.000Z</time>
      </trkpt>
      <trkpt lat="46.49727" lon="6.48181">
        <ele>388.39999389648</ele>
        <time>2013-05-10T09:17:03.000Z</time>
      </trkpt>
      <trkpt lat="46.49782" lon="6.48199">
        <ele>389.39999389648</ele>
        <time>2013-05-10T09:17:10.000Z</time>
      </trkpt>
      <trkpt lat="46.49827" lon="6.48234">
        <ele>388.79998779297</ele>
        <time>2013-05-10T09:17:16.000Z</time>
      </trkpt>
      <trkpt lat="46.49883" lon="6.48287">
        <ele>388</ele>
        <time>2013-05-10T09:17:24.000Z</time>
      </trkpt>
      <trkpt lat="46.4996" lon="6.48359">
        <ele>387.39999389648</ele>
        <time>2013-05-10T09:17:35.000Z</time>
      </trkpt>
      <trkpt lat="46.50022" lon="6.48419">
        <ele>388</ele>
        <time>2013-05-10T09:17:44.000Z</time>
      </trkpt>
      <trkpt lat="46.50093" lon="6.48486">
        <ele>388</ele>
        <time>2013-05-10T09:17:54.000Z</time>
      </trkpt>
      <trkpt lat="46.50181" lon="6.48568">
        <ele>387</ele>
        <time>2013-05-10T09:18:06.000Z</time>
      </trkpt>
      <trkpt lat="46.50218" lon="6.48605">
        <ele>386</ele>
        <time>2013-05-10T09:18:11.000Z</time>
      </trkpt>
      <trkpt lat="46.50295" lon="6.48678">
        <ele>385.60000610352</ele>
        <time>2013-05-10T09:18:21.000Z</time>
      </trkpt>
      <trkpt lat="46.50346" lon="6.48727">
        <ele>385.60000610352</ele>
        <time>2013-05-10T09:18:28.000Z</time>
      </trkpt>
      <trkpt lat="46.50367" lon="6.4875">
        <ele>384.60000610352</ele>
        <time>2013-05-10T09:18:31.000Z</time>
      </trkpt>
      <trkpt lat="46.50412" lon="6.48787">
        <ele>383.20001220703</ele>
        <time>2013-05-10T09:18:37.000Z</time>
      </trkpt>
      <trkpt lat="46.50468" lon="6.48843">
        <ele>382.60000610352</ele>
        <time>2013-05-10T09:18:45.000Z</time>
      </trkpt>
      <trkpt lat="46.50513" lon="6.48886">
        <ele>383.20001220703</ele>
        <time>2013-05-10T09:18:51.000Z</time>
      </trkpt>
      <trkpt lat="46.50579" lon="6.48952">
        <ele>383.60000610352</ele>
        <time>2013-05-10T09:19:00.000Z</time>
      </trkpt>
      <trkpt lat="46.50585" lon="6.48961">
        <ele>383.60000610352</ele>
        <time>2013-05-10T09:19:01.000Z</time>
      </trkpt>
      <trkpt lat="46.5061" lon="6.49011">
        <ele>382.20001220703</ele>
        <time>2013-05-10T09:19:06.000Z</time>
      </trkpt>
      <trkpt lat="46.50636" lon="6.49059">
        <ele>381.20001220703</ele>
        <time>2013-05-10T09:19:11.000Z</time>
      </trkpt>
      <trkpt lat="46.50669" lon="6.49151">
        <ele>381.60000610352</ele>
        <time>2013-05-10T09:19:20.000Z</time>
      </trkpt>
      <trkpt lat="46.50696" lon="6.4922">
        <ele>381.60000610352</ele>
        <time>2013-05-10T09:19:27.000Z</time>
      </trkpt>
      <trkpt lat="46.50724" lon="6.49325">
        <ele>380.79998779297</ele>
        <time>2013-05-10T09:19:37.000Z</time>
      </trkpt>
      <trkpt lat="46.50738" lon="6.49424">
        <ele>380.20001220703</ele>
        <time>2013-05-10T09:19:46.000Z</time>
      </trkpt>
      <trkpt lat="46.50756" lon="6.49531">
        <ele>381.20001220703</ele>
        <time>2013-05-10T09:19:56.000Z</time>
      </trkpt>
      <trkpt lat="46.50771" lon="6.49614">
        <ele>383.60000610352</ele>
        <time>2013-05-10T09:20:04.000Z</time>
      </trkpt>
      <trkpt lat="46.50758" lon="6.49652">
        <ele>384</ele>
        <time>2013-05-10T09:20:08.000Z</time>
      </trkpt>
      <trkpt lat="46.50751" lon="6.4966">
        <ele>383.60000610352</ele>
        <time>2013-05-10T09:20:09.000Z</time>
      </trkpt>
      <trkpt lat="46.50736" lon="6.49681">
        <ele>384.60000610352</ele>
        <time>2013-05-10T09:20:12.000Z</time>
      </trkpt>
      <trkpt lat="46.50732" lon="6.49716">
        <ele>384</ele>
        <time>2013-05-10T09:20:16.000Z</time>
      </trkpt>
      <trkpt lat="46.50742" lon="6.4973">
        <ele>384</ele>
        <time>2013-05-10T09:20:18.000Z</time>
      </trkpt>
      <trkpt lat="46.50768" lon="6.49756">
        <ele>383.60000610352</ele>
        <time>2013-05-10T09:20:23.000Z</time>
      </trkpt>
      <trkpt lat="46.50783" lon="6.49792">
        <ele>388.39999389648</ele>
        <time>2013-05-10T09:20:29.000Z</time>
      </trkpt>
      <trkpt lat="46.50803" lon="6.49813">
        <ele>387.39999389648</ele>
        <time>2013-05-10T09:20:34.000Z</time>
      </trkpt>
      <trkpt lat="46.50816" lon="6.49827">
        <ele>385</ele>
        <time>2013-05-10T09:20:37.000Z</time>
      </trkpt>
      <trkpt lat="46.5085" lon="6.49874">
        <ele>386</ele>
        <time>2013-05-10T09:20:46.000Z</time>
      </trkpt>
      <trkpt lat="46.5087" lon="6.49899">
        <ele>385</ele>
        <time>2013-05-10T09:20:51.000Z</time>
      </trkpt>
      <trkpt lat="46.50895" lon="6.49926">
        <ele>386</ele>
        <time>2013-05-10T09:20:57.000Z</time>
      </trkpt>
      <trkpt lat="46.50899" lon="6.4993">
        <ele>385.60000610352</ele>
        <time>2013-05-10T09:20:58.000Z</time>
      </trkpt>
      <trkpt lat="46.50922" lon="6.49951">
        <ele>386.39999389648</ele>
        <time>2013-05-10T09:21:03.000Z</time>
      </trkpt>
      <trkpt lat="46.50926" lon="6.49956">
        <ele>387</ele>
        <time>2013-05-10T09:21:04.000Z</time>
      </trkpt>
      <trkpt lat="46.50944" lon="6.49974">
        <ele>387.39999389648</ele>
        <time>2013-05-10T09:21:08.000Z</time>
      </trkpt>
      <trkpt lat="46.50959" lon="6.49986">
        <ele>388.79998779297</ele>
        <time>2013-05-10T09:21:11.000Z</time>
      </trkpt>
      <trkpt lat="46.5099" lon="6.49993">
        <ele>385.60000610352</ele>
        <time>2013-05-10T09:21:17.000Z</time>
      </trkpt>
      <trkpt lat="46.51017" lon="6.49999">
        <ele>384</ele>
        <time>2013-05-10T09:21:22.000Z</time>
      </trkpt>
      <trkpt lat="46.5104" lon="6.50001">
        <ele>380.79998779297</ele>
        <time>2013-05-10T09:21:26.000Z</time>
      </trkpt>
      <trkpt lat="46.51054" lon="6.50003">
        <ele>380.79998779297</ele>
        <time>2013-05-10T09:21:28.000Z</time>
      </trkpt>
      <trkpt lat="46.51086" lon="6.50001">
        <ele>380.79998779297</ele>
        <time>2013-05-10T09:21:33.000Z</time>
      </trkpt>
      <trkpt lat="46.51118" lon="6.50003">
        <ele>379.79998779297</ele>
        <time>2013-05-10T09:21:38.000Z</time>
      </trkpt>
      <trkpt lat="46.51161" lon="6.50003">
        <ele>379.20001220703</ele>
        <time>2013-05-10T09:21:44.000Z</time>
      </trkpt>
      <trkpt lat="46.51199" lon="6.50016">
        <ele>387</ele>
        <time>2013-05-10T09:21:49.000Z</time>
      </trkpt>
      <trkpt lat="46.51235" lon="6.5005">
        <ele>385.60000610352</ele>
        <time>2013-05-10T09:21:54.000Z</time>
      </trkpt>
      <trkpt lat="46.51266" lon="6.50083">
        <ele>385.60000610352</ele>
        <time>2013-05-10T09:21:59.000Z</time>
      </trkpt>
      <trkpt lat="46.51309" lon="6.50136">
        <ele>386.39999389648</ele>
        <time>2013-05-10T09:22:06.000Z</time>
      </trkpt>
      <trkpt lat="46.51357" lon="6.50193">
        <ele>386</ele>
        <time>2013-05-10T09:22:14.000Z</time>
      </trkpt>
      <trkpt lat="46.51417" lon="6.50265">
        <ele>384.60000610352</ele>
        <time>2013-05-10T09:22:24.000Z</time>
      </trkpt>
      <trkpt lat="46.51485" lon="6.50346">
        <ele>384</ele>
        <time>2013-05-10T09:22:35.000Z</time>
      </trkpt>
      <trkpt lat="46.51531" lon="6.50407">
        <ele>382.60000610352</ele>
        <time>2013-05-10T09:22:43.000Z</time>
      </trkpt>
      <trkpt lat="46.51536" lon="6.50415">
        <ele>382.20001220703</ele>
        <time>2013-05-10T09:22:44.000Z</time>
      </trkpt>
      <trkpt lat="46.51563" lon="6.5047">
        <ele>382.20001220703</ele>
        <time>2013-05-10T09:22:50.000Z</time>
      </trkpt>
      <trkpt lat="46.51586" lon="6.5053">
        <ele>382.20001220703</ele>
        <time>2013-05-10T09:22:56.000Z</time>
      </trkpt>
      <trkpt lat="46.51619" lon="6.50623">
        <ele>381.60000610352</ele>
        <time>2013-05-10T09:23:05.000Z</time>
      </trkpt>
      <trkpt lat="46.51654" lon="6.50729">
        <ele>380.79998779297</ele>
        <time>2013-05-10T09:23:15.000Z</time>
      </trkpt>
      <trkpt lat="46.51667" lon="6.50799">
        <ele>380.79998779297</ele>
        <time>2013-05-10T09:23:21.000Z</time>
      </trkpt>
      <trkpt lat="46.51681" lon="6.50913">
        <ele>381.60000610352</ele>
        <time>2013-05-10T09:23:31.000Z</time>
      </trkpt>
      <trkpt lat="46.51688" lon="6.50982">
        <ele>381.20001220703</ele>
        <time>2013-05-10T09:23:37.000Z</time>
      </trkpt>
      <trkpt lat="46.517" lon="6.51094">
        <ele>381.60000610352</ele>
        <time>2013-05-10T09:23:47.000Z</time>
      </trkpt>
      <trkpt lat="46.51709" lon="6.51179">
        <ele>382.60000610352</ele>
        <time>2013-05-10T09:23:55.000Z</time>
      </trkpt>
      <trkpt lat="46.51718" lon="6.51251">
        <ele>383.20001220703</ele>
        <time>2013-05-10T09:24:02.000Z</time>
      </trkpt>
      <trkpt lat="46.51726" lon="6.51326">
        <ele>382.60000610352</ele>
        <time>2013-05-10T09:24:09.000Z</time>
      </trkpt>
      <trkpt lat="46.51738" lon="6.51421">
        <ele>382.20001220703</ele>
        <time>2013-05-10T09:24:18.000Z</time>
      </trkpt>
      <trkpt lat="46.51748" lon="6.51503">
        <ele>382.60000610352</ele>
        <time>2013-05-10T09:24:26.000Z</time>
      </trkpt>
      <trkpt lat="46.51757" lon="6.5158">
        <ele>383.20001220703</ele>
        <time>2013-05-10T09:24:34.000Z</time>
      </trkpt>
      <trkpt lat="46.51767" lon="6.51656">
        <ele>385</ele>
        <time>2013-05-10T09:24:42.000Z</time>
      </trkpt>
      <trkpt lat="46.51774" lon="6.51722">
        <ele>386</ele>
        <time>2013-05-10T09:24:49.000Z</time>
      </trkpt>
      <trkpt lat="46.51781" lon="6.51785">
        <ele>388</ele>
        <time>2013-05-10T09:24:56.000Z</time>
      </trkpt>
      <trkpt lat="46.51785" lon="6.51865">
        <ele>388</ele>
        <time>2013-05-10T09:25:05.000Z</time>
      </trkpt>
      <trkpt lat="46.51786" lon="6.51953">
        <ele>389.39999389648</ele>
        <time>2013-05-10T09:25:15.000Z</time>
      </trkpt>
      <trkpt lat="46.51783" lon="6.52021">
        <ele>389.79998779297</ele>
        <time>2013-05-10T09:25:23.000Z</time>
      </trkpt>
      <trkpt lat="46.51779" lon="6.52106">
        <ele>391.79998779297</ele>
        <time>2013-05-10T09:25:33.000Z</time>
      </trkpt>
      <trkpt lat="46.51775" lon="6.5219">
        <ele>394.60000610352</ele>
        <time>2013-05-10T09:25:43.000Z</time>
      </trkpt>
      <trkpt lat="46.51771" lon="6.52266">
        <ele>397.60000610352</ele>
        <time>2013-05-10T09:25:53.000Z</time>
      </trkpt>
      <trkpt lat="46.51768" lon="6.52337">
        <ele>400.39999389648</ele>
        <time>2013-05-10T09:26:03.000Z</time>
      </trkpt>
      <trkpt lat="46.51764" lon="6.52408">
        <ele>403.39999389648</ele>
        <time>2013-05-10T09:26:13.000Z</time>
      </trkpt>
      <trkpt lat="46.5176" lon="6.52471">
        <ele>406.20001220703</ele>
        <time>2013-05-10T09:26:22.000Z</time>
      </trkpt>
      <trkpt lat="46.51759" lon="6.52478">
        <ele>406.20001220703</ele>
        <time>2013-05-10T09:26:23.000Z</time>
      </trkpt>
      <trkpt lat="46.51752" lon="6.52505">
        <ele>406.60000610352</ele>
        <time>2013-05-10T09:26:27.000Z</time>
      </trkpt>
      <trkpt lat="46.51746" lon="6.5256">
        <ele>406.60000610352</ele>
        <time>2013-05-10T09:26:34.000Z</time>
      </trkpt>
      <trkpt lat="46.51732" lon="6.5264">
        <ele>406.20001220703</ele>
        <time>2013-05-10T09:26:43.000Z</time>
      </trkpt>
      <trkpt lat="46.51717" lon="6.5272">
        <ele>406.20001220703</ele>
        <time>2013-05-10T09:26:51.000Z</time>
      </trkpt>
      <trkpt lat="46.51696" lon="6.52829">
        <ele>405.79998779297</ele>
        <time>2013-05-10T09:27:01.000Z</time>
      </trkpt>
      <trkpt lat="46.51676" lon="6.52934">
        <ele>406.20001220703</ele>
        <time>2013-05-10T09:27:11.000Z</time>
      </trkpt>
      <trkpt lat="46.51657" lon="6.53032">
        <ele>406.20001220703</ele>
        <time>2013-05-10T09:27:21.000Z</time>
      </trkpt>
      <trkpt lat="46.51632" lon="6.53149">
        <ele>405.79998779297</ele>
        <time>2013-05-10T09:27:33.000Z</time>
      </trkpt>
      <trkpt lat="46.51617" lon="6.53166">
        <ele>404.79998779297</ele>
        <time>2013-05-10T09:27:36.000Z</time>
      </trkpt>
      <trkpt lat="46.51602" lon="6.53164">
        <ele>403.39999389648</ele>
        <time>2013-05-10T09:27:38.000Z</time>
      </trkpt>
      <trkpt lat="46.51547" lon="6.53149">
        <ele>398.60000610352</ele>
        <time>2013-05-10T09:27:44.000Z</time>
      </trkpt>
      <trkpt lat="46.51486" lon="6.53135">
        <ele>393.60000610352</ele>
        <time>2013-05-10T09:27:50.000Z</time>
      </trkpt>
      <trkpt lat="46.51451" lon="6.53119">
        <ele>390.79998779297</ele>
        <time>2013-05-10T09:27:54.000Z</time>
      </trkpt>
      <trkpt lat="46.51404" lon="6.53088">
        <ele>388.39999389648</ele>
        <time>2013-05-10T09:28:00.000Z</time>
      </trkpt>
      <trkpt lat="46.51383" lon="6.5309">
        <ele>388.39999389648</ele>
        <time>2013-05-10T09:28:03.000Z</time>
      </trkpt>
      <trkpt lat="46.51377" lon="6.53098">
        <ele>388.39999389648</ele>
        <time>2013-05-10T09:28:04.000Z</time>
      </trkpt>
      <trkpt lat="46.51341" lon="6.53145">
        <ele>387.39999389648</ele>
        <time>2013-05-10T09:28:10.000Z</time>
      </trkpt>
      <trkpt lat="46.51292" lon="6.53209">
        <ele>387.39999389648</ele>
        <time>2013-05-10T09:28:18.000Z</time>
      </trkpt>
      <trkpt lat="46.51257" lon="6.53243">
        <ele>386</ele>
        <time>2013-05-10T09:28:23.000Z</time>
      </trkpt>
      <trkpt lat="46.51221" lon="6.53301">
        <ele>384.60000610352</ele>
        <time>2013-05-10T09:28:29.000Z</time>
      </trkpt>
      <trkpt lat="46.51182" lon="6.53381">
        <ele>385</ele>
        <time>2013-05-10T09:28:37.000Z</time>
      </trkpt>
      <trkpt lat="46.51153" lon="6.53444">
        <ele>385.60000610352</ele>
        <time>2013-05-10T09:28:44.000Z</time>
      </trkpt>
      <trkpt lat="46.51141" lon="6.53472">
        <ele>385.60000610352</ele>
        <time>2013-05-10T09:28:47.000Z</time>
      </trkpt>
      <trkpt lat="46.51118" lon="6.53485">
        <ele>385</ele>
        <time>2013-05-10T09:28:51.000Z</time>
      </trkpt>
      <trkpt lat="46.51111" lon="6.53481">
        <ele>385</ele>
        <time>2013-05-10T09:28:52.000Z</time>
      </trkpt>
      <trkpt lat="46.5106" lon="6.53456">
        <ele>385</ele>
        <time>2013-05-10T09:28:59.000Z</time>
      </trkpt>
      <trkpt lat="46.51013" lon="6.53429">
        <ele>382.60000610352</ele>
        <time>2013-05-10T09:29:05.000Z</time>
      </trkpt>
      <trkpt lat="46.50969" lon="6.53404">
        <ele>380.79998779297</ele>
        <time>2013-05-10T09:29:10.000Z</time>
      </trkpt>
      <trkpt lat="46.50956" lon="6.53396">
        <ele>379.79998779297</ele>
        <time>2013-05-10T09:29:12.000Z</time>
      </trkpt>
      <trkpt lat="46.50941" lon="6.53402">
        <ele>376.79998779297</ele>
        <time>2013-05-10T09:29:16.000Z</time>
      </trkpt>
      <trkpt lat="46.50935" lon="6.53416">
        <ele>376.39999389648</ele>
        <time>2013-05-10T09:29:19.000Z</time>
      </trkpt>
      <trkpt lat="46.50912" lon="6.53452">
        <ele>377.79998779297</ele>
        <time>2013-05-10T09:29:28.000Z</time>
      </trkpt>
      <trkpt lat="46.509" lon="6.53474">
        <ele>378.39999389648</ele>
        <time>2013-05-10T09:29:34.000Z</time>
      </trkpt>
      <trkpt lat="46.50885" lon="6.53495">
        <ele>379.20001220703</ele>
        <time>2013-05-10T09:29:39.000Z</time>
      </trkpt>
      <trkpt lat="46.50875" lon="6.53508">
        <ele>379.20001220703</ele>
        <time>2013-05-10T09:29:42.000Z</time>
      </trkpt>
      <trkpt lat="46.50921" lon="6.54804">
        <ele>383.60000610352</ele>
        <time>2013-05-10T09:40:17.000Z</time>
      </trkpt>
      <trkpt lat="46.50955" lon="6.5482">
        <ele>385.60000610352</ele>
        <time>2013-05-10T09:40:23.000Z</time>
      </trkpt>
      <trkpt lat="46.50991" lon="6.54832">
        <ele>387.39999389648</ele>
        <time>2013-05-10T09:40:30.000Z</time>
      </trkpt>
      <trkpt lat="46.5103" lon="6.54841">
        <ele>388.39999389648</ele>
        <time>2013-05-10T09:40:37.000Z</time>
      </trkpt>
      <trkpt lat="46.51078" lon="6.54851">
        <ele>389.79998779297</ele>
        <time>2013-05-10T09:40:46.000Z</time>
      </trkpt>
      <trkpt lat="46.51083" lon="6.54852">
        <ele>390.39999389648</ele>
        <time>2013-05-10T09:40:47.000Z</time>
      </trkpt>
      <trkpt lat="46.51099" lon="6.54865">
        <ele>392.79998779297</ele>
        <time>2013-05-10T09:40:52.000Z</time>
      </trkpt>
      <trkpt lat="46.51118" lon="6.54887">
        <ele>395.20001220703</ele>
        <time>2013-05-10T09:40:59.000Z</time>
      </trkpt>
      <trkpt lat="46.51129" lon="6.54906">
        <ele>397.60000610352</ele>
        <time>2013-05-10T09:41:05.000Z</time>
      </trkpt>
      <trkpt lat="46.51148" lon="6.54928">
        <ele>400.39999389648</ele>
        <time>2013-05-10T09:41:13.000Z</time>
      </trkpt>
      <trkpt lat="46.51165" lon="6.54945">
        <ele>401.79998779297</ele>
        <time>2013-05-10T09:41:19.000Z</time>
      </trkpt>
      <trkpt lat="46.51164" lon="6.54964">
        <ele>402.39999389648</ele>
        <time>2013-05-10T09:41:23.000Z</time>
      </trkpt>
      <trkpt lat="46.51152" lon="6.54996">
        <ele>402.39999389648</ele>
        <time>2013-05-10T09:41:28.000Z</time>
      </trkpt>
      <trkpt lat="46.51132" lon="6.55045">
        <ele>402.79998779297</ele>
        <time>2013-05-10T09:41:35.000Z</time>
      </trkpt>
      <trkpt lat="46.51103" lon="6.55117">
        <ele>402.79998779297</ele>
        <time>2013-05-10T09:41:44.000Z</time>
      </trkpt>
      <trkpt lat="46.51075" lon="6.55202">
        <ele>402.39999389648</ele>
        <time>2013-05-10T09:41:53.000Z</time>
      </trkpt>
      <trkpt lat="46.51057" lon="6.55284">
        <ele>401.79998779297</ele>
        <time>2013-05-10T09:42:01.000Z</time>
      </trkpt>
      <trkpt lat="46.51042" lon="6.55391">
        <ele>401.79998779297</ele>
        <time>2013-05-10T09:42:11.000Z</time>
      </trkpt>
      <trkpt lat="46.51032" lon="6.55464">
        <ele>401.79998779297</ele>
        <time>2013-05-10T09:42:18.000Z</time>
      </trkpt>
      <trkpt lat="46.5103" lon="6.55484">
        <ele>401.79998779297</ele>
        <time>2013-05-10T09:42:20.000Z</time>
      </trkpt>
      <trkpt lat="46.51027" lon="6.55512">
        <ele>403.39999389648</ele>
        <time>2013-05-10T09:42:23.000Z</time>
      </trkpt>
      <trkpt lat="46.51012" lon="6.55592">
        <ele>401.79998779297</ele>
        <time>2013-05-10T09:42:30.000Z</time>
      </trkpt>
      <trkpt lat="46.51001" lon="6.55694">
        <ele>400.39999389648</ele>
        <time>2013-05-10T09:42:39.000Z</time>
      </trkpt>
      <trkpt lat="46.50998" lon="6.55728">
        <ele>400.39999389648</ele>
        <time>2013-05-10T09:42:42.000Z</time>
      </trkpt>
      <trkpt lat="46.50999" lon="6.55752">
        <ele>401</ele>
        <time>2013-05-10T09:42:44.000Z</time>
      </trkpt>
      <trkpt lat="46.51012" lon="6.55828">
        <ele>401.39999389648</ele>
        <time>2013-05-10T09:42:51.000Z</time>
      </trkpt>
      <trkpt lat="46.51015" lon="6.55838">
        <ele>401.39999389648</ele>
        <time>2013-05-10T09:42:52.000Z</time>
      </trkpt>
      <trkpt lat="46.51033" lon="6.5587">
        <ele>401.79998779297</ele>
        <time>2013-05-10T09:42:56.000Z</time>
      </trkpt>
      <trkpt lat="46.51043" lon="6.55883">
        <ele>402.39999389648</ele>
        <time>2013-05-10T09:42:58.000Z</time>
      </trkpt>
      <trkpt lat="46.51075" lon="6.55904">
        <ele>402.39999389648</ele>
        <time>2013-05-10T09:43:03.000Z</time>
      </trkpt>
      <trkpt lat="46.51096" lon="6.55903">
        <ele>402.79998779297</ele>
        <time>2013-05-10T09:43:06.000Z</time>
      </trkpt>
      <trkpt lat="46.51155" lon="6.55884">
        <ele>403.79998779297</ele>
        <time>2013-05-10T09:43:14.000Z</time>
      </trkpt>
      <trkpt lat="46.51191" lon="6.55883">
        <ele>405.20001220703</ele>
        <time>2013-05-10T09:43:19.000Z</time>
      </trkpt>
      <trkpt lat="46.5124" lon="6.55905">
        <ele>405.20001220703</ele>
        <time>2013-05-10T09:43:26.000Z</time>
      </trkpt>
      <trkpt lat="46.51313" lon="6.55945">
        <ele>403.39999389648</ele>
        <time>2013-05-10T09:43:36.000Z</time>
      </trkpt>
      <trkpt lat="46.5139" lon="6.55967">
        <ele>402.79998779297</ele>
        <time>2013-05-10T09:43:46.000Z</time>
      </trkpt>
      <trkpt lat="46.51441" lon="6.55979">
        <ele>404.20001220703</ele>
        <time>2013-05-10T09:43:53.000Z</time>
      </trkpt>
      <trkpt lat="46.51465" lon="6.55986">
        <ele>404.79998779297</ele>
        <time>2013-05-10T09:43:57.000Z</time>
      </trkpt>
      <trkpt lat="46.5149" lon="6.56008">
        <ele>405.20001220703</ele>
        <time>2013-05-10T09:44:02.000Z</time>
      </trkpt>
      <trkpt lat="46.51494" lon="6.56016">
        <ele>404.79998779297</ele>
        <time>2013-05-10T09:44:03.000Z</time>
      </trkpt>
      <trkpt lat="46.51534" lon="6.5611">
        <ele>403.79998779297</ele>
        <time>2013-05-10T09:44:13.000Z</time>
      </trkpt>
      <trkpt lat="46.51569" lon="6.56189">
        <ele>402.79998779297</ele>
        <time>2013-05-10T09:44:21.000Z</time>
      </trkpt>
      <trkpt lat="46.51621" lon="6.56306">
        <ele>402.79998779297</ele>
        <time>2013-05-10T09:44:33.000Z</time>
      </trkpt>
      <trkpt lat="46.51654" lon="6.56387">
        <ele>402.39999389648</ele>
        <time>2013-05-10T09:44:41.000Z</time>
      </trkpt>
      <trkpt lat="46.51676" lon="6.5646">
        <ele>402.79998779297</ele>
        <time>2013-05-10T09:44:48.000Z</time>
      </trkpt>
      <trkpt lat="46.51691" lon="6.56534">
        <ele>402.79998779297</ele>
        <time>2013-05-10T09:44:55.000Z</time>
      </trkpt>
      <trkpt lat="46.51693" lon="6.56554">
        <ele>402.39999389648</ele>
        <time>2013-05-10T09:44:57.000Z</time>
      </trkpt>
      <trkpt lat="46.51701" lon="6.56618">
        <ele>402.39999389648</ele>
        <time>2013-05-10T09:45:03.000Z</time>
      </trkpt>
      <trkpt lat="46.5171" lon="6.56727">
        <ele>402.79998779297</ele>
        <time>2013-05-10T09:45:13.000Z</time>
      </trkpt>
      <trkpt lat="46.51718" lon="6.56812">
        <ele>403.79998779297</ele>
        <time>2013-05-10T09:45:21.000Z</time>
      </trkpt>
      <trkpt lat="46.51728" lon="6.56908">
        <ele>405.20001220703</ele>
        <time>2013-05-10T09:45:30.000Z</time>
      </trkpt>
      <trkpt lat="46.51734" lon="6.56967">
        <ele>405.79998779297</ele>
        <time>2013-05-10T09:45:36.000Z</time>
      </trkpt>
      <trkpt lat="46.51735" lon="6.56988">
        <ele>405.20001220703</ele>
        <time>2013-05-10T09:45:38.000Z</time>
      </trkpt>
      <trkpt lat="46.51751" lon="6.57065">
        <ele>403.79998779297</ele>
        <time>2013-05-10T09:45:45.000Z</time>
      </trkpt>
      <trkpt lat="46.51773" lon="6.57146">
        <ele>402.39999389648</ele>
        <time>2013-05-10T09:45:52.000Z</time>
      </trkpt>
      <trkpt lat="46.51795" lon="6.57213">
        <ele>401.79998779297</ele>
        <time>2013-05-10T09:45:58.000Z</time>
      </trkpt>
      <trkpt lat="46.5182" lon="6.57294">
        <ele>401</ele>
        <time>2013-05-10T09:46:05.000Z</time>
      </trkpt>
      <trkpt lat="46.51857" lon="6.57411">
        <ele>401</ele>
        <time>2013-05-10T09:46:15.000Z</time>
      </trkpt>
      <trkpt lat="46.51886" lon="6.57513">
        <ele>401.39999389648</ele>
        <time>2013-05-10T09:46:24.000Z</time>
      </trkpt>
      <trkpt lat="46.51914" lon="6.57617">
        <ele>401.39999389648</ele>
        <time>2013-05-10T09:46:33.000Z</time>
      </trkpt>
      <trkpt lat="46.51943" lon="6.57725">
        <ele>399</ele>
        <time>2013-05-10T09:46:42.000Z</time>
      </trkpt>
      <trkpt lat="46.51961" lon="6.57802">
        <ele>397.60000610352</ele>
        <time>2013-05-10T09:46:48.000Z</time>
      </trkpt>
      <trkpt lat="46.51975" lon="6.57873">
        <ele>395.60000610352</ele>
        <time>2013-05-10T09:46:53.000Z</time>
      </trkpt>
      <trkpt lat="46.51995" lon="6.57986">
        <ele>392.20001220703</ele>
        <time>2013-05-10T09:47:01.000Z</time>
      </trkpt>
      <trkpt lat="46.52009" lon="6.58065">
        <ele>389.79998779297</ele>
        <time>2013-05-10T09:47:07.000Z</time>
      </trkpt>
      <trkpt lat="46.52027" lon="6.58181">
        <ele>386</ele>
        <time>2013-05-10T09:47:16.000Z</time>
      </trkpt>
      <trkpt lat="46.52034" lon="6.5822">
        <ele>384.60000610352</ele>
        <time>2013-05-10T09:47:19.000Z</time>
      </trkpt>
      <trkpt lat="46.52059" lon="6.5834">
        <ele>383.60000610352</ele>
        <time>2013-05-10T09:47:29.000Z</time>
      </trkpt>
      <trkpt lat="46.52063" lon="6.58364">
        <ele>383.20001220703</ele>
        <time>2013-05-10T09:47:31.000Z</time>
      </trkpt>
      <trkpt lat="46.52082" lon="6.58431">
        <ele>383.60000610352</ele>
        <time>2013-05-10T09:47:37.000Z</time>
      </trkpt>
      <trkpt lat="46.52098" lon="6.58492">
        <ele>384</ele>
        <time>2013-05-10T09:47:43.000Z</time>
      </trkpt>
      <trkpt lat="46.52109" lon="6.58535">
        <ele>384.60000610352</ele>
        <time>2013-05-10T09:47:48.000Z</time>
      </trkpt>
      <trkpt lat="46.52113" lon="6.5854">
        <ele>384.60000610352</ele>
        <time>2013-05-10T09:47:49.000Z</time>
      </trkpt>
      <trkpt lat="46.52119" lon="6.5855">
        <ele>385</ele>
        <time>2013-05-10T09:47:51.000Z</time>
      </trkpt>
      <trkpt lat="46.52124" lon="6.58567">
        <ele>385.60000610352</ele>
        <time>2013-05-10T09:47:56.000Z</time>
      </trkpt>
      <trkpt lat="46.52116" lon="6.58571">
        <ele>384</ele>
        <time>2013-05-10T09:47:59.000Z</time>
      </trkpt>
      <trkpt lat="46.52113" lon="6.58571">
        <ele>383.60000610352</ele>
        <time>2013-05-10T09:48:04.000Z</time>
      </trkpt>
      <trkpt lat="46.52106" lon="6.58586">
        <ele>383.60000610352</ele>
        <time>2013-05-10T09:48:09.000Z</time>
      </trkpt>
      <trkpt lat="46.52097" lon="6.58633">
        <ele>382.60000610352</ele>
        <time>2013-05-10T09:48:16.000Z</time>
      </trkpt>
      <trkpt lat="46.52086" lon="6.58676">
        <ele>381.60000610352</ele>
        <time>2013-05-10T09:48:21.000Z</time>
      </trkpt>
      <trkpt lat="46.52072" lon="6.58743">
        <ele>380.79998779297</ele>
        <time>2013-05-10T09:48:28.000Z</time>
      </trkpt>
      <trkpt lat="46.52047" lon="6.58852">
        <ele>379.20001220703</ele>
        <time>2013-05-10T09:48:38.000Z</time>
      </trkpt>
      <trkpt lat="46.52024" lon="6.58935">
        <ele>381.20001220703</ele>
        <time>2013-05-10T09:48:45.000Z</time>
      </trkpt>
      <trkpt lat="46.52005" lon="6.59002">
        <ele>381.60000610352</ele>
        <time>2013-05-10T09:48:51.000Z</time>
      </trkpt>
      <trkpt lat="46.51985" lon="6.5904">
        <ele>382.60000610352</ele>
        <time>2013-05-10T09:48:56.000Z</time>
      </trkpt>
      <trkpt lat="46.51972" lon="6.59092">
        <ele>383.20001220703</ele>
        <time>2013-05-10T09:49:01.000Z</time>
      </trkpt>
      <trkpt lat="46.51954" lon="6.5916">
        <ele>384</ele>
        <time>2013-05-10T09:49:07.000Z</time>
      </trkpt>
      <trkpt lat="46.51925" lon="6.59246">
        <ele>386</ele>
        <time>2013-05-10T09:49:15.000Z</time>
      </trkpt>
      <trkpt lat="46.51898" lon="6.59318">
        <ele>386.39999389648</ele>
        <time>2013-05-10T09:49:22.000Z</time>
      </trkpt>
      <trkpt lat="46.51876" lon="6.5937">
        <ele>387.39999389648</ele>
        <time>2013-05-10T09:49:27.000Z</time>
      </trkpt>
      <trkpt lat="46.51852" lon="6.59421">
        <ele>388.39999389648</ele>
        <time>2013-05-10T09:49:32.000Z</time>
      </trkpt>
      <trkpt lat="46.51822" lon="6.5949">
        <ele>386.39999389648</ele>
        <time>2013-05-10T09:49:39.000Z</time>
      </trkpt>
      <trkpt lat="46.51801" lon="6.59547">
        <ele>386</ele>
        <time>2013-05-10T09:49:45.000Z</time>
      </trkpt>
      <trkpt lat="46.51782" lon="6.59605">
        <ele>384.60000610352</ele>
        <time>2013-05-10T09:49:51.000Z</time>
      </trkpt>
      <trkpt lat="46.51751" lon="6.59705">
        <ele>385</ele>
        <time>2013-05-10T09:50:01.000Z</time>
      </trkpt>
      <trkpt lat="46.51746" lon="6.59724">
        <ele>385</ele>
        <time>2013-05-10T09:50:03.000Z</time>
      </trkpt>
      <trkpt lat="46.51749" lon="6.59759">
        <ele>385.60000610352</ele>
        <time>2013-05-10T09:50:07.000Z</time>
      </trkpt>
      <trkpt lat="46.51753" lon="6.59766">
        <ele>385.60000610352</ele>
        <time>2013-05-10T09:50:08.000Z</time>
      </trkpt>
      <trkpt lat="46.5177" lon="6.59792">
        <ele>385.60000610352</ele>
        <time>2013-05-10T09:50:12.000Z</time>
      </trkpt>
      <trkpt lat="46.51779" lon="6.59814">
        <ele>385.60000610352</ele>
        <time>2013-05-10T09:50:16.000Z</time>
      </trkpt>
      <trkpt lat="46.51778" lon="6.59841">
        <ele>385.60000610352</ele>
        <time>2013-05-10T09:50:21.000Z</time>
      </trkpt>
      <trkpt lat="46.51776" lon="6.59846">
        <ele>385.60000610352</ele>
        <time>2013-05-10T09:50:22.000Z</time>
      </trkpt>
      <trkpt lat="46.51772" lon="6.59857">
        <ele>385.60000610352</ele>
        <time>2013-05-10T09:50:24.000Z</time>
      </trkpt>
      <trkpt lat="46.51764" lon="6.59878">
        <ele>384</ele>
        <time>2013-05-10T09:50:28.000Z</time>
      </trkpt>
      <trkpt lat="46.51758" lon="6.59897">
        <ele>383.60000610352</ele>
        <time>2013-05-10T09:50:31.000Z</time>
      </trkpt>
      <trkpt lat="46.51752" lon="6.59931">
        <ele>383.60000610352</ele>
        <time>2013-05-10T09:50:36.000Z</time>
      </trkpt>
      <trkpt lat="46.51745" lon="6.59961">
        <ele>385</ele>
        <time>2013-05-10T09:50:40.000Z</time>
      </trkpt>
      <trkpt lat="46.5174" lon="6.60014">
        <ele>388</ele>
        <time>2013-05-10T09:50:46.000Z</time>
      </trkpt>
      <trkpt lat="46.51728" lon="6.60087">
        <ele>388.79998779297</ele>
        <time>2013-05-10T09:50:54.000Z</time>
      </trkpt>
      <trkpt lat="46.51715" lon="6.60146">
        <ele>388.79998779297</ele>
        <time>2013-05-10T09:51:00.000Z</time>
      </trkpt>
      <trkpt lat="46.51692" lon="6.60205">
        <ele>387</ele>
        <time>2013-05-10T09:51:06.000Z</time>
      </trkpt>
      <trkpt lat="46.51687" lon="6.60215">
        <ele>387</ele>
        <time>2013-05-10T09:51:07.000Z</time>
      </trkpt>
      <trkpt lat="46.51654" lon="6.60251">
        <ele>385.60000610352</ele>
        <time>2013-05-10T09:51:12.000Z</time>
      </trkpt>
      <trkpt lat="46.5163" lon="6.60256">
        <ele>385</ele>
        <time>2013-05-10T09:51:15.000Z</time>
      </trkpt>
      <trkpt lat="46.51572" lon="6.60238">
        <ele>382.20001220703</ele>
        <time>2013-05-10T09:51:22.000Z</time>
      </trkpt>
      <trkpt lat="46.51543" lon="6.60245">
        <ele>382.20001220703</ele>
        <time>2013-05-10T09:51:26.000Z</time>
      </trkpt>
      <trkpt lat="46.51538" lon="6.60262">
        <ele>381.60000610352</ele>
        <time>2013-05-10T09:51:28.000Z</time>
      </trkpt>
      <trkpt lat="46.51539" lon="6.60272">
        <ele>381.60000610352</ele>
        <time>2013-05-10T09:51:29.000Z</time>
      </trkpt>
      <trkpt lat="46.51544" lon="6.60313">
        <ele>382.20001220703</ele>
        <time>2013-05-10T09:51:33.000Z</time>
      </trkpt>
      <trkpt lat="46.5154" lon="6.60367">
        <ele>382.60000610352</ele>
        <time>2013-05-10T09:51:38.000Z</time>
      </trkpt>
      <trkpt lat="46.51532" lon="6.60398">
        <ele>382.60000610352</ele>
        <time>2013-05-10T09:51:41.000Z</time>
      </trkpt>
      <trkpt lat="46.51502" lon="6.60454">
        <ele>383.20001220703</ele>
        <time>2013-05-10T09:51:47.000Z</time>
      </trkpt>
      <trkpt lat="46.51481" lon="6.60488">
        <ele>383.20001220703</ele>
        <time>2013-05-10T09:51:51.000Z</time>
      </trkpt>
      <trkpt lat="46.51456" lon="6.60561">
        <ele>383.20001220703</ele>
        <time>2013-05-10T09:51:58.000Z</time>
      </trkpt>
      <trkpt lat="46.51453" lon="6.60572">
        <ele>383.20001220703</ele>
        <time>2013-05-10T09:51:59.000Z</time>
      </trkpt>
      <trkpt lat="46.51445" lon="6.60642">
        <ele>382.60000610352</ele>
        <time>2013-05-10T09:52:05.000Z</time>
      </trkpt>
      <trkpt lat="46.51448" lon="6.60699">
        <ele>382.20001220703</ele>
        <time>2013-05-10T09:52:10.000Z</time>
      </trkpt>
      <trkpt lat="46.51462" lon="6.60738">
        <ele>382.60000610352</ele>
        <time>2013-05-10T09:52:14.000Z</time>
      </trkpt>
      <trkpt lat="46.5148" lon="6.60759">
        <ele>382.60000610352</ele>
        <time>2013-05-10T09:52:17.000Z</time>
      </trkpt>
      <trkpt lat="46.51522" lon="6.60787">
        <ele>384</ele>
        <time>2013-05-10T09:52:23.000Z</time>
      </trkpt>
      <trkpt lat="46.51543" lon="6.60809">
        <ele>385</ele>
        <time>2013-05-10T09:52:27.000Z</time>
      </trkpt>
      <trkpt lat="46.51544" lon="6.60831">
        <ele>384.60000610352</ele>
        <time>2013-05-10T09:52:30.000Z</time>
      </trkpt>
      <trkpt lat="46.51542" lon="6.60838">
        <ele>384.60000610352</ele>
        <time>2013-05-10T09:52:31.000Z</time>
      </trkpt>
      <trkpt lat="46.51522" lon="6.60911">
        <ele>384.60000610352</ele>
        <time>2013-05-10T09:52:39.000Z</time>
      </trkpt>
      <trkpt lat="46.51505" lon="6.6097">
        <ele>385</ele>
        <time>2013-05-10T09:52:45.000Z</time>
      </trkpt>
      <trkpt lat="46.51483" lon="6.61039">
        <ele>385.60000610352</ele>
        <time>2013-05-10T09:52:52.000Z</time>
      </trkpt>
      <trkpt lat="46.5146" lon="6.61083">
        <ele>385</ele>
        <time>2013-05-10T09:52:57.000Z</time>
      </trkpt>
      <trkpt lat="46.51444" lon="6.61107">
        <ele>385</ele>
        <time>2013-05-10T09:53:00.000Z</time>
      </trkpt>
      <trkpt lat="46.51417" lon="6.61138">
        <ele>384</ele>
        <time>2013-05-10T09:53:05.000Z</time>
      </trkpt>
      <trkpt lat="46.51375" lon="6.61205">
        <ele>383.60000610352</ele>
        <time>2013-05-10T09:53:13.000Z</time>
      </trkpt>
      <trkpt lat="46.5133" lon="6.61276">
        <ele>385</ele>
        <time>2013-05-10T09:53:21.000Z</time>
      </trkpt>
      <trkpt lat="46.51308" lon="6.61329">
        <ele>384.60000610352</ele>
        <time>2013-05-10T09:53:26.000Z</time>
      </trkpt>
      <trkpt lat="46.51291" lon="6.61388">
        <ele>383.20001220703</ele>
        <time>2013-05-10T09:53:31.000Z</time>
      </trkpt>
      <trkpt lat="46.51258" lon="6.61506">
        <ele>383.20001220703</ele>
        <time>2013-05-10T09:53:41.000Z</time>
      </trkpt>
      <trkpt lat="46.51228" lon="6.6159">
        <ele>383.20001220703</ele>
        <time>2013-05-10T09:53:49.000Z</time>
      </trkpt>
      <trkpt lat="46.51188" lon="6.61676">
        <ele>382.60000610352</ele>
        <time>2013-05-10T09:53:58.000Z</time>
      </trkpt>
      <trkpt lat="46.51183" lon="6.61685">
        <ele>383.20001220703</ele>
        <time>2013-05-10T09:53:59.000Z</time>
      </trkpt>
      <trkpt lat="46.51161" lon="6.61714">
        <ele>383.60000610352</ele>
        <time>2013-05-10T09:54:03.000Z</time>
      </trkpt>
      <trkpt lat="46.51132" lon="6.61764">
        <ele>384</ele>
        <time>2013-05-10T09:54:09.000Z</time>
      </trkpt>
      <trkpt lat="46.51105" lon="6.61808">
        <ele>383.60000610352</ele>
        <time>2013-05-10T09:54:15.000Z</time>
      </trkpt>
      <trkpt lat="46.51086" lon="6.61838">
        <ele>381.60000610352</ele>
        <time>2013-05-10T09:54:19.000Z</time>
      </trkpt>
      <trkpt lat="46.51066" lon="6.61868">
        <ele>381.20001220703</ele>
        <time>2013-05-10T09:54:23.000Z</time>
      </trkpt>
      <trkpt lat="46.51037" lon="6.61909">
        <ele>383.20001220703</ele>
        <time>2013-05-10T09:54:28.000Z</time>
      </trkpt>
      <trkpt lat="46.51009" lon="6.61948">
        <ele>385</ele>
        <time>2013-05-10T09:54:33.000Z</time>
      </trkpt>
      <trkpt lat="46.50981" lon="6.61996">
        <ele>384</ele>
        <time>2013-05-10T09:54:39.000Z</time>
      </trkpt>
      <trkpt lat="46.50969" lon="6.62008">
        <ele>384.60000610352</ele>
        <time>2013-05-10T09:54:44.000Z</time>
      </trkpt>
      <trkpt lat="46.50965" lon="6.62018">
        <ele>385</ele>
        <time>2013-05-10T09:54:46.000Z</time>
      </trkpt>
      <trkpt lat="46.5094" lon="6.62057">
        <ele>385.60000610352</ele>
        <time>2013-05-10T09:54:53.000Z</time>
      </trkpt>
      <trkpt lat="46.50905" lon="6.62112">
        <ele>385</ele>
        <time>2013-05-10T09:55:01.000Z</time>
      </trkpt>
      <trkpt lat="46.50873" lon="6.6218">
        <ele>386</ele>
        <time>2013-05-10T09:55:09.000Z</time>
      </trkpt>
      <trkpt lat="46.50848" lon="6.62256">
        <ele>385</ele>
        <time>2013-05-10T09:55:17.000Z</time>
      </trkpt>
      <trkpt lat="46.50829" lon="6.62325">
        <ele>384</ele>
        <time>2013-05-10T09:55:24.000Z</time>
      </trkpt>
      <trkpt lat="46.50806" lon="6.6239">
        <ele>382.20001220703</ele>
        <time>2013-05-10T09:55:31.000Z</time>
      </trkpt>
      <trkpt lat="46.5077" lon="6.62468">
        <ele>382.20001220703</ele>
        <time>2013-05-10T09:55:40.000Z</time>
      </trkpt>
      <trkpt lat="46.50753" lon="6.62508">
        <ele>382.20001220703</ele>
        <time>2013-05-10T09:55:45.000Z</time>
      </trkpt>
      <trkpt lat="46.5073" lon="6.62561">
        <ele>383.20001220703</ele>
        <time>2013-05-10T09:55:51.000Z</time>
      </trkpt>
      <trkpt lat="46.50711" lon="6.62605">
        <ele>383.20001220703</ele>
        <time>2013-05-10T09:55:56.000Z</time>
      </trkpt>
      <trkpt lat="46.50696" lon="6.62641">
        <ele>382.60000610352</ele>
        <time>2013-05-10T09:56:00.000Z</time>
      </trkpt>
      <trkpt lat="46.5069" lon="6.62685">
        <ele>381.20001220703</ele>
        <time>2013-05-10T09:56:04.000Z</time>
      </trkpt>
      <trkpt lat="46.50696" lon="6.62705">
        <ele>381.20001220703</ele>
        <time>2013-05-10T09:56:06.000Z</time>
      </trkpt>
      <trkpt lat="46.50704" lon="6.62723">
        <ele>381.20001220703</ele>
        <time>2013-05-10T09:56:08.000Z</time>
      </trkpt>
      <trkpt lat="46.50704" lon="6.62763">
        <ele>381.60000610352</ele>
        <time>2013-05-10T09:56:12.000Z</time>
      </trkpt>
      <trkpt lat="46.50704" lon="6.62773">
        <ele>381.60000610352</ele>
        <time>2013-05-10T09:56:13.000Z</time>
      </trkpt>
      <trkpt lat="46.507" lon="6.62806">
        <ele>381.60000610352</ele>
        <time>2013-05-10T09:56:16.000Z</time>
      </trkpt>
      <trkpt lat="46.50693" lon="6.62887">
        <ele>379.79998779297</ele>
        <time>2013-05-10T09:56:23.000Z</time>
      </trkpt>
      <trkpt lat="46.50687" lon="6.6297">
        <ele>379.20001220703</ele>
        <time>2013-05-10T09:56:30.000Z</time>
      </trkpt>
      <trkpt lat="46.50686" lon="6.62994">
        <ele>379.20001220703</ele>
        <time>2013-05-10T09:56:32.000Z</time>
      </trkpt>
      <trkpt lat="46.50695" lon="6.63053">
        <ele>379.20001220703</ele>
        <time>2013-05-10T09:56:37.000Z</time>
      </trkpt>
      <trkpt lat="46.50721" lon="6.63155">
        <ele>380.20001220703</ele>
        <time>2013-05-10T09:56:46.000Z</time>
      </trkpt>
      <trkpt lat="46.5073" lon="6.63218">
        <ele>380.79998779297</ele>
        <time>2013-05-10T09:56:51.000Z</time>
      </trkpt>
      <trkpt lat="46.50731" lon="6.6323">
        <ele>380.79998779297</ele>
        <time>2013-05-10T09:56:52.000Z</time>
      </trkpt>
      <trkpt lat="46.50731" lon="6.63295">
        <ele>380.79998779297</ele>
        <time>2013-05-10T09:56:57.000Z</time>
      </trkpt>
      <trkpt lat="46.50717" lon="6.6337">
        <ele>381.20001220703</ele>
        <time>2013-05-10T09:57:03.000Z</time>
      </trkpt>
      <trkpt lat="46.50695" lon="6.63453">
        <ele>381.20001220703</ele>
        <time>2013-05-10T09:57:10.000Z</time>
      </trkpt>
      <trkpt lat="46.50668" lon="6.63554">
        <ele>380.79998779297</ele>
        <time>2013-05-10T09:57:19.000Z</time>
      </trkpt>
      <trkpt lat="46.5065" lon="6.6362">
        <ele>381.60000610352</ele>
        <time>2013-05-10T09:57:25.000Z</time>
      </trkpt>
      <trkpt lat="46.50626" lon="6.63709">
        <ele>381.60000610352</ele>
        <time>2013-05-10T09:57:33.000Z</time>
      </trkpt>
      <trkpt lat="46.50599" lon="6.63809">
        <ele>382.20001220703</ele>
        <time>2013-05-10T09:57:42.000Z</time>
      </trkpt>
      <trkpt lat="46.5057" lon="6.63921">
        <ele>381.60000610352</ele>
        <time>2013-05-10T09:57:52.000Z</time>
      </trkpt>
      <trkpt lat="46.50549" lon="6.64001">
        <ele>381.20001220703</ele>
        <time>2013-05-10T09:57:59.000Z</time>
      </trkpt>
      <trkpt lat="46.50523" lon="6.64102">
        <ele>380.20001220703</ele>
        <time>2013-05-10T09:58:08.000Z</time>
      </trkpt>
      <trkpt lat="46.50524" lon="6.64149">
        <ele>380.79998779297</ele>
        <time>2013-05-10T09:58:12.000Z</time>
      </trkpt>
      <trkpt lat="46.5054" lon="6.64188">
        <ele>381.60000610352</ele>
        <time>2013-05-10T09:58:16.000Z</time>
      </trkpt>
      <trkpt lat="46.50567" lon="6.64215">
        <ele>383.20001220703</ele>
        <time>2013-05-10T09:58:20.000Z</time>
      </trkpt>
      <trkpt lat="46.50619" lon="6.64242">
        <ele>386.39999389648</ele>
        <time>2013-05-10T09:58:27.000Z</time>
      </trkpt>
      <trkpt lat="46.50639" lon="6.64254">
        <ele>388</ele>
        <time>2013-05-10T09:58:30.000Z</time>
      </trkpt>
      <trkpt lat="46.50657" lon="6.64287">
        <ele>389.79998779297</ele>
        <time>2013-05-10T09:58:34.000Z</time>
      </trkpt>
      <trkpt lat="46.50656" lon="6.64299">
        <ele>389.79998779297</ele>
        <time>2013-05-10T09:58:35.000Z</time>
      </trkpt>
      <trkpt lat="46.50653" lon="6.64403">
        <ele>390.79998779297</ele>
        <time>2013-05-10T09:58:44.000Z</time>
      </trkpt>
      <trkpt lat="46.50651" lon="6.64491">
        <ele>391.79998779297</ele>
        <time>2013-05-10T09:58:51.000Z</time>
      </trkpt>
      <trkpt lat="46.5065" lon="6.64617">
        <ele>391.79998779297</ele>
        <time>2013-05-10T09:59:01.000Z</time>
      </trkpt>
      <trkpt lat="46.50648" lon="6.64745">
        <ele>391.20001220703</ele>
        <time>2013-05-10T09:59:11.000Z</time>
      </trkpt>
      <trkpt lat="46.50646" lon="6.64845">
        <ele>391.20001220703</ele>
        <time>2013-05-10T09:59:19.000Z</time>
      </trkpt>
      <trkpt lat="46.50644" lon="6.6493">
        <ele>390.39999389648</ele>
        <time>2013-05-10T09:59:26.000Z</time>
      </trkpt>
      <trkpt lat="46.50643" lon="6.65014">
        <ele>390.79998779297</ele>
        <time>2013-05-10T09:59:33.000Z</time>
      </trkpt>
      <trkpt lat="46.50641" lon="6.65119">
        <ele>391.20001220703</ele>
        <time>2013-05-10T09:59:41.000Z</time>
      </trkpt>
      <trkpt lat="46.50638" lon="6.65236">
        <ele>392.20001220703</ele>
        <time>2013-05-10T09:59:50.000Z</time>
      </trkpt>
      <trkpt lat="46.50637" lon="6.65349">
        <ele>393.60000610352</ele>
        <time>2013-05-10T09:59:59.000Z</time>
      </trkpt>
      <trkpt lat="46.50641" lon="6.65432">
        <ele>394.60000610352</ele>
        <time>2013-05-10T10:00:06.000Z</time>
      </trkpt>
      <trkpt lat="46.50648" lon="6.65515">
        <ele>395.20001220703</ele>
        <time>2013-05-10T10:00:13.000Z</time>
      </trkpt>
      <trkpt lat="46.50658" lon="6.65624">
        <ele>394.20001220703</ele>
        <time>2013-05-10T10:00:22.000Z</time>
      </trkpt>
      <trkpt lat="46.50662" lon="6.65688">
        <ele>393.20001220703</ele>
        <time>2013-05-10T10:00:27.000Z</time>
      </trkpt>
      <trkpt lat="46.50665" lon="6.65714">
        <ele>393.20001220703</ele>
        <time>2013-05-10T10:00:29.000Z</time>
      </trkpt>
      <trkpt lat="46.50676" lon="6.65835">
        <ele>391.79998779297</ele>
        <time>2013-05-10T10:00:38.000Z</time>
      </trkpt>
      <trkpt lat="46.50681" lon="6.65928">
        <ele>390.79998779297</ele>
        <time>2013-05-10T10:00:45.000Z</time>
      </trkpt>
      <trkpt lat="46.50671" lon="6.66009">
        <ele>390.79998779297</ele>
        <time>2013-05-10T10:00:51.000Z</time>
      </trkpt>
      <trkpt lat="46.50661" lon="6.66097">
        <ele>391.20001220703</ele>
        <time>2013-05-10T10:00:58.000Z</time>
      </trkpt>
      <trkpt lat="46.50665" lon="6.66171">
        <ele>391.79998779297</ele>
        <time>2013-05-10T10:01:04.000Z</time>
      </trkpt>
      <trkpt lat="46.50679" lon="6.66242">
        <ele>392.20001220703</ele>
        <time>2013-05-10T10:01:10.000Z</time>
      </trkpt>
      <trkpt lat="46.50695" lon="6.66326">
        <ele>392.20001220703</ele>
        <time>2013-05-10T10:01:17.000Z</time>
      </trkpt>
      <trkpt lat="46.50716" lon="6.66447">
        <ele>392.79998779297</ele>
        <time>2013-05-10T10:01:27.000Z</time>
      </trkpt>
      <trkpt lat="46.50719" lon="6.66522">
        <ele>393.20001220703</ele>
        <time>2013-05-10T10:01:33.000Z</time>
      </trkpt>
      <trkpt lat="46.50709" lon="6.66596">
        <ele>392.20001220703</ele>
        <time>2013-05-10T10:01:39.000Z</time>
      </trkpt>
      <trkpt lat="46.50693" lon="6.66657">
        <ele>392.79998779297</ele>
        <time>2013-05-10T10:01:44.000Z</time>
      </trkpt>
      <trkpt lat="46.50665" lon="6.66746">
        <ele>395.20001220703</ele>
        <time>2013-05-10T10:01:52.000Z</time>
      </trkpt>
      <trkpt lat="46.50638" lon="6.66831">
        <ele>395.20001220703</ele>
        <time>2013-05-10T10:02:00.000Z</time>
      </trkpt>
      <trkpt lat="46.50625" lon="6.66918">
        <ele>394.20001220703</ele>
        <time>2013-05-10T10:02:07.000Z</time>
      </trkpt>
      <trkpt lat="46.50611" lon="6.66992">
        <ele>393.20001220703</ele>
        <time>2013-05-10T10:02:13.000Z</time>
      </trkpt>
      <trkpt lat="46.5059" lon="6.67047">
        <ele>393.60000610352</ele>
        <time>2013-05-10T10:02:18.000Z</time>
      </trkpt>
      <trkpt lat="46.50571" lon="6.67092">
        <ele>393.60000610352</ele>
        <time>2013-05-10T10:02:23.000Z</time>
      </trkpt>
      <trkpt lat="46.50552" lon="6.67132">
        <ele>393.20001220703</ele>
        <time>2013-05-10T10:02:29.000Z</time>
      </trkpt>
      <trkpt lat="46.50531" lon="6.67178">
        <ele>392.79998779297</ele>
        <time>2013-05-10T10:02:34.000Z</time>
      </trkpt>
      <trkpt lat="46.5051" lon="6.67243">
        <ele>391.79998779297</ele>
        <time>2013-05-10T10:02:40.000Z</time>
      </trkpt>
      <trkpt lat="46.50498" lon="6.67314">
        <ele>390.79998779297</ele>
        <time>2013-05-10T10:02:46.000Z</time>
      </trkpt>
      <trkpt lat="46.50488" lon="6.67411">
        <ele>391.20001220703</ele>
        <time>2013-05-10T10:02:54.000Z</time>
      </trkpt>
      <trkpt lat="46.50476" lon="6.67494">
        <ele>392.20001220703</ele>
        <time>2013-05-10T10:03:01.000Z</time>
      </trkpt>
      <trkpt lat="46.50458" lon="6.67567">
        <ele>390.79998779297</ele>
        <time>2013-05-10T10:03:07.000Z</time>
      </trkpt>
      <trkpt lat="46.50436" lon="6.67659">
        <ele>388.79998779297</ele>
        <time>2013-05-10T10:03:14.000Z</time>
      </trkpt>
      <trkpt lat="46.50414" lon="6.67778">
        <ele>387</ele>
        <time>2013-05-10T10:03:23.000Z</time>
      </trkpt>
      <trkpt lat="46.50407" lon="6.67857">
        <ele>385.60000610352</ele>
        <time>2013-05-10T10:03:29.000Z</time>
      </trkpt>
      <trkpt lat="46.50407" lon="6.67936">
        <ele>383.20001220703</ele>
        <time>2013-05-10T10:03:35.000Z</time>
      </trkpt>
      <trkpt lat="46.50405" lon="6.67986">
        <ele>384</ele>
        <time>2013-05-10T10:03:39.000Z</time>
      </trkpt>
      <trkpt lat="46.50405" lon="6.68068">
        <ele>385.60000610352</ele>
        <time>2013-05-10T10:03:46.000Z</time>
      </trkpt>
      <trkpt lat="46.50412" lon="6.68138">
        <ele>386</ele>
        <time>2013-05-10T10:03:52.000Z</time>
      </trkpt>
      <trkpt lat="46.50428" lon="6.68215">
        <ele>387.39999389648</ele>
        <time>2013-05-10T10:03:59.000Z</time>
      </trkpt>
      <trkpt lat="46.5044" lon="6.68289">
        <ele>389.39999389648</ele>
        <time>2013-05-10T10:04:06.000Z</time>
      </trkpt>
      <trkpt lat="46.50436" lon="6.68354">
        <ele>391.20001220703</ele>
        <time>2013-05-10T10:04:12.000Z</time>
      </trkpt>
      <trkpt lat="46.50419" lon="6.68428">
        <ele>391.79998779297</ele>
        <time>2013-05-10T10:04:19.000Z</time>
      </trkpt>
      <trkpt lat="46.50397" lon="6.68518">
        <ele>392.20001220703</ele>
        <time>2013-05-10T10:04:28.000Z</time>
      </trkpt>
      <trkpt lat="46.50395" lon="6.68525">
        <ele>392.79998779297</ele>
        <time>2013-05-10T10:04:29.000Z</time>
      </trkpt>
      <trkpt lat="46.50385" lon="6.68555">
        <ele>393.20001220703</ele>
        <time>2013-05-10T10:04:35.000Z</time>
      </trkpt>
      <trkpt lat="46.50384" lon="6.68564">
        <ele>392.79998779297</ele>
        <time>2013-05-10T10:04:41.000Z</time>
      </trkpt>
      <trkpt lat="46.50383" lon="6.68565">
        <ele>392.79998779297</ele>
        <time>2013-05-10T10:04:47.000Z</time>
      </trkpt>
      <trkpt lat="46.50383" lon="6.68566">
        <ele>393.20001220703</ele>
        <time>2013-05-10T10:04:56.000Z</time>
      </trkpt>
      <trkpt lat="46.50383" lon="6.68567">
        <ele>393.60000610352</ele>
        <time>2013-05-10T10:05:15.000Z</time>
      </trkpt>
      <trkpt lat="46.50382" lon="6.68569">
        <ele>394.20001220703</ele>
        <time>2013-05-10T10:05:18.000Z</time>
      </trkpt>
      <trkpt lat="46.50375" lon="6.68591">
        <ele>393.20001220703</ele>
        <time>2013-05-10T10:05:24.000Z</time>
      </trkpt>
      <trkpt lat="46.50366" lon="6.68623">
        <ele>392.20001220703</ele>
        <time>2013-05-10T10:05:29.000Z</time>
      </trkpt>
      <trkpt lat="46.50347" lon="6.68672">
        <ele>391.20001220703</ele>
        <time>2013-05-10T10:05:35.000Z</time>
      </trkpt>
      <trkpt lat="46.50323" lon="6.68717">
        <ele>390.39999389648</ele>
        <time>2013-05-10T10:05:40.000Z</time>
      </trkpt>
      <trkpt lat="46.50289" lon="6.68769">
        <ele>388.79998779297</ele>
        <time>2013-05-10T10:05:46.000Z</time>
      </trkpt>
      <trkpt lat="46.50236" lon="6.68848">
        <ele>388.39999389648</ele>
        <time>2013-05-10T10:05:55.000Z</time>
      </trkpt>
      <trkpt lat="46.5019" lon="6.68914">
        <ele>388</ele>
        <time>2013-05-10T10:06:03.000Z</time>
      </trkpt>
      <trkpt lat="46.50169" lon="6.68947">
        <ele>388.39999389648</ele>
        <time>2013-05-10T10:06:07.000Z</time>
      </trkpt>
      <trkpt lat="46.50147" lon="6.6897">
        <ele>388</ele>
        <time>2013-05-10T10:06:11.000Z</time>
      </trkpt>
      <trkpt lat="46.50138" lon="6.68985">
        <ele>388</ele>
        <time>2013-05-10T10:06:13.000Z</time>
      </trkpt>
      <trkpt lat="46.501" lon="6.69046">
        <ele>387.39999389648</ele>
        <time>2013-05-10T10:06:20.000Z</time>
      </trkpt>
      <trkpt lat="46.5008" lon="6.691">
        <ele>387</ele>
        <time>2013-05-10T10:06:25.000Z</time>
      </trkpt>
      <trkpt lat="46.50063" lon="6.6917">
        <ele>387.39999389648</ele>
        <time>2013-05-10T10:06:31.000Z</time>
      </trkpt>
      <trkpt lat="46.50053" lon="6.69233">
        <ele>387.39999389648</ele>
        <time>2013-05-10T10:06:36.000Z</time>
      </trkpt>
      <trkpt lat="46.50047" lon="6.69359">
        <ele>387.39999389648</ele>
        <time>2013-05-10T10:06:46.000Z</time>
      </trkpt>
      <trkpt lat="46.50043" lon="6.6942">
        <ele>387.39999389648</ele>
        <time>2013-05-10T10:06:51.000Z</time>
      </trkpt>
      <trkpt lat="46.50029" lon="6.69512">
        <ele>388</ele>
        <time>2013-05-10T10:06:59.000Z</time>
      </trkpt>
      <trkpt lat="46.50011" lon="6.69589">
        <ele>388</ele>
        <time>2013-05-10T10:07:06.000Z</time>
      </trkpt>
      <trkpt lat="46.49984" lon="6.69662">
        <ele>386</ele>
        <time>2013-05-10T10:07:13.000Z</time>
      </trkpt>
      <trkpt lat="46.49953" lon="6.69742">
        <ele>384.60000610352</ele>
        <time>2013-05-10T10:07:21.000Z</time>
      </trkpt>
      <trkpt lat="46.4992" lon="6.69826">
        <ele>385.60000610352</ele>
        <time>2013-05-10T10:07:30.000Z</time>
      </trkpt>
      <trkpt lat="46.49891" lon="6.69905">
        <ele>387</ele>
        <time>2013-05-10T10:07:39.000Z</time>
      </trkpt>
      <trkpt lat="46.49875" lon="6.69976">
        <ele>387.39999389648</ele>
        <time>2013-05-10T10:07:46.000Z</time>
      </trkpt>
      <trkpt lat="46.49853" lon="6.70056">
        <ele>388</ele>
        <time>2013-05-10T10:07:54.000Z</time>
      </trkpt>
      <trkpt lat="46.4983" lon="6.70106">
        <ele>388.79998779297</ele>
        <time>2013-05-10T10:08:00.000Z</time>
      </trkpt>
      <trkpt lat="46.49793" lon="6.70162">
        <ele>389.39999389648</ele>
        <time>2013-05-10T10:08:08.000Z</time>
      </trkpt>
      <trkpt lat="46.4976" lon="6.70223">
        <ele>388.79998779297</ele>
        <time>2013-05-10T10:08:16.000Z</time>
      </trkpt>
      <trkpt lat="46.49734" lon="6.70292">
        <ele>388.79998779297</ele>
        <time>2013-05-10T10:08:24.000Z</time>
      </trkpt>
      <trkpt lat="46.49707" lon="6.70361">
        <ele>389.39999389648</ele>
        <time>2013-05-10T10:08:32.000Z</time>
      </trkpt>
      <trkpt lat="46.4968" lon="6.70416">
        <ele>390.39999389648</ele>
        <time>2013-05-10T10:08:39.000Z</time>
      </trkpt>
      <trkpt lat="46.49622" lon="6.70517">
        <ele>392.79998779297</ele>
        <time>2013-05-10T10:08:52.000Z</time>
      </trkpt>
      <trkpt lat="46.49582" lon="6.70601">
        <ele>390.79998779297</ele>
        <time>2013-05-10T10:09:02.000Z</time>
      </trkpt>
      <trkpt lat="46.49543" lon="6.70699">
        <ele>390.79998779297</ele>
        <time>2013-05-10T10:09:13.000Z</time>
      </trkpt>
      <trkpt lat="46.49514" lon="6.70774">
        <ele>390.39999389648</ele>
        <time>2013-05-10T10:09:21.000Z</time>
      </trkpt>
      <trkpt lat="46.49485" lon="6.70827">
        <ele>390.39999389648</ele>
        <time>2013-05-10T10:09:27.000Z</time>
      </trkpt>
      <trkpt lat="46.49438" lon="6.70896">
        <ele>390.79998779297</ele>
        <time>2013-05-10T10:09:35.000Z</time>
      </trkpt>
      <trkpt lat="46.49363" lon="6.71005">
        <ele>392.20001220703</ele>
        <time>2013-05-10T10:09:47.000Z</time>
      </trkpt>
      <trkpt lat="46.49311" lon="6.71078">
        <ele>393.60000610352</ele>
        <time>2013-05-10T10:09:56.000Z</time>
      </trkpt>
      <trkpt lat="46.49265" lon="6.71145">
        <ele>394.60000610352</ele>
        <time>2013-05-10T10:10:05.000Z</time>
      </trkpt>
      <trkpt lat="46.49213" lon="6.71218">
        <ele>395.60000610352</ele>
        <time>2013-05-10T10:10:15.000Z</time>
      </trkpt>
      <trkpt lat="46.49161" lon="6.71295">
        <ele>395.20001220703</ele>
        <time>2013-05-10T10:10:24.000Z</time>
      </trkpt>
      <trkpt lat="46.4913" lon="6.71357">
        <ele>393.60000610352</ele>
        <time>2013-05-10T10:10:30.000Z</time>
      </trkpt>
      <trkpt lat="46.4908" lon="6.71468">
        <ele>391.20001220703</ele>
        <time>2013-05-10T10:10:40.000Z</time>
      </trkpt>
      <trkpt lat="46.49038" lon="6.71542">
        <ele>389.79998779297</ele>
        <time>2013-05-10T10:10:47.000Z</time>
      </trkpt>
      <trkpt lat="46.49" lon="6.7161">
        <ele>389.79998779297</ele>
        <time>2013-05-10T10:10:54.000Z</time>
      </trkpt>
      <trkpt lat="46.4896" lon="6.71691">
        <ele>390.39999389648</ele>
        <time>2013-05-10T10:11:03.000Z</time>
      </trkpt>
      <trkpt lat="46.48912" lon="6.71787">
        <ele>388.79998779297</ele>
        <time>2013-05-10T10:11:13.000Z</time>
      </trkpt>
      <trkpt lat="46.48874" lon="6.71861">
        <ele>388.79998779297</ele>
        <time>2013-05-10T10:11:21.000Z</time>
      </trkpt>
      <trkpt lat="46.48832" lon="6.71933">
        <ele>390.39999389648</ele>
        <time>2013-05-10T10:11:30.000Z</time>
      </trkpt>
      <trkpt lat="46.48788" lon="6.72009">
        <ele>390.79998779297</ele>
        <time>2013-05-10T10:11:40.000Z</time>
      </trkpt>
      <trkpt lat="46.48752" lon="6.72082">
        <ele>392.20001220703</ele>
        <time>2013-05-10T10:11:49.000Z</time>
      </trkpt>
      <trkpt lat="46.48732" lon="6.72138">
        <ele>391.79998779297</ele>
        <time>2013-05-10T10:11:55.000Z</time>
      </trkpt>
      <trkpt lat="46.48721" lon="6.72203">
        <ele>390.39999389648</ele>
        <time>2013-05-10T10:12:01.000Z</time>
      </trkpt>
      <trkpt lat="46.48718" lon="6.7227">
        <ele>389.39999389648</ele>
        <time>2013-05-10T10:12:07.000Z</time>
      </trkpt>
      <trkpt lat="46.48727" lon="6.72359">
        <ele>388.79998779297</ele>
        <time>2013-05-10T10:12:15.000Z</time>
      </trkpt>
      <trkpt lat="46.48738" lon="6.72495">
        <ele>388.79998779297</ele>
        <time>2013-05-10T10:12:27.000Z</time>
      </trkpt>
      <trkpt lat="46.48735" lon="6.72576">
        <ele>388.79998779297</ele>
        <time>2013-05-10T10:12:34.000Z</time>
      </trkpt>
      <trkpt lat="46.48736" lon="6.7266">
        <ele>389.39999389648</ele>
        <time>2013-05-10T10:12:41.000Z</time>
      </trkpt>
      <trkpt lat="46.48747" lon="6.72768">
        <ele>388.39999389648</ele>
        <time>2013-05-10T10:12:50.000Z</time>
      </trkpt>
      <trkpt lat="46.48762" lon="6.72859">
        <ele>388.39999389648</ele>
        <time>2013-05-10T10:12:58.000Z</time>
      </trkpt>
      <trkpt lat="46.48772" lon="6.72918">
        <ele>388</ele>
        <time>2013-05-10T10:13:04.000Z</time>
      </trkpt>
      <trkpt lat="46.48789" lon="6.72962">
        <ele>387.39999389648</ele>
        <time>2013-05-10T10:13:09.000Z</time>
      </trkpt>
      <trkpt lat="46.48815" lon="6.73019">
        <ele>386.39999389648</ele>
        <time>2013-05-10T10:13:15.000Z</time>
      </trkpt>
      <trkpt lat="46.48847" lon="6.731">
        <ele>387</ele>
        <time>2013-05-10T10:13:23.000Z</time>
      </trkpt>
      <trkpt lat="46.48855" lon="6.73119">
        <ele>387.39999389648</ele>
        <time>2013-05-10T10:13:25.000Z</time>
      </trkpt>
      <trkpt lat="46.48873" lon="6.73152">
        <ele>388.79998779297</ele>
        <time>2013-05-10T10:13:29.000Z</time>
      </trkpt>
      <trkpt lat="46.489" lon="6.73222">
        <ele>389.39999389648</ele>
        <time>2013-05-10T10:13:37.000Z</time>
      </trkpt>
      <trkpt lat="46.48915" lon="6.7327">
        <ele>388.79998779297</ele>
        <time>2013-05-10T10:13:42.000Z</time>
      </trkpt>
      <trkpt lat="46.48937" lon="6.73359">
        <ele>387.39999389648</ele>
        <time>2013-05-10T10:13:50.000Z</time>
      </trkpt>
      <trkpt lat="46.48943" lon="6.7345">
        <ele>384</ele>
        <time>2013-05-10T10:13:57.000Z</time>
      </trkpt>
      <trkpt lat="46.48947" lon="6.73543">
        <ele>383.60000610352</ele>
        <time>2013-05-10T10:14:04.000Z</time>
      </trkpt>
      <trkpt lat="46.48958" lon="6.73624">
        <ele>383.60000610352</ele>
        <time>2013-05-10T10:14:11.000Z</time>
      </trkpt>
      <trkpt lat="46.48965" lon="6.73657">
        <ele>383.20001220703</ele>
        <time>2013-05-10T10:14:14.000Z</time>
      </trkpt>
      <trkpt lat="46.48989" lon="6.73728">
        <ele>384</ele>
        <time>2013-05-10T10:14:21.000Z</time>
      </trkpt>
      <trkpt lat="46.49007" lon="6.73781">
        <ele>386</ele>
        <time>2013-05-10T10:14:27.000Z</time>
      </trkpt>
      <trkpt lat="46.4901" lon="6.73797">
        <ele>386.39999389648</ele>
        <time>2013-05-10T10:14:29.000Z</time>
      </trkpt>
      <trkpt lat="46.49015" lon="6.73835">
        <ele>388.79998779297</ele>
        <time>2013-05-10T10:14:34.000Z</time>
      </trkpt>
      <trkpt lat="46.49014" lon="6.73844">
        <ele>389.39999389648</ele>
        <time>2013-05-10T10:14:35.000Z</time>
      </trkpt>
      <trkpt lat="46.49" lon="6.739">
        <ele>391.79998779297</ele>
        <time>2013-05-10T10:14:42.000Z</time>
      </trkpt>
      <trkpt lat="46.48991" lon="6.73935">
        <ele>393.20001220703</ele>
        <time>2013-05-10T10:14:47.000Z</time>
      </trkpt>
      <trkpt lat="46.48983" lon="6.73974">
        <ele>394.20001220703</ele>
        <time>2013-05-10T10:14:52.000Z</time>
      </trkpt>
      <trkpt lat="46.48977" lon="6.74041">
        <ele>395.20001220703</ele>
        <time>2013-05-10T10:15:00.000Z</time>
      </trkpt>
      <trkpt lat="46.48979" lon="6.74099">
        <ele>395.20001220703</ele>
        <time>2013-05-10T10:15:06.000Z</time>
      </trkpt>
      <trkpt lat="46.4898" lon="6.74196">
        <ele>394.60000610352</ele>
        <time>2013-05-10T10:15:15.000Z</time>
      </trkpt>
      <trkpt lat="46.48981" lon="6.74307">
        <ele>394.60000610352</ele>
        <time>2013-05-10T10:15:25.000Z</time>
      </trkpt>
      <trkpt lat="46.48977" lon="6.74425">
        <ele>396.20001220703</ele>
        <time>2013-05-10T10:15:36.000Z</time>
      </trkpt>
      <trkpt lat="46.48966" lon="6.74485">
        <ele>396.60000610352</ele>
        <time>2013-05-10T10:15:42.000Z</time>
      </trkpt>
      <trkpt lat="46.48946" lon="6.74543">
        <ele>397.60000610352</ele>
        <time>2013-05-10T10:15:48.000Z</time>
      </trkpt>
      <trkpt lat="46.48913" lon="6.74612">
        <ele>399.39999389648</ele>
        <time>2013-05-10T10:15:56.000Z</time>
      </trkpt>
      <trkpt lat="46.48876" lon="6.74692">
        <ele>401.39999389648</ele>
        <time>2013-05-10T10:16:05.000Z</time>
      </trkpt>
      <trkpt lat="46.48849" lon="6.74772">
        <ele>401.39999389648</ele>
        <time>2013-05-10T10:16:13.000Z</time>
      </trkpt>
      <trkpt lat="46.4882" lon="6.74855">
        <ele>400</ele>
        <time>2013-05-10T10:16:21.000Z</time>
      </trkpt>
      <trkpt lat="46.48816" lon="6.74865">
        <ele>400</ele>
        <time>2013-05-10T10:16:22.000Z</time>
      </trkpt>
      <trkpt lat="46.48779" lon="6.74918">
        <ele>399.39999389648</ele>
        <time>2013-05-10T10:16:28.000Z</time>
      </trkpt>
      <trkpt lat="46.48734" lon="6.74981">
        <ele>399</ele>
        <time>2013-05-10T10:16:35.000Z</time>
      </trkpt>
      <trkpt lat="46.48711" lon="6.75039">
        <ele>399</ele>
        <time>2013-05-10T10:16:40.000Z</time>
      </trkpt>
      <trkpt lat="46.48677" lon="6.75134">
        <ele>397.60000610352</ele>
        <time>2013-05-10T10:16:48.000Z</time>
      </trkpt>
      <trkpt lat="46.48636" lon="6.75242">
        <ele>396.60000610352</ele>
        <time>2013-05-10T10:16:57.000Z</time>
      </trkpt>
      <trkpt lat="46.48607" lon="6.75296">
        <ele>396.20001220703</ele>
        <time>2013-05-10T10:17:02.000Z</time>
      </trkpt>
      <trkpt lat="46.48567" lon="6.7535">
        <ele>395.60000610352</ele>
        <time>2013-05-10T10:17:08.000Z</time>
      </trkpt>
      <trkpt lat="46.485" lon="6.7542">
        <ele>395.20001220703</ele>
        <time>2013-05-10T10:17:17.000Z</time>
      </trkpt>
      <trkpt lat="46.48454" lon="6.75476">
        <ele>394.60000610352</ele>
        <time>2013-05-10T10:17:24.000Z</time>
      </trkpt>
      <trkpt lat="46.48428" lon="6.75523">
        <ele>394.60000610352</ele>
        <time>2013-05-10T10:17:29.000Z</time>
      </trkpt>
      <trkpt lat="46.484" lon="6.75598">
        <ele>394.60000610352</ele>
        <time>2013-05-10T10:17:36.000Z</time>
      </trkpt>
      <trkpt lat="46.48372" lon="6.75657">
        <ele>395.20001220703</ele>
        <time>2013-05-10T10:17:42.000Z</time>
      </trkpt>
      <trkpt lat="46.48326" lon="6.75728">
        <ele>395.60000610352</ele>
        <time>2013-05-10T10:17:50.000Z</time>
      </trkpt>
      <trkpt lat="46.48279" lon="6.75782">
        <ele>395.20001220703</ele>
        <time>2013-05-10T10:17:57.000Z</time>
      </trkpt>
      <trkpt lat="46.48219" lon="6.75832">
        <ele>394.60000610352</ele>
        <time>2013-05-10T10:18:05.000Z</time>
      </trkpt>
      <trkpt lat="46.48162" lon="6.75888">
        <ele>393.60000610352</ele>
        <time>2013-05-10T10:18:13.000Z</time>
      </trkpt>
      <trkpt lat="46.48112" lon="6.75958">
        <ele>393.60000610352</ele>
        <time>2013-05-10T10:18:21.000Z</time>
      </trkpt>
      <trkpt lat="46.48065" lon="6.76047">
        <ele>391.79998779297</ele>
        <time>2013-05-10T10:18:30.000Z</time>
      </trkpt>
      <trkpt lat="46.48016" lon="6.76152">
        <ele>390.79998779297</ele>
        <time>2013-05-10T10:18:40.000Z</time>
      </trkpt>
      <trkpt lat="46.47956" lon="6.76291">
        <ele>390.79998779297</ele>
        <time>2013-05-10T10:18:53.000Z</time>
      </trkpt>
      <trkpt lat="46.47914" lon="6.76395">
        <ele>391.79998779297</ele>
        <time>2013-05-10T10:19:02.000Z</time>
      </trkpt>
      <trkpt lat="46.47868" lon="6.76519">
        <ele>391.79998779297</ele>
        <time>2013-05-10T10:19:12.000Z</time>
      </trkpt>
      <trkpt lat="46.47826" lon="6.76639">
        <ele>390.79998779297</ele>
        <time>2013-05-10T10:19:22.000Z</time>
      </trkpt>
      <trkpt lat="46.4778" lon="6.76753">
        <ele>390.79998779297</ele>
        <time>2013-05-10T10:19:32.000Z</time>
      </trkpt>
      <trkpt lat="46.47744" lon="6.76856">
        <ele>390.79998779297</ele>
        <time>2013-05-10T10:19:41.000Z</time>
      </trkpt>
      <trkpt lat="46.47719" lon="6.76951">
        <ele>390.39999389648</ele>
        <time>2013-05-10T10:19:49.000Z</time>
      </trkpt>
      <trkpt lat="46.47687" lon="6.77061">
        <ele>389.79998779297</ele>
        <time>2013-05-10T10:19:58.000Z</time>
      </trkpt>
      <trkpt lat="46.47646" lon="6.77185">
        <ele>388.79998779297</ele>
        <time>2013-05-10T10:20:08.000Z</time>
      </trkpt>
      <trkpt lat="46.47595" lon="6.77335">
        <ele>388</ele>
        <time>2013-05-10T10:20:20.000Z</time>
      </trkpt>
      <trkpt lat="46.47578" lon="6.77383">
        <ele>387.39999389648</ele>
        <time>2013-05-10T10:20:24.000Z</time>
      </trkpt>
      <trkpt lat="46.47546" lon="6.77466">
        <ele>386.39999389648</ele>
        <time>2013-05-10T10:20:31.000Z</time>
      </trkpt>
      <trkpt lat="46.47511" lon="6.77572">
        <ele>385.60000610352</ele>
        <time>2013-05-10T10:20:40.000Z</time>
      </trkpt>
      <trkpt lat="46.4749" lon="6.77635">
        <ele>386</ele>
        <time>2013-05-10T10:20:46.000Z</time>
      </trkpt>
      <trkpt lat="46.47481" lon="6.77687">
        <ele>387.39999389648</ele>
        <time>2013-05-10T10:20:51.000Z</time>
      </trkpt>
      <trkpt lat="46.4748" lon="6.77725">
        <ele>388.39999389648</ele>
        <time>2013-05-10T10:20:55.000Z</time>
      </trkpt>
      <trkpt lat="46.4748" lon="6.77741">
        <ele>388.79998779297</ele>
        <time>2013-05-10T10:20:57.000Z</time>
      </trkpt>
      <trkpt lat="46.47477" lon="6.77792">
        <ele>390.79998779297</ele>
        <time>2013-05-10T10:21:04.000Z</time>
      </trkpt>
      <trkpt lat="46.47474" lon="6.77822">
        <ele>391.79998779297</ele>
        <time>2013-05-10T10:21:09.000Z</time>
      </trkpt>
      <trkpt lat="46.47466" lon="6.77842">
        <ele>392.79998779297</ele>
        <time>2013-05-10T10:21:13.000Z</time>
      </trkpt>
      <trkpt lat="46.47462" lon="6.77856">
        <ele>393.20001220703</ele>
        <time>2013-05-10T10:21:17.000Z</time>
      </trkpt>
      <trkpt lat="46.47462" lon="6.77856">
        <ele>394.60000610352</ele>
        <time>2013-05-10T10:21:23.000Z</time>
      </trkpt>
      <trkpt lat="46.47465" lon="6.77854">
        <ele>395.20001220703</ele>
        <time>2013-05-10T10:21:38.000Z</time>
      </trkpt>
      <trkpt lat="46.47466" lon="6.77854">
        <ele>396.60000610352</ele>
        <time>2013-05-10T10:21:48.000Z</time>
      </trkpt>
      <trkpt lat="46.47465" lon="6.77854">
        <ele>396.60000610352</ele>
        <time>2013-05-10T10:21:53.000Z</time>
      </trkpt>
      <trkpt lat="46.47464" lon="6.77855">
        <ele>397.60000610352</ele>
        <time>2013-05-10T10:21:58.000Z</time>
      </trkpt>
      <trkpt lat="46.47464" lon="6.77855">
        <ele>397.60000610352</ele>
        <time>2013-05-10T10:22:13.000Z</time>
      </trkpt>
      <trkpt lat="46.47462" lon="6.77854">
        <ele>397.60000610352</ele>
        <time>2013-05-10T10:22:21.000Z</time>
      </trkpt>
      <trkpt lat="46.47462" lon="6.77854">
        <ele>397.60000610352</ele>
        <time>2013-05-10T10:22:30.000Z</time>
      </trkpt>
      <trkpt lat="46.47465" lon="6.77858">
        <ele>396.20001220703</ele>
        <time>2013-05-10T10:23:38.000Z</time>
      </trkpt>
      <trkpt lat="46.47466" lon="6.77858">
        <ele>397</ele>
        <time>2013-05-10T10:23:39.000Z</time>
      </trkpt>
      <trkpt lat="46.47466" lon="6.77864">
        <ele>397.60000610352</ele>
        <time>2013-05-10T10:23:43.000Z</time>
      </trkpt>
      <trkpt lat="46.47463" lon="6.77874">
        <ele>397</ele>
        <time>2013-05-10T10:23:47.000Z</time>
      </trkpt>
      <trkpt lat="46.47457" lon="6.77896">
        <ele>395.60000610352</ele>
        <time>2013-05-10T10:23:53.000Z</time>
      </trkpt>
      <trkpt lat="46.47446" lon="6.77927">
        <ele>395.60000610352</ele>
        <time>2013-05-10T10:23:59.000Z</time>
      </trkpt>
      <trkpt lat="46.47432" lon="6.77966">
        <ele>394.60000610352</ele>
        <time>2013-05-10T10:24:05.000Z</time>
      </trkpt>
      <trkpt lat="46.47423" lon="6.78016">
        <ele>394.60000610352</ele>
        <time>2013-05-10T10:24:11.000Z</time>
      </trkpt>
      <trkpt lat="46.47425" lon="6.78064">
        <ele>394.60000610352</ele>
        <time>2013-05-10T10:24:16.000Z</time>
      </trkpt>
      <trkpt lat="46.47434" lon="6.78135">
        <ele>394.20001220703</ele>
        <time>2013-05-10T10:24:23.000Z</time>
      </trkpt>
      <trkpt lat="46.47431" lon="6.78178">
        <ele>393.60000610352</ele>
        <time>2013-05-10T10:24:27.000Z</time>
      </trkpt>
      <trkpt lat="46.4741" lon="6.7828">
        <ele>391.79998779297</ele>
        <time>2013-05-10T10:24:36.000Z</time>
      </trkpt>
      <trkpt lat="46.47411" lon="6.78342">
        <ele>390.39999389648</ele>
        <time>2013-05-10T10:24:41.000Z</time>
      </trkpt>
      <trkpt lat="46.47437" lon="6.7846">
        <ele>388</ele>
        <time>2013-05-10T10:24:50.000Z</time>
      </trkpt>
      <trkpt lat="46.4745" lon="6.78524">
        <ele>387.39999389648</ele>
        <time>2013-05-10T10:24:55.000Z</time>
      </trkpt>
      <trkpt lat="46.47449" lon="6.78586">
        <ele>388.39999389648</ele>
        <time>2013-05-10T10:25:00.000Z</time>
      </trkpt>
      <trkpt lat="46.47451" lon="6.78643">
        <ele>389.39999389648</ele>
        <time>2013-05-10T10:25:05.000Z</time>
      </trkpt>
      <trkpt lat="46.4746" lon="6.78723">
        <ele>389.79998779297</ele>
        <time>2013-05-10T10:25:12.000Z</time>
      </trkpt>
      <trkpt lat="46.47466" lon="6.78821">
        <ele>391.20001220703</ele>
        <time>2013-05-10T10:25:20.000Z</time>
      </trkpt>
      <trkpt lat="46.47467" lon="6.78907">
        <ele>392.20001220703</ele>
        <time>2013-05-10T10:25:27.000Z</time>
      </trkpt>
      <trkpt lat="46.47458" lon="6.78969">
        <ele>391.20001220703</ele>
        <time>2013-05-10T10:25:32.000Z</time>
      </trkpt>
      <trkpt lat="46.47439" lon="6.7904">
        <ele>390.79998779297</ele>
        <time>2013-05-10T10:25:38.000Z</time>
      </trkpt>
      <trkpt lat="46.47415" lon="6.79129">
        <ele>390.79998779297</ele>
        <time>2013-05-10T10:25:46.000Z</time>
      </trkpt>
      <trkpt lat="46.47397" lon="6.79218">
        <ele>390.39999389648</ele>
        <time>2013-05-10T10:25:54.000Z</time>
      </trkpt>
      <trkpt lat="46.47371" lon="6.79355">
        <ele>390.39999389648</ele>
        <time>2013-05-10T10:26:06.000Z</time>
      </trkpt>
      <trkpt lat="46.47348" lon="6.79432">
        <ele>390.39999389648</ele>
        <time>2013-05-10T10:26:13.000Z</time>
      </trkpt>
      <trkpt lat="46.47316" lon="6.79501">
        <ele>390.39999389648</ele>
        <time>2013-05-10T10:26:20.000Z</time>
      </trkpt>
      <trkpt lat="46.47291" lon="6.79556">
        <ele>390.39999389648</ele>
        <time>2013-05-10T10:26:26.000Z</time>
      </trkpt>
      <trkpt lat="46.47274" lon="6.79629">
        <ele>390.39999389648</ele>
        <time>2013-05-10T10:26:33.000Z</time>
      </trkpt>
      <trkpt lat="46.47271" lon="6.79697">
        <ele>390.79998779297</ele>
        <time>2013-05-10T10:26:39.000Z</time>
      </trkpt>
      <trkpt lat="46.47269" lon="6.79765">
        <ele>391.20001220703</ele>
        <time>2013-05-10T10:26:45.000Z</time>
      </trkpt>
      <trkpt lat="46.47265" lon="6.79864">
        <ele>392.79998779297</ele>
        <time>2013-05-10T10:26:54.000Z</time>
      </trkpt>
      <trkpt lat="46.47264" lon="6.79875">
        <ele>393.20001220703</ele>
        <time>2013-05-10T10:26:55.000Z</time>
      </trkpt>
      <trkpt lat="46.47247" lon="6.79948">
        <ele>394.20001220703</ele>
        <time>2013-05-10T10:27:02.000Z</time>
      </trkpt>
      <trkpt lat="46.47231" lon="6.79988">
        <ele>395.20001220703</ele>
        <time>2013-05-10T10:27:06.000Z</time>
      </trkpt>
      <trkpt lat="46.47203" lon="6.80062">
        <ele>393.60000610352</ele>
        <time>2013-05-10T10:27:13.000Z</time>
      </trkpt>
      <trkpt lat="46.47186" lon="6.80137">
        <ele>392.79998779297</ele>
        <time>2013-05-10T10:27:19.000Z</time>
      </trkpt>
      <trkpt lat="46.47176" lon="6.80232">
        <ele>391.20001220703</ele>
        <time>2013-05-10T10:27:26.000Z</time>
      </trkpt>
      <trkpt lat="46.47167" lon="6.80366">
        <ele>390.79998779297</ele>
        <time>2013-05-10T10:27:36.000Z</time>
      </trkpt>
      <trkpt lat="46.47158" lon="6.8045">
        <ele>391.79998779297</ele>
        <time>2013-05-10T10:27:43.000Z</time>
      </trkpt>
      <trkpt lat="46.47143" lon="6.80532">
        <ele>393.60000610352</ele>
        <time>2013-05-10T10:27:51.000Z</time>
      </trkpt>
      <trkpt lat="46.47125" lon="6.80617">
        <ele>395.20001220703</ele>
        <time>2013-05-10T10:28:00.000Z</time>
      </trkpt>
      <trkpt lat="46.47105" lon="6.80715">
        <ele>396.60000610352</ele>
        <time>2013-05-10T10:28:10.000Z</time>
      </trkpt>
      <trkpt lat="46.47091" lon="6.8081">
        <ele>397</ele>
        <time>2013-05-10T10:28:19.000Z</time>
      </trkpt>
      <trkpt lat="46.47084" lon="6.80918">
        <ele>397</ele>
        <time>2013-05-10T10:28:28.000Z</time>
      </trkpt>
      <trkpt lat="46.47079" lon="6.81069">
        <ele>397.60000610352</ele>
        <time>2013-05-10T10:28:40.000Z</time>
      </trkpt>
      <trkpt lat="46.47074" lon="6.81184">
        <ele>398</ele>
        <time>2013-05-10T10:28:49.000Z</time>
      </trkpt>
      <trkpt lat="46.47068" lon="6.81269">
        <ele>398</ele>
        <time>2013-05-10T10:28:56.000Z</time>
      </trkpt>
      <trkpt lat="46.47061" lon="6.81374">
        <ele>397.60000610352</ele>
        <time>2013-05-10T10:29:04.000Z</time>
      </trkpt>
      <trkpt lat="46.47056" lon="6.81456">
        <ele>396.60000610352</ele>
        <time>2013-05-10T10:29:10.000Z</time>
      </trkpt>
      <trkpt lat="46.47052" lon="6.81569">
        <ele>395.20001220703</ele>
        <time>2013-05-10T10:29:18.000Z</time>
      </trkpt>
      <trkpt lat="46.47045" lon="6.81699">
        <ele>393.20001220703</ele>
        <time>2013-05-10T10:29:27.000Z</time>
      </trkpt>
      <trkpt lat="46.47038" lon="6.81817">
        <ele>390.79998779297</ele>
        <time>2013-05-10T10:29:35.000Z</time>
      </trkpt>
      <trkpt lat="46.47033" lon="6.81935">
        <ele>390.79998779297</ele>
        <time>2013-05-10T10:29:43.000Z</time>
      </trkpt>
      <trkpt lat="46.47029" lon="6.82028">
        <ele>392.20001220703</ele>
        <time>2013-05-10T10:29:50.000Z</time>
      </trkpt>
      <trkpt lat="46.47018" lon="6.82107">
        <ele>395.20001220703</ele>
        <time>2013-05-10T10:29:57.000Z</time>
      </trkpt>
      <trkpt lat="46.47003" lon="6.82163">
        <ele>398</ele>
        <time>2013-05-10T10:30:03.000Z</time>
      </trkpt>
      <trkpt lat="46.46979" lon="6.82218">
        <ele>400.39999389648</ele>
        <time>2013-05-10T10:30:10.000Z</time>
      </trkpt>
      <trkpt lat="46.4695" lon="6.82255">
        <ele>401.39999389648</ele>
        <time>2013-05-10T10:30:16.000Z</time>
      </trkpt>
      <trkpt lat="46.46912" lon="6.82281">
        <ele>401</ele>
        <time>2013-05-10T10:30:22.000Z</time>
      </trkpt>
      <trkpt lat="46.4689" lon="6.82295">
        <ele>400.39999389648</ele>
        <time>2013-05-10T10:30:25.000Z</time>
      </trkpt>
      <trkpt lat="46.46856" lon="6.82338">
        <ele>398.60000610352</ele>
        <time>2013-05-10T10:30:30.000Z</time>
      </trkpt>
      <trkpt lat="46.46838" lon="6.8239">
        <ele>397</ele>
        <time>2013-05-10T10:30:34.000Z</time>
      </trkpt>
      <trkpt lat="46.46834" lon="6.8245">
        <ele>394.60000610352</ele>
        <time>2013-05-10T10:30:38.000Z</time>
      </trkpt>
      <trkpt lat="46.46836" lon="6.82466">
        <ele>394.20001220703</ele>
        <time>2013-05-10T10:30:39.000Z</time>
      </trkpt>
      <trkpt lat="46.46854" lon="6.82619">
        <ele>388</ele>
        <time>2013-05-10T10:30:48.000Z</time>
      </trkpt>
      <trkpt lat="46.46864" lon="6.82776">
        <ele>381.60000610352</ele>
        <time>2013-05-10T10:30:57.000Z</time>
      </trkpt>
      <trkpt lat="46.46863" lon="6.82858">
        <ele>380.79998779297</ele>
        <time>2013-05-10T10:31:02.000Z</time>
      </trkpt>
      <trkpt lat="46.46852" lon="6.82929">
        <ele>380.79998779297</ele>
        <time>2013-05-10T10:31:07.000Z</time>
      </trkpt>
      <trkpt lat="46.46838" lon="6.83026">
        <ele>380.79998779297</ele>
        <time>2013-05-10T10:31:14.000Z</time>
      </trkpt>
      <trkpt lat="46.46836" lon="6.8311">
        <ele>381.20001220703</ele>
        <time>2013-05-10T10:31:20.000Z</time>
      </trkpt>
      <trkpt lat="46.46835" lon="6.83215">
        <ele>382.60000610352</ele>
        <time>2013-05-10T10:31:28.000Z</time>
      </trkpt>
      <trkpt lat="46.46835" lon="6.83271">
        <ele>384.60000610352</ele>
        <time>2013-05-10T10:31:33.000Z</time>
      </trkpt>
      <trkpt lat="46.46832" lon="6.83353">
        <ele>387.39999389648</ele>
        <time>2013-05-10T10:31:41.000Z</time>
      </trkpt>
      <trkpt lat="46.46823" lon="6.83403">
        <ele>388.79998779297</ele>
        <time>2013-05-10T10:31:46.000Z</time>
      </trkpt>
      <trkpt lat="46.46812" lon="6.83431">
        <ele>389.39999389648</ele>
        <time>2013-05-10T10:31:49.000Z</time>
      </trkpt>
      <trkpt lat="46.46778" lon="6.83487">
        <ele>389.39999389648</ele>
        <time>2013-05-10T10:31:56.000Z</time>
      </trkpt>
      <trkpt lat="46.4672" lon="6.83558">
        <ele>390.39999389648</ele>
        <time>2013-05-10T10:32:06.000Z</time>
      </trkpt>
      <trkpt lat="46.46714" lon="6.83564">
        <ele>390.79998779297</ele>
        <time>2013-05-10T10:32:07.000Z</time>
      </trkpt>
      <trkpt lat="46.46649" lon="6.83612">
        <ele>389.79998779297</ele>
        <time>2013-05-10T10:32:16.000Z</time>
      </trkpt>
      <trkpt lat="46.46605" lon="6.83629">
        <ele>389.79998779297</ele>
        <time>2013-05-10T10:32:21.000Z</time>
      </trkpt>
      <trkpt lat="46.46541" lon="6.8367">
        <ele>393.20001220703</ele>
        <time>2013-05-10T10:32:29.000Z</time>
      </trkpt>
      <trkpt lat="46.46477" lon="6.83698">
        <ele>392.20001220703</ele>
        <time>2013-05-10T10:32:37.000Z</time>
      </trkpt>
      <trkpt lat="46.46406" lon="6.8373">
        <ele>390.39999389648</ele>
        <time>2013-05-10T10:32:46.000Z</time>
      </trkpt>
      <trkpt lat="46.46341" lon="6.83762">
        <ele>388.79998779297</ele>
        <time>2013-05-10T10:32:54.000Z</time>
      </trkpt>
      <trkpt lat="46.46269" lon="6.83793">
        <ele>387</ele>
        <time>2013-05-10T10:33:03.000Z</time>
      </trkpt>
      <trkpt lat="46.46209" lon="6.8382">
        <ele>387.39999389648</ele>
        <time>2013-05-10T10:33:10.000Z</time>
      </trkpt>
      <trkpt lat="46.46172" lon="6.83851">
        <ele>388.79998779297</ele>
        <time>2013-05-10T10:33:15.000Z</time>
      </trkpt>
      <trkpt lat="46.46138" lon="6.83899">
        <ele>385.60000610352</ele>
        <time>2013-05-10T10:33:21.000Z</time>
      </trkpt>
      <trkpt lat="46.46104" lon="6.83957">
        <ele>386.39999389648</ele>
        <time>2013-05-10T10:33:27.000Z</time>
      </trkpt>
      <trkpt lat="46.46085" lon="6.84">
        <ele>389.39999389648</ele>
        <time>2013-05-10T10:33:31.000Z</time>
      </trkpt>
      <trkpt lat="46.4605" lon="6.84056">
        <ele>388.79998779297</ele>
        <time>2013-05-10T10:33:37.000Z</time>
      </trkpt>
      <trkpt lat="46.46032" lon="6.84095">
        <ele>384.60000610352</ele>
        <time>2013-05-10T10:33:41.000Z</time>
      </trkpt>
      <trkpt lat="46.46007" lon="6.84162">
        <ele>390.79998779297</ele>
        <time>2013-05-10T10:33:48.000Z</time>
      </trkpt>
      <trkpt lat="46.46006" lon="6.84167">
        <ele>390.79998779297</ele>
        <time>2013-05-10T10:33:49.000Z</time>
      </trkpt>
      <trkpt lat="46.46003" lon="6.84185">
        <ele>388.79998779297</ele>
        <time>2013-05-10T10:33:54.000Z</time>
      </trkpt>
      <trkpt lat="46.46014" lon="6.84196">
        <ele>388.39999389648</ele>
        <time>2013-05-10T10:33:58.000Z</time>
      </trkpt>
      <trkpt lat="46.46022" lon="6.84215">
        <ele>387.39999389648</ele>
        <time>2013-05-10T10:34:02.000Z</time>
      </trkpt>
      <trkpt lat="46.46022" lon="6.84221">
        <ele>387</ele>
        <time>2013-05-10T10:34:03.000Z</time>
      </trkpt>
      <trkpt lat="46.46026" lon="6.84256">
        <ele>386.39999389648</ele>
        <time>2013-05-10T10:34:09.000Z</time>
      </trkpt>
      <trkpt lat="46.46024" lon="6.84275">
        <ele>386.39999389648</ele>
        <time>2013-05-10T10:34:14.000Z</time>
      </trkpt>
      <trkpt lat="46.46012" lon="6.84278">
        <ele>385</ele>
        <time>2013-05-10T10:34:18.000Z</time>
      </trkpt>
      <trkpt lat="46.45997" lon="6.84274">
        <ele>384</ele>
        <time>2013-05-10T10:34:21.000Z</time>
      </trkpt>
      <trkpt lat="46.45953" lon="6.84259">
        <ele>382.20001220703</ele>
        <time>2013-05-10T10:34:29.000Z</time>
      </trkpt>
      <trkpt lat="46.45925" lon="6.84255">
        <ele>381.20001220703</ele>
        <time>2013-05-10T10:34:34.000Z</time>
      </trkpt>
      <trkpt lat="46.45913" lon="6.84253">
        <ele>380.79998779297</ele>
        <time>2013-05-10T10:34:36.000Z</time>
      </trkpt>
      <trkpt lat="46.45891" lon="6.8425">
        <ele>380.79998779297</ele>
        <time>2013-05-10T10:34:40.000Z</time>
      </trkpt>
      <trkpt lat="46.45879" lon="6.84254">
        <ele>380.20001220703</ele>
        <time>2013-05-10T10:34:42.000Z</time>
      </trkpt>
      <trkpt lat="46.4586" lon="6.84276">
        <ele>379.79998779297</ele>
        <time>2013-05-10T10:34:46.000Z</time>
      </trkpt>
      <trkpt lat="46.45856" lon="6.84295">
        <ele>379.79998779297</ele>
        <time>2013-05-10T10:34:48.000Z</time>
      </trkpt>
      <trkpt lat="46.45841" lon="6.84402">
        <ele>381.60000610352</ele>
        <time>2013-05-10T10:34:58.000Z</time>
      </trkpt>
      <trkpt lat="46.45833" lon="6.84455">
        <ele>381.60000610352</ele>
        <time>2013-05-10T10:35:03.000Z</time>
      </trkpt>
      <trkpt lat="46.45821" lon="6.84518">
        <ele>380.79998779297</ele>
        <time>2013-05-10T10:35:09.000Z</time>
      </trkpt>
      <trkpt lat="46.45808" lon="6.84616">
        <ele>381.20001220703</ele>
        <time>2013-05-10T10:35:18.000Z</time>
      </trkpt>
      <trkpt lat="46.45797" lon="6.84689">
        <ele>380.79998779297</ele>
        <time>2013-05-10T10:35:25.000Z</time>
      </trkpt>
      <trkpt lat="46.45784" lon="6.84775">
        <ele>380.79998779297</ele>
        <time>2013-05-10T10:35:33.000Z</time>
      </trkpt>
      <trkpt lat="46.45769" lon="6.84869">
        <ele>380.20001220703</ele>
        <time>2013-05-10T10:35:42.000Z</time>
      </trkpt>
      <trkpt lat="46.45753" lon="6.84973">
        <ele>380.79998779297</ele>
        <time>2013-05-10T10:35:52.000Z</time>
      </trkpt>
      <trkpt lat="46.45739" lon="6.8506">
        <ele>381.20001220703</ele>
        <time>2013-05-10T10:36:00.000Z</time>
      </trkpt>
      <trkpt lat="46.45719" lon="6.85168">
        <ele>381.60000610352</ele>
        <time>2013-05-10T10:36:10.000Z</time>
      </trkpt>
      <trkpt lat="46.45716" lon="6.85178">
        <ele>382.20001220703</ele>
        <time>2013-05-10T10:36:11.000Z</time>
      </trkpt>
      <trkpt lat="46.45695" lon="6.8522">
        <ele>382.60000610352</ele>
        <time>2013-05-10T10:36:16.000Z</time>
      </trkpt>
      <trkpt lat="46.45668" lon="6.85246">
        <ele>381.60000610352</ele>
        <time>2013-05-10T10:36:21.000Z</time>
      </trkpt>
      <trkpt lat="46.45657" lon="6.85254">
        <ele>382.20001220703</ele>
        <time>2013-05-10T10:36:23.000Z</time>
      </trkpt>
      <trkpt lat="46.45644" lon="6.8526">
        <ele>381.60000610352</ele>
        <time>2013-05-10T10:36:25.000Z</time>
      </trkpt>
      <trkpt lat="46.45598" lon="6.85281">
        <ele>379.20001220703</ele>
        <time>2013-05-10T10:36:32.000Z</time>
      </trkpt>
      <trkpt lat="46.45545" lon="6.85305">
        <ele>379.20001220703</ele>
        <time>2013-05-10T10:36:40.000Z</time>
      </trkpt>
      <trkpt lat="46.45485" lon="6.85332">
        <ele>378.39999389648</ele>
        <time>2013-05-10T10:36:49.000Z</time>
      </trkpt>
      <trkpt lat="46.45443" lon="6.85351">
        <ele>378.39999389648</ele>
        <time>2013-05-10T10:36:55.000Z</time>
      </trkpt>
      <trkpt lat="46.45393" lon="6.85374">
        <ele>377.79998779297</ele>
        <time>2013-05-10T10:37:02.000Z</time>
      </trkpt>
      <trkpt lat="46.45374" lon="6.85383">
        <ele>377.79998779297</ele>
        <time>2013-05-10T10:37:05.000Z</time>
      </trkpt>
      <trkpt lat="46.45351" lon="6.85403">
        <ele>377.79998779297</ele>
        <time>2013-05-10T10:37:10.000Z</time>
      </trkpt>
      <trkpt lat="46.4533" lon="6.85413">
        <ele>377.79998779297</ele>
        <time>2013-05-10T10:37:14.000Z</time>
      </trkpt>
      <trkpt lat="46.45306" lon="6.85435">
        <ele>378.39999389648</ele>
        <time>2013-05-10T10:37:19.000Z</time>
      </trkpt>
      <trkpt lat="46.45303" lon="6.85442">
        <ele>378.39999389648</ele>
        <time>2013-05-10T10:37:20.000Z</time>
      </trkpt>
      <trkpt lat="46.453" lon="6.85477">
        <ele>379.79998779297</ele>
        <time>2013-05-10T10:37:25.000Z</time>
      </trkpt>
      <trkpt lat="46.45304" lon="6.85491">
        <ele>379.20001220703</ele>
        <time>2013-05-10T10:37:27.000Z</time>
      </trkpt>
      <trkpt lat="46.45319" lon="6.85521">
        <ele>382.60000610352</ele>
        <time>2013-05-10T10:37:32.000Z</time>
      </trkpt>
      <trkpt lat="46.45321" lon="6.8554">
        <ele>385</ele>
        <time>2013-05-10T10:37:36.000Z</time>
      </trkpt>
      <trkpt lat="46.45316" lon="6.85547">
        <ele>387</ele>
        <time>2013-05-10T10:37:40.000Z</time>
      </trkpt>
      <trkpt lat="46.45312" lon="6.85552">
        <ele>387</ele>
        <time>2013-05-10T10:37:42.000Z</time>
      </trkpt>
      <trkpt lat="46.45299" lon="6.85572">
        <ele>389.39999389648</ele>
        <time>2013-05-10T10:37:48.000Z</time>
      </trkpt>
      <trkpt lat="46.45286" lon="6.8559">
        <ele>389.79998779297</ele>
        <time>2013-05-10T10:37:53.000Z</time>
      </trkpt>
      <trkpt lat="46.45268" lon="6.85612">
        <ele>388.39999389648</ele>
        <time>2013-05-10T10:37:58.000Z</time>
      </trkpt>
      <trkpt lat="46.45245" lon="6.85647">
        <ele>388.39999389648</ele>
        <time>2013-05-10T10:38:04.000Z</time>
      </trkpt>
      <trkpt lat="46.45227" lon="6.85668">
        <ele>387.39999389648</ele>
        <time>2013-05-10T10:38:08.000Z</time>
      </trkpt>
      <trkpt lat="46.45203" lon="6.8571">
        <ele>388.79998779297</ele>
        <time>2013-05-10T10:38:14.000Z</time>
      </trkpt>
      <trkpt lat="46.45199" lon="6.85728">
        <ele>387.39999389648</ele>
        <time>2013-05-10T10:38:16.000Z</time>
      </trkpt>
      <trkpt lat="46.45202" lon="6.85753">
        <ele>388.39999389648</ele>
        <time>2013-05-10T10:38:20.000Z</time>
      </trkpt>
      <trkpt lat="46.45217" lon="6.85767">
        <ele>388.39999389648</ele>
        <time>2013-05-10T10:38:24.000Z</time>
      </trkpt>
      <trkpt lat="46.45221" lon="6.85775">
        <ele>387.39999389648</ele>
        <time>2013-05-10T10:38:25.000Z</time>
      </trkpt>
      <trkpt lat="46.45224" lon="6.85793">
        <ele>394.20001220703</ele>
        <time>2013-05-10T10:38:30.000Z</time>
      </trkpt>
      <trkpt lat="46.45204" lon="6.85813">
        <ele>405.79998779297</ele>
        <time>2013-05-10T10:38:35.000Z</time>
      </trkpt>
      <trkpt lat="46.45192" lon="6.8583">
        <ele>405.79998779297</ele>
        <time>2013-05-10T10:38:38.000Z</time>
      </trkpt>
      <trkpt lat="46.45146" lon="6.85866">
        <ele>401.79998779297</ele>
        <time>2013-05-10T10:38:46.000Z</time>
      </trkpt>
      <trkpt lat="46.4511" lon="6.8589">
        <ele>399.39999389648</ele>
        <time>2013-05-10T10:38:52.000Z</time>
      </trkpt>
      <trkpt lat="46.4505" lon="6.85929">
        <ele>395.60000610352</ele>
        <time>2013-05-10T10:39:01.000Z</time>
      </trkpt>
      <trkpt lat="46.45006" lon="6.85966">
        <ele>394.20001220703</ele>
        <time>2013-05-10T10:39:08.000Z</time>
      </trkpt>
      <trkpt lat="46.44974" lon="6.8601">
        <ele>392.79998779297</ele>
        <time>2013-05-10T10:39:14.000Z</time>
      </trkpt>
      <trkpt lat="46.44949" lon="6.86068">
        <ele>392.20001220703</ele>
        <time>2013-05-10T10:39:20.000Z</time>
      </trkpt>
      <trkpt lat="46.44932" lon="6.86132">
        <ele>390.39999389648</ele>
        <time>2013-05-10T10:39:26.000Z</time>
      </trkpt>
      <trkpt lat="46.44921" lon="6.86216">
        <ele>388.79998779297</ele>
        <time>2013-05-10T10:39:33.000Z</time>
      </trkpt>
      <trkpt lat="46.44916" lon="6.86303">
        <ele>388.79998779297</ele>
        <time>2013-05-10T10:39:40.000Z</time>
      </trkpt>
      <trkpt lat="46.44913" lon="6.8638">
        <ele>388.79998779297</ele>
        <time>2013-05-10T10:39:46.000Z</time>
      </trkpt>
      <trkpt lat="46.44905" lon="6.86538">
        <ele>387</ele>
        <time>2013-05-10T10:39:58.000Z</time>
      </trkpt>
      <trkpt lat="46.44897" lon="6.86639">
        <ele>387</ele>
        <time>2013-05-10T10:40:06.000Z</time>
      </trkpt>
      <trkpt lat="46.44887" lon="6.86755">
        <ele>388</ele>
        <time>2013-05-10T10:40:16.000Z</time>
      </trkpt>
      <trkpt lat="46.44876" lon="6.86875">
        <ele>389.79998779297</ele>
        <time>2013-05-10T10:40:27.000Z</time>
      </trkpt>
      <trkpt lat="46.44866" lon="6.86989">
        <ele>389.39999389648</ele>
        <time>2013-05-10T10:40:37.000Z</time>
      </trkpt>
      <trkpt lat="46.44857" lon="6.871">
        <ele>387.39999389648</ele>
        <time>2013-05-10T10:40:46.000Z</time>
      </trkpt>
      <trkpt lat="46.4485" lon="6.87217">
        <ele>385.60000610352</ele>
        <time>2013-05-10T10:40:55.000Z</time>
      </trkpt>
      <trkpt lat="46.44843" lon="6.87282">
        <ele>383.60000610352</ele>
        <time>2013-05-10T10:41:00.000Z</time>
      </trkpt>
      <trkpt lat="46.44831" lon="6.8733">
        <ele>383.60000610352</ele>
        <time>2013-05-10T10:41:04.000Z</time>
      </trkpt>
      <trkpt lat="46.44806" lon="6.87378">
        <ele>384</ele>
        <time>2013-05-10T10:41:09.000Z</time>
      </trkpt>
      <trkpt lat="46.44777" lon="6.87413">
        <ele>385</ele>
        <time>2013-05-10T10:41:14.000Z</time>
      </trkpt>
      <trkpt lat="46.44745" lon="6.87453">
        <ele>386.39999389648</ele>
        <time>2013-05-10T10:41:20.000Z</time>
      </trkpt>
      <trkpt lat="46.44713" lon="6.87512">
        <ele>387</ele>
        <time>2013-05-10T10:41:27.000Z</time>
      </trkpt>
      <trkpt lat="46.44697" lon="6.87573">
        <ele>388</ele>
        <time>2013-05-10T10:41:33.000Z</time>
      </trkpt>
      <trkpt lat="46.44692" lon="6.87596">
        <ele>388</ele>
        <time>2013-05-10T10:41:35.000Z</time>
      </trkpt>
      <trkpt lat="46.44666" lon="6.87674">
        <ele>387.39999389648</ele>
        <time>2013-05-10T10:41:42.000Z</time>
      </trkpt>
      <trkpt lat="46.44625" lon="6.87785">
        <ele>386.39999389648</ele>
        <time>2013-05-10T10:41:52.000Z</time>
      </trkpt>
      <trkpt lat="46.44605" lon="6.87844">
        <ele>386.39999389648</ele>
        <time>2013-05-10T10:41:57.000Z</time>
      </trkpt>
      <trkpt lat="46.44581" lon="6.87881">
        <ele>387</ele>
        <time>2013-05-10T10:42:01.000Z</time>
      </trkpt>
      <trkpt lat="46.44557" lon="6.87896">
        <ele>387.39999389648</ele>
        <time>2013-05-10T10:42:04.000Z</time>
      </trkpt>
      <trkpt lat="46.44499" lon="6.87916">
        <ele>388</ele>
        <time>2013-05-10T10:42:11.000Z</time>
      </trkpt>
      <trkpt lat="46.44424" lon="6.87943">
        <ele>388.39999389648</ele>
        <time>2013-05-10T10:42:20.000Z</time>
      </trkpt>
      <trkpt lat="46.44351" lon="6.8797">
        <ele>389.39999389648</ele>
        <time>2013-05-10T10:42:29.000Z</time>
      </trkpt>
      <trkpt lat="46.44311" lon="6.87993">
        <ele>388.79998779297</ele>
        <time>2013-05-10T10:42:34.000Z</time>
      </trkpt>
      <trkpt lat="46.44276" lon="6.8803">
        <ele>389.39999389648</ele>
        <time>2013-05-10T10:42:39.000Z</time>
      </trkpt>
      <trkpt lat="46.44248" lon="6.88079">
        <ele>389.39999389648</ele>
        <time>2013-05-10T10:42:44.000Z</time>
      </trkpt>
      <trkpt lat="46.44196" lon="6.88188">
        <ele>388.39999389648</ele>
        <time>2013-05-10T10:42:54.000Z</time>
      </trkpt>
      <trkpt lat="46.44183" lon="6.88252">
        <ele>388</ele>
        <time>2013-05-10T10:42:59.000Z</time>
      </trkpt>
      <trkpt lat="46.44184" lon="6.8828">
        <ele>387.39999389648</ele>
        <time>2013-05-10T10:43:01.000Z</time>
      </trkpt>
      <trkpt lat="46.44195" lon="6.88378">
        <ele>385.60000610352</ele>
        <time>2013-05-10T10:43:08.000Z</time>
      </trkpt>
      <trkpt lat="46.44216" lon="6.88426">
        <ele>384.60000610352</ele>
        <time>2013-05-10T10:43:12.000Z</time>
      </trkpt>
      <trkpt lat="46.4423" lon="6.88448">
        <ele>384</ele>
        <time>2013-05-10T10:43:14.000Z</time>
      </trkpt>
      <trkpt lat="46.44252" lon="6.88502">
        <ele>382.20001220703</ele>
        <time>2013-05-10T10:43:18.000Z</time>
      </trkpt>
      <trkpt lat="46.44254" lon="6.88516">
        <ele>381.20001220703</ele>
        <time>2013-05-10T10:43:19.000Z</time>
      </trkpt>
      <trkpt lat="46.44252" lon="6.88601">
        <ele>381.20001220703</ele>
        <time>2013-05-10T10:43:25.000Z</time>
      </trkpt>
      <trkpt lat="46.44238" lon="6.88687">
        <ele>382.20001220703</ele>
        <time>2013-05-10T10:43:32.000Z</time>
      </trkpt>
      <trkpt lat="46.44221" lon="6.88746">
        <ele>386</ele>
        <time>2013-05-10T10:43:38.000Z</time>
      </trkpt>
      <trkpt lat="46.44206" lon="6.88783">
        <ele>389.39999389648</ele>
        <time>2013-05-10T10:43:42.000Z</time>
      </trkpt>
      <trkpt lat="46.44175" lon="6.88858">
        <ele>390.79998779297</ele>
        <time>2013-05-10T10:43:50.000Z</time>
      </trkpt>
      <trkpt lat="46.44144" lon="6.8894">
        <ele>393.20001220703</ele>
        <time>2013-05-10T10:43:59.000Z</time>
      </trkpt>
      <trkpt lat="46.44119" lon="6.89002">
        <ele>393.20001220703</ele>
        <time>2013-05-10T10:44:06.000Z</time>
      </trkpt>
      <trkpt lat="46.44096" lon="6.89066">
        <ele>391.20001220703</ele>
        <time>2013-05-10T10:44:12.000Z</time>
      </trkpt>
      <trkpt lat="46.44063" lon="6.89162">
        <ele>391.20001220703</ele>
        <time>2013-05-10T10:44:20.000Z</time>
      </trkpt>
      <trkpt lat="46.4404" lon="6.89237">
        <ele>390.79998779297</ele>
        <time>2013-05-10T10:44:26.000Z</time>
      </trkpt>
      <trkpt lat="46.44033" lon="6.89297">
        <ele>388</ele>
        <time>2013-05-10T10:44:31.000Z</time>
      </trkpt>
      <trkpt lat="46.4403" lon="6.8932">
        <ele>388</ele>
        <time>2013-05-10T10:44:33.000Z</time>
      </trkpt>
      <trkpt lat="46.44018" lon="6.89394">
        <ele>386.39999389648</ele>
        <time>2013-05-10T10:44:40.000Z</time>
      </trkpt>
      <trkpt lat="46.44015" lon="6.89463">
        <ele>386</ele>
        <time>2013-05-10T10:44:47.000Z</time>
      </trkpt>
      <trkpt lat="46.44018" lon="6.89559">
        <ele>386</ele>
        <time>2013-05-10T10:44:56.000Z</time>
      </trkpt>
      <trkpt lat="46.44025" lon="6.8965">
        <ele>385.60000610352</ele>
        <time>2013-05-10T10:45:04.000Z</time>
      </trkpt>
      <trkpt lat="46.44036" lon="6.89727">
        <ele>384.60000610352</ele>
        <time>2013-05-10T10:45:10.000Z</time>
      </trkpt>
      <trkpt lat="46.44042" lon="6.8982">
        <ele>381.20001220703</ele>
        <time>2013-05-10T10:45:17.000Z</time>
      </trkpt>
      <trkpt lat="46.44058" lon="6.89889">
        <ele>380.20001220703</ele>
        <time>2013-05-10T10:45:22.000Z</time>
      </trkpt>
      <trkpt lat="46.44069" lon="6.8997">
        <ele>380.20001220703</ele>
        <time>2013-05-10T10:45:28.000Z</time>
      </trkpt>
      <trkpt lat="46.44076" lon="6.90056">
        <ele>380.79998779297</ele>
        <time>2013-05-10T10:45:35.000Z</time>
      </trkpt>
      <trkpt lat="46.4408" lon="6.90156">
        <ele>382.60000610352</ele>
        <time>2013-05-10T10:45:44.000Z</time>
      </trkpt>
      <trkpt lat="46.44075" lon="6.90207">
        <ele>384</ele>
        <time>2013-05-10T10:45:49.000Z</time>
      </trkpt>
      <trkpt lat="46.44057" lon="6.90263">
        <ele>384</ele>
        <time>2013-05-10T10:45:55.000Z</time>
      </trkpt>
      <trkpt lat="46.44035" lon="6.90305">
        <ele>385.60000610352</ele>
        <time>2013-05-10T10:46:00.000Z</time>
      </trkpt>
      <trkpt lat="46.44003" lon="6.90375">
        <ele>388.39999389648</ele>
        <time>2013-05-10T10:46:08.000Z</time>
      </trkpt>
      <trkpt lat="46.43975" lon="6.90423">
        <ele>390.79998779297</ele>
        <time>2013-05-10T10:46:14.000Z</time>
      </trkpt>
      <trkpt lat="46.43948" lon="6.90475">
        <ele>390.39999389648</ele>
        <time>2013-05-10T10:46:20.000Z</time>
      </trkpt>
      <trkpt lat="46.43912" lon="6.90551">
        <ele>394.20001220703</ele>
        <time>2013-05-10T10:46:28.000Z</time>
      </trkpt>
      <trkpt lat="46.43871" lon="6.90613">
        <ele>394.20001220703</ele>
        <time>2013-05-10T10:46:35.000Z</time>
      </trkpt>
      <trkpt lat="46.43819" lon="6.90685">
        <ele>388.39999389648</ele>
        <time>2013-05-10T10:46:44.000Z</time>
      </trkpt>
      <trkpt lat="46.43771" lon="6.90754">
        <ele>388.79998779297</ele>
        <time>2013-05-10T10:46:52.000Z</time>
      </trkpt>
      <trkpt lat="46.43736" lon="6.908">
        <ele>384.60000610352</ele>
        <time>2013-05-10T10:46:58.000Z</time>
      </trkpt>
      <trkpt lat="46.43669" lon="6.90846">
        <ele>387</ele>
        <time>2013-05-10T10:47:06.000Z</time>
      </trkpt>
      <trkpt lat="46.43616" lon="6.90904">
        <ele>386.39999389648</ele>
        <time>2013-05-10T10:47:14.000Z</time>
      </trkpt>
      <trkpt lat="46.43536" lon="6.90969">
        <ele>383.20001220703</ele>
        <time>2013-05-10T10:47:25.000Z</time>
      </trkpt>
      <trkpt lat="46.43496" lon="6.90986">
        <ele>381.60000610352</ele>
        <time>2013-05-10T10:47:30.000Z</time>
      </trkpt>
      <trkpt lat="46.43431" lon="6.90999">
        <ele>380.20001220703</ele>
        <time>2013-05-10T10:47:38.000Z</time>
      </trkpt>
      <trkpt lat="46.43343" lon="6.91011">
        <ele>380.79998779297</ele>
        <time>2013-05-10T10:47:49.000Z</time>
      </trkpt>
      <trkpt lat="46.43298" lon="6.9101">
        <ele>380.79998779297</ele>
        <time>2013-05-10T10:47:55.000Z</time>
      </trkpt>
      <trkpt lat="46.43287" lon="6.91011">
        <ele>381.60000610352</ele>
        <time>2013-05-10T10:47:57.000Z</time>
      </trkpt>
      <trkpt lat="46.4326" lon="6.91019">
        <ele>382.60000610352</ele>
        <time>2013-05-10T10:48:02.000Z</time>
      </trkpt>
      <trkpt lat="46.43217" lon="6.91025">
        <ele>384.60000610352</ele>
        <time>2013-05-10T10:48:10.000Z</time>
      </trkpt>
      <trkpt lat="46.43182" lon="6.91039">
        <ele>387.39999389648</ele>
        <time>2013-05-10T10:48:16.000Z</time>
      </trkpt>
      <trkpt lat="46.43157" lon="6.91048">
        <ele>390.39999389648</ele>
        <time>2013-05-10T10:48:21.000Z</time>
      </trkpt>
      <trkpt lat="46.43152" lon="6.91051">
        <ele>392.20001220703</ele>
        <time>2013-05-10T10:48:22.000Z</time>
      </trkpt>
      <trkpt lat="46.43137" lon="6.91055">
        <ele>396.60000610352</ele>
        <time>2013-05-10T10:48:25.000Z</time>
      </trkpt>
      <trkpt lat="46.43116" lon="6.91063">
        <ele>401</ele>
        <time>2013-05-10T10:48:30.000Z</time>
      </trkpt>
      <trkpt lat="46.43092" lon="6.91083">
        <ele>408.60000610352</ele>
        <time>2013-05-10T10:48:35.000Z</time>
      </trkpt>
      <trkpt lat="46.43077" lon="6.91096">
        <ele>413</ele>
        <time>2013-05-10T10:48:38.000Z</time>
      </trkpt>
      <trkpt lat="46.43069" lon="6.9111">
        <ele>417.79998779297</ele>
        <time>2013-05-10T10:48:40.000Z</time>
      </trkpt>
      <trkpt lat="46.43052" lon="6.91166">
        <ele>411.39999389648</ele>
        <time>2013-05-10T10:48:47.000Z</time>
      </trkpt>
      <trkpt lat="46.43031" lon="6.91234">
        <ele>401</ele>
        <time>2013-05-10T10:48:55.000Z</time>
      </trkpt>
      <trkpt lat="46.43024" lon="6.91295">
        <ele>396.20001220703</ele>
        <time>2013-05-10T10:49:02.000Z</time>
      </trkpt>
      <trkpt lat="46.43023" lon="6.913">
        <ele>395.20001220703</ele>
        <time>2013-05-10T10:49:03.000Z</time>
      </trkpt>
      <trkpt lat="46.43017" lon="6.9131">
        <ele>394.20001220703</ele>
        <time>2013-05-10T10:49:07.000Z</time>
      </trkpt>
      <trkpt lat="46.42985" lon="6.91311">
        <ele>394.20001220703</ele>
        <time>2013-05-10T10:49:14.000Z</time>
      </trkpt>
      <trkpt lat="46.42958" lon="6.91316">
        <ele>395.20001220703</ele>
        <time>2013-05-10T10:49:19.000Z</time>
      </trkpt>
      <trkpt lat="46.42919" lon="6.91322">
        <ele>390.39999389648</ele>
        <time>2013-05-10T10:49:25.000Z</time>
      </trkpt>
      <trkpt lat="46.42906" lon="6.91324">
        <ele>388.39999389648</ele>
        <time>2013-05-10T10:49:27.000Z</time>
      </trkpt>
      <trkpt lat="46.42889" lon="6.91347">
        <ele>386</ele>
        <time>2013-05-10T10:49:31.000Z</time>
      </trkpt>
      <trkpt lat="46.42893" lon="6.91365">
        <ele>385</ele>
        <time>2013-05-10T10:49:33.000Z</time>
      </trkpt>
      <trkpt lat="46.42895" lon="6.91374">
        <ele>384.60000610352</ele>
        <time>2013-05-10T10:49:34.000Z</time>
      </trkpt>
      <trkpt lat="46.42915" lon="6.91431">
        <ele>382.60000610352</ele>
        <time>2013-05-10T10:49:41.000Z</time>
      </trkpt>
      <trkpt lat="46.42915" lon="6.91442">
        <ele>381.20001220703</ele>
        <time>2013-05-10T10:49:45.000Z</time>
      </trkpt>
      <trkpt lat="46.42914" lon="6.91439">
        <ele>379.79998779297</ele>
        <time>2013-05-10T10:49:49.000Z</time>
      </trkpt>
      <trkpt lat="46.42913" lon="6.91438">
        <ele>380.79998779297</ele>
        <time>2013-05-10T10:49:59.000Z</time>
      </trkpt>
      <trkpt lat="46.42912" lon="6.91438">
        <ele>376.39999389648</ele>
        <time>2013-05-10T10:50:25.000Z</time>
      </trkpt>
      <trkpt lat="46.42949" lon="6.91494">
        <ele>375.39999389648</ele>
        <time>2013-05-10T10:52:08.000Z</time>
      </trkpt>
      <trkpt lat="46.42966" lon="6.91516">
        <ele>373.60000610352</ele>
        <time>2013-05-10T10:52:13.000Z</time>
      </trkpt>
      <trkpt lat="46.42972" lon="6.91527">
        <ele>373.60000610352</ele>
        <time>2013-05-10T10:52:15.000Z</time>
      </trkpt>
      <trkpt lat="46.42984" lon="6.91556">
        <ele>374.39999389648</ele>
        <time>2013-05-10T10:52:20.000Z</time>
      </trkpt>
      <trkpt lat="46.42993" lon="6.91589">
        <ele>375</ele>
        <time>2013-05-10T10:52:25.000Z</time>
      </trkpt>
      <trkpt lat="46.42995" lon="6.91636">
        <ele>378.79998779297</ele>
        <time>2013-05-10T10:52:31.000Z</time>
      </trkpt>
      <trkpt lat="46.42993" lon="6.91651">
        <ele>379.20001220703</ele>
        <time>2013-05-10T10:52:33.000Z</time>
      </trkpt>
      <trkpt lat="46.42992" lon="6.91666">
        <ele>380.20001220703</ele>
        <time>2013-05-10T10:52:35.000Z</time>
      </trkpt>
      <trkpt lat="46.42991" lon="6.9168">
        <ele>379.79998779297</ele>
        <time>2013-05-10T10:52:37.000Z</time>
      </trkpt>
      <trkpt lat="46.42976" lon="6.91739">
        <ele>379.20001220703</ele>
        <time>2013-05-10T10:52:44.000Z</time>
      </trkpt>
      <trkpt lat="46.4297" lon="6.91763">
        <ele>379.20001220703</ele>
        <time>2013-05-10T10:52:47.000Z</time>
      </trkpt>
      <trkpt lat="46.42966" lon="6.91781">
        <ele>379.79998779297</ele>
        <time>2013-05-10T10:52:50.000Z</time>
      </trkpt>
      <trkpt lat="46.4296" lon="6.91807">
        <ele>379.79998779297</ele>
        <time>2013-05-10T10:52:52.000Z</time>
      </trkpt>
      <trkpt lat="46.42957" lon="6.91834">
        <ele>379.79998779297</ele>
        <time>2013-05-10T10:52:55.000Z</time>
      </trkpt>
      <trkpt lat="46.42949" lon="6.91869">
        <ele>379.79998779297</ele>
        <time>2013-05-10T10:52:59.000Z</time>
      </trkpt>
      <trkpt lat="46.42924" lon="6.91923">
        <ele>377.79998779297</ele>
        <time>2013-05-10T10:53:06.000Z</time>
      </trkpt>
      <trkpt lat="46.42888" lon="6.91973">
        <ele>376.79998779297</ele>
        <time>2013-05-10T10:53:13.000Z</time>
      </trkpt>
      <trkpt lat="46.42877" lon="6.91986">
        <ele>376.79998779297</ele>
        <time>2013-05-10T10:53:15.000Z</time>
      </trkpt>
      <trkpt lat="46.42844" lon="6.92012">
        <ele>377.39999389648</ele>
        <time>2013-05-10T10:53:20.000Z</time>
      </trkpt>
      <trkpt lat="46.42798" lon="6.9205">
        <ele>378.39999389648</ele>
        <time>2013-05-10T10:53:27.000Z</time>
      </trkpt>
      <trkpt lat="46.42786" lon="6.92062">
        <ele>378.79998779297</ele>
        <time>2013-05-10T10:53:29.000Z</time>
      </trkpt>
      <trkpt lat="46.42747" lon="6.92094">
        <ele>379.79998779297</ele>
        <time>2013-05-10T10:53:35.000Z</time>
      </trkpt>
      <trkpt lat="46.42713" lon="6.92122">
        <ele>379.20001220703</ele>
        <time>2013-05-10T10:53:40.000Z</time>
      </trkpt>
      <trkpt lat="46.4268" lon="6.9215">
        <ele>379.20001220703</ele>
        <time>2013-05-10T10:53:45.000Z</time>
      </trkpt>
      <trkpt lat="46.42667" lon="6.92162">
        <ele>378.79998779297</ele>
        <time>2013-05-10T10:53:47.000Z</time>
      </trkpt>
      <trkpt lat="46.42634" lon="6.92189">
        <ele>378.39999389648</ele>
        <time>2013-05-10T10:53:52.000Z</time>
      </trkpt>
      <trkpt lat="46.42614" lon="6.92206">
        <ele>378.79998779297</ele>
        <time>2013-05-10T10:53:55.000Z</time>
      </trkpt>
      <trkpt lat="46.42597" lon="6.92239">
        <ele>378.79998779297</ele>
        <time>2013-05-10T10:53:59.000Z</time>
      </trkpt>
      <trkpt lat="46.42597" lon="6.92249">
        <ele>379.20001220703</ele>
        <time>2013-05-10T10:54:00.000Z</time>
      </trkpt>
      <trkpt lat="46.42591" lon="6.92279">
        <ele>379.20001220703</ele>
        <time>2013-05-10T10:54:04.000Z</time>
      </trkpt>
      <trkpt lat="46.42572" lon="6.92285">
        <ele>379.79998779297</ele>
        <time>2013-05-10T10:54:07.000Z</time>
      </trkpt>
      <trkpt lat="46.42539" lon="6.92276">
        <ele>379.20001220703</ele>
        <time>2013-05-10T10:54:12.000Z</time>
      </trkpt>
      <trkpt lat="46.42512" lon="6.92277">
        <ele>379.20001220703</ele>
        <time>2013-05-10T10:54:16.000Z</time>
      </trkpt>
      <trkpt lat="46.42494" lon="6.92293">
        <ele>378.39999389648</ele>
        <time>2013-05-10T10:54:19.000Z</time>
      </trkpt>
      <trkpt lat="46.42463" lon="6.92335">
        <ele>378.39999389648</ele>
        <time>2013-05-10T10:54:25.000Z</time>
      </trkpt>
      <trkpt lat="46.42445" lon="6.92357">
        <ele>378.79998779297</ele>
        <time>2013-05-10T10:54:28.000Z</time>
      </trkpt>
      <trkpt lat="46.42431" lon="6.92368">
        <ele>379.79998779297</ele>
        <time>2013-05-10T10:54:30.000Z</time>
      </trkpt>
      <trkpt lat="46.42418" lon="6.92376">
        <ele>379.79998779297</ele>
        <time>2013-05-10T10:54:32.000Z</time>
      </trkpt>
      <trkpt lat="46.42389" lon="6.92381">
        <ele>378.79998779297</ele>
        <time>2013-05-10T10:54:36.000Z</time>
      </trkpt>
      <trkpt lat="46.42354" lon="6.92384">
        <ele>376.79998779297</ele>
        <time>2013-05-10T10:54:41.000Z</time>
      </trkpt>
      <trkpt lat="46.42284" lon="6.92371">
        <ele>375.39999389648</ele>
        <time>2013-05-10T10:54:51.000Z</time>
      </trkpt>
      <trkpt lat="46.42233" lon="6.92358">
        <ele>374</ele>
        <time>2013-05-10T10:54:58.000Z</time>
      </trkpt>
      <trkpt lat="46.42184" lon="6.92345">
        <ele>373.60000610352</ele>
        <time>2013-05-10T10:55:05.000Z</time>
      </trkpt>
      <trkpt lat="46.42133" lon="6.92346">
        <ele>374.39999389648</ele>
        <time>2013-05-10T10:55:12.000Z</time>
      </trkpt>
      <trkpt lat="46.42126" lon="6.92346">
        <ele>375</ele>
        <time>2013-05-10T10:55:13.000Z</time>
      </trkpt>
      <trkpt lat="46.42105" lon="6.92351">
        <ele>375</ele>
        <time>2013-05-10T10:55:16.000Z</time>
      </trkpt>
      <trkpt lat="46.4208" lon="6.92366">
        <ele>375</ele>
        <time>2013-05-10T10:55:20.000Z</time>
      </trkpt>
      <trkpt lat="46.42046" lon="6.92408">
        <ele>375.39999389648</ele>
        <time>2013-05-10T10:55:26.000Z</time>
      </trkpt>
      <trkpt lat="46.42012" lon="6.92454">
        <ele>376.79998779297</ele>
        <time>2013-05-10T10:55:32.000Z</time>
      </trkpt>
      <trkpt lat="46.41959" lon="6.92539">
        <ele>378.39999389648</ele>
        <time>2013-05-10T10:55:42.000Z</time>
      </trkpt>
      <trkpt lat="46.41927" lon="6.92582">
        <ele>379.20001220703</ele>
        <time>2013-05-10T10:55:48.000Z</time>
      </trkpt>
      <trkpt lat="46.41918" lon="6.92614">
        <ele>378.79998779297</ele>
        <time>2013-05-10T10:55:52.000Z</time>
      </trkpt>
      <trkpt lat="46.41911" lon="6.9263">
        <ele>379.20001220703</ele>
        <time>2013-05-10T10:55:54.000Z</time>
      </trkpt>
      <trkpt lat="46.41892" lon="6.9267">
        <ele>378.79998779297</ele>
        <time>2013-05-10T10:55:59.000Z</time>
      </trkpt>
      <trkpt lat="46.41873" lon="6.92698">
        <ele>379.20001220703</ele>
        <time>2013-05-10T10:56:03.000Z</time>
      </trkpt>
      <trkpt lat="46.41862" lon="6.92707">
        <ele>379.20001220703</ele>
        <time>2013-05-10T10:56:05.000Z</time>
      </trkpt>
      <trkpt lat="46.41845" lon="6.92719">
        <ele>379.79998779297</ele>
        <time>2013-05-10T10:56:08.000Z</time>
      </trkpt>
      <trkpt lat="46.41818" lon="6.92743">
        <ele>379.20001220703</ele>
        <time>2013-05-10T10:56:13.000Z</time>
      </trkpt>
      <trkpt lat="46.41812" lon="6.92746">
        <ele>379.20001220703</ele>
        <time>2013-05-10T10:56:14.000Z</time>
      </trkpt>
      <trkpt lat="46.41768" lon="6.92757">
        <ele>382.60000610352</ele>
        <time>2013-05-10T10:56:21.000Z</time>
      </trkpt>
      <trkpt lat="46.41733" lon="6.92768">
        <ele>385</ele>
        <time>2013-05-10T10:56:27.000Z</time>
      </trkpt>
      <trkpt lat="46.41716" lon="6.92771">
        <ele>385.60000610352</ele>
        <time>2013-05-10T10:56:30.000Z</time>
      </trkpt>
      <trkpt lat="46.41692" lon="6.92766">
        <ele>386.39999389648</ele>
        <time>2013-05-10T10:56:35.000Z</time>
      </trkpt>
      <trkpt lat="46.41689" lon="6.92767">
        <ele>386</ele>
        <time>2013-05-10T10:56:36.000Z</time>
      </trkpt>
      <trkpt lat="46.4167" lon="6.92779">
        <ele>385</ele>
        <time>2013-05-10T10:56:41.000Z</time>
      </trkpt>
      <trkpt lat="46.41651" lon="6.92781">
        <ele>386.39999389648</ele>
        <time>2013-05-10T10:56:45.000Z</time>
      </trkpt>
      <trkpt lat="46.41631" lon="6.92785">
        <ele>385</ele>
        <time>2013-05-10T10:56:49.000Z</time>
      </trkpt>
      <trkpt lat="46.4159" lon="6.92784">
        <ele>383.60000610352</ele>
        <time>2013-05-10T10:56:55.000Z</time>
      </trkpt>
      <trkpt lat="46.41534" lon="6.92794">
        <ele>382.20001220703</ele>
        <time>2013-05-10T10:57:03.000Z</time>
      </trkpt>
      <trkpt lat="46.41527" lon="6.92794">
        <ele>382.20001220703</ele>
        <time>2013-05-10T10:57:04.000Z</time>
      </trkpt>
      <trkpt lat="46.41502" lon="6.92785">
        <ele>381.60000610352</ele>
        <time>2013-05-10T10:57:08.000Z</time>
      </trkpt>
      <trkpt lat="46.41498" lon="6.92783">
        <ele>381.20001220703</ele>
        <time>2013-05-10T10:57:09.000Z</time>
      </trkpt>
      <trkpt lat="46.41488" lon="6.92781">
        <ele>381.20001220703</ele>
        <time>2013-05-10T10:57:11.000Z</time>
      </trkpt>
      <trkpt lat="46.41481" lon="6.92781">
        <ele>380.79998779297</ele>
        <time>2013-05-10T10:57:13.000Z</time>
      </trkpt>
      <trkpt lat="46.41467" lon="6.92786">
        <ele>380.79998779297</ele>
        <time>2013-05-10T10:57:17.000Z</time>
      </trkpt>
      <trkpt lat="46.41452" lon="6.92793">
        <ele>381.20001220703</ele>
        <time>2013-05-10T10:57:22.000Z</time>
      </trkpt>
      <trkpt lat="46.41448" lon="6.92795">
        <ele>382.60000610352</ele>
        <time>2013-05-10T10:57:26.000Z</time>
      </trkpt>
      <trkpt lat="46.41446" lon="6.92798">
        <ele>385</ele>
        <time>2013-05-10T10:57:32.000Z</time>
      </trkpt>
      <trkpt lat="46.41438" lon="6.92798">
        <ele>394.20001220703</ele>
        <time>2013-05-10T10:57:46.000Z</time>
      </trkpt>
      <trkpt lat="46.41437" lon="6.92796">
        <ele>394.60000610352</ele>
        <time>2013-05-10T10:57:51.000Z</time>
      </trkpt>
      <trkpt lat="46.41438" lon="6.92796">
        <ele>395.20001220703</ele>
        <time>2013-05-10T10:58:03.000Z</time>
      </trkpt>
      <trkpt lat="46.41439" lon="6.92797">
        <ele>393.20001220703</ele>
        <time>2013-05-10T10:58:11.000Z</time>
      </trkpt>
      <trkpt lat="46.41431" lon="6.92803">
        <ele>393.20001220703</ele>
        <time>2013-05-10T10:58:16.000Z</time>
      </trkpt>
      <trkpt lat="46.4141" lon="6.92819">
        <ele>390.79998779297</ele>
        <time>2013-05-10T10:58:23.000Z</time>
      </trkpt>
      <trkpt lat="46.41399" lon="6.92836">
        <ele>390.39999389648</ele>
        <time>2013-05-10T10:58:28.000Z</time>
      </trkpt>
      <trkpt lat="46.41388" lon="6.92859">
        <ele>389.39999389648</ele>
        <time>2013-05-10T10:58:33.000Z</time>
      </trkpt>
      <trkpt lat="46.41375" lon="6.92871">
        <ele>388.39999389648</ele>
        <time>2013-05-10T10:58:37.000Z</time>
      </trkpt>
      <trkpt lat="46.41355" lon="6.92883">
        <ele>385.60000610352</ele>
        <time>2013-05-10T10:58:41.000Z</time>
      </trkpt>
      <trkpt lat="46.41312" lon="6.92921">
        <ele>383.60000610352</ele>
        <time>2013-05-10T10:58:49.000Z</time>
      </trkpt>
      <trkpt lat="46.41276" lon="6.92951">
        <ele>384</ele>
        <time>2013-05-10T10:58:55.000Z</time>
      </trkpt>
      <trkpt lat="46.41259" lon="6.92965">
        <ele>383.20001220703</ele>
        <time>2013-05-10T10:58:58.000Z</time>
      </trkpt>
      <trkpt lat="46.4122" lon="6.93">
        <ele>383.20001220703</ele>
        <time>2013-05-10T10:59:04.000Z</time>
      </trkpt>
      <trkpt lat="46.41171" lon="6.93033">
        <ele>381.60000610352</ele>
        <time>2013-05-10T10:59:11.000Z</time>
      </trkpt>
      <trkpt lat="46.41105" lon="6.93066">
        <ele>378.39999389648</ele>
        <time>2013-05-10T10:59:20.000Z</time>
      </trkpt>
      <trkpt lat="46.41038" lon="6.93087">
        <ele>376.79998779297</ele>
        <time>2013-05-10T10:59:29.000Z</time>
      </trkpt>
      <trkpt lat="46.40974" lon="6.93096">
        <ele>377.39999389648</ele>
        <time>2013-05-10T10:59:38.000Z</time>
      </trkpt>
      <trkpt lat="46.40923" lon="6.93101">
        <ele>376.79998779297</ele>
        <time>2013-05-10T10:59:45.000Z</time>
      </trkpt>
      <trkpt lat="46.40872" lon="6.93103">
        <ele>376.79998779297</ele>
        <time>2013-05-10T10:59:52.000Z</time>
      </trkpt>
      <trkpt lat="46.40833" lon="6.931">
        <ele>376.39999389648</ele>
        <time>2013-05-10T10:59:58.000Z</time>
      </trkpt>
      <trkpt lat="46.40793" lon="6.93092">
        <ele>375.39999389648</ele>
        <time>2013-05-10T11:00:04.000Z</time>
      </trkpt>
      <trkpt lat="46.40749" lon="6.93079">
        <ele>375</ele>
        <time>2013-05-10T11:00:10.000Z</time>
      </trkpt>
      <trkpt lat="46.40708" lon="6.93062">
        <ele>375</ele>
        <time>2013-05-10T11:00:16.000Z</time>
      </trkpt>
      <trkpt lat="46.40667" lon="6.93039">
        <ele>374</ele>
        <time>2013-05-10T11:00:22.000Z</time>
      </trkpt>
      <trkpt lat="46.40616" lon="6.93002">
        <ele>372.60000610352</ele>
        <time>2013-05-10T11:00:30.000Z</time>
      </trkpt>
      <trkpt lat="46.4057" lon="6.92969">
        <ele>372</ele>
        <time>2013-05-10T11:00:37.000Z</time>
      </trkpt>
      <trkpt lat="46.40527" lon="6.92938">
        <ele>373.60000610352</ele>
        <time>2013-05-10T11:00:44.000Z</time>
      </trkpt>
      <trkpt lat="46.40511" lon="6.92929">
        <ele>373.60000610352</ele>
        <time>2013-05-10T11:00:47.000Z</time>
      </trkpt>
      <trkpt lat="46.40481" lon="6.92906">
        <ele>374.39999389648</ele>
        <time>2013-05-10T11:00:53.000Z</time>
      </trkpt>
      <trkpt lat="46.40442" lon="6.92876">
        <ele>375.39999389648</ele>
        <time>2013-05-10T11:01:00.000Z</time>
      </trkpt>
      <trkpt lat="46.40391" lon="6.92838">
        <ele>376.39999389648</ele>
        <time>2013-05-10T11:01:08.000Z</time>
      </trkpt>
      <trkpt lat="46.40335" lon="6.92795">
        <ele>375.39999389648</ele>
        <time>2013-05-10T11:01:17.000Z</time>
      </trkpt>
      <trkpt lat="46.40307" lon="6.92771">
        <ele>375.39999389648</ele>
        <time>2013-05-10T11:01:22.000Z</time>
      </trkpt>
      <trkpt lat="46.40282" lon="6.92748">
        <ele>375.39999389648</ele>
        <time>2013-05-10T11:01:27.000Z</time>
      </trkpt>
      <trkpt lat="46.40252" lon="6.92729">
        <ele>378.39999389648</ele>
        <time>2013-05-10T11:01:33.000Z</time>
      </trkpt>
      <trkpt lat="46.40244" lon="6.92724">
        <ele>379.20001220703</ele>
        <time>2013-05-10T11:01:35.000Z</time>
      </trkpt>
      <trkpt lat="46.40229" lon="6.92719">
        <ele>380.79998779297</ele>
        <time>2013-05-10T11:01:40.000Z</time>
      </trkpt>
      <trkpt lat="46.40206" lon="6.92713">
        <ele>383.60000610352</ele>
        <time>2013-05-10T11:01:46.000Z</time>
      </trkpt>
      <trkpt lat="46.40191" lon="6.92689">
        <ele>384.60000610352</ele>
        <time>2013-05-10T11:01:50.000Z</time>
      </trkpt>
      <trkpt lat="46.40161" lon="6.92636">
        <ele>384</ele>
        <time>2013-05-10T11:01:57.000Z</time>
      </trkpt>
      <trkpt lat="46.40139" lon="6.92602">
        <ele>382.20001220703</ele>
        <time>2013-05-10T11:02:01.000Z</time>
      </trkpt>
      <trkpt lat="46.40119" lon="6.92578">
        <ele>380.79998779297</ele>
        <time>2013-05-10T11:02:04.000Z</time>
      </trkpt>
      <trkpt lat="46.40078" lon="6.92554">
        <ele>377.79998779297</ele>
        <time>2013-05-10T11:02:09.000Z</time>
      </trkpt>
      <trkpt lat="46.40069" lon="6.92553">
        <ele>377.39999389648</ele>
        <time>2013-05-10T11:02:10.000Z</time>
      </trkpt>
      <trkpt lat="46.39994" lon="6.92551">
        <ele>374</ele>
        <time>2013-05-10T11:02:18.000Z</time>
      </trkpt>
      <trkpt lat="46.39942" lon="6.92541">
        <ele>373.60000610352</ele>
        <time>2013-05-10T11:02:24.000Z</time>
      </trkpt>
      <trkpt lat="46.39878" lon="6.92513">
        <ele>373</ele>
        <time>2013-05-10T11:02:32.000Z</time>
      </trkpt>
      <trkpt lat="46.39818" lon="6.92475">
        <ele>372</ele>
        <time>2013-05-10T11:02:40.000Z</time>
      </trkpt>
      <trkpt lat="46.39793" lon="6.92457">
        <ele>372</ele>
        <time>2013-05-10T11:02:44.000Z</time>
      </trkpt>
      <trkpt lat="46.39754" lon="6.92417">
        <ele>371.60000610352</ele>
        <time>2013-05-10T11:02:50.000Z</time>
      </trkpt>
      <trkpt lat="46.39708" lon="6.92377">
        <ele>373</ele>
        <time>2013-05-10T11:02:56.000Z</time>
      </trkpt>
      <trkpt lat="46.39656" lon="6.92314">
        <ele>374.39999389648</ele>
        <time>2013-05-10T11:03:04.000Z</time>
      </trkpt>
      <trkpt lat="46.396" lon="6.92241">
        <ele>374.39999389648</ele>
        <time>2013-05-10T11:03:13.000Z</time>
      </trkpt>
      <trkpt lat="46.39593" lon="6.92235">
        <ele>374</ele>
        <time>2013-05-10T11:03:14.000Z</time>
      </trkpt>
      <trkpt lat="46.39538" lon="6.92204">
        <ele>376</ele>
        <time>2013-05-10T11:03:21.000Z</time>
      </trkpt>
      <trkpt lat="46.39479" lon="6.92194">
        <ele>375.39999389648</ele>
        <time>2013-05-10T11:03:28.000Z</time>
      </trkpt>
      <trkpt lat="46.39395" lon="6.92182">
        <ele>376.39999389648</ele>
        <time>2013-05-10T11:03:38.000Z</time>
      </trkpt>
      <trkpt lat="46.39388" lon="6.9217">
        <ele>376</ele>
        <time>2013-05-10T11:03:41.000Z</time>
      </trkpt>
      <trkpt lat="46.3939" lon="6.92166">
        <ele>375.39999389648</ele>
        <time>2013-05-10T11:03:42.000Z</time>
      </trkpt>
      <trkpt lat="46.39396" lon="6.92158">
        <ele>375.39999389648</ele>
        <time>2013-05-10T11:03:44.000Z</time>
      </trkpt>
      <trkpt lat="46.39416" lon="6.92123">
        <ele>376.39999389648</ele>
        <time>2013-05-10T11:03:50.000Z</time>
      </trkpt>
      <trkpt lat="46.39426" lon="6.92102">
        <ele>375.39999389648</ele>
        <time>2013-05-10T11:03:53.000Z</time>
      </trkpt>
      <trkpt lat="46.3943" lon="6.92071">
        <ele>373.60000610352</ele>
        <time>2013-05-10T11:03:57.000Z</time>
      </trkpt>
      <trkpt lat="46.39421" lon="6.92045">
        <ele>374</ele>
        <time>2013-05-10T11:04:00.000Z</time>
      </trkpt>
      <trkpt lat="46.39394" lon="6.91975">
        <ele>373.60000610352</ele>
        <time>2013-05-10T11:04:08.000Z</time>
      </trkpt>
      <trkpt lat="46.39387" lon="6.91955">
        <ele>372.60000610352</ele>
        <time>2013-05-10T11:04:10.000Z</time>
      </trkpt>
      <trkpt lat="46.39381" lon="6.91911">
        <ele>371.60000610352</ele>
        <time>2013-05-10T11:04:14.000Z</time>
      </trkpt>
      <trkpt lat="46.3938" lon="6.91867">
        <ele>370.60000610352</ele>
        <time>2013-05-10T11:04:18.000Z</time>
      </trkpt>
      <trkpt lat="46.39371" lon="6.91828">
        <ele>370.20001220703</ele>
        <time>2013-05-10T11:04:22.000Z</time>
      </trkpt>
      <trkpt lat="46.39353" lon="6.91791">
        <ele>369.20001220703</ele>
        <time>2013-05-10T11:04:26.000Z</time>
      </trkpt>
      <trkpt lat="46.39349" lon="6.91759">
        <ele>367.79998779297</ele>
        <time>2013-05-10T11:04:29.000Z</time>
      </trkpt>
      <trkpt lat="46.39353" lon="6.91674">
        <ele>365.39999389648</ele>
        <time>2013-05-10T11:04:36.000Z</time>
      </trkpt>
      <trkpt lat="46.39356" lon="6.9165">
        <ele>364.79998779297</ele>
        <time>2013-05-10T11:04:38.000Z</time>
      </trkpt>
      <trkpt lat="46.39373" lon="6.91597">
        <ele>363.79998779297</ele>
        <time>2013-05-10T11:04:43.000Z</time>
      </trkpt>
      <trkpt lat="46.39393" lon="6.91548">
        <ele>360.60000610352</ele>
        <time>2013-05-10T11:04:48.000Z</time>
      </trkpt>
      <trkpt lat="46.39406" lon="6.91507">
        <ele>361</ele>
        <time>2013-05-10T11:04:52.000Z</time>
      </trkpt>
      <trkpt lat="46.39423" lon="6.91468">
        <ele>360.60000610352</ele>
        <time>2013-05-10T11:04:56.000Z</time>
      </trkpt>
      <trkpt lat="46.3945" lon="6.91425">
        <ele>364.79998779297</ele>
        <time>2013-05-10T11:05:01.000Z</time>
      </trkpt>
      <trkpt lat="46.39464" lon="6.91398">
        <ele>364.39999389648</ele>
        <time>2013-05-10T11:05:04.000Z</time>
      </trkpt>
      <trkpt lat="46.39471" lon="6.91379">
        <ele>363</ele>
        <time>2013-05-10T11:05:06.000Z</time>
      </trkpt>
      <trkpt lat="46.39481" lon="6.91327">
        <ele>358.20001220703</ele>
        <time>2013-05-10T11:05:11.000Z</time>
      </trkpt>
      <trkpt lat="46.39479" lon="6.91316">
        <ele>356.60000610352</ele>
        <time>2013-05-10T11:05:12.000Z</time>
      </trkpt>
      <trkpt lat="46.39465" lon="6.91258">
        <ele>353.79998779297</ele>
        <time>2013-05-10T11:05:17.000Z</time>
      </trkpt>
      <trkpt lat="46.3944" lon="6.91174">
        <ele>358.60000610352</ele>
        <time>2013-05-10T11:05:24.000Z</time>
      </trkpt>
      <trkpt lat="46.39415" lon="6.9109">
        <ele>360.60000610352</ele>
        <time>2013-05-10T11:05:32.000Z</time>
      </trkpt>
      <trkpt lat="46.3941" lon="6.91069">
        <ele>360.60000610352</ele>
        <time>2013-05-10T11:05:34.000Z</time>
      </trkpt>
      <trkpt lat="46.39383" lon="6.91008">
        <ele>364.39999389648</ele>
        <time>2013-05-10T11:05:40.000Z</time>
      </trkpt>
      <trkpt lat="46.39349" lon="6.9095">
        <ele>366.20001220703</ele>
        <time>2013-05-10T11:05:47.000Z</time>
      </trkpt>
      <trkpt lat="46.39339" lon="6.90936">
        <ele>366.20001220703</ele>
        <time>2013-05-10T11:05:49.000Z</time>
      </trkpt>
      <trkpt lat="46.39312" lon="6.90884">
        <ele>368.20001220703</ele>
        <time>2013-05-10T11:05:55.000Z</time>
      </trkpt>
      <trkpt lat="46.39292" lon="6.90839">
        <ele>366.79998779297</ele>
        <time>2013-05-10T11:06:00.000Z</time>
      </trkpt>
      <trkpt lat="46.39268" lon="6.90794">
        <ele>366.79998779297</ele>
        <time>2013-05-10T11:06:05.000Z</time>
      </trkpt>
      <trkpt lat="46.3924" lon="6.90753">
        <ele>366.79998779297</ele>
        <time>2013-05-10T11:06:10.000Z</time>
      </trkpt>
      <trkpt lat="46.392" lon="6.90702">
        <ele>368.79998779297</ele>
        <time>2013-05-10T11:06:17.000Z</time>
      </trkpt>
      <trkpt lat="46.39182" lon="6.90683">
        <ele>368.79998779297</ele>
        <time>2013-05-10T11:06:20.000Z</time>
      </trkpt>
      <trkpt lat="46.39144" lon="6.90638">
        <ele>367.20001220703</ele>
        <time>2013-05-10T11:06:26.000Z</time>
      </trkpt>
      <trkpt lat="46.39112" lon="6.90601">
        <ele>366.79998779297</ele>
        <time>2013-05-10T11:06:31.000Z</time>
      </trkpt>
      <trkpt lat="46.39101" lon="6.90588">
        <ele>366.20001220703</ele>
        <time>2013-05-10T11:06:33.000Z</time>
      </trkpt>
      <trkpt lat="46.39088" lon="6.90572">
        <ele>373</ele>
        <time>2013-05-10T11:06:37.000Z</time>
      </trkpt>
      <trkpt lat="46.39088" lon="6.90571">
        <ele>373.60000610352</ele>
        <time>2013-05-10T11:06:38.000Z</time>
      </trkpt>
      <trkpt lat="46.39097" lon="6.90571">
        <ele>372.60000610352</ele>
        <time>2013-05-10T11:06:41.000Z</time>
      </trkpt>
      <trkpt lat="46.39103" lon="6.90559">
        <ele>372</ele>
        <time>2013-05-10T11:06:45.000Z</time>
      </trkpt>
      <trkpt lat="46.39111" lon="6.90533">
        <ele>372</ele>
        <time>2013-05-10T11:06:50.000Z</time>
      </trkpt>
      <trkpt lat="46.39121" lon="6.90507">
        <ele>372.60000610352</ele>
        <time>2013-05-10T11:06:54.000Z</time>
      </trkpt>
      <trkpt lat="46.39131" lon="6.9048">
        <ele>373</ele>
        <time>2013-05-10T11:06:58.000Z</time>
      </trkpt>
      <trkpt lat="46.39144" lon="6.90446">
        <ele>372</ele>
        <time>2013-05-10T11:07:02.000Z</time>
      </trkpt>
      <trkpt lat="46.39151" lon="6.90429">
        <ele>371.60000610352</ele>
        <time>2013-05-10T11:07:05.000Z</time>
      </trkpt>
      <trkpt lat="46.39158" lon="6.90396">
        <ele>363.79998779297</ele>
        <time>2013-05-10T11:07:09.000Z</time>
      </trkpt>
      <trkpt lat="46.39156" lon="6.9035">
        <ele>355.79998779297</ele>
        <time>2013-05-10T11:07:14.000Z</time>
      </trkpt>
      <trkpt lat="46.39144" lon="6.90281">
        <ele>354.79998779297</ele>
        <time>2013-05-10T11:07:21.000Z</time>
      </trkpt>
      <trkpt lat="46.39128" lon="6.90201">
        <ele>356.60000610352</ele>
        <time>2013-05-10T11:07:29.000Z</time>
      </trkpt>
      <trkpt lat="46.39114" lon="6.90129">
        <ele>360.60000610352</ele>
        <time>2013-05-10T11:07:36.000Z</time>
      </trkpt>
      <trkpt lat="46.39097" lon="6.90046">
        <ele>363.79998779297</ele>
        <time>2013-05-10T11:07:44.000Z</time>
      </trkpt>
      <trkpt lat="46.3908" lon="6.89954">
        <ele>366.20001220703</ele>
        <time>2013-05-10T11:07:53.000Z</time>
      </trkpt>
      <trkpt lat="46.39063" lon="6.89898">
        <ele>365.79998779297</ele>
        <time>2013-05-10T11:07:59.000Z</time>
      </trkpt>
      <trkpt lat="46.39041" lon="6.89824">
        <ele>366.79998779297</ele>
        <time>2013-05-10T11:08:07.000Z</time>
      </trkpt>
      <trkpt lat="46.39032" lon="6.89793">
        <ele>367.20001220703</ele>
        <time>2013-05-10T11:08:11.000Z</time>
      </trkpt>
      <trkpt lat="46.39019" lon="6.89753">
        <ele>369.60000610352</ele>
        <time>2013-05-10T11:08:17.000Z</time>
      </trkpt>
      <trkpt lat="46.39015" lon="6.89732">
        <ele>370.20001220703</ele>
        <time>2013-05-10T11:08:20.000Z</time>
      </trkpt>
      <trkpt lat="46.39007" lon="6.89709">
        <ele>371.60000610352</ele>
        <time>2013-05-10T11:08:24.000Z</time>
      </trkpt>
      <trkpt lat="46.38995" lon="6.89666">
        <ele>372.60000610352</ele>
        <time>2013-05-10T11:08:32.000Z</time>
      </trkpt>
      <trkpt lat="46.38989" lon="6.89643">
        <ele>373.60000610352</ele>
        <time>2013-05-10T11:08:36.000Z</time>
      </trkpt>
      <trkpt lat="46.38986" lon="6.89622">
        <ele>373.60000610352</ele>
        <time>2013-05-10T11:08:39.000Z</time>
      </trkpt>
      <trkpt lat="46.38981" lon="6.89573">
        <ele>373</ele>
        <time>2013-05-10T11:08:45.000Z</time>
      </trkpt>
      <trkpt lat="46.38972" lon="6.89484">
        <ele>372.60000610352</ele>
        <time>2013-05-10T11:08:55.000Z</time>
      </trkpt>
      <trkpt lat="46.38969" lon="6.89455">
        <ele>372</ele>
        <time>2013-05-10T11:08:58.000Z</time>
      </trkpt>
      <trkpt lat="46.38954" lon="6.89409">
        <ele>371.60000610352</ele>
        <time>2013-05-10T11:09:03.000Z</time>
      </trkpt>
      <trkpt lat="46.38923" lon="6.89326">
        <ele>369.60000610352</ele>
        <time>2013-05-10T11:09:12.000Z</time>
      </trkpt>
      <trkpt lat="46.38896" lon="6.89249">
        <ele>368.20001220703</ele>
        <time>2013-05-10T11:09:20.000Z</time>
      </trkpt>
      <trkpt lat="46.38882" lon="6.8921">
        <ele>369.20001220703</ele>
        <time>2013-05-10T11:09:25.000Z</time>
      </trkpt>
      <trkpt lat="46.38879" lon="6.89197">
        <ele>370.60000610352</ele>
        <time>2013-05-10T11:09:29.000Z</time>
      </trkpt>
      <trkpt lat="46.38874" lon="6.89173">
        <ele>370.20001220703</ele>
        <time>2013-05-10T11:09:36.000Z</time>
      </trkpt>
      <trkpt lat="46.38868" lon="6.89157">
        <ele>368.79998779297</ele>
        <time>2013-05-10T11:09:40.000Z</time>
      </trkpt>
      <trkpt lat="46.38863" lon="6.89134">
        <ele>369.20001220703</ele>
        <time>2013-05-10T11:09:46.000Z</time>
      </trkpt>
      <trkpt lat="46.38862" lon="6.89129">
        <ele>369.20001220703</ele>
        <time>2013-05-10T11:09:48.000Z</time>
      </trkpt>
      <trkpt lat="46.38861" lon="6.8913">
        <ele>371.20001220703</ele>
        <time>2013-05-10T11:09:53.000Z</time>
      </trkpt>
      <trkpt lat="46.38864" lon="6.89141">
        <ele>372.60000610352</ele>
        <time>2013-05-10T11:09:58.000Z</time>
      </trkpt>
      <trkpt lat="46.38867" lon="6.89157">
        <ele>373</ele>
        <time>2013-05-10T11:10:03.000Z</time>
      </trkpt>
      <trkpt lat="46.38868" lon="6.89167">
        <ele>372.60000610352</ele>
        <time>2013-05-10T11:10:06.000Z</time>
      </trkpt>
      <trkpt lat="46.38871" lon="6.89171">
        <ele>374</ele>
        <time>2013-05-10T11:10:10.000Z</time>
      </trkpt>
      <trkpt lat="46.38868" lon="6.89163">
        <ele>374.39999389648</ele>
        <time>2013-05-10T11:10:13.000Z</time>
      </trkpt>
      <trkpt lat="46.38867" lon="6.89159">
        <ele>374.39999389648</ele>
        <time>2013-05-10T11:10:14.000Z</time>
      </trkpt>
      <trkpt lat="46.38859" lon="6.89122">
        <ele>374.39999389648</ele>
        <time>2013-05-10T11:10:20.000Z</time>
      </trkpt>
      <trkpt lat="46.38847" lon="6.89077">
        <ele>374</ele>
        <time>2013-05-10T11:10:26.000Z</time>
      </trkpt>
      <trkpt lat="46.38842" lon="6.89051">
        <ele>374</ele>
        <time>2013-05-10T11:10:29.000Z</time>
      </trkpt>
      <trkpt lat="46.38846" lon="6.88981">
        <ele>374</ele>
        <time>2013-05-10T11:10:36.000Z</time>
      </trkpt>
      <trkpt lat="46.38859" lon="6.88906">
        <ele>373</ele>
        <time>2013-05-10T11:10:43.000Z</time>
      </trkpt>
      <trkpt lat="46.38866" lon="6.88843">
        <ele>373</ele>
        <time>2013-05-10T11:10:49.000Z</time>
      </trkpt>
      <trkpt lat="46.38875" lon="6.88768">
        <ele>372.60000610352</ele>
        <time>2013-05-10T11:10:56.000Z</time>
      </trkpt>
      <trkpt lat="46.38885" lon="6.88671">
        <ele>372</ele>
        <time>2013-05-10T11:11:05.000Z</time>
      </trkpt>
      <trkpt lat="46.38897" lon="6.88587">
        <ele>371.60000610352</ele>
        <time>2013-05-10T11:11:13.000Z</time>
      </trkpt>
      <trkpt lat="46.38904" lon="6.88501">
        <ele>370.60000610352</ele>
        <time>2013-05-10T11:11:21.000Z</time>
      </trkpt>
      <trkpt lat="46.38913" lon="6.88446">
        <ele>369.60000610352</ele>
        <time>2013-05-10T11:11:26.000Z</time>
      </trkpt>
      <trkpt lat="46.38907" lon="6.8839">
        <ele>368.79998779297</ele>
        <time>2013-05-10T11:11:31.000Z</time>
      </trkpt>
      <trkpt lat="46.38899" lon="6.88312">
        <ele>368.20001220703</ele>
        <time>2013-05-10T11:11:38.000Z</time>
      </trkpt>
      <trkpt lat="46.38898" lon="6.88233">
        <ele>361</ele>
        <time>2013-05-10T11:11:45.000Z</time>
      </trkpt>
      <trkpt lat="46.389" lon="6.88157">
        <ele>356.20001220703</ele>
        <time>2013-05-10T11:11:52.000Z</time>
      </trkpt>
      <trkpt lat="46.38892" lon="6.88127">
        <ele>355.79998779297</ele>
        <time>2013-05-10T11:11:56.000Z</time>
      </trkpt>
      <trkpt lat="46.38875" lon="6.88116">
        <ele>358.60000610352</ele>
        <time>2013-05-10T11:11:59.000Z</time>
      </trkpt>
      <trkpt lat="46.38851" lon="6.88084">
        <ele>360.60000610352</ele>
        <time>2013-05-10T11:12:04.000Z</time>
      </trkpt>
      <trkpt lat="46.38847" lon="6.88075">
        <ele>361</ele>
        <time>2013-05-10T11:12:05.000Z</time>
      </trkpt>
      <trkpt lat="46.38807" lon="6.88011">
        <ele>364.39999389648</ele>
        <time>2013-05-10T11:12:13.000Z</time>
      </trkpt>
      <trkpt lat="46.38785" lon="6.87968">
        <ele>366.20001220703</ele>
        <time>2013-05-10T11:12:18.000Z</time>
      </trkpt>
      <trkpt lat="46.38766" lon="6.87947">
        <ele>366.79998779297</ele>
        <time>2013-05-10T11:12:22.000Z</time>
      </trkpt>
      <trkpt lat="46.38754" lon="6.8795">
        <ele>367.20001220703</ele>
        <time>2013-05-10T11:12:24.000Z</time>
      </trkpt>
      <trkpt lat="46.38707" lon="6.87975">
        <ele>369.20001220703</ele>
        <time>2013-05-10T11:12:32.000Z</time>
      </trkpt>
      <trkpt lat="46.38683" lon="6.88007">
        <ele>371.20001220703</ele>
        <time>2013-05-10T11:12:37.000Z</time>
      </trkpt>
      <trkpt lat="46.38657" lon="6.88052">
        <ele>372.60000610352</ele>
        <time>2013-05-10T11:12:44.000Z</time>
      </trkpt>
      <trkpt lat="46.38638" lon="6.88085">
        <ele>374.39999389648</ele>
        <time>2013-05-10T11:12:49.000Z</time>
      </trkpt>
      <trkpt lat="46.38634" lon="6.88092">
        <ele>374.39999389648</ele>
        <time>2013-05-10T11:12:50.000Z</time>
      </trkpt>
      <trkpt lat="46.38613" lon="6.88128">
        <ele>375</ele>
        <time>2013-05-10T11:12:56.000Z</time>
      </trkpt>
      <trkpt lat="46.38611" lon="6.88127">
        <ele>375</ele>
        <time>2013-05-10T11:13:00.000Z</time>
      </trkpt>
      <trkpt lat="46.38614" lon="6.88125">
        <ele>375</ele>
        <time>2013-05-10T11:13:02.000Z</time>
      </trkpt>
      <trkpt lat="46.38631" lon="6.88096">
        <ele>374.39999389648</ele>
        <time>2013-05-10T11:13:09.000Z</time>
      </trkpt>
      <trkpt lat="46.38652" lon="6.88061">
        <ele>375</ele>
        <time>2013-05-10T11:13:15.000Z</time>
      </trkpt>
      <trkpt lat="46.38685" lon="6.88006">
        <ele>375</ele>
        <time>2013-05-10T11:13:23.000Z</time>
      </trkpt>
      <trkpt lat="46.38699" lon="6.87985">
        <ele>374.39999389648</ele>
        <time>2013-05-10T11:13:26.000Z</time>
      </trkpt>
      <trkpt lat="46.38718" lon="6.87969">
        <ele>374.39999389648</ele>
        <time>2013-05-10T11:13:29.000Z</time>
      </trkpt>
      <trkpt lat="46.38757" lon="6.87953">
        <ele>374</ele>
        <time>2013-05-10T11:13:35.000Z</time>
      </trkpt>
      <trkpt lat="46.38764" lon="6.87951">
        <ele>373.60000610352</ele>
        <time>2013-05-10T11:13:36.000Z</time>
      </trkpt>
      <trkpt lat="46.38786" lon="6.87961">
        <ele>373.60000610352</ele>
        <time>2013-05-10T11:13:40.000Z</time>
      </trkpt>
      <trkpt lat="46.38797" lon="6.87992">
        <ele>373.60000610352</ele>
        <time>2013-05-10T11:13:44.000Z</time>
      </trkpt>
      <trkpt lat="46.38802" lon="6.88">
        <ele>373.60000610352</ele>
        <time>2013-05-10T11:13:45.000Z</time>
      </trkpt>
      <trkpt lat="46.38844" lon="6.88064">
        <ele>375</ele>
        <time>2013-05-10T11:13:54.000Z</time>
      </trkpt>
      <trkpt lat="46.38866" lon="6.88106">
        <ele>376</ele>
        <time>2013-05-10T11:13:59.000Z</time>
      </trkpt>
      <trkpt lat="46.38888" lon="6.88125">
        <ele>376</ele>
        <time>2013-05-10T11:14:03.000Z</time>
      </trkpt>
      <trkpt lat="46.38903" lon="6.88122">
        <ele>375</ele>
        <time>2013-05-10T11:14:06.000Z</time>
      </trkpt>
      <trkpt lat="46.38907" lon="6.88108">
        <ele>374.39999389648</ele>
        <time>2013-05-10T11:14:08.000Z</time>
      </trkpt>
      <trkpt lat="46.38917" lon="6.88058">
        <ele>373</ele>
        <time>2013-05-10T11:14:14.000Z</time>
      </trkpt>
      <trkpt lat="46.38943" lon="6.87988">
        <ele>372</ele>
        <time>2013-05-10T11:14:22.000Z</time>
      </trkpt>
      <trkpt lat="46.38958" lon="6.87953">
        <ele>372.60000610352</ele>
        <time>2013-05-10T11:14:26.000Z</time>
      </trkpt>
      <trkpt lat="46.38997" lon="6.87885">
        <ele>373.60000610352</ele>
        <time>2013-05-10T11:14:34.000Z</time>
      </trkpt>
      <trkpt lat="46.39001" lon="6.87875">
        <ele>373.60000610352</ele>
        <time>2013-05-10T11:14:35.000Z</time>
      </trkpt>
      <trkpt lat="46.39016" lon="6.87821">
        <ele>373</ele>
        <time>2013-05-10T11:14:40.000Z</time>
      </trkpt>
      <trkpt lat="46.39023" lon="6.87788">
        <ele>372.60000610352</ele>
        <time>2013-05-10T11:14:43.000Z</time>
      </trkpt>
      <trkpt lat="46.39023" lon="6.87746">
        <ele>372</ele>
        <time>2013-05-10T11:14:47.000Z</time>
      </trkpt>
      <trkpt lat="46.39027" lon="6.87721">
        <ele>371.60000610352</ele>
        <time>2013-05-10T11:14:51.000Z</time>
      </trkpt>
      <trkpt lat="46.39034" lon="6.87715">
        <ele>370.60000610352</ele>
        <time>2013-05-10T11:14:56.000Z</time>
      </trkpt>
      <trkpt lat="46.39031" lon="6.87722">
        <ele>370.60000610352</ele>
        <time>2013-05-10T11:14:59.000Z</time>
      </trkpt>
      <trkpt lat="46.39022" lon="6.87742">
        <ele>372.60000610352</ele>
        <time>2013-05-10T11:15:05.000Z</time>
      </trkpt>
      <trkpt lat="46.3902" lon="6.8777">
        <ele>374.39999389648</ele>
        <time>2013-05-10T11:15:10.000Z</time>
      </trkpt>
      <trkpt lat="46.3902" lon="6.87785">
        <ele>375</ele>
        <time>2013-05-10T11:15:12.000Z</time>
      </trkpt>
      <trkpt lat="46.39017" lon="6.87815">
        <ele>377.39999389648</ele>
        <time>2013-05-10T11:15:16.000Z</time>
      </trkpt>
      <trkpt lat="46.39006" lon="6.87854">
        <ele>376.79998779297</ele>
        <time>2013-05-10T11:15:22.000Z</time>
      </trkpt>
      <trkpt lat="46.38994" lon="6.87889">
        <ele>375.39999389648</ele>
        <time>2013-05-10T11:15:27.000Z</time>
      </trkpt>
      <trkpt lat="46.38967" lon="6.87934">
        <ele>376.39999389648</ele>
        <time>2013-05-10T11:15:34.000Z</time>
      </trkpt>
      <trkpt lat="46.38946" lon="6.87975">
        <ele>376.39999389648</ele>
        <time>2013-05-10T11:15:40.000Z</time>
      </trkpt>
      <trkpt lat="46.38916" lon="6.88055">
        <ele>376.39999389648</ele>
        <time>2013-05-10T11:15:50.000Z</time>
      </trkpt>
      <trkpt lat="46.38904" lon="6.88106">
        <ele>376.39999389648</ele>
        <time>2013-05-10T11:15:56.000Z</time>
      </trkpt>
      <trkpt lat="46.38895" lon="6.88125">
        <ele>376</ele>
        <time>2013-05-10T11:15:59.000Z</time>
      </trkpt>
      <trkpt lat="46.38885" lon="6.88124">
        <ele>376</ele>
        <time>2013-05-10T11:16:01.000Z</time>
      </trkpt>
      <trkpt lat="46.3888" lon="6.8812">
        <ele>375.39999389648</ele>
        <time>2013-05-10T11:16:02.000Z</time>
      </trkpt>
      <trkpt lat="46.3887" lon="6.88111">
        <ele>375.39999389648</ele>
        <time>2013-05-10T11:16:04.000Z</time>
      </trkpt>
      <trkpt lat="46.3885" lon="6.88078">
        <ele>374</ele>
        <time>2013-05-10T11:16:09.000Z</time>
      </trkpt>
      <trkpt lat="46.3882" lon="6.88028">
        <ele>371.60000610352</ele>
        <time>2013-05-10T11:16:16.000Z</time>
      </trkpt>
      <trkpt lat="46.38794" lon="6.87987">
        <ele>371.20001220703</ele>
        <time>2013-05-10T11:16:22.000Z</time>
      </trkpt>
      <trkpt lat="46.38785" lon="6.87963">
        <ele>370.60000610352</ele>
        <time>2013-05-10T11:16:25.000Z</time>
      </trkpt>
      <trkpt lat="46.38773" lon="6.87945">
        <ele>370.60000610352</ele>
        <time>2013-05-10T11:16:28.000Z</time>
      </trkpt>
      <trkpt lat="46.38752" lon="6.87946">
        <ele>371.60000610352</ele>
        <time>2013-05-10T11:16:32.000Z</time>
      </trkpt>
      <trkpt lat="46.38745" lon="6.87951">
        <ele>372.60000610352</ele>
        <time>2013-05-10T11:16:33.000Z</time>
      </trkpt>
      <trkpt lat="46.38711" lon="6.8797">
        <ele>373</ele>
        <time>2013-05-10T11:16:38.000Z</time>
      </trkpt>
      <trkpt lat="46.38689" lon="6.87995">
        <ele>372.60000610352</ele>
        <time>2013-05-10T11:16:42.000Z</time>
      </trkpt>
      <trkpt lat="46.38649" lon="6.88066">
        <ele>371.60000610352</ele>
        <time>2013-05-10T11:16:51.000Z</time>
      </trkpt>
      <trkpt lat="46.3862" lon="6.88116">
        <ele>373</ele>
        <time>2013-05-10T11:16:57.000Z</time>
      </trkpt>
      <trkpt lat="46.38568" lon="6.882">
        <ele>375</ele>
        <time>2013-05-10T11:17:07.000Z</time>
      </trkpt>
      <trkpt lat="46.38553" lon="6.88226">
        <ele>375</ele>
        <time>2013-05-10T11:17:10.000Z</time>
      </trkpt>
      <trkpt lat="46.38526" lon="6.88275">
        <ele>374.39999389648</ele>
        <time>2013-05-10T11:17:16.000Z</time>
      </trkpt>
      <trkpt lat="46.38492" lon="6.88329">
        <ele>376.39999389648</ele>
        <time>2013-05-10T11:17:23.000Z</time>
      </trkpt>
      <trkpt lat="46.38469" lon="6.88369">
        <ele>376.79998779297</ele>
        <time>2013-05-10T11:17:28.000Z</time>
      </trkpt>
      <trkpt lat="46.38454" lon="6.88418">
        <ele>376.39999389648</ele>
        <time>2013-05-10T11:17:33.000Z</time>
      </trkpt>
      <trkpt lat="46.38451" lon="6.88429">
        <ele>376.39999389648</ele>
        <time>2013-05-10T11:17:34.000Z</time>
      </trkpt>
      <trkpt lat="46.38446" lon="6.88472">
        <ele>377.39999389648</ele>
        <time>2013-05-10T11:17:38.000Z</time>
      </trkpt>
      <trkpt lat="46.38453" lon="6.88516">
        <ele>376</ele>
        <time>2013-05-10T11:17:42.000Z</time>
      </trkpt>
      <trkpt lat="46.38464" lon="6.88573">
        <ele>376</ele>
        <time>2013-05-10T11:17:47.000Z</time>
      </trkpt>
      <trkpt lat="46.3846" lon="6.88631">
        <ele>376.39999389648</ele>
        <time>2013-05-10T11:17:52.000Z</time>
      </trkpt>
      <trkpt lat="46.38455" lon="6.88693">
        <ele>376.79998779297</ele>
        <time>2013-05-10T11:17:57.000Z</time>
      </trkpt>
      <trkpt lat="46.38434" lon="6.88744">
        <ele>377.39999389648</ele>
        <time>2013-05-10T11:18:02.000Z</time>
      </trkpt>
      <trkpt lat="46.38401" lon="6.88826">
        <ele>376</ele>
        <time>2013-05-10T11:18:10.000Z</time>
      </trkpt>
      <trkpt lat="46.38396" lon="6.88836">
        <ele>376</ele>
        <time>2013-05-10T11:18:11.000Z</time>
      </trkpt>
      <trkpt lat="46.38386" lon="6.88853">
        <ele>375.39999389648</ele>
        <time>2013-05-10T11:18:13.000Z</time>
      </trkpt>
      <trkpt lat="46.38362" lon="6.88881">
        <ele>373</ele>
        <time>2013-05-10T11:18:17.000Z</time>
      </trkpt>
      <trkpt lat="46.38319" lon="6.88908">
        <ele>374.39999389648</ele>
        <time>2013-05-10T11:18:23.000Z</time>
      </trkpt>
      <trkpt lat="46.38275" lon="6.88935">
        <ele>372</ele>
        <time>2013-05-10T11:18:29.000Z</time>
      </trkpt>
      <trkpt lat="46.38255" lon="6.88952">
        <ele>373</ele>
        <time>2013-05-10T11:18:32.000Z</time>
      </trkpt>
      <trkpt lat="46.38243" lon="6.88966">
        <ele>373.60000610352</ele>
        <time>2013-05-10T11:18:34.000Z</time>
      </trkpt>
      <trkpt lat="46.38227" lon="6.88973">
        <ele>373</ele>
        <time>2013-05-10T11:18:38.000Z</time>
      </trkpt>
      <trkpt lat="46.38224" lon="6.88952">
        <ele>370.60000610352</ele>
        <time>2013-05-10T11:18:42.000Z</time>
      </trkpt>
      <trkpt lat="46.38223" lon="6.88941">
        <ele>369.20001220703</ele>
        <time>2013-05-10T11:18:44.000Z</time>
      </trkpt>
      <trkpt lat="46.3822" lon="6.88898">
        <ele>370.60000610352</ele>
        <time>2013-05-10T11:18:49.000Z</time>
      </trkpt>
      <trkpt lat="46.38208" lon="6.88868">
        <ele>372</ele>
        <time>2013-05-10T11:18:53.000Z</time>
      </trkpt>
      <trkpt lat="46.38178" lon="6.8883">
        <ele>374.39999389648</ele>
        <time>2013-05-10T11:18:59.000Z</time>
      </trkpt>
      <trkpt lat="46.38131" lon="6.88782">
        <ele>374</ele>
        <time>2013-05-10T11:19:07.000Z</time>
      </trkpt>
      <trkpt lat="46.38101" lon="6.88754">
        <ele>372.60000610352</ele>
        <time>2013-05-10T11:19:12.000Z</time>
      </trkpt>
      <trkpt lat="46.38069" lon="6.88714">
        <ele>371.60000610352</ele>
        <time>2013-05-10T11:19:18.000Z</time>
      </trkpt>
      <trkpt lat="46.38025" lon="6.88661">
        <ele>371.20001220703</ele>
        <time>2013-05-10T11:19:26.000Z</time>
      </trkpt>
      <trkpt lat="46.37984" lon="6.88633">
        <ele>373.60000610352</ele>
        <time>2013-05-10T11:19:32.000Z</time>
      </trkpt>
      <trkpt lat="46.37946" lon="6.88595">
        <ele>374.39999389648</ele>
        <time>2013-05-10T11:19:38.000Z</time>
      </trkpt>
      <trkpt lat="46.37892" lon="6.8853">
        <ele>374</ele>
        <time>2013-05-10T11:19:47.000Z</time>
      </trkpt>
      <trkpt lat="46.37837" lon="6.88472">
        <ele>373.60000610352</ele>
        <time>2013-05-10T11:19:56.000Z</time>
      </trkpt>
      <trkpt lat="46.37831" lon="6.88466">
        <ele>373.60000610352</ele>
        <time>2013-05-10T11:19:57.000Z</time>
      </trkpt>
      <trkpt lat="46.3781" lon="6.8843">
        <ele>374.39999389648</ele>
        <time>2013-05-10T11:20:02.000Z</time>
      </trkpt>
      <trkpt lat="46.37786" lon="6.88398">
        <ele>373.60000610352</ele>
        <time>2013-05-10T11:20:07.000Z</time>
      </trkpt>
      <trkpt lat="46.37768" lon="6.88375">
        <ele>373.60000610352</ele>
        <time>2013-05-10T11:20:12.000Z</time>
      </trkpt>
      <trkpt lat="46.37775" lon="6.88358">
        <ele>374</ele>
        <time>2013-05-10T11:20:15.000Z</time>
      </trkpt>
      <trkpt lat="46.37815" lon="6.88305">
        <ele>376</ele>
        <time>2013-05-10T11:20:25.000Z</time>
      </trkpt>
      <trkpt lat="46.37853" lon="6.88256">
        <ele>375.39999389648</ele>
        <time>2013-05-10T11:20:33.000Z</time>
      </trkpt>
      <trkpt lat="46.379" lon="6.88186">
        <ele>376</ele>
        <time>2013-05-10T11:20:43.000Z</time>
      </trkpt>
      <trkpt lat="46.37936" lon="6.88133">
        <ele>375</ele>
        <time>2013-05-10T11:20:51.000Z</time>
      </trkpt>
      <trkpt lat="46.37954" lon="6.88106">
        <ele>375</ele>
        <time>2013-05-10T11:20:55.000Z</time>
      </trkpt>
      <trkpt lat="46.37981" lon="6.88059">
        <ele>375.39999389648</ele>
        <time>2013-05-10T11:21:02.000Z</time>
      </trkpt>
      <trkpt lat="46.37991" lon="6.8804">
        <ele>377.39999389648</ele>
        <time>2013-05-10T11:21:06.000Z</time>
      </trkpt>
      <trkpt lat="46.37997" lon="6.88026">
        <ele>377.79998779297</ele>
        <time>2013-05-10T11:21:10.000Z</time>
      </trkpt>
      <trkpt lat="46.38012" lon="6.87995">
        <ele>376.39999389648</ele>
        <time>2013-05-10T11:21:16.000Z</time>
      </trkpt>
      <trkpt lat="46.38034" lon="6.87948">
        <ele>374.39999389648</ele>
        <time>2013-05-10T11:21:23.000Z</time>
      </trkpt>
      <trkpt lat="46.38044" lon="6.87925">
        <ele>373</ele>
        <time>2013-05-10T11:21:26.000Z</time>
      </trkpt>
      <trkpt lat="46.38065" lon="6.87876">
        <ele>371.20001220703</ele>
        <time>2013-05-10T11:21:32.000Z</time>
      </trkpt>
      <trkpt lat="46.38093" lon="6.87803">
        <ele>366.79998779297</ele>
        <time>2013-05-10T11:21:40.000Z</time>
      </trkpt>
      <trkpt lat="46.38132" lon="6.87696">
        <ele>363</ele>
        <time>2013-05-10T11:21:51.000Z</time>
      </trkpt>
      <trkpt lat="46.38172" lon="6.87586">
        <ele>371.60000610352</ele>
        <time>2013-05-10T11:22:02.000Z</time>
      </trkpt>
      <trkpt lat="46.38213" lon="6.87509">
        <ele>373.60000610352</ele>
        <time>2013-05-10T11:22:11.000Z</time>
      </trkpt>
      <trkpt lat="46.38248" lon="6.87453">
        <ele>374.39999389648</ele>
        <time>2013-05-10T11:22:18.000Z</time>
      </trkpt>
      <trkpt lat="46.38298" lon="6.87387">
        <ele>376.39999389648</ele>
        <time>2013-05-10T11:22:27.000Z</time>
      </trkpt>
      <trkpt lat="46.38362" lon="6.87317">
        <ele>376</ele>
        <time>2013-05-10T11:22:38.000Z</time>
      </trkpt>
      <trkpt lat="46.38409" lon="6.87271">
        <ele>376</ele>
        <time>2013-05-10T11:22:46.000Z</time>
      </trkpt>
      <trkpt lat="46.38414" lon="6.87266">
        <ele>376</ele>
        <time>2013-05-10T11:22:47.000Z</time>
      </trkpt>
      <trkpt lat="46.38446" lon="6.87243">
        <ele>376.39999389648</ele>
        <time>2013-05-10T11:22:53.000Z</time>
      </trkpt>
      <trkpt lat="46.38467" lon="6.87227">
        <ele>376.39999389648</ele>
        <time>2013-05-10T11:22:57.000Z</time>
      </trkpt>
      <trkpt lat="46.38476" lon="6.87217">
        <ele>376.39999389648</ele>
        <time>2013-05-10T11:22:59.000Z</time>
      </trkpt>
      <trkpt lat="46.38483" lon="6.87207">
        <ele>376.39999389648</ele>
        <time>2013-05-10T11:23:03.000Z</time>
      </trkpt>
      <trkpt lat="46.38482" lon="6.87207">
        <ele>376.39999389648</ele>
        <time>2013-05-10T11:23:04.000Z</time>
      </trkpt>
      <trkpt lat="46.38478" lon="6.87211">
        <ele>376.79998779297</ele>
        <time>2013-05-10T11:23:08.000Z</time>
      </trkpt>
      <trkpt lat="46.3847" lon="6.87217">
        <ele>377.79998779297</ele>
        <time>2013-05-10T11:23:12.000Z</time>
      </trkpt>
      <trkpt lat="46.38464" lon="6.87212">
        <ele>376.79998779297</ele>
        <time>2013-05-10T11:23:16.000Z</time>
      </trkpt>
      <trkpt lat="46.38456" lon="6.87195">
        <ele>374.39999389648</ele>
        <time>2013-05-10T11:23:21.000Z</time>
      </trkpt>
      <trkpt lat="46.38448" lon="6.87178">
        <ele>374</ele>
        <time>2013-05-10T11:23:26.000Z</time>
      </trkpt>
      <trkpt lat="46.38436" lon="6.87155">
        <ele>373.60000610352</ele>
        <time>2013-05-10T11:23:31.000Z</time>
      </trkpt>
      <trkpt lat="46.38424" lon="6.87131">
        <ele>373</ele>
        <time>2013-05-10T11:23:36.000Z</time>
      </trkpt>
      <trkpt lat="46.38428" lon="6.8712">
        <ele>375.39999389648</ele>
        <time>2013-05-10T11:23:40.000Z</time>
      </trkpt>
      <trkpt lat="46.38436" lon="6.8711">
        <ele>375.39999389648</ele>
        <time>2013-05-10T11:23:45.000Z</time>
      </trkpt>
      <trkpt lat="46.38434" lon="6.87111">
        <ele>376</ele>
        <time>2013-05-10T11:23:47.000Z</time>
      </trkpt>
      <trkpt lat="46.38423" lon="6.87121">
        <ele>374</ele>
        <time>2013-05-10T11:23:53.000Z</time>
      </trkpt>
      <trkpt lat="46.38422" lon="6.87121">
        <ele>376.39999389648</ele>
        <time>2013-05-10T11:24:00.000Z</time>
      </trkpt>
      <trkpt lat="46.38423" lon="6.87119">
        <ele>378.39999389648</ele>
        <time>2013-05-10T11:24:09.000Z</time>
      </trkpt>
      <trkpt lat="46.38422" lon="6.87119">
        <ele>379.79998779297</ele>
        <time>2013-05-10T11:24:24.000Z</time>
      </trkpt>
      <trkpt lat="46.38421" lon="6.87119">
        <ele>380.79998779297</ele>
        <time>2013-05-10T11:24:31.000Z</time>
      </trkpt>
      <trkpt lat="46.38421" lon="6.87119">
        <ele>380.20001220703</ele>
        <time>2013-05-10T11:24:35.000Z</time>
      </trkpt>
      <trkpt lat="46.38419" lon="6.87117">
        <ele>380.79998779297</ele>
        <time>2013-05-10T11:24:42.000Z</time>
      </trkpt>
      <trkpt lat="46.38419" lon="6.87113">
        <ele>380.20001220703</ele>
        <time>2013-05-10T11:24:45.000Z</time>
      </trkpt>
      <trkpt lat="46.38423" lon="6.87093">
        <ele>378.39999389648</ele>
        <time>2013-05-10T11:24:51.000Z</time>
      </trkpt>
      <trkpt lat="46.3842" lon="6.87061">
        <ele>377.39999389648</ele>
        <time>2013-05-10T11:24:55.000Z</time>
      </trkpt>
      <trkpt lat="46.3842" lon="6.87007">
        <ele>376.39999389648</ele>
        <time>2013-05-10T11:25:01.000Z</time>
      </trkpt>
      <trkpt lat="46.38418" lon="6.86948">
        <ele>375.39999389648</ele>
        <time>2013-05-10T11:25:07.000Z</time>
      </trkpt>
      <trkpt lat="46.38415" lon="6.86863">
        <ele>375</ele>
        <time>2013-05-10T11:25:15.000Z</time>
      </trkpt>
      <trkpt lat="46.38412" lon="6.86766">
        <ele>374.39999389648</ele>
        <time>2013-05-10T11:25:24.000Z</time>
      </trkpt>
      <trkpt lat="46.38411" lon="6.86679">
        <ele>374</ele>
        <time>2013-05-10T11:25:32.000Z</time>
      </trkpt>
      <trkpt lat="46.38408" lon="6.8658">
        <ele>374</ele>
        <time>2013-05-10T11:25:41.000Z</time>
      </trkpt>
      <trkpt lat="46.38407" lon="6.86535">
        <ele>374</ele>
        <time>2013-05-10T11:25:45.000Z</time>
      </trkpt>
      <trkpt lat="46.38413" lon="6.86491">
        <ele>373.60000610352</ele>
        <time>2013-05-10T11:25:49.000Z</time>
      </trkpt>
      <trkpt lat="46.38412" lon="6.86414">
        <ele>372.60000610352</ele>
        <time>2013-05-10T11:25:56.000Z</time>
      </trkpt>
      <trkpt lat="46.38397" lon="6.86364">
        <ele>372.60000610352</ele>
        <time>2013-05-10T11:26:01.000Z</time>
      </trkpt>
      <trkpt lat="46.38377" lon="6.86303">
        <ele>372</ele>
        <time>2013-05-10T11:26:07.000Z</time>
      </trkpt>
      <trkpt lat="46.38348" lon="6.86223">
        <ele>372.60000610352</ele>
        <time>2013-05-10T11:26:15.000Z</time>
      </trkpt>
      <trkpt lat="46.38325" lon="6.86155">
        <ele>372.60000610352</ele>
        <time>2013-05-10T11:26:22.000Z</time>
      </trkpt>
      <trkpt lat="46.38312" lon="6.86116">
        <ele>372</ele>
        <time>2013-05-10T11:26:26.000Z</time>
      </trkpt>
      <trkpt lat="46.38294" lon="6.86068">
        <ele>372</ele>
        <time>2013-05-10T11:26:32.000Z</time>
      </trkpt>
      <trkpt lat="46.38274" lon="6.86014">
        <ele>371.60000610352</ele>
        <time>2013-05-10T11:26:38.000Z</time>
      </trkpt>
      <trkpt lat="46.38255" lon="6.85958">
        <ele>372</ele>
        <time>2013-05-10T11:26:44.000Z</time>
      </trkpt>
      <trkpt lat="46.38227" lon="6.85878">
        <ele>372.60000610352</ele>
        <time>2013-05-10T11:26:53.000Z</time>
      </trkpt>
      <trkpt lat="46.3821" lon="6.85819">
        <ele>373</ele>
        <time>2013-05-10T11:26:59.000Z</time>
      </trkpt>
      <trkpt lat="46.38192" lon="6.85722">
        <ele>374.39999389648</ele>
        <time>2013-05-10T11:27:08.000Z</time>
      </trkpt>
      <trkpt lat="46.38183" lon="6.85657">
        <ele>374</ele>
        <time>2013-05-10T11:27:14.000Z</time>
      </trkpt>
      <trkpt lat="46.38176" lon="6.85626">
        <ele>374.39999389648</ele>
        <time>2013-05-10T11:27:17.000Z</time>
      </trkpt>
      <trkpt lat="46.38156" lon="6.85588">
        <ele>376.39999389648</ele>
        <time>2013-05-10T11:27:22.000Z</time>
      </trkpt>
      <trkpt lat="46.38138" lon="6.85575">
        <ele>377.79998779297</ele>
        <time>2013-05-10T11:27:26.000Z</time>
      </trkpt>
      <trkpt lat="46.38129" lon="6.85573">
        <ele>378.79998779297</ele>
        <time>2013-05-10T11:27:28.000Z</time>
      </trkpt>
      <trkpt lat="46.38092" lon="6.85569">
        <ele>381.60000610352</ele>
        <time>2013-05-10T11:27:37.000Z</time>
      </trkpt>
      <trkpt lat="46.38066" lon="6.85574">
        <ele>383.60000610352</ele>
        <time>2013-05-10T11:27:44.000Z</time>
      </trkpt>
      <trkpt lat="46.38052" lon="6.85578">
        <ele>384.60000610352</ele>
        <time>2013-05-10T11:27:48.000Z</time>
      </trkpt>
      <trkpt lat="46.38048" lon="6.8556">
        <ele>385</ele>
        <time>2013-05-10T11:27:52.000Z</time>
      </trkpt>
      <trkpt lat="46.38062" lon="6.85539">
        <ele>385.60000610352</ele>
        <time>2013-05-10T11:27:56.000Z</time>
      </trkpt>
      <trkpt lat="46.38067" lon="6.85535">
        <ele>385.60000610352</ele>
        <time>2013-05-10T11:27:57.000Z</time>
      </trkpt>
      <trkpt lat="46.38105" lon="6.85521">
        <ele>384</ele>
        <time>2013-05-10T11:28:04.000Z</time>
      </trkpt>
      <trkpt lat="46.38137" lon="6.85514">
        <ele>383.60000610352</ele>
        <time>2013-05-10T11:28:09.000Z</time>
      </trkpt>
      <trkpt lat="46.38202" lon="6.855">
        <ele>382.20001220703</ele>
        <time>2013-05-10T11:28:18.000Z</time>
      </trkpt>
      <trkpt lat="46.38238" lon="6.85492">
        <ele>383.60000610352</ele>
        <time>2013-05-10T11:28:24.000Z</time>
      </trkpt>
      <trkpt lat="46.38251" lon="6.8549">
        <ele>384</ele>
        <time>2013-05-10T11:28:27.000Z</time>
      </trkpt>
      <trkpt lat="46.38263" lon="6.85486">
        <ele>384.60000610352</ele>
        <time>2013-05-10T11:28:31.000Z</time>
      </trkpt>
      <trkpt lat="46.38273" lon="6.85482">
        <ele>384</ele>
        <time>2013-05-10T11:28:36.000Z</time>
      </trkpt>
      <trkpt lat="46.38267" lon="6.85478">
        <ele>384</ele>
        <time>2013-05-10T11:28:39.000Z</time>
      </trkpt>
      <trkpt lat="46.38259" lon="6.85478">
        <ele>383.60000610352</ele>
        <time>2013-05-10T11:28:41.000Z</time>
      </trkpt>
      <trkpt lat="46.38231" lon="6.85486">
        <ele>384</ele>
        <time>2013-05-10T11:28:47.000Z</time>
      </trkpt>
      <trkpt lat="46.38205" lon="6.85491">
        <ele>384.60000610352</ele>
        <time>2013-05-10T11:28:52.000Z</time>
      </trkpt>
      <trkpt lat="46.38198" lon="6.85486">
        <ele>384.60000610352</ele>
        <time>2013-05-10T11:28:56.000Z</time>
      </trkpt>
      <trkpt lat="46.38203" lon="6.85487">
        <ele>385</ele>
        <time>2013-05-10T11:29:00.000Z</time>
      </trkpt>
      <trkpt lat="46.38203" lon="6.85487">
        <ele>386</ele>
        <time>2013-05-10T11:29:07.000Z</time>
      </trkpt>
      <trkpt lat="46.38204" lon="6.85488">
        <ele>388</ele>
        <time>2013-05-10T11:29:19.000Z</time>
      </trkpt>
      <trkpt lat="46.38204" lon="6.85487">
        <ele>388</ele>
        <time>2013-05-10T11:29:23.000Z</time>
      </trkpt>
      <trkpt lat="46.38204" lon="6.85488">
        <ele>388</ele>
        <time>2013-05-10T11:29:31.000Z</time>
      </trkpt>
      <trkpt lat="46.38205" lon="6.85489">
        <ele>388.39999389648</ele>
        <time>2013-05-10T11:29:41.000Z</time>
      </trkpt>
      <trkpt lat="46.38205" lon="6.85494">
        <ele>388.39999389648</ele>
        <time>2013-05-10T11:29:52.000Z</time>
      </trkpt>
      <trkpt lat="46.38209" lon="6.85497">
        <ele>388.39999389648</ele>
        <time>2013-05-10T11:29:56.000Z</time>
      </trkpt>
      <trkpt lat="46.38227" lon="6.85492">
        <ele>388.79998779297</ele>
        <time>2013-05-10T11:30:02.000Z</time>
      </trkpt>
      <trkpt lat="46.38255" lon="6.85485">
        <ele>388.79998779297</ele>
        <time>2013-05-10T11:30:07.000Z</time>
      </trkpt>
      <trkpt lat="46.38284" lon="6.85474">
        <ele>388.39999389648</ele>
        <time>2013-05-10T11:30:12.000Z</time>
      </trkpt>
      <trkpt lat="46.38333" lon="6.85443">
        <ele>388.39999389648</ele>
        <time>2013-05-10T11:30:20.000Z</time>
      </trkpt>
      <trkpt lat="46.38366" lon="6.85421">
        <ele>389.39999389648</ele>
        <time>2013-05-10T11:30:25.000Z</time>
      </trkpt>
      <trkpt lat="46.38421" lon="6.85385">
        <ele>388.79998779297</ele>
        <time>2013-05-10T11:30:33.000Z</time>
      </trkpt>
      <trkpt lat="46.38496" lon="6.85333">
        <ele>388.39999389648</ele>
        <time>2013-05-10T11:30:44.000Z</time>
      </trkpt>
      <trkpt lat="46.38519" lon="6.85308">
        <ele>388</ele>
        <time>2013-05-10T11:30:48.000Z</time>
      </trkpt>
      <trkpt lat="46.38552" lon="6.85244">
        <ele>385.60000610352</ele>
        <time>2013-05-10T11:30:55.000Z</time>
      </trkpt>
      <trkpt lat="46.38588" lon="6.85192">
        <ele>385</ele>
        <time>2013-05-10T11:31:02.000Z</time>
      </trkpt>
      <trkpt lat="46.38625" lon="6.85145">
        <ele>387</ele>
        <time>2013-05-10T11:31:09.000Z</time>
      </trkpt>
      <trkpt lat="46.38636" lon="6.85133">
        <ele>389.39999389648</ele>
        <time>2013-05-10T11:31:11.000Z</time>
      </trkpt>
      <trkpt lat="46.38664" lon="6.85111">
        <ele>389.79998779297</ele>
        <time>2013-05-10T11:31:16.000Z</time>
      </trkpt>
      <trkpt lat="46.3868" lon="6.85084">
        <ele>389.79998779297</ele>
        <time>2013-05-10T11:31:20.000Z</time>
      </trkpt>
      <trkpt lat="46.38696" lon="6.85025">
        <ele>390.79998779297</ele>
        <time>2013-05-10T11:31:26.000Z</time>
      </trkpt>
      <trkpt lat="46.38701" lon="6.85005">
        <ele>390.79998779297</ele>
        <time>2013-05-10T11:31:28.000Z</time>
      </trkpt>
      <trkpt lat="46.38707" lon="6.84985">
        <ele>390.79998779297</ele>
        <time>2013-05-10T11:31:30.000Z</time>
      </trkpt>
      <trkpt lat="46.38734" lon="6.84935">
        <ele>389.39999389648</ele>
        <time>2013-05-10T11:31:36.000Z</time>
      </trkpt>
      <trkpt lat="46.38752" lon="6.84891">
        <ele>388.39999389648</ele>
        <time>2013-05-10T11:31:41.000Z</time>
      </trkpt>
      <trkpt lat="46.38763" lon="6.84828">
        <ele>388</ele>
        <time>2013-05-10T11:31:47.000Z</time>
      </trkpt>
      <trkpt lat="46.38763" lon="6.84743">
        <ele>387.39999389648</ele>
        <time>2013-05-10T11:31:55.000Z</time>
      </trkpt>
      <trkpt lat="46.38763" lon="6.84733">
        <ele>387</ele>
        <time>2013-05-10T11:31:56.000Z</time>
      </trkpt>
      <trkpt lat="46.38759" lon="6.8469">
        <ele>387</ele>
        <time>2013-05-10T11:32:00.000Z</time>
      </trkpt>
      <trkpt lat="46.38758" lon="6.84579">
        <ele>387</ele>
        <time>2013-05-10T11:32:10.000Z</time>
      </trkpt>
      <trkpt lat="46.38752" lon="6.84485">
        <ele>388</ele>
        <time>2013-05-10T11:32:19.000Z</time>
      </trkpt>
      <trkpt lat="46.38739" lon="6.84398">
        <ele>387.39999389648</ele>
        <time>2013-05-10T11:32:27.000Z</time>
      </trkpt>
      <trkpt lat="46.3872" lon="6.84277">
        <ele>386.39999389648</ele>
        <time>2013-05-10T11:32:38.000Z</time>
      </trkpt>
      <trkpt lat="46.38696" lon="6.84126">
        <ele>387</ele>
        <time>2013-05-10T11:32:52.000Z</time>
      </trkpt>
      <trkpt lat="46.38679" lon="6.84015">
        <ele>387</ele>
        <time>2013-05-10T11:33:02.000Z</time>
      </trkpt>
      <trkpt lat="46.38659" lon="6.83871">
        <ele>385.60000610352</ele>
        <time>2013-05-10T11:33:15.000Z</time>
      </trkpt>
      <trkpt lat="46.38639" lon="6.83747">
        <ele>386.39999389648</ele>
        <time>2013-05-10T11:33:26.000Z</time>
      </trkpt>
      <trkpt lat="46.38616" lon="6.83603">
        <ele>388</ele>
        <time>2013-05-10T11:33:39.000Z</time>
      </trkpt>
      <trkpt lat="46.38604" lon="6.83521">
        <ele>388.79998779297</ele>
        <time>2013-05-10T11:33:46.000Z</time>
      </trkpt>
      <trkpt lat="46.38586" lon="6.83394">
        <ele>389.79998779297</ele>
        <time>2013-05-10T11:33:57.000Z</time>
      </trkpt>
      <trkpt lat="46.38569" lon="6.83285">
        <ele>390.79998779297</ele>
        <time>2013-05-10T11:34:07.000Z</time>
      </trkpt>
      <trkpt lat="46.38554" lon="6.83181">
        <ele>389.79998779297</ele>
        <time>2013-05-10T11:34:17.000Z</time>
      </trkpt>
      <trkpt lat="46.38544" lon="6.83082">
        <ele>389.79998779297</ele>
        <time>2013-05-10T11:34:26.000Z</time>
      </trkpt>
      <trkpt lat="46.38543" lon="6.82992">
        <ele>390.39999389648</ele>
        <time>2013-05-10T11:34:34.000Z</time>
      </trkpt>
      <trkpt lat="46.38552" lon="6.82912">
        <ele>389.39999389648</ele>
        <time>2013-05-10T11:34:41.000Z</time>
      </trkpt>
      <trkpt lat="46.38572" lon="6.82826">
        <ele>388.79998779297</ele>
        <time>2013-05-10T11:34:49.000Z</time>
      </trkpt>
      <trkpt lat="46.38603" lon="6.82723">
        <ele>389.39999389648</ele>
        <time>2013-05-10T11:34:59.000Z</time>
      </trkpt>
      <trkpt lat="46.38628" lon="6.82632">
        <ele>389.39999389648</ele>
        <time>2013-05-10T11:35:08.000Z</time>
      </trkpt>
      <trkpt lat="46.38642" lon="6.82536">
        <ele>389.79998779297</ele>
        <time>2013-05-10T11:35:17.000Z</time>
      </trkpt>
      <trkpt lat="46.38657" lon="6.82426">
        <ele>389.79998779297</ele>
        <time>2013-05-10T11:35:27.000Z</time>
      </trkpt>
      <trkpt lat="46.38674" lon="6.82355">
        <ele>390.39999389648</ele>
        <time>2013-05-10T11:35:34.000Z</time>
      </trkpt>
      <trkpt lat="46.38697" lon="6.8229">
        <ele>390.39999389648</ele>
        <time>2013-05-10T11:35:41.000Z</time>
      </trkpt>
      <trkpt lat="46.38719" lon="6.82253">
        <ele>389.79998779297</ele>
        <time>2013-05-10T11:35:46.000Z</time>
      </trkpt>
      <trkpt lat="46.38728" lon="6.82238">
        <ele>389.39999389648</ele>
        <time>2013-05-10T11:35:48.000Z</time>
      </trkpt>
      <trkpt lat="46.38752" lon="6.82188">
        <ele>390.79998779297</ele>
        <time>2013-05-10T11:35:54.000Z</time>
      </trkpt>
      <trkpt lat="46.38768" lon="6.82115">
        <ele>390.39999389648</ele>
        <time>2013-05-10T11:36:01.000Z</time>
      </trkpt>
      <trkpt lat="46.38788" lon="6.82048">
        <ele>391.79998779297</ele>
        <time>2013-05-10T11:36:07.000Z</time>
      </trkpt>
      <trkpt lat="46.38805" lon="6.81983">
        <ele>392.20001220703</ele>
        <time>2013-05-10T11:36:13.000Z</time>
      </trkpt>
      <trkpt lat="46.38827" lon="6.81897">
        <ele>391.79998779297</ele>
        <time>2013-05-10T11:36:21.000Z</time>
      </trkpt>
      <trkpt lat="46.38851" lon="6.81796">
        <ele>392.20001220703</ele>
        <time>2013-05-10T11:36:30.000Z</time>
      </trkpt>
      <trkpt lat="46.38875" lon="6.81711">
        <ele>389.79998779297</ele>
        <time>2013-05-10T11:36:38.000Z</time>
      </trkpt>
      <trkpt lat="46.38882" lon="6.81692">
        <ele>388.79998779297</ele>
        <time>2013-05-10T11:36:40.000Z</time>
      </trkpt>
      <trkpt lat="46.38916" lon="6.81652">
        <ele>393.60000610352</ele>
        <time>2013-05-10T11:36:45.000Z</time>
      </trkpt>
      <trkpt lat="46.38986" lon="6.81593">
        <ele>394.20001220703</ele>
        <time>2013-05-10T11:36:55.000Z</time>
      </trkpt>
      <trkpt lat="46.39008" lon="6.81549">
        <ele>393.20001220703</ele>
        <time>2013-05-10T11:37:00.000Z</time>
      </trkpt>
      <trkpt lat="46.39011" lon="6.81527">
        <ele>393.20001220703</ele>
        <time>2013-05-10T11:37:02.000Z</time>
      </trkpt>
      <trkpt lat="46.39008" lon="6.81418">
        <ele>391.20001220703</ele>
        <time>2013-05-10T11:37:12.000Z</time>
      </trkpt>
      <trkpt lat="46.39012" lon="6.81316">
        <ele>390.79998779297</ele>
        <time>2013-05-10T11:37:21.000Z</time>
      </trkpt>
      <trkpt lat="46.39016" lon="6.81247">
        <ele>389.39999389648</ele>
        <time>2013-05-10T11:37:27.000Z</time>
      </trkpt>
      <trkpt lat="46.39021" lon="6.81169">
        <ele>388.79998779297</ele>
        <time>2013-05-10T11:37:34.000Z</time>
      </trkpt>
      <trkpt lat="46.39034" lon="6.81094">
        <ele>390.79998779297</ele>
        <time>2013-05-10T11:37:41.000Z</time>
      </trkpt>
      <trkpt lat="46.39058" lon="6.81014">
        <ele>389.79998779297</ele>
        <time>2013-05-10T11:37:49.000Z</time>
      </trkpt>
      <trkpt lat="46.39076" lon="6.80964">
        <ele>391.20001220703</ele>
        <time>2013-05-10T11:37:54.000Z</time>
      </trkpt>
      <trkpt lat="46.39099" lon="6.80929">
        <ele>395.20001220703</ele>
        <time>2013-05-10T11:37:58.000Z</time>
      </trkpt>
      <trkpt lat="46.39148" lon="6.80861">
        <ele>393.20001220703</ele>
        <time>2013-05-10T11:38:07.000Z</time>
      </trkpt>
      <trkpt lat="46.39184" lon="6.80802">
        <ele>392.79998779297</ele>
        <time>2013-05-10T11:38:14.000Z</time>
      </trkpt>
      <trkpt lat="46.39193" lon="6.80783">
        <ele>393.60000610352</ele>
        <time>2013-05-10T11:38:16.000Z</time>
      </trkpt>
      <trkpt lat="46.39205" lon="6.80755">
        <ele>394.20001220703</ele>
        <time>2013-05-10T11:38:19.000Z</time>
      </trkpt>
      <trkpt lat="46.39225" lon="6.8067">
        <ele>396.20001220703</ele>
        <time>2013-05-10T11:38:27.000Z</time>
      </trkpt>
      <trkpt lat="46.39244" lon="6.8061">
        <ele>393.60000610352</ele>
        <time>2013-05-10T11:38:33.000Z</time>
      </trkpt>
      <trkpt lat="46.39269" lon="6.80563">
        <ele>393.60000610352</ele>
        <time>2013-05-10T11:38:38.000Z</time>
      </trkpt>
      <trkpt lat="46.39312" lon="6.80484">
        <ele>396.20001220703</ele>
        <time>2013-05-10T11:38:47.000Z</time>
      </trkpt>
      <trkpt lat="46.39338" lon="6.80443">
        <ele>392.20001220703</ele>
        <time>2013-05-10T11:38:53.000Z</time>
      </trkpt>
      <trkpt lat="46.39342" lon="6.80436">
        <ele>392.20001220703</ele>
        <time>2013-05-10T11:38:54.000Z</time>
      </trkpt>
      <trkpt lat="46.39368" lon="6.80391">
        <ele>392.79998779297</ele>
        <time>2013-05-10T11:39:00.000Z</time>
      </trkpt>
      <trkpt lat="46.39381" lon="6.80351">
        <ele>393.20001220703</ele>
        <time>2013-05-10T11:39:05.000Z</time>
      </trkpt>
      <trkpt lat="46.3938" lon="6.80303">
        <ele>399.39999389648</ele>
        <time>2013-05-10T11:39:10.000Z</time>
      </trkpt>
      <trkpt lat="46.39374" lon="6.8026">
        <ele>399.39999389648</ele>
        <time>2013-05-10T11:39:15.000Z</time>
      </trkpt>
      <trkpt lat="46.39364" lon="6.80211">
        <ele>393.20001220703</ele>
        <time>2013-05-10T11:39:21.000Z</time>
      </trkpt>
      <trkpt lat="46.39354" lon="6.80157">
        <ele>392.20001220703</ele>
        <time>2013-05-10T11:39:27.000Z</time>
      </trkpt>
      <trkpt lat="46.39343" lon="6.80078">
        <ele>390.39999389648</ele>
        <time>2013-05-10T11:39:35.000Z</time>
      </trkpt>
      <trkpt lat="46.39334" lon="6.79998">
        <ele>388</ele>
        <time>2013-05-10T11:39:43.000Z</time>
      </trkpt>
      <trkpt lat="46.39328" lon="6.79922">
        <ele>388</ele>
        <time>2013-05-10T11:39:50.000Z</time>
      </trkpt>
      <trkpt lat="46.39318" lon="6.79823">
        <ele>388.39999389648</ele>
        <time>2013-05-10T11:39:59.000Z</time>
      </trkpt>
      <trkpt lat="46.39308" lon="6.79733">
        <ele>388.79998779297</ele>
        <time>2013-05-10T11:40:07.000Z</time>
      </trkpt>
      <trkpt lat="46.3929" lon="6.79669">
        <ele>388.79998779297</ele>
        <time>2013-05-10T11:40:13.000Z</time>
      </trkpt>
      <trkpt lat="46.39263" lon="6.79595">
        <ele>389.39999389648</ele>
        <time>2013-05-10T11:40:20.000Z</time>
      </trkpt>
      <trkpt lat="46.39256" lon="6.79573">
        <ele>389.39999389648</ele>
        <time>2013-05-10T11:40:22.000Z</time>
      </trkpt>
      <trkpt lat="46.39241" lon="6.79517">
        <ele>389.39999389648</ele>
        <time>2013-05-10T11:40:27.000Z</time>
      </trkpt>
      <trkpt lat="46.39236" lon="6.79459">
        <ele>389.39999389648</ele>
        <time>2013-05-10T11:40:32.000Z</time>
      </trkpt>
      <trkpt lat="46.39237" lon="6.79447">
        <ele>389.39999389648</ele>
        <time>2013-05-10T11:40:33.000Z</time>
      </trkpt>
      <trkpt lat="46.39248" lon="6.79332">
        <ele>389.79998779297</ele>
        <time>2013-05-10T11:40:43.000Z</time>
      </trkpt>
      <trkpt lat="46.39257" lon="6.7925">
        <ele>389.79998779297</ele>
        <time>2013-05-10T11:40:50.000Z</time>
      </trkpt>
      <trkpt lat="46.39256" lon="6.79178">
        <ele>389.39999389648</ele>
        <time>2013-05-10T11:40:56.000Z</time>
      </trkpt>
      <trkpt lat="46.39255" lon="6.79084">
        <ele>389.79998779297</ele>
        <time>2013-05-10T11:41:04.000Z</time>
      </trkpt>
      <trkpt lat="46.39256" lon="6.79073">
        <ele>389.79998779297</ele>
        <time>2013-05-10T11:41:05.000Z</time>
      </trkpt>
      <trkpt lat="46.39276" lon="6.78994">
        <ele>391.79998779297</ele>
        <time>2013-05-10T11:41:12.000Z</time>
      </trkpt>
      <trkpt lat="46.39306" lon="6.78925">
        <ele>392.20001220703</ele>
        <time>2013-05-10T11:41:19.000Z</time>
      </trkpt>
      <trkpt lat="46.39337" lon="6.78864">
        <ele>390.79998779297</ele>
        <time>2013-05-10T11:41:26.000Z</time>
      </trkpt>
      <trkpt lat="46.39362" lon="6.78807">
        <ele>388.39999389648</ele>
        <time>2013-05-10T11:41:32.000Z</time>
      </trkpt>
      <trkpt lat="46.39372" lon="6.78777">
        <ele>388</ele>
        <time>2013-05-10T11:41:35.000Z</time>
      </trkpt>
      <trkpt lat="46.39378" lon="6.78722">
        <ele>388</ele>
        <time>2013-05-10T11:41:40.000Z</time>
      </trkpt>
      <trkpt lat="46.3938" lon="6.78677">
        <ele>387.39999389648</ele>
        <time>2013-05-10T11:41:44.000Z</time>
      </trkpt>
      <trkpt lat="46.39397" lon="6.78601">
        <ele>390.79998779297</ele>
        <time>2013-05-10T11:41:51.000Z</time>
      </trkpt>
      <trkpt lat="46.39418" lon="6.78516">
        <ele>391.79998779297</ele>
        <time>2013-05-10T11:41:59.000Z</time>
      </trkpt>
      <trkpt lat="46.39428" lon="6.78439">
        <ele>392.79998779297</ele>
        <time>2013-05-10T11:42:06.000Z</time>
      </trkpt>
      <trkpt lat="46.39437" lon="6.78337">
        <ele>391.20001220703</ele>
        <time>2013-05-10T11:42:15.000Z</time>
      </trkpt>
      <trkpt lat="46.3945" lon="6.78282">
        <ele>392.20001220703</ele>
        <time>2013-05-10T11:42:20.000Z</time>
      </trkpt>
      <trkpt lat="46.39477" lon="6.78197">
        <ele>396.20001220703</ele>
        <time>2013-05-10T11:42:28.000Z</time>
      </trkpt>
      <trkpt lat="46.39509" lon="6.78101">
        <ele>393.20001220703</ele>
        <time>2013-05-10T11:42:37.000Z</time>
      </trkpt>
      <trkpt lat="46.39542" lon="6.78004">
        <ele>391.79998779297</ele>
        <time>2013-05-10T11:42:46.000Z</time>
      </trkpt>
      <trkpt lat="46.39576" lon="6.77909">
        <ele>391.20001220703</ele>
        <time>2013-05-10T11:42:55.000Z</time>
      </trkpt>
      <trkpt lat="46.39606" lon="6.77838">
        <ele>391.20001220703</ele>
        <time>2013-05-10T11:43:02.000Z</time>
      </trkpt>
      <trkpt lat="46.39635" lon="6.7778">
        <ele>391.79998779297</ele>
        <time>2013-05-10T11:43:08.000Z</time>
      </trkpt>
      <trkpt lat="46.39674" lon="6.7767">
        <ele>391.79998779297</ele>
        <time>2013-05-10T11:43:18.000Z</time>
      </trkpt>
      <trkpt lat="46.39702" lon="6.7758">
        <ele>389.79998779297</ele>
        <time>2013-05-10T11:43:26.000Z</time>
      </trkpt>
      <trkpt lat="46.39708" lon="6.77544">
        <ele>389.39999389648</ele>
        <time>2013-05-10T11:43:29.000Z</time>
      </trkpt>
      <trkpt lat="46.39709" lon="6.77457">
        <ele>389.79998779297</ele>
        <time>2013-05-10T11:43:36.000Z</time>
      </trkpt>
      <trkpt lat="46.39704" lon="6.77318">
        <ele>390.39999389648</ele>
        <time>2013-05-10T11:43:47.000Z</time>
      </trkpt>
      <trkpt lat="46.39705" lon="6.7722">
        <ele>389.79998779297</ele>
        <time>2013-05-10T11:43:55.000Z</time>
      </trkpt>
      <trkpt lat="46.39706" lon="6.77207">
        <ele>390.39999389648</ele>
        <time>2013-05-10T11:43:56.000Z</time>
      </trkpt>
      <trkpt lat="46.39722" lon="6.77133">
        <ele>391.79998779297</ele>
        <time>2013-05-10T11:44:02.000Z</time>
      </trkpt>
      <trkpt lat="46.39746" lon="6.7707">
        <ele>389.39999389648</ele>
        <time>2013-05-10T11:44:08.000Z</time>
      </trkpt>
      <trkpt lat="46.39775" lon="6.77011">
        <ele>387.39999389648</ele>
        <time>2013-05-10T11:44:14.000Z</time>
      </trkpt>
      <trkpt lat="46.39803" lon="6.7694">
        <ele>385</ele>
        <time>2013-05-10T11:44:21.000Z</time>
      </trkpt>
      <trkpt lat="46.39832" lon="6.76864">
        <ele>384</ele>
        <time>2013-05-10T11:44:28.000Z</time>
      </trkpt>
      <trkpt lat="46.39862" lon="6.7678">
        <ele>383.60000610352</ele>
        <time>2013-05-10T11:44:36.000Z</time>
      </trkpt>
      <trkpt lat="46.39878" lon="6.76716">
        <ele>383.60000610352</ele>
        <time>2013-05-10T11:44:42.000Z</time>
      </trkpt>
      <trkpt lat="46.39894" lon="6.76613">
        <ele>384</ele>
        <time>2013-05-10T11:44:51.000Z</time>
      </trkpt>
      <trkpt lat="46.39912" lon="6.76551">
        <ele>385.60000610352</ele>
        <time>2013-05-10T11:44:57.000Z</time>
      </trkpt>
      <trkpt lat="46.39945" lon="6.76458">
        <ele>386.39999389648</ele>
        <time>2013-05-10T11:45:06.000Z</time>
      </trkpt>
      <trkpt lat="46.39949" lon="6.76436">
        <ele>386.39999389648</ele>
        <time>2013-05-10T11:45:08.000Z</time>
      </trkpt>
      <trkpt lat="46.39968" lon="6.76359">
        <ele>388</ele>
        <time>2013-05-10T11:45:15.000Z</time>
      </trkpt>
      <trkpt lat="46.39981" lon="6.76292">
        <ele>388.79998779297</ele>
        <time>2013-05-10T11:45:21.000Z</time>
      </trkpt>
      <trkpt lat="46.3999" lon="6.76222">
        <ele>391.79998779297</ele>
        <time>2013-05-10T11:45:27.000Z</time>
      </trkpt>
      <trkpt lat="46.39998" lon="6.76129">
        <ele>391.79998779297</ele>
        <time>2013-05-10T11:45:35.000Z</time>
      </trkpt>
      <trkpt lat="46.40009" lon="6.76035">
        <ele>391.79998779297</ele>
        <time>2013-05-10T11:45:43.000Z</time>
      </trkpt>
      <trkpt lat="46.40024" lon="6.75946">
        <ele>390.39999389648</ele>
        <time>2013-05-10T11:45:51.000Z</time>
      </trkpt>
      <trkpt lat="46.40052" lon="6.75879">
        <ele>390.39999389648</ele>
        <time>2013-05-10T11:45:58.000Z</time>
      </trkpt>
      <trkpt lat="46.40056" lon="6.7587">
        <ele>390.39999389648</ele>
        <time>2013-05-10T11:45:59.000Z</time>
      </trkpt>
      <trkpt lat="46.40099" lon="6.75835">
        <ele>393.20001220703</ele>
        <time>2013-05-10T11:46:05.000Z</time>
      </trkpt>
      <trkpt lat="46.40149" lon="6.758">
        <ele>392.79998779297</ele>
        <time>2013-05-10T11:46:12.000Z</time>
      </trkpt>
      <trkpt lat="46.40177" lon="6.75762">
        <ele>392.20001220703</ele>
        <time>2013-05-10T11:46:17.000Z</time>
      </trkpt>
      <trkpt lat="46.40208" lon="6.75688">
        <ele>391.79998779297</ele>
        <time>2013-05-10T11:46:25.000Z</time>
      </trkpt>
      <trkpt lat="46.40245" lon="6.75587">
        <ele>391.79998779297</ele>
        <time>2013-05-10T11:46:35.000Z</time>
      </trkpt>
      <trkpt lat="46.40269" lon="6.75527">
        <ele>391.79998779297</ele>
        <time>2013-05-10T11:46:41.000Z</time>
      </trkpt>
      <trkpt lat="46.40272" lon="6.75517">
        <ele>391.79998779297</ele>
        <time>2013-05-10T11:46:42.000Z</time>
      </trkpt>
      <trkpt lat="46.40274" lon="6.75475">
        <ele>390.79998779297</ele>
        <time>2013-05-10T11:46:46.000Z</time>
      </trkpt>
      <trkpt lat="46.40262" lon="6.75415">
        <ele>389.39999389648</ele>
        <time>2013-05-10T11:46:52.000Z</time>
      </trkpt>
      <trkpt lat="46.40262" lon="6.75405">
        <ele>388.79998779297</ele>
        <time>2013-05-10T11:46:53.000Z</time>
      </trkpt>
      <trkpt lat="46.40265" lon="6.7534">
        <ele>389.79998779297</ele>
        <time>2013-05-10T11:46:59.000Z</time>
      </trkpt>
      <trkpt lat="46.40289" lon="6.75241">
        <ele>390.39999389648</ele>
        <time>2013-05-10T11:47:08.000Z</time>
      </trkpt>
      <trkpt lat="46.4031" lon="6.75153">
        <ele>389.79998779297</ele>
        <time>2013-05-10T11:47:16.000Z</time>
      </trkpt>
      <trkpt lat="46.40336" lon="6.75051">
        <ele>388.39999389648</ele>
        <time>2013-05-10T11:47:25.000Z</time>
      </trkpt>
      <trkpt lat="46.40364" lon="6.74935">
        <ele>387.39999389648</ele>
        <time>2013-05-10T11:47:35.000Z</time>
      </trkpt>
      <trkpt lat="46.40377" lon="6.74851">
        <ele>387.39999389648</ele>
        <time>2013-05-10T11:47:42.000Z</time>
      </trkpt>
      <trkpt lat="46.4038" lon="6.74765">
        <ele>387</ele>
        <time>2013-05-10T11:47:49.000Z</time>
      </trkpt>
      <trkpt lat="46.40379" lon="6.74629">
        <ele>386</ele>
        <time>2013-05-10T11:48:00.000Z</time>
      </trkpt>
      <trkpt lat="46.40379" lon="6.74521">
        <ele>386.39999389648</ele>
        <time>2013-05-10T11:48:09.000Z</time>
      </trkpt>
      <trkpt lat="46.40391" lon="6.7445">
        <ele>387</ele>
        <time>2013-05-10T11:48:15.000Z</time>
      </trkpt>
      <trkpt lat="46.40394" lon="6.74415">
        <ele>387.39999389648</ele>
        <time>2013-05-10T11:48:18.000Z</time>
      </trkpt>
      <trkpt lat="46.40385" lon="6.74357">
        <ele>390.79998779297</ele>
        <time>2013-05-10T11:48:23.000Z</time>
      </trkpt>
      <trkpt lat="46.40387" lon="6.74298">
        <ele>390.79998779297</ele>
        <time>2013-05-10T11:48:28.000Z</time>
      </trkpt>
      <trkpt lat="46.40413" lon="6.74174">
        <ele>390.79998779297</ele>
        <time>2013-05-10T11:48:38.000Z</time>
      </trkpt>
      <trkpt lat="46.40431" lon="6.74057">
        <ele>388.79998779297</ele>
        <time>2013-05-10T11:48:47.000Z</time>
      </trkpt>
      <trkpt lat="46.40449" lon="6.73935">
        <ele>386.39999389648</ele>
        <time>2013-05-10T11:48:57.000Z</time>
      </trkpt>
      <trkpt lat="46.40453" lon="6.73854">
        <ele>386</ele>
        <time>2013-05-10T11:49:04.000Z</time>
      </trkpt>
      <trkpt lat="46.40455" lon="6.73771">
        <ele>386</ele>
        <time>2013-05-10T11:49:12.000Z</time>
      </trkpt>
      <trkpt lat="46.40457" lon="6.73685">
        <ele>386</ele>
        <time>2013-05-10T11:49:21.000Z</time>
      </trkpt>
      <trkpt lat="46.40458" lon="6.7362">
        <ele>386</ele>
        <time>2013-05-10T11:49:28.000Z</time>
      </trkpt>
      <trkpt lat="46.40464" lon="6.73556">
        <ele>387</ele>
        <time>2013-05-10T11:49:35.000Z</time>
      </trkpt>
      <trkpt lat="46.4048" lon="6.73501">
        <ele>387.39999389648</ele>
        <time>2013-05-10T11:49:41.000Z</time>
      </trkpt>
      <trkpt lat="46.40498" lon="6.73436">
        <ele>386</ele>
        <time>2013-05-10T11:49:47.000Z</time>
      </trkpt>
      <trkpt lat="46.4051" lon="6.73361">
        <ele>384.60000610352</ele>
        <time>2013-05-10T11:49:53.000Z</time>
      </trkpt>
      <trkpt lat="46.4053" lon="6.73301">
        <ele>386</ele>
        <time>2013-05-10T11:49:58.000Z</time>
      </trkpt>
      <trkpt lat="46.40555" lon="6.73235">
        <ele>387</ele>
        <time>2013-05-10T11:50:04.000Z</time>
      </trkpt>
      <trkpt lat="46.40577" lon="6.73132">
        <ele>384.60000610352</ele>
        <time>2013-05-10T11:50:13.000Z</time>
      </trkpt>
      <trkpt lat="46.406" lon="6.73011">
        <ele>383.60000610352</ele>
        <time>2013-05-10T11:50:24.000Z</time>
      </trkpt>
      <trkpt lat="46.40624" lon="6.72892">
        <ele>383.60000610352</ele>
        <time>2013-05-10T11:50:35.000Z</time>
      </trkpt>
      <trkpt lat="46.40634" lon="6.72821">
        <ele>383.60000610352</ele>
        <time>2013-05-10T11:50:42.000Z</time>
      </trkpt>
      <trkpt lat="46.40634" lon="6.72754">
        <ele>383.60000610352</ele>
        <time>2013-05-10T11:50:49.000Z</time>
      </trkpt>
      <trkpt lat="46.40634" lon="6.72695">
        <ele>384</ele>
        <time>2013-05-10T11:50:56.000Z</time>
      </trkpt>
      <trkpt lat="46.40636" lon="6.72671">
        <ele>385</ele>
        <time>2013-05-10T11:50:59.000Z</time>
      </trkpt>
      <trkpt lat="46.40649" lon="6.7263">
        <ele>390.79998779297</ele>
        <time>2013-05-10T11:51:04.000Z</time>
      </trkpt>
      <trkpt lat="46.40668" lon="6.72587">
        <ele>392.79998779297</ele>
        <time>2013-05-10T11:51:09.000Z</time>
      </trkpt>
      <trkpt lat="46.40703" lon="6.72522">
        <ele>393.60000610352</ele>
        <time>2013-05-10T11:51:17.000Z</time>
      </trkpt>
      <trkpt lat="46.40723" lon="6.72471">
        <ele>390.39999389648</ele>
        <time>2013-05-10T11:51:23.000Z</time>
      </trkpt>
      <trkpt lat="46.40736" lon="6.72412">
        <ele>388</ele>
        <time>2013-05-10T11:51:29.000Z</time>
      </trkpt>
      <trkpt lat="46.40745" lon="6.72343">
        <ele>388.79998779297</ele>
        <time>2013-05-10T11:51:36.000Z</time>
      </trkpt>
      <trkpt lat="46.40738" lon="6.72284">
        <ele>389.39999389648</ele>
        <time>2013-05-10T11:51:42.000Z</time>
      </trkpt>
      <trkpt lat="46.40728" lon="6.72237">
        <ele>389.79998779297</ele>
        <time>2013-05-10T11:51:47.000Z</time>
      </trkpt>
      <trkpt lat="46.40715" lon="6.72193">
        <ele>387</ele>
        <time>2013-05-10T11:51:52.000Z</time>
      </trkpt>
      <trkpt lat="46.40714" lon="6.72183">
        <ele>387</ele>
        <time>2013-05-10T11:51:53.000Z</time>
      </trkpt>
      <trkpt lat="46.40707" lon="6.7211">
        <ele>387.39999389648</ele>
        <time>2013-05-10T11:52:01.000Z</time>
      </trkpt>
      <trkpt lat="46.40706" lon="6.72101">
        <ele>387</ele>
        <time>2013-05-10T11:52:02.000Z</time>
      </trkpt>
      <trkpt lat="46.40709" lon="6.72034">
        <ele>388</ele>
        <time>2013-05-10T11:52:09.000Z</time>
      </trkpt>
      <trkpt lat="46.40717" lon="6.7198">
        <ele>388.39999389648</ele>
        <time>2013-05-10T11:52:15.000Z</time>
      </trkpt>
      <trkpt lat="46.40731" lon="6.71913">
        <ele>387.39999389648</ele>
        <time>2013-05-10T11:52:23.000Z</time>
      </trkpt>
      <trkpt lat="46.40742" lon="6.71863">
        <ele>387.39999389648</ele>
        <time>2013-05-10T11:52:29.000Z</time>
      </trkpt>
      <trkpt lat="46.40754" lon="6.71808">
        <ele>388.79998779297</ele>
        <time>2013-05-10T11:52:35.000Z</time>
      </trkpt>
      <trkpt lat="46.40743" lon="6.71755">
        <ele>390.39999389648</ele>
        <time>2013-05-10T11:52:41.000Z</time>
      </trkpt>
      <trkpt lat="46.4074" lon="6.71736">
        <ele>390.39999389648</ele>
        <time>2013-05-10T11:52:43.000Z</time>
      </trkpt>
      <trkpt lat="46.40741" lon="6.71638">
        <ele>388.79998779297</ele>
        <time>2013-05-10T11:52:53.000Z</time>
      </trkpt>
      <trkpt lat="46.40731" lon="6.71583">
        <ele>387</ele>
        <time>2013-05-10T11:52:59.000Z</time>
      </trkpt>
      <trkpt lat="46.40727" lon="6.71542">
        <ele>387</ele>
        <time>2013-05-10T11:53:03.000Z</time>
      </trkpt>
      <trkpt lat="46.40733" lon="6.71476">
        <ele>386.39999389648</ele>
        <time>2013-05-10T11:53:10.000Z</time>
      </trkpt>
      <trkpt lat="46.40744" lon="6.71432">
        <ele>386</ele>
        <time>2013-05-10T11:53:15.000Z</time>
      </trkpt>
      <trkpt lat="46.40753" lon="6.71397">
        <ele>386</ele>
        <time>2013-05-10T11:53:19.000Z</time>
      </trkpt>
      <trkpt lat="46.40758" lon="6.7134">
        <ele>386.39999389648</ele>
        <time>2013-05-10T11:53:25.000Z</time>
      </trkpt>
      <trkpt lat="46.40759" lon="6.71254">
        <ele>385.60000610352</ele>
        <time>2013-05-10T11:53:34.000Z</time>
      </trkpt>
      <trkpt lat="46.40748" lon="6.71187">
        <ele>385</ele>
        <time>2013-05-10T11:53:41.000Z</time>
      </trkpt>
      <trkpt lat="46.40749" lon="6.71124">
        <ele>385</ele>
        <time>2013-05-10T11:53:47.000Z</time>
      </trkpt>
      <trkpt lat="46.40759" lon="6.71036">
        <ele>385</ele>
        <time>2013-05-10T11:53:56.000Z</time>
      </trkpt>
      <trkpt lat="46.40768" lon="6.70961">
        <ele>387</ele>
        <time>2013-05-10T11:54:04.000Z</time>
      </trkpt>
      <trkpt lat="46.40776" lon="6.7088">
        <ele>387.39999389648</ele>
        <time>2013-05-10T11:54:13.000Z</time>
      </trkpt>
      <trkpt lat="46.40773" lon="6.70819">
        <ele>387</ele>
        <time>2013-05-10T11:54:20.000Z</time>
      </trkpt>
      <trkpt lat="46.40771" lon="6.7077">
        <ele>386.39999389648</ele>
        <time>2013-05-10T11:54:25.000Z</time>
      </trkpt>
      <trkpt lat="46.40774" lon="6.70694">
        <ele>386</ele>
        <time>2013-05-10T11:54:33.000Z</time>
      </trkpt>
      <trkpt lat="46.40775" lon="6.70667">
        <ele>386.39999389648</ele>
        <time>2013-05-10T11:54:36.000Z</time>
      </trkpt>
      <trkpt lat="46.40773" lon="6.7064">
        <ele>386</ele>
        <time>2013-05-10T11:54:39.000Z</time>
      </trkpt>
      <trkpt lat="46.40764" lon="6.70575">
        <ele>386</ele>
        <time>2013-05-10T11:54:46.000Z</time>
      </trkpt>
      <trkpt lat="46.40753" lon="6.70482">
        <ele>387</ele>
        <time>2013-05-10T11:54:56.000Z</time>
      </trkpt>
      <trkpt lat="46.4075" lon="6.70404">
        <ele>387.39999389648</ele>
        <time>2013-05-10T11:55:04.000Z</time>
      </trkpt>
      <trkpt lat="46.40753" lon="6.70303">
        <ele>387.39999389648</ele>
        <time>2013-05-10T11:55:14.000Z</time>
      </trkpt>
      <trkpt lat="46.40759" lon="6.7021">
        <ele>386.39999389648</ele>
        <time>2013-05-10T11:55:23.000Z</time>
      </trkpt>
      <trkpt lat="46.40762" lon="6.70134">
        <ele>385.60000610352</ele>
        <time>2013-05-10T11:55:30.000Z</time>
      </trkpt>
      <trkpt lat="46.40768" lon="6.70019">
        <ele>384</ele>
        <time>2013-05-10T11:55:41.000Z</time>
      </trkpt>
      <trkpt lat="46.40773" lon="6.69918">
        <ele>384</ele>
        <time>2013-05-10T11:55:51.000Z</time>
      </trkpt>
      <trkpt lat="46.40784" lon="6.69827">
        <ele>384</ele>
        <time>2013-05-10T11:56:00.000Z</time>
      </trkpt>
      <trkpt lat="46.40796" lon="6.69743">
        <ele>383.60000610352</ele>
        <time>2013-05-10T11:56:08.000Z</time>
      </trkpt>
      <trkpt lat="46.40797" lon="6.69679">
        <ele>383.60000610352</ele>
        <time>2013-05-10T11:56:14.000Z</time>
      </trkpt>
      <trkpt lat="46.40791" lon="6.69583">
        <ele>385.60000610352</ele>
        <time>2013-05-10T11:56:23.000Z</time>
      </trkpt>
      <trkpt lat="46.40786" lon="6.69493">
        <ele>386</ele>
        <time>2013-05-10T11:56:31.000Z</time>
      </trkpt>
      <trkpt lat="46.40782" lon="6.69397">
        <ele>384.60000610352</ele>
        <time>2013-05-10T11:56:40.000Z</time>
      </trkpt>
      <trkpt lat="46.40777" lon="6.69314">
        <ele>384.60000610352</ele>
        <time>2013-05-10T11:56:48.000Z</time>
      </trkpt>
      <trkpt lat="46.40778" lon="6.69259">
        <ele>388.39999389648</ele>
        <time>2013-05-10T11:56:53.000Z</time>
      </trkpt>
      <trkpt lat="46.40772" lon="6.6918">
        <ele>387</ele>
        <time>2013-05-10T11:57:01.000Z</time>
      </trkpt>
      <trkpt lat="46.40769" lon="6.69107">
        <ele>387.39999389648</ele>
        <time>2013-05-10T11:57:08.000Z</time>
      </trkpt>
      <trkpt lat="46.40765" lon="6.6901">
        <ele>388.39999389648</ele>
        <time>2013-05-10T11:57:17.000Z</time>
      </trkpt>
      <trkpt lat="46.40759" lon="6.6893">
        <ele>390.39999389648</ele>
        <time>2013-05-10T11:57:24.000Z</time>
      </trkpt>
      <trkpt lat="46.40753" lon="6.68828">
        <ele>390.39999389648</ele>
        <time>2013-05-10T11:57:33.000Z</time>
      </trkpt>
      <trkpt lat="46.40742" lon="6.68748">
        <ele>391.20001220703</ele>
        <time>2013-05-10T11:57:40.000Z</time>
      </trkpt>
      <trkpt lat="46.40726" lon="6.68695">
        <ele>391.20001220703</ele>
        <time>2013-05-10T11:57:45.000Z</time>
      </trkpt>
      <trkpt lat="46.40699" lon="6.68612">
        <ele>389.79998779297</ele>
        <time>2013-05-10T11:57:53.000Z</time>
      </trkpt>
      <trkpt lat="46.40679" lon="6.68543">
        <ele>389.39999389648</ele>
        <time>2013-05-10T11:58:00.000Z</time>
      </trkpt>
      <trkpt lat="46.40668" lon="6.68488">
        <ele>389.79998779297</ele>
        <time>2013-05-10T11:58:06.000Z</time>
      </trkpt>
      <trkpt lat="46.40661" lon="6.68445">
        <ele>388.79998779297</ele>
        <time>2013-05-10T11:58:11.000Z</time>
      </trkpt>
      <trkpt lat="46.40659" lon="6.68391">
        <ele>390.79998779297</ele>
        <time>2013-05-10T11:58:18.000Z</time>
      </trkpt>
      <trkpt lat="46.40659" lon="6.68367">
        <ele>390.79998779297</ele>
        <time>2013-05-10T11:58:21.000Z</time>
      </trkpt>
      <trkpt lat="46.40661" lon="6.68308">
        <ele>393.60000610352</ele>
        <time>2013-05-10T11:58:27.000Z</time>
      </trkpt>
      <trkpt lat="46.40663" lon="6.6829">
        <ele>392.79998779297</ele>
        <time>2013-05-10T11:58:29.000Z</time>
      </trkpt>
      <trkpt lat="46.4067" lon="6.68225">
        <ele>391.20001220703</ele>
        <time>2013-05-10T11:58:36.000Z</time>
      </trkpt>
      <trkpt lat="46.40678" lon="6.68157">
        <ele>390.79998779297</ele>
        <time>2013-05-10T11:58:43.000Z</time>
      </trkpt>
      <trkpt lat="46.40688" lon="6.68055">
        <ele>389.79998779297</ele>
        <time>2013-05-10T11:58:53.000Z</time>
      </trkpt>
      <trkpt lat="46.40696" lon="6.67969">
        <ele>389.79998779297</ele>
        <time>2013-05-10T11:59:01.000Z</time>
      </trkpt>
      <trkpt lat="46.40703" lon="6.67881">
        <ele>390.39999389648</ele>
        <time>2013-05-10T11:59:09.000Z</time>
      </trkpt>
      <trkpt lat="46.407" lon="6.678">
        <ele>390.39999389648</ele>
        <time>2013-05-10T11:59:16.000Z</time>
      </trkpt>
      <trkpt lat="46.40697" lon="6.67777">
        <ele>390.79998779297</ele>
        <time>2013-05-10T11:59:18.000Z</time>
      </trkpt>
      <trkpt lat="46.40681" lon="6.67704">
        <ele>388.79998779297</ele>
        <time>2013-05-10T11:59:25.000Z</time>
      </trkpt>
      <trkpt lat="46.40658" lon="6.67629">
        <ele>388</ele>
        <time>2013-05-10T11:59:32.000Z</time>
      </trkpt>
      <trkpt lat="46.40623" lon="6.67521">
        <ele>388</ele>
        <time>2013-05-10T11:59:42.000Z</time>
      </trkpt>
      <trkpt lat="46.40597" lon="6.67434">
        <ele>387</ele>
        <time>2013-05-10T11:59:50.000Z</time>
      </trkpt>
      <trkpt lat="46.40573" lon="6.67357">
        <ele>387</ele>
        <time>2013-05-10T11:59:57.000Z</time>
      </trkpt>
      <trkpt lat="46.40545" lon="6.67269">
        <ele>386.39999389648</ele>
        <time>2013-05-10T12:00:05.000Z</time>
      </trkpt>
      <trkpt lat="46.40525" lon="6.67204">
        <ele>386</ele>
        <time>2013-05-10T12:00:11.000Z</time>
      </trkpt>
      <trkpt lat="46.40506" lon="6.67135">
        <ele>387.39999389648</ele>
        <time>2013-05-10T12:00:17.000Z</time>
      </trkpt>
      <trkpt lat="46.40492" lon="6.6708">
        <ele>387.39999389648</ele>
        <time>2013-05-10T12:00:22.000Z</time>
      </trkpt>
      <trkpt lat="46.40479" lon="6.67021">
        <ele>388.79998779297</ele>
        <time>2013-05-10T12:00:27.000Z</time>
      </trkpt>
      <trkpt lat="46.40474" lon="6.66975">
        <ele>391.79998779297</ele>
        <time>2013-05-10T12:00:31.000Z</time>
      </trkpt>
      <trkpt lat="46.4046" lon="6.66899">
        <ele>391.79998779297</ele>
        <time>2013-05-10T12:00:37.000Z</time>
      </trkpt>
      <trkpt lat="46.40449" lon="6.6684">
        <ele>390.39999389648</ele>
        <time>2013-05-10T12:00:42.000Z</time>
      </trkpt>
      <trkpt lat="46.40434" lon="6.66767">
        <ele>388.39999389648</ele>
        <time>2013-05-10T12:00:48.000Z</time>
      </trkpt>
      <trkpt lat="46.40429" lon="6.66721">
        <ele>388</ele>
        <time>2013-05-10T12:00:52.000Z</time>
      </trkpt>
      <trkpt lat="46.40426" lon="6.66658">
        <ele>387</ele>
        <time>2013-05-10T12:00:57.000Z</time>
      </trkpt>
      <trkpt lat="46.40432" lon="6.66563">
        <ele>385</ele>
        <time>2013-05-10T12:01:05.000Z</time>
      </trkpt>
      <trkpt lat="46.40439" lon="6.66455">
        <ele>384</ele>
        <time>2013-05-10T12:01:14.000Z</time>
      </trkpt>
      <trkpt lat="46.4044" lon="6.66373">
        <ele>383.60000610352</ele>
        <time>2013-05-10T12:01:21.000Z</time>
      </trkpt>
      <trkpt lat="46.4044" lon="6.66254">
        <ele>383.20001220703</ele>
        <time>2013-05-10T12:01:31.000Z</time>
      </trkpt>
      <trkpt lat="46.40445" lon="6.66133">
        <ele>383.20001220703</ele>
        <time>2013-05-10T12:01:41.000Z</time>
      </trkpt>
      <trkpt lat="46.4045" lon="6.66025">
        <ele>383.20001220703</ele>
        <time>2013-05-10T12:01:50.000Z</time>
      </trkpt>
      <trkpt lat="46.40455" lon="6.65898">
        <ele>381.60000610352</ele>
        <time>2013-05-10T12:02:01.000Z</time>
      </trkpt>
      <trkpt lat="46.40462" lon="6.65805">
        <ele>381.60000610352</ele>
        <time>2013-05-10T12:02:09.000Z</time>
      </trkpt>
      <trkpt lat="46.40467" lon="6.65718">
        <ele>384.60000610352</ele>
        <time>2013-05-10T12:02:16.000Z</time>
      </trkpt>
      <trkpt lat="46.40475" lon="6.65642">
        <ele>380.79998779297</ele>
        <time>2013-05-10T12:02:23.000Z</time>
      </trkpt>
      <trkpt lat="46.40489" lon="6.65546">
        <ele>379.20001220703</ele>
        <time>2013-05-10T12:02:31.000Z</time>
      </trkpt>
      <trkpt lat="46.40497" lon="6.65438">
        <ele>379.20001220703</ele>
        <time>2013-05-10T12:02:40.000Z</time>
      </trkpt>
      <trkpt lat="46.40506" lon="6.65333">
        <ele>379.79998779297</ele>
        <time>2013-05-10T12:02:49.000Z</time>
      </trkpt>
      <trkpt lat="46.4052" lon="6.65241">
        <ele>380.20001220703</ele>
        <time>2013-05-10T12:02:57.000Z</time>
      </trkpt>
      <trkpt lat="46.40538" lon="6.65151">
        <ele>380.79998779297</ele>
        <time>2013-05-10T12:03:05.000Z</time>
      </trkpt>
      <trkpt lat="46.40558" lon="6.6505">
        <ele>380.20001220703</ele>
        <time>2013-05-10T12:03:14.000Z</time>
      </trkpt>
      <trkpt lat="46.40579" lon="6.64947">
        <ele>382.20001220703</ele>
        <time>2013-05-10T12:03:23.000Z</time>
      </trkpt>
      <trkpt lat="46.40582" lon="6.64866">
        <ele>382.60000610352</ele>
        <time>2013-05-10T12:03:30.000Z</time>
      </trkpt>
      <trkpt lat="46.40577" lon="6.64773">
        <ele>382.20001220703</ele>
        <time>2013-05-10T12:03:38.000Z</time>
      </trkpt>
      <trkpt lat="46.40574" lon="6.64656">
        <ele>383.60000610352</ele>
        <time>2013-05-10T12:03:48.000Z</time>
      </trkpt>
      <trkpt lat="46.40569" lon="6.64563">
        <ele>382.60000610352</ele>
        <time>2013-05-10T12:03:56.000Z</time>
      </trkpt>
      <trkpt lat="46.40568" lon="6.64472">
        <ele>383.20001220703</ele>
        <time>2013-05-10T12:04:04.000Z</time>
      </trkpt>
      <trkpt lat="46.4056" lon="6.64395">
        <ele>384</ele>
        <time>2013-05-10T12:04:11.000Z</time>
      </trkpt>
      <trkpt lat="46.4054" lon="6.64285">
        <ele>383.60000610352</ele>
        <time>2013-05-10T12:04:21.000Z</time>
      </trkpt>
      <trkpt lat="46.40529" lon="6.64184">
        <ele>382.60000610352</ele>
        <time>2013-05-10T12:04:30.000Z</time>
      </trkpt>
      <trkpt lat="46.40523" lon="6.64093">
        <ele>382.20001220703</ele>
        <time>2013-05-10T12:04:38.000Z</time>
      </trkpt>
      <trkpt lat="46.40516" lon="6.63987">
        <ele>382.20001220703</ele>
        <time>2013-05-10T12:04:47.000Z</time>
      </trkpt>
      <trkpt lat="46.40512" lon="6.63894">
        <ele>381.20001220703</ele>
        <time>2013-05-10T12:04:55.000Z</time>
      </trkpt>
      <trkpt lat="46.40519" lon="6.63825">
        <ele>381.60000610352</ele>
        <time>2013-05-10T12:05:01.000Z</time>
      </trkpt>
      <trkpt lat="46.40532" lon="6.63757">
        <ele>381.20001220703</ele>
        <time>2013-05-10T12:05:07.000Z</time>
      </trkpt>
      <trkpt lat="46.40547" lon="6.63672">
        <ele>382.20001220703</ele>
        <time>2013-05-10T12:05:15.000Z</time>
      </trkpt>
      <trkpt lat="46.40549" lon="6.63616">
        <ele>381.60000610352</ele>
        <time>2013-05-10T12:05:20.000Z</time>
      </trkpt>
      <trkpt lat="46.4054" lon="6.63543">
        <ele>381.20001220703</ele>
        <time>2013-05-10T12:05:26.000Z</time>
      </trkpt>
      <trkpt lat="46.40525" lon="6.63449">
        <ele>379.79998779297</ele>
        <time>2013-05-10T12:05:34.000Z</time>
      </trkpt>
      <trkpt lat="46.40504" lon="6.63315">
        <ele>379.20001220703</ele>
        <time>2013-05-10T12:05:46.000Z</time>
      </trkpt>
      <trkpt lat="46.40487" lon="6.63206">
        <ele>378.39999389648</ele>
        <time>2013-05-10T12:05:56.000Z</time>
      </trkpt>
      <trkpt lat="46.40469" lon="6.63097">
        <ele>377.79998779297</ele>
        <time>2013-05-10T12:06:06.000Z</time>
      </trkpt>
      <trkpt lat="46.40458" lon="6.63021">
        <ele>377.79998779297</ele>
        <time>2013-05-10T12:06:13.000Z</time>
      </trkpt>
      <trkpt lat="46.40443" lon="6.62922">
        <ele>378.39999389648</ele>
        <time>2013-05-10T12:06:22.000Z</time>
      </trkpt>
      <trkpt lat="46.40428" lon="6.62823">
        <ele>379.20001220703</ele>
        <time>2013-05-10T12:06:31.000Z</time>
      </trkpt>
      <trkpt lat="46.4042" lon="6.62719">
        <ele>380.20001220703</ele>
        <time>2013-05-10T12:06:40.000Z</time>
      </trkpt>
      <trkpt lat="46.40417" lon="6.62661">
        <ele>380.79998779297</ele>
        <time>2013-05-10T12:06:46.000Z</time>
      </trkpt>
      <trkpt lat="46.40416" lon="6.62621">
        <ele>381.60000610352</ele>
        <time>2013-05-10T12:06:51.000Z</time>
      </trkpt>
      <trkpt lat="46.40414" lon="6.62557">
        <ele>380.20001220703</ele>
        <time>2013-05-10T12:06:59.000Z</time>
      </trkpt>
      <trkpt lat="46.40412" lon="6.62485">
        <ele>382.60000610352</ele>
        <time>2013-05-10T12:07:06.000Z</time>
      </trkpt>
      <trkpt lat="46.40409" lon="6.62398">
        <ele>385</ele>
        <time>2013-05-10T12:07:14.000Z</time>
      </trkpt>
      <trkpt lat="46.40402" lon="6.62291">
        <ele>384</ele>
        <time>2013-05-10T12:07:24.000Z</time>
      </trkpt>
      <trkpt lat="46.40387" lon="6.62175">
        <ele>383.60000610352</ele>
        <time>2013-05-10T12:07:35.000Z</time>
      </trkpt>
      <trkpt lat="46.40365" lon="6.62067">
        <ele>383.20001220703</ele>
        <time>2013-05-10T12:07:45.000Z</time>
      </trkpt>
      <trkpt lat="46.40343" lon="6.61958">
        <ele>383.20001220703</ele>
        <time>2013-05-10T12:07:55.000Z</time>
      </trkpt>
      <trkpt lat="46.40334" lon="6.61865">
        <ele>383.20001220703</ele>
        <time>2013-05-10T12:08:03.000Z</time>
      </trkpt>
      <trkpt lat="46.40332" lon="6.61776">
        <ele>383.60000610352</ele>
        <time>2013-05-10T12:08:11.000Z</time>
      </trkpt>
      <trkpt lat="46.40328" lon="6.61662">
        <ele>383.60000610352</ele>
        <time>2013-05-10T12:08:22.000Z</time>
      </trkpt>
      <trkpt lat="46.40321" lon="6.61569">
        <ele>383.20001220703</ele>
        <time>2013-05-10T12:08:31.000Z</time>
      </trkpt>
      <trkpt lat="46.40307" lon="6.61465">
        <ele>383.60000610352</ele>
        <time>2013-05-10T12:08:41.000Z</time>
      </trkpt>
      <trkpt lat="46.40297" lon="6.61381">
        <ele>382.60000610352</ele>
        <time>2013-05-10T12:08:49.000Z</time>
      </trkpt>
      <trkpt lat="46.40293" lon="6.61295">
        <ele>381.60000610352</ele>
        <time>2013-05-10T12:08:57.000Z</time>
      </trkpt>
      <trkpt lat="46.40295" lon="6.61188">
        <ele>379.79998779297</ele>
        <time>2013-05-10T12:09:07.000Z</time>
      </trkpt>
      <trkpt lat="46.40291" lon="6.61115">
        <ele>380.20001220703</ele>
        <time>2013-05-10T12:09:14.000Z</time>
      </trkpt>
      <trkpt lat="46.40275" lon="6.61041">
        <ele>380.20001220703</ele>
        <time>2013-05-10T12:09:21.000Z</time>
      </trkpt>
      <trkpt lat="46.40261" lon="6.60969">
        <ele>379.79998779297</ele>
        <time>2013-05-10T12:09:28.000Z</time>
      </trkpt>
      <trkpt lat="46.40248" lon="6.6091">
        <ele>380.79998779297</ele>
        <time>2013-05-10T12:09:34.000Z</time>
      </trkpt>
      <trkpt lat="46.40234" lon="6.60845">
        <ele>380.79998779297</ele>
        <time>2013-05-10T12:09:40.000Z</time>
      </trkpt>
      <trkpt lat="46.40217" lon="6.60763">
        <ele>380.20001220703</ele>
        <time>2013-05-10T12:09:48.000Z</time>
      </trkpt>
      <trkpt lat="46.40202" lon="6.6068">
        <ele>380.79998779297</ele>
        <time>2013-05-10T12:09:56.000Z</time>
      </trkpt>
      <trkpt lat="46.40193" lon="6.60612">
        <ele>380.20001220703</ele>
        <time>2013-05-10T12:10:02.000Z</time>
      </trkpt>
      <trkpt lat="46.40188" lon="6.60528">
        <ele>380.20001220703</ele>
        <time>2013-05-10T12:10:10.000Z</time>
      </trkpt>
      <trkpt lat="46.40182" lon="6.60445">
        <ele>381.60000610352</ele>
        <time>2013-05-10T12:10:18.000Z</time>
      </trkpt>
      <trkpt lat="46.40175" lon="6.60361">
        <ele>382.60000610352</ele>
        <time>2013-05-10T12:10:26.000Z</time>
      </trkpt>
      <trkpt lat="46.40166" lon="6.60271">
        <ele>380.79998779297</ele>
        <time>2013-05-10T12:10:34.000Z</time>
      </trkpt>
      <trkpt lat="46.40165" lon="6.60202">
        <ele>381.20001220703</ele>
        <time>2013-05-10T12:10:40.000Z</time>
      </trkpt>
      <trkpt lat="46.40157" lon="6.60134">
        <ele>380.79998779297</ele>
        <time>2013-05-10T12:10:46.000Z</time>
      </trkpt>
      <trkpt lat="46.40153" lon="6.60075">
        <ele>380.79998779297</ele>
        <time>2013-05-10T12:10:51.000Z</time>
      </trkpt>
      <trkpt lat="46.40145" lon="6.59971">
        <ele>379.79998779297</ele>
        <time>2013-05-10T12:11:00.000Z</time>
      </trkpt>
      <trkpt lat="46.40144" lon="6.59898">
        <ele>380.20001220703</ele>
        <time>2013-05-10T12:11:06.000Z</time>
      </trkpt>
      <trkpt lat="46.40147" lon="6.59816">
        <ele>380.20001220703</ele>
        <time>2013-05-10T12:11:13.000Z</time>
      </trkpt>
      <trkpt lat="46.4015" lon="6.59732">
        <ele>380.20001220703</ele>
        <time>2013-05-10T12:11:20.000Z</time>
      </trkpt>
      <trkpt lat="46.40153" lon="6.59664">
        <ele>381.20001220703</ele>
        <time>2013-05-10T12:11:26.000Z</time>
      </trkpt>
      <trkpt lat="46.4016" lon="6.59638">
        <ele>381.60000610352</ele>
        <time>2013-05-10T12:11:29.000Z</time>
      </trkpt>
      <trkpt lat="46.40163" lon="6.59597">
        <ele>381.60000610352</ele>
        <time>2013-05-10T12:11:34.000Z</time>
      </trkpt>
      <trkpt lat="46.40154" lon="6.59549">
        <ele>382.20001220703</ele>
        <time>2013-05-10T12:11:39.000Z</time>
      </trkpt>
      <trkpt lat="46.40149" lon="6.5951">
        <ele>382.20001220703</ele>
        <time>2013-05-10T12:11:43.000Z</time>
      </trkpt>
      <trkpt lat="46.40141" lon="6.59448">
        <ele>381.60000610352</ele>
        <time>2013-05-10T12:11:50.000Z</time>
      </trkpt>
      <trkpt lat="46.40137" lon="6.59395">
        <ele>381.20001220703</ele>
        <time>2013-05-10T12:11:56.000Z</time>
      </trkpt>
      <trkpt lat="46.40136" lon="6.59385">
        <ele>380.20001220703</ele>
        <time>2013-05-10T12:12:00.000Z</time>
      </trkpt>
      <trkpt lat="46.40134" lon="6.59385">
        <ele>379.79998779297</ele>
        <time>2013-05-10T12:12:05.000Z</time>
      </trkpt>
      <trkpt lat="46.40126" lon="6.59392">
        <ele>379.20001220703</ele>
        <time>2013-05-10T12:12:10.000Z</time>
      </trkpt>
      <trkpt lat="46.40125" lon="6.59391">
        <ele>378.79998779297</ele>
        <time>2013-05-10T12:12:11.000Z</time>
      </trkpt>
      <trkpt lat="46.40123" lon="6.59389">
        <ele>378.79998779297</ele>
        <time>2013-05-10T12:12:14.000Z</time>
      </trkpt>
      <trkpt lat="46.4012" lon="6.59379">
        <ele>378.79998779297</ele>
        <time>2013-05-10T12:12:20.000Z</time>
      </trkpt>
      <trkpt lat="46.40124" lon="6.59362">
        <ele>379.20001220703</ele>
        <time>2013-05-10T12:12:26.000Z</time>
      </trkpt>
      <trkpt lat="46.40132" lon="6.59352">
        <ele>378.39999389648</ele>
        <time>2013-05-10T12:12:31.000Z</time>
      </trkpt>
      <trkpt lat="46.40134" lon="6.59335">
        <ele>377.39999389648</ele>
        <time>2013-05-10T12:12:36.000Z</time>
      </trkpt>
      <trkpt lat="46.40135" lon="6.59329">
        <ele>376.79998779297</ele>
        <time>2013-05-10T12:12:38.000Z</time>
      </trkpt>
      <trkpt lat="46.4014" lon="6.59331">
        <ele>376.79998779297</ele>
        <time>2013-05-10T12:12:42.000Z</time>
      </trkpt>
      <trkpt lat="46.40142" lon="6.59332">
        <ele>376.79998779297</ele>
        <time>2013-05-10T12:12:46.000Z</time>
      </trkpt>
      <trkpt lat="46.40148" lon="6.59326">
        <ele>376</ele>
        <time>2013-05-10T12:12:50.000Z</time>
      </trkpt>
      <trkpt lat="46.40155" lon="6.59292">
        <ele>376</ele>
        <time>2013-05-10T12:12:57.000Z</time>
      </trkpt>
      <trkpt lat="46.40166" lon="6.5926">
        <ele>376</ele>
        <time>2013-05-10T12:13:02.000Z</time>
      </trkpt>
      <trkpt lat="46.40178" lon="6.59209">
        <ele>376</ele>
        <time>2013-05-10T12:13:09.000Z</time>
      </trkpt>
      <trkpt lat="46.40193" lon="6.59153">
        <ele>375</ele>
        <time>2013-05-10T12:13:16.000Z</time>
      </trkpt>
      <trkpt lat="46.40204" lon="6.59088">
        <ele>376</ele>
        <time>2013-05-10T12:13:23.000Z</time>
      </trkpt>
      <trkpt lat="46.40209" lon="6.59039">
        <ele>376.39999389648</ele>
        <time>2013-05-10T12:13:28.000Z</time>
      </trkpt>
      <trkpt lat="46.40215" lon="6.58962">
        <ele>377.39999389648</ele>
        <time>2013-05-10T12:13:36.000Z</time>
      </trkpt>
      <trkpt lat="46.40214" lon="6.58886">
        <ele>376.79998779297</ele>
        <time>2013-05-10T12:13:44.000Z</time>
      </trkpt>
      <trkpt lat="46.40208" lon="6.58821">
        <ele>376.39999389648</ele>
        <time>2013-05-10T12:13:51.000Z</time>
      </trkpt>
      <trkpt lat="46.40199" lon="6.5876">
        <ele>377.39999389648</ele>
        <time>2013-05-10T12:13:58.000Z</time>
      </trkpt>
      <trkpt lat="46.40193" lon="6.58719">
        <ele>377.39999389648</ele>
        <time>2013-05-10T12:14:03.000Z</time>
      </trkpt>
      <trkpt lat="46.40182" lon="6.58676">
        <ele>376.79998779297</ele>
        <time>2013-05-10T12:14:08.000Z</time>
      </trkpt>
      <trkpt lat="46.40164" lon="6.58594">
        <ele>377.39999389648</ele>
        <time>2013-05-10T12:14:17.000Z</time>
      </trkpt>
      <trkpt lat="46.40145" lon="6.58543">
        <ele>378.79998779297</ele>
        <time>2013-05-10T12:14:23.000Z</time>
      </trkpt>
      <trkpt lat="46.40118" lon="6.58486">
        <ele>380.79998779297</ele>
        <time>2013-05-10T12:14:30.000Z</time>
      </trkpt>
      <trkpt lat="46.40097" lon="6.58442">
        <ele>381.60000610352</ele>
        <time>2013-05-10T12:14:36.000Z</time>
      </trkpt>
      <trkpt lat="46.40091" lon="6.58429">
        <ele>382.20001220703</ele>
        <time>2013-05-10T12:14:38.000Z</time>
      </trkpt>
      <trkpt lat="46.40077" lon="6.584">
        <ele>383.60000610352</ele>
        <time>2013-05-10T12:14:43.000Z</time>
      </trkpt>
      <trkpt lat="46.40059" lon="6.58357">
        <ele>385.60000610352</ele>
        <time>2013-05-10T12:14:50.000Z</time>
      </trkpt>
      <trkpt lat="46.40036" lon="6.58317">
        <ele>387</ele>
        <time>2013-05-10T12:14:57.000Z</time>
      </trkpt>
      <trkpt lat="46.4001" lon="6.58261">
        <ele>389.39999389648</ele>
        <time>2013-05-10T12:15:06.000Z</time>
      </trkpt>
      <trkpt lat="46.3999" lon="6.58219">
        <ele>391.20001220703</ele>
        <time>2013-05-10T12:15:13.000Z</time>
      </trkpt>
      <trkpt lat="46.39975" lon="6.58188">
        <ele>392.20001220703</ele>
        <time>2013-05-10T12:15:18.000Z</time>
      </trkpt>
      <trkpt lat="46.39957" lon="6.58156">
        <ele>393.20001220703</ele>
        <time>2013-05-10T12:15:23.000Z</time>
      </trkpt>
      <trkpt lat="46.39943" lon="6.58152">
        <ele>393.20001220703</ele>
        <time>2013-05-10T12:15:27.000Z</time>
      </trkpt>
      <trkpt lat="46.39935" lon="6.58152">
        <ele>393.20001220703</ele>
        <time>2013-05-10T12:15:30.000Z</time>
      </trkpt>
      <trkpt lat="46.39928" lon="6.58152">
        <ele>393.60000610352</ele>
        <time>2013-05-10T12:15:34.000Z</time>
      </trkpt>
      <trkpt lat="46.39924" lon="6.58159">
        <ele>393.60000610352</ele>
        <time>2013-05-10T12:15:37.000Z</time>
      </trkpt>
      <trkpt lat="46.39924" lon="6.58164">
        <ele>393.60000610352</ele>
        <time>2013-05-10T12:15:39.000Z</time>
      </trkpt>
      <trkpt lat="46.39923" lon="6.58168">
        <ele>394.20001220703</ele>
        <time>2013-05-10T12:15:42.000Z</time>
      </trkpt>
      <trkpt lat="46.39939" lon="6.58091">
        <ele>389.39999389648</ele>
        <time>2013-05-10T12:36:06.000Z</time>
      </trkpt>
      <trkpt lat="46.39931" lon="6.58046">
        <ele>389.39999389648</ele>
        <time>2013-05-10T12:36:12.000Z</time>
      </trkpt>
      <trkpt lat="46.39929" lon="6.58033">
        <ele>389.79998779297</ele>
        <time>2013-05-10T12:36:14.000Z</time>
      </trkpt>
      <trkpt lat="46.39926" lon="6.58008">
        <ele>388</ele>
        <time>2013-05-10T12:36:18.000Z</time>
      </trkpt>
      <trkpt lat="46.39926" lon="6.57975">
        <ele>388.79998779297</ele>
        <time>2013-05-10T12:36:23.000Z</time>
      </trkpt>
      <trkpt lat="46.39923" lon="6.57948">
        <ele>390.39999389648</ele>
        <time>2013-05-10T12:36:29.000Z</time>
      </trkpt>
      <trkpt lat="46.39923" lon="6.57948">
        <ele>390.39999389648</ele>
        <time>2013-05-10T12:36:30.000Z</time>
      </trkpt>
      <trkpt lat="46.39918" lon="6.57931">
        <ele>392.79998779297</ele>
        <time>2013-05-10T12:36:37.000Z</time>
      </trkpt>
      <trkpt lat="46.39912" lon="6.57908">
        <ele>392.79998779297</ele>
        <time>2013-05-10T12:36:42.000Z</time>
      </trkpt>
      <trkpt lat="46.39903" lon="6.57877">
        <ele>395.20001220703</ele>
        <time>2013-05-10T12:36:48.000Z</time>
      </trkpt>
      <trkpt lat="46.39901" lon="6.57854">
        <ele>396.20001220703</ele>
        <time>2013-05-10T12:36:52.000Z</time>
      </trkpt>
      <trkpt lat="46.39896" lon="6.5781">
        <ele>396.20001220703</ele>
        <time>2013-05-10T12:36:59.000Z</time>
      </trkpt>
      <trkpt lat="46.39888" lon="6.57755">
        <ele>396.60000610352</ele>
        <time>2013-05-10T12:37:06.000Z</time>
      </trkpt>
      <trkpt lat="46.39889" lon="6.57725">
        <ele>396.60000610352</ele>
        <time>2013-05-10T12:37:10.000Z</time>
      </trkpt>
      <trkpt lat="46.39893" lon="6.57686">
        <ele>396.20001220703</ele>
        <time>2013-05-10T12:37:15.000Z</time>
      </trkpt>
      <trkpt lat="46.39887" lon="6.57651">
        <ele>396.60000610352</ele>
        <time>2013-05-10T12:37:19.000Z</time>
      </trkpt>
      <trkpt lat="46.39873" lon="6.57615">
        <ele>396.60000610352</ele>
        <time>2013-05-10T12:37:23.000Z</time>
      </trkpt>
      <trkpt lat="46.39857" lon="6.57523">
        <ele>395.20001220703</ele>
        <time>2013-05-10T12:37:32.000Z</time>
      </trkpt>
      <trkpt lat="46.39842" lon="6.57409">
        <ele>394.20001220703</ele>
        <time>2013-05-10T12:37:43.000Z</time>
      </trkpt>
      <trkpt lat="46.39831" lon="6.57339">
        <ele>393.60000610352</ele>
        <time>2013-05-10T12:37:50.000Z</time>
      </trkpt>
      <trkpt lat="46.39825" lon="6.57298">
        <ele>393.60000610352</ele>
        <time>2013-05-10T12:37:54.000Z</time>
      </trkpt>
      <trkpt lat="46.39806" lon="6.57205">
        <ele>394.60000610352</ele>
        <time>2013-05-10T12:38:03.000Z</time>
      </trkpt>
      <trkpt lat="46.39795" lon="6.5713">
        <ele>395.60000610352</ele>
        <time>2013-05-10T12:38:10.000Z</time>
      </trkpt>
      <trkpt lat="46.39778" lon="6.57006">
        <ele>395.60000610352</ele>
        <time>2013-05-10T12:38:21.000Z</time>
      </trkpt>
      <trkpt lat="46.39763" lon="6.56905">
        <ele>394.60000610352</ele>
        <time>2013-05-10T12:38:30.000Z</time>
      </trkpt>
      <trkpt lat="46.39753" lon="6.56838">
        <ele>395.20001220703</ele>
        <time>2013-05-10T12:38:36.000Z</time>
      </trkpt>
      <trkpt lat="46.39742" lon="6.56746">
        <ele>395.60000610352</ele>
        <time>2013-05-10T12:38:44.000Z</time>
      </trkpt>
      <trkpt lat="46.39732" lon="6.56681">
        <ele>396.60000610352</ele>
        <time>2013-05-10T12:38:50.000Z</time>
      </trkpt>
      <trkpt lat="46.39723" lon="6.56614">
        <ele>397.60000610352</ele>
        <time>2013-05-10T12:38:56.000Z</time>
      </trkpt>
      <trkpt lat="46.39713" lon="6.56545">
        <ele>397.60000610352</ele>
        <time>2013-05-10T12:39:02.000Z</time>
      </trkpt>
      <trkpt lat="46.39703" lon="6.56473">
        <ele>397</ele>
        <time>2013-05-10T12:39:08.000Z</time>
      </trkpt>
      <trkpt lat="46.3969" lon="6.56387">
        <ele>400</ele>
        <time>2013-05-10T12:39:15.000Z</time>
      </trkpt>
      <trkpt lat="46.39675" lon="6.56299">
        <ele>402.39999389648</ele>
        <time>2013-05-10T12:39:22.000Z</time>
      </trkpt>
      <trkpt lat="46.39665" lon="6.56235">
        <ele>401.79998779297</ele>
        <time>2013-05-10T12:39:27.000Z</time>
      </trkpt>
      <trkpt lat="46.39664" lon="6.56213">
        <ele>402.39999389648</ele>
        <time>2013-05-10T12:39:29.000Z</time>
      </trkpt>
      <trkpt lat="46.39655" lon="6.56137">
        <ele>399.39999389648</ele>
        <time>2013-05-10T12:39:35.000Z</time>
      </trkpt>
      <trkpt lat="46.39645" lon="6.5607">
        <ele>398</ele>
        <time>2013-05-10T12:39:40.000Z</time>
      </trkpt>
      <trkpt lat="46.39631" lon="6.55992">
        <ele>396.60000610352</ele>
        <time>2013-05-10T12:39:46.000Z</time>
      </trkpt>
      <trkpt lat="46.39619" lon="6.55902">
        <ele>397</ele>
        <time>2013-05-10T12:39:53.000Z</time>
      </trkpt>
      <trkpt lat="46.39607" lon="6.55829">
        <ele>395.20001220703</ele>
        <time>2013-05-10T12:39:58.000Z</time>
      </trkpt>
      <trkpt lat="46.39586" lon="6.55704">
        <ele>391.79998779297</ele>
        <time>2013-05-10T12:40:07.000Z</time>
      </trkpt>
      <trkpt lat="46.39571" lon="6.55606">
        <ele>388.39999389648</ele>
        <time>2013-05-10T12:40:14.000Z</time>
      </trkpt>
      <trkpt lat="46.39563" lon="6.55567">
        <ele>387.39999389648</ele>
        <time>2013-05-10T12:40:17.000Z</time>
      </trkpt>
      <trkpt lat="46.39555" lon="6.55526">
        <ele>386.39999389648</ele>
        <time>2013-05-10T12:40:20.000Z</time>
      </trkpt>
      <trkpt lat="46.39537" lon="6.55442">
        <ele>386</ele>
        <time>2013-05-10T12:40:26.000Z</time>
      </trkpt>
      <trkpt lat="46.3953" lon="6.55394">
        <ele>385.60000610352</ele>
        <time>2013-05-10T12:40:30.000Z</time>
      </trkpt>
      <trkpt lat="46.39517" lon="6.55301">
        <ele>385.60000610352</ele>
        <time>2013-05-10T12:40:37.000Z</time>
      </trkpt>
      <trkpt lat="46.39503" lon="6.55227">
        <ele>383.60000610352</ele>
        <time>2013-05-10T12:40:43.000Z</time>
      </trkpt>
      <trkpt lat="46.39497" lon="6.55161">
        <ele>383.20001220703</ele>
        <time>2013-05-10T12:40:48.000Z</time>
      </trkpt>
      <trkpt lat="46.39493" lon="6.55107">
        <ele>384</ele>
        <time>2013-05-10T12:40:52.000Z</time>
      </trkpt>
      <trkpt lat="46.39488" lon="6.55002">
        <ele>383.20001220703</ele>
        <time>2013-05-10T12:41:00.000Z</time>
      </trkpt>
      <trkpt lat="46.39482" lon="6.54892">
        <ele>381.20001220703</ele>
        <time>2013-05-10T12:41:08.000Z</time>
      </trkpt>
      <trkpt lat="46.39478" lon="6.54796">
        <ele>378.79998779297</ele>
        <time>2013-05-10T12:41:15.000Z</time>
      </trkpt>
      <trkpt lat="46.39471" lon="6.54686">
        <ele>377.39999389648</ele>
        <time>2013-05-10T12:41:23.000Z</time>
      </trkpt>
      <trkpt lat="46.39467" lon="6.54614">
        <ele>376</ele>
        <time>2013-05-10T12:41:29.000Z</time>
      </trkpt>
      <trkpt lat="46.39467" lon="6.54594">
        <ele>376</ele>
        <time>2013-05-10T12:41:32.000Z</time>
      </trkpt>
      <trkpt lat="46.39468" lon="6.54593">
        <ele>376.39999389648</ele>
        <time>2013-05-10T12:41:38.000Z</time>
      </trkpt>
      <trkpt lat="46.39466" lon="6.54594">
        <ele>377.39999389648</ele>
        <time>2013-05-10T12:41:50.000Z</time>
      </trkpt>
      <trkpt lat="46.39461" lon="6.54594">
        <ele>377.39999389648</ele>
        <time>2013-05-10T12:42:01.000Z</time>
      </trkpt>
      <trkpt lat="46.39462" lon="6.54594">
        <ele>378.79998779297</ele>
        <time>2013-05-10T12:42:10.000Z</time>
      </trkpt>
      <trkpt lat="46.39464" lon="6.54594">
        <ele>378.79998779297</ele>
        <time>2013-05-10T12:42:18.000Z</time>
      </trkpt>
      <trkpt lat="46.39461" lon="6.54592">
        <ele>376.39999389648</ele>
        <time>2013-05-10T12:42:29.000Z</time>
      </trkpt>
      <trkpt lat="46.39461" lon="6.54592">
        <ele>376.39999389648</ele>
        <time>2013-05-10T12:42:39.000Z</time>
      </trkpt>
      <trkpt lat="46.39463" lon="6.54594">
        <ele>377.39999389648</ele>
        <time>2013-05-10T12:42:53.000Z</time>
      </trkpt>
      <trkpt lat="46.39462" lon="6.54593">
        <ele>377.39999389648</ele>
        <time>2013-05-10T12:43:02.000Z</time>
      </trkpt>
      <trkpt lat="46.39463" lon="6.54593">
        <ele>376</ele>
        <time>2013-05-10T12:43:14.000Z</time>
      </trkpt>
      <trkpt lat="46.39463" lon="6.54588">
        <ele>376</ele>
        <time>2013-05-10T12:43:19.000Z</time>
      </trkpt>
      <trkpt lat="46.39461" lon="6.54571">
        <ele>375.39999389648</ele>
        <time>2013-05-10T12:43:24.000Z</time>
      </trkpt>
      <trkpt lat="46.39461" lon="6.54539">
        <ele>376.79998779297</ele>
        <time>2013-05-10T12:43:30.000Z</time>
      </trkpt>
      <trkpt lat="46.39461" lon="6.54512">
        <ele>377.79998779297</ele>
        <time>2013-05-10T12:43:34.000Z</time>
      </trkpt>
      <trkpt lat="46.39468" lon="6.54444">
        <ele>379.20001220703</ele>
        <time>2013-05-10T12:43:42.000Z</time>
      </trkpt>
      <trkpt lat="46.39478" lon="6.54382">
        <ele>378.39999389648</ele>
        <time>2013-05-10T12:43:49.000Z</time>
      </trkpt>
      <trkpt lat="46.39487" lon="6.54326">
        <ele>378.39999389648</ele>
        <time>2013-05-10T12:43:55.000Z</time>
      </trkpt>
      <trkpt lat="46.39496" lon="6.54268">
        <ele>377.39999389648</ele>
        <time>2013-05-10T12:44:01.000Z</time>
      </trkpt>
      <trkpt lat="46.39499" lon="6.54248">
        <ele>377.39999389648</ele>
        <time>2013-05-10T12:44:03.000Z</time>
      </trkpt>
      <trkpt lat="46.39501" lon="6.54198">
        <ele>377.39999389648</ele>
        <time>2013-05-10T12:44:08.000Z</time>
      </trkpt>
      <trkpt lat="46.39502" lon="6.54107">
        <ele>377.39999389648</ele>
        <time>2013-05-10T12:44:17.000Z</time>
      </trkpt>
      <trkpt lat="46.39497" lon="6.5404">
        <ele>377.39999389648</ele>
        <time>2013-05-10T12:44:23.000Z</time>
      </trkpt>
      <trkpt lat="46.39489" lon="6.54009">
        <ele>377.39999389648</ele>
        <time>2013-05-10T12:44:26.000Z</time>
      </trkpt>
      <trkpt lat="46.39469" lon="6.53965">
        <ele>377.39999389648</ele>
        <time>2013-05-10T12:44:31.000Z</time>
      </trkpt>
      <trkpt lat="46.39431" lon="6.53905">
        <ele>378.79998779297</ele>
        <time>2013-05-10T12:44:39.000Z</time>
      </trkpt>
      <trkpt lat="46.39406" lon="6.53851">
        <ele>379.79998779297</ele>
        <time>2013-05-10T12:44:45.000Z</time>
      </trkpt>
      <trkpt lat="46.39372" lon="6.53757">
        <ele>380.79998779297</ele>
        <time>2013-05-10T12:44:54.000Z</time>
      </trkpt>
      <trkpt lat="46.39342" lon="6.53675">
        <ele>381.60000610352</ele>
        <time>2013-05-10T12:45:02.000Z</time>
      </trkpt>
      <trkpt lat="46.39321" lon="6.53624">
        <ele>381.60000610352</ele>
        <time>2013-05-10T12:45:08.000Z</time>
      </trkpt>
      <trkpt lat="46.39305" lon="6.53578">
        <ele>382.20001220703</ele>
        <time>2013-05-10T12:45:14.000Z</time>
      </trkpt>
      <trkpt lat="46.39302" lon="6.5357">
        <ele>382.20001220703</ele>
        <time>2013-05-10T12:45:15.000Z</time>
      </trkpt>
      <trkpt lat="46.39298" lon="6.53555">
        <ele>382.60000610352</ele>
        <time>2013-05-10T12:45:17.000Z</time>
      </trkpt>
      <trkpt lat="46.39294" lon="6.53511">
        <ele>382.60000610352</ele>
        <time>2013-05-10T12:45:22.000Z</time>
      </trkpt>
      <trkpt lat="46.39282" lon="6.53488">
        <ele>382.20001220703</ele>
        <time>2013-05-10T12:45:25.000Z</time>
      </trkpt>
      <trkpt lat="46.39278" lon="6.53478">
        <ele>382.20001220703</ele>
        <time>2013-05-10T12:45:26.000Z</time>
      </trkpt>
      <trkpt lat="46.39247" lon="6.53395">
        <ele>382.60000610352</ele>
        <time>2013-05-10T12:45:34.000Z</time>
      </trkpt>
      <trkpt lat="46.39206" lon="6.53308">
        <ele>384</ele>
        <time>2013-05-10T12:45:43.000Z</time>
      </trkpt>
      <trkpt lat="46.39172" lon="6.53238">
        <ele>386.39999389648</ele>
        <time>2013-05-10T12:45:51.000Z</time>
      </trkpt>
      <trkpt lat="46.39145" lon="6.53178">
        <ele>388.39999389648</ele>
        <time>2013-05-10T12:45:58.000Z</time>
      </trkpt>
      <trkpt lat="46.39123" lon="6.53117">
        <ele>388</ele>
        <time>2013-05-10T12:46:04.000Z</time>
      </trkpt>
      <trkpt lat="46.39108" lon="6.53045">
        <ele>387.39999389648</ele>
        <time>2013-05-10T12:46:10.000Z</time>
      </trkpt>
      <trkpt lat="46.39092" lon="6.52931">
        <ele>387.39999389648</ele>
        <time>2013-05-10T12:46:19.000Z</time>
      </trkpt>
      <trkpt lat="46.39074" lon="6.52819">
        <ele>388.39999389648</ele>
        <time>2013-05-10T12:46:28.000Z</time>
      </trkpt>
      <trkpt lat="46.39049" lon="6.52727">
        <ele>389.79998779297</ele>
        <time>2013-05-10T12:46:36.000Z</time>
      </trkpt>
      <trkpt lat="46.39016" lon="6.52627">
        <ele>390.79998779297</ele>
        <time>2013-05-10T12:46:45.000Z</time>
      </trkpt>
      <trkpt lat="46.38986" lon="6.52559">
        <ele>393.60000610352</ele>
        <time>2013-05-10T12:46:52.000Z</time>
      </trkpt>
      <trkpt lat="46.38954" lon="6.52502">
        <ele>396.20001220703</ele>
        <time>2013-05-10T12:46:59.000Z</time>
      </trkpt>
      <trkpt lat="46.38915" lon="6.52445">
        <ele>398.60000610352</ele>
        <time>2013-05-10T12:47:07.000Z</time>
      </trkpt>
      <trkpt lat="46.38872" lon="6.52396">
        <ele>401</ele>
        <time>2013-05-10T12:47:15.000Z</time>
      </trkpt>
      <trkpt lat="46.38818" lon="6.5234">
        <ele>403.79998779297</ele>
        <time>2013-05-10T12:47:25.000Z</time>
      </trkpt>
      <trkpt lat="46.38755" lon="6.52277">
        <ele>404.79998779297</ele>
        <time>2013-05-10T12:47:36.000Z</time>
      </trkpt>
      <trkpt lat="46.38727" lon="6.5224">
        <ele>405.20001220703</ele>
        <time>2013-05-10T12:47:41.000Z</time>
      </trkpt>
      <trkpt lat="46.38695" lon="6.52177">
        <ele>405.20001220703</ele>
        <time>2013-05-10T12:47:48.000Z</time>
      </trkpt>
      <trkpt lat="46.38677" lon="6.52121">
        <ele>404.79998779297</ele>
        <time>2013-05-10T12:47:53.000Z</time>
      </trkpt>
      <trkpt lat="46.38665" lon="6.52044">
        <ele>403.39999389648</ele>
        <time>2013-05-10T12:47:59.000Z</time>
      </trkpt>
      <trkpt lat="46.38657" lon="6.51947">
        <ele>402.79998779297</ele>
        <time>2013-05-10T12:48:06.000Z</time>
      </trkpt>
      <trkpt lat="46.38645" lon="6.51876">
        <ele>402.79998779297</ele>
        <time>2013-05-10T12:48:11.000Z</time>
      </trkpt>
      <trkpt lat="46.38607" lon="6.51765">
        <ele>400.39999389648</ele>
        <time>2013-05-10T12:48:19.000Z</time>
      </trkpt>
      <trkpt lat="46.3856" lon="6.51649">
        <ele>399.39999389648</ele>
        <time>2013-05-10T12:48:28.000Z</time>
      </trkpt>
      <trkpt lat="46.38526" lon="6.51572">
        <ele>399.39999389648</ele>
        <time>2013-05-10T12:48:35.000Z</time>
      </trkpt>
      <trkpt lat="46.38478" lon="6.51471">
        <ele>400</ele>
        <time>2013-05-10T12:48:45.000Z</time>
      </trkpt>
      <trkpt lat="46.38432" lon="6.51384">
        <ele>400.39999389648</ele>
        <time>2013-05-10T12:48:54.000Z</time>
      </trkpt>
      <trkpt lat="46.3841" lon="6.51343">
        <ele>401</ele>
        <time>2013-05-10T12:48:59.000Z</time>
      </trkpt>
      <trkpt lat="46.38393" lon="6.51304">
        <ele>401</ele>
        <time>2013-05-10T12:49:04.000Z</time>
      </trkpt>
      <trkpt lat="46.38355" lon="6.51237">
        <ele>401.79998779297</ele>
        <time>2013-05-10T12:49:12.000Z</time>
      </trkpt>
      <trkpt lat="46.38315" lon="6.51156">
        <ele>403.39999389648</ele>
        <time>2013-05-10T12:49:21.000Z</time>
      </trkpt>
      <trkpt lat="46.38297" lon="6.51095">
        <ele>403.79998779297</ele>
        <time>2013-05-10T12:49:27.000Z</time>
      </trkpt>
      <trkpt lat="46.38288" lon="6.5103">
        <ele>404.79998779297</ele>
        <time>2013-05-10T12:49:33.000Z</time>
      </trkpt>
      <trkpt lat="46.38287" lon="6.50954">
        <ele>405.79998779297</ele>
        <time>2013-05-10T12:49:40.000Z</time>
      </trkpt>
      <trkpt lat="46.38292" lon="6.50862">
        <ele>406.60000610352</ele>
        <time>2013-05-10T12:49:49.000Z</time>
      </trkpt>
      <trkpt lat="46.38294" lon="6.508">
        <ele>407.20001220703</ele>
        <time>2013-05-10T12:49:56.000Z</time>
      </trkpt>
      <trkpt lat="46.38296" lon="6.5075">
        <ele>407.60000610352</ele>
        <time>2013-05-10T12:50:02.000Z</time>
      </trkpt>
      <trkpt lat="46.38299" lon="6.50681">
        <ele>407.60000610352</ele>
        <time>2013-05-10T12:50:09.000Z</time>
      </trkpt>
      <trkpt lat="46.383" lon="6.50629">
        <ele>408.20001220703</ele>
        <time>2013-05-10T12:50:14.000Z</time>
      </trkpt>
      <trkpt lat="46.38301" lon="6.5061">
        <ele>409</ele>
        <time>2013-05-10T12:50:16.000Z</time>
      </trkpt>
      <trkpt lat="46.38295" lon="6.5053">
        <ele>409.60000610352</ele>
        <time>2013-05-10T12:50:23.000Z</time>
      </trkpt>
      <trkpt lat="46.38277" lon="6.50442">
        <ele>408.20001220703</ele>
        <time>2013-05-10T12:50:31.000Z</time>
      </trkpt>
      <trkpt lat="46.38265" lon="6.50385">
        <ele>407.60000610352</ele>
        <time>2013-05-10T12:50:36.000Z</time>
      </trkpt>
      <trkpt lat="46.38252" lon="6.50333">
        <ele>407.60000610352</ele>
        <time>2013-05-10T12:50:41.000Z</time>
      </trkpt>
      <trkpt lat="46.38248" lon="6.50315">
        <ele>408.20001220703</ele>
        <time>2013-05-10T12:50:43.000Z</time>
      </trkpt>
      <trkpt lat="46.38245" lon="6.50299">
        <ele>408.20001220703</ele>
        <time>2013-05-10T12:50:45.000Z</time>
      </trkpt>
      <trkpt lat="46.38242" lon="6.50274">
        <ele>408.60000610352</ele>
        <time>2013-05-10T12:50:48.000Z</time>
      </trkpt>
      <trkpt lat="46.38227" lon="6.50219">
        <ele>409.60000610352</ele>
        <time>2013-05-10T12:50:55.000Z</time>
      </trkpt>
      <trkpt lat="46.38211" lon="6.5017">
        <ele>410</ele>
        <time>2013-05-10T12:51:01.000Z</time>
      </trkpt>
      <trkpt lat="46.38192" lon="6.5011">
        <ele>411.39999389648</ele>
        <time>2013-05-10T12:51:08.000Z</time>
      </trkpt>
      <trkpt lat="46.38169" lon="6.50036">
        <ele>413</ele>
        <time>2013-05-10T12:51:17.000Z</time>
      </trkpt>
      <trkpt lat="46.38154" lon="6.49988">
        <ele>413.39999389648</ele>
        <time>2013-05-10T12:51:23.000Z</time>
      </trkpt>
      <trkpt lat="46.3814" lon="6.49941">
        <ele>414.79998779297</ele>
        <time>2013-05-10T12:51:29.000Z</time>
      </trkpt>
      <trkpt lat="46.38134" lon="6.49917">
        <ele>415.79998779297</ele>
        <time>2013-05-10T12:51:32.000Z</time>
      </trkpt>
      <trkpt lat="46.38124" lon="6.49845">
        <ele>419.20001220703</ele>
        <time>2013-05-10T12:51:41.000Z</time>
      </trkpt>
      <trkpt lat="46.38121" lon="6.49793">
        <ele>421.60000610352</ele>
        <time>2013-05-10T12:51:48.000Z</time>
      </trkpt>
      <trkpt lat="46.38121" lon="6.49786">
        <ele>421.60000610352</ele>
        <time>2013-05-10T12:51:49.000Z</time>
      </trkpt>
      <trkpt lat="46.38115" lon="6.49753">
        <ele>423</ele>
        <time>2013-05-10T12:51:54.000Z</time>
      </trkpt>
      <trkpt lat="46.38114" lon="6.49718">
        <ele>423</ele>
        <time>2013-05-10T12:51:59.000Z</time>
      </trkpt>
      <trkpt lat="46.38113" lon="6.4971">
        <ele>423.39999389648</ele>
        <time>2013-05-10T12:52:00.000Z</time>
      </trkpt>
      <trkpt lat="46.38111" lon="6.49695">
        <ele>423.39999389648</ele>
        <time>2013-05-10T12:52:02.000Z</time>
      </trkpt>
      <trkpt lat="46.38112" lon="6.49672">
        <ele>424</ele>
        <time>2013-05-10T12:52:05.000Z</time>
      </trkpt>
      <trkpt lat="46.38113" lon="6.49606">
        <ele>424.39999389648</ele>
        <time>2013-05-10T12:52:13.000Z</time>
      </trkpt>
      <trkpt lat="46.38108" lon="6.49569">
        <ele>425.39999389648</ele>
        <time>2013-05-10T12:52:18.000Z</time>
      </trkpt>
      <trkpt lat="46.38103" lon="6.49548">
        <ele>426</ele>
        <time>2013-05-10T12:52:21.000Z</time>
      </trkpt>
      <trkpt lat="46.38089" lon="6.49522">
        <ele>426</ele>
        <time>2013-05-10T12:52:26.000Z</time>
      </trkpt>
      <trkpt lat="46.38087" lon="6.49516">
        <ele>426</ele>
        <time>2013-05-10T12:52:27.000Z</time>
      </trkpt>
      <trkpt lat="46.38056" lon="6.49462">
        <ele>426.79998779297</ele>
        <time>2013-05-10T12:52:36.000Z</time>
      </trkpt>
      <trkpt lat="46.38032" lon="6.49412">
        <ele>427.39999389648</ele>
        <time>2013-05-10T12:52:43.000Z</time>
      </trkpt>
      <trkpt lat="46.37995" lon="6.49338">
        <ele>427.79998779297</ele>
        <time>2013-05-10T12:52:53.000Z</time>
      </trkpt>
      <trkpt lat="46.37959" lon="6.49277">
        <ele>427.79998779297</ele>
        <time>2013-05-10T12:53:01.000Z</time>
      </trkpt>
      <trkpt lat="46.37914" lon="6.49218">
        <ele>427.79998779297</ele>
        <time>2013-05-10T12:53:09.000Z</time>
      </trkpt>
      <trkpt lat="46.3786" lon="6.49167">
        <ele>427.79998779297</ele>
        <time>2013-05-10T12:53:17.000Z</time>
      </trkpt>
      <trkpt lat="46.37764" lon="6.49087">
        <ele>429.20001220703</ele>
        <time>2013-05-10T12:53:31.000Z</time>
      </trkpt>
      <trkpt lat="46.3773" lon="6.49059">
        <ele>429.79998779297</ele>
        <time>2013-05-10T12:53:37.000Z</time>
      </trkpt>
      <trkpt lat="46.37726" lon="6.49055">
        <ele>429.79998779297</ele>
        <time>2013-05-10T12:53:38.000Z</time>
      </trkpt>
      <trkpt lat="46.37689" lon="6.49027">
        <ele>429.79998779297</ele>
        <time>2013-05-10T12:53:45.000Z</time>
      </trkpt>
      <trkpt lat="46.37624" lon="6.4898">
        <ele>431.60000610352</ele>
        <time>2013-05-10T12:53:56.000Z</time>
      </trkpt>
      <trkpt lat="46.3756" lon="6.48934">
        <ele>433.60000610352</ele>
        <time>2013-05-10T12:54:07.000Z</time>
      </trkpt>
      <trkpt lat="46.37496" lon="6.48881">
        <ele>434.60000610352</ele>
        <time>2013-05-10T12:54:18.000Z</time>
      </trkpt>
      <trkpt lat="46.37419" lon="6.48813">
        <ele>436</ele>
        <time>2013-05-10T12:54:31.000Z</time>
      </trkpt>
      <trkpt lat="46.37359" lon="6.48755">
        <ele>437.39999389648</ele>
        <time>2013-05-10T12:54:41.000Z</time>
      </trkpt>
      <trkpt lat="46.37298" lon="6.48698">
        <ele>438</ele>
        <time>2013-05-10T12:54:51.000Z</time>
      </trkpt>
      <trkpt lat="46.37235" lon="6.48638">
        <ele>438.79998779297</ele>
        <time>2013-05-10T12:55:02.000Z</time>
      </trkpt>
      <trkpt lat="46.37231" lon="6.48634">
        <ele>438.79998779297</ele>
        <time>2013-05-10T12:55:03.000Z</time>
      </trkpt>
      <trkpt lat="46.37207" lon="6.48611">
        <ele>439.39999389648</ele>
        <time>2013-05-10T12:55:10.000Z</time>
      </trkpt>
      <trkpt lat="46.37179" lon="6.48584">
        <ele>439.39999389648</ele>
        <time>2013-05-10T12:55:16.000Z</time>
      </trkpt>
      <trkpt lat="46.3712" lon="6.4853">
        <ele>440.39999389648</ele>
        <time>2013-05-10T12:55:27.000Z</time>
      </trkpt>
      <trkpt lat="46.37086" lon="6.485">
        <ele>441.20001220703</ele>
        <time>2013-05-10T12:55:34.000Z</time>
      </trkpt>
      <trkpt lat="46.3707" lon="6.48489">
        <ele>441.20001220703</ele>
        <time>2013-05-10T12:55:39.000Z</time>
      </trkpt>
      <trkpt lat="46.37058" lon="6.48484">
        <ele>441.20001220703</ele>
        <time>2013-05-10T12:55:45.000Z</time>
      </trkpt>
      <trkpt lat="46.37037" lon="6.48473">
        <ele>441.20001220703</ele>
        <time>2013-05-10T12:55:50.000Z</time>
      </trkpt>
      <trkpt lat="46.3701" lon="6.48457">
        <ele>441.79998779297</ele>
        <time>2013-05-10T12:55:55.000Z</time>
      </trkpt>
      <trkpt lat="46.37" lon="6.48448">
        <ele>442.79998779297</ele>
        <time>2013-05-10T12:55:57.000Z</time>
      </trkpt>
      <trkpt lat="46.36956" lon="6.4842">
        <ele>445.20001220703</ele>
        <time>2013-05-10T12:56:06.000Z</time>
      </trkpt>
      <trkpt lat="46.36924" lon="6.48388">
        <ele>447.60000610352</ele>
        <time>2013-05-10T12:56:14.000Z</time>
      </trkpt>
      <trkpt lat="46.36896" lon="6.48348">
        <ele>450</ele>
        <time>2013-05-10T12:56:22.000Z</time>
      </trkpt>
      <trkpt lat="46.36867" lon="6.48306">
        <ele>451.79998779297</ele>
        <time>2013-05-10T12:56:30.000Z</time>
      </trkpt>
      <trkpt lat="46.3685" lon="6.48278">
        <ele>452.79998779297</ele>
        <time>2013-05-10T12:56:35.000Z</time>
      </trkpt>
      <trkpt lat="46.36842" lon="6.48265">
        <ele>452.79998779297</ele>
        <time>2013-05-10T12:56:39.000Z</time>
      </trkpt>
      <trkpt lat="46.36841" lon="6.48263">
        <ele>452.79998779297</ele>
        <time>2013-05-10T12:56:40.000Z</time>
      </trkpt>
      <trkpt lat="46.36833" lon="6.48237">
        <ele>452.79998779297</ele>
        <time>2013-05-10T12:56:46.000Z</time>
      </trkpt>
      <trkpt lat="46.36819" lon="6.48201">
        <ele>451.39999389648</ele>
        <time>2013-05-10T12:56:51.000Z</time>
      </trkpt>
      <trkpt lat="46.36798" lon="6.48143">
        <ele>450.39999389648</ele>
        <time>2013-05-10T12:56:57.000Z</time>
      </trkpt>
      <trkpt lat="46.36769" lon="6.48061">
        <ele>448</ele>
        <time>2013-05-10T12:57:04.000Z</time>
      </trkpt>
      <trkpt lat="46.3674" lon="6.47972">
        <ele>446</ele>
        <time>2013-05-10T12:57:11.000Z</time>
      </trkpt>
      <trkpt lat="46.36722" lon="6.47905">
        <ele>445.60000610352</ele>
        <time>2013-05-10T12:57:17.000Z</time>
      </trkpt>
      <trkpt lat="46.36701" lon="6.47848">
        <ele>446.60000610352</ele>
        <time>2013-05-10T12:57:23.000Z</time>
      </trkpt>
      <trkpt lat="46.3668" lon="6.47794">
        <ele>446.60000610352</ele>
        <time>2013-05-10T12:57:29.000Z</time>
      </trkpt>
      <trkpt lat="46.36657" lon="6.47735">
        <ele>445.20001220703</ele>
        <time>2013-05-10T12:57:35.000Z</time>
      </trkpt>
      <trkpt lat="46.36649" lon="6.47713">
        <ele>444.60000610352</ele>
        <time>2013-05-10T12:57:37.000Z</time>
      </trkpt>
      <trkpt lat="46.36645" lon="6.47667">
        <ele>441.79998779297</ele>
        <time>2013-05-10T12:57:41.000Z</time>
      </trkpt>
      <trkpt lat="46.36653" lon="6.47647">
        <ele>440.39999389648</ele>
        <time>2013-05-10T12:57:43.000Z</time>
      </trkpt>
      <trkpt lat="46.36675" lon="6.47609">
        <ele>437</ele>
        <time>2013-05-10T12:57:48.000Z</time>
      </trkpt>
      <trkpt lat="46.36677" lon="6.47586">
        <ele>437.39999389648</ele>
        <time>2013-05-10T12:57:52.000Z</time>
      </trkpt>
      <trkpt lat="46.36673" lon="6.47572">
        <ele>437.39999389648</ele>
        <time>2013-05-10T12:57:54.000Z</time>
      </trkpt>
      <trkpt lat="46.36678" lon="6.47539">
        <ele>437.39999389648</ele>
        <time>2013-05-10T12:57:58.000Z</time>
      </trkpt>
      <trkpt lat="46.36683" lon="6.47532">
        <ele>437.39999389648</ele>
        <time>2013-05-10T12:57:59.000Z</time>
      </trkpt>
      <trkpt lat="46.36736" lon="6.47481">
        <ele>437</ele>
        <time>2013-05-10T12:58:07.000Z</time>
      </trkpt>
      <trkpt lat="46.36781" lon="6.47434">
        <ele>437.39999389648</ele>
        <time>2013-05-10T12:58:14.000Z</time>
      </trkpt>
      <trkpt lat="46.3683" lon="6.47384">
        <ele>438</ele>
        <time>2013-05-10T12:58:22.000Z</time>
      </trkpt>
      <trkpt lat="46.36861" lon="6.47354">
        <ele>437.39999389648</ele>
        <time>2013-05-10T12:58:28.000Z</time>
      </trkpt>
      <trkpt lat="46.36876" lon="6.47338">
        <ele>437.39999389648</ele>
        <time>2013-05-10T12:58:33.000Z</time>
      </trkpt>
      <trkpt lat="46.36893" lon="6.47318">
        <ele>436</ele>
        <time>2013-05-10T12:58:37.000Z</time>
      </trkpt>
      <trkpt lat="46.3693" lon="6.47277">
        <ele>434</ele>
        <time>2013-05-10T12:58:43.000Z</time>
      </trkpt>
      <trkpt lat="46.36981" lon="6.47224">
        <ele>431.60000610352</ele>
        <time>2013-05-10T12:58:50.000Z</time>
      </trkpt>
      <trkpt lat="46.37032" lon="6.47169">
        <ele>428.79998779297</ele>
        <time>2013-05-10T12:58:57.000Z</time>
      </trkpt>
      <trkpt lat="46.3706" lon="6.47133">
        <ele>428.39999389648</ele>
        <time>2013-05-10T12:59:02.000Z</time>
      </trkpt>
      <trkpt lat="46.37071" lon="6.47125">
        <ele>427.39999389648</ele>
        <time>2013-05-10T12:59:05.000Z</time>
      </trkpt>
      <trkpt lat="46.37073" lon="6.47123">
        <ele>427.39999389648</ele>
        <time>2013-05-10T12:59:06.000Z</time>
      </trkpt>
      <trkpt lat="46.37077" lon="6.47107">
        <ele>426.79998779297</ele>
        <time>2013-05-10T12:59:12.000Z</time>
      </trkpt>
      <trkpt lat="46.37071" lon="6.47092">
        <ele>427.39999389648</ele>
        <time>2013-05-10T12:59:15.000Z</time>
      </trkpt>
      <trkpt lat="46.37069" lon="6.47086">
        <ele>427.39999389648</ele>
        <time>2013-05-10T12:59:16.000Z</time>
      </trkpt>
      <trkpt lat="46.37061" lon="6.47061">
        <ele>427.79998779297</ele>
        <time>2013-05-10T12:59:19.000Z</time>
      </trkpt>
      <trkpt lat="46.37037" lon="6.46987">
        <ele>428.79998779297</ele>
        <time>2013-05-10T12:59:27.000Z</time>
      </trkpt>
      <trkpt lat="46.37013" lon="6.46911">
        <ele>427.79998779297</ele>
        <time>2013-05-10T12:59:34.000Z</time>
      </trkpt>
      <trkpt lat="46.36991" lon="6.46845">
        <ele>427.79998779297</ele>
        <time>2013-05-10T12:59:40.000Z</time>
      </trkpt>
      <trkpt lat="46.36976" lon="6.46776">
        <ele>427.39999389648</ele>
        <time>2013-05-10T12:59:46.000Z</time>
      </trkpt>
      <trkpt lat="46.3697" lon="6.46705">
        <ele>426.79998779297</ele>
        <time>2013-05-10T12:59:52.000Z</time>
      </trkpt>
      <trkpt lat="46.36963" lon="6.46634">
        <ele>426.79998779297</ele>
        <time>2013-05-10T12:59:58.000Z</time>
      </trkpt>
      <trkpt lat="46.36952" lon="6.46536">
        <ele>426</ele>
        <time>2013-05-10T13:00:06.000Z</time>
      </trkpt>
      <trkpt lat="46.36936" lon="6.46426">
        <ele>426</ele>
        <time>2013-05-10T13:00:15.000Z</time>
      </trkpt>
      <trkpt lat="46.36911" lon="6.4633">
        <ele>425.39999389648</ele>
        <time>2013-05-10T13:00:23.000Z</time>
      </trkpt>
      <trkpt lat="46.36883" lon="6.46231">
        <ele>426.39999389648</ele>
        <time>2013-05-10T13:00:32.000Z</time>
      </trkpt>
      <trkpt lat="46.36856" lon="6.46165">
        <ele>427.39999389648</ele>
        <time>2013-05-10T13:00:39.000Z</time>
      </trkpt>
      <trkpt lat="46.36813" lon="6.46076">
        <ele>428.39999389648</ele>
        <time>2013-05-10T13:00:49.000Z</time>
      </trkpt>
      <trkpt lat="46.36766" lon="6.45981">
        <ele>429.79998779297</ele>
        <time>2013-05-10T13:01:00.000Z</time>
      </trkpt>
      <trkpt lat="46.36731" lon="6.45901">
        <ele>431.20001220703</ele>
        <time>2013-05-10T13:01:09.000Z</time>
      </trkpt>
      <trkpt lat="46.36696" lon="6.45794">
        <ele>431.60000610352</ele>
        <time>2013-05-10T13:01:20.000Z</time>
      </trkpt>
      <trkpt lat="46.36666" lon="6.45701">
        <ele>431.60000610352</ele>
        <time>2013-05-10T13:01:29.000Z</time>
      </trkpt>
      <trkpt lat="46.36631" lon="6.45625">
        <ele>430.79998779297</ele>
        <time>2013-05-10T13:01:37.000Z</time>
      </trkpt>
      <trkpt lat="46.36591" lon="6.45555">
        <ele>430.20001220703</ele>
        <time>2013-05-10T13:01:45.000Z</time>
      </trkpt>
      <trkpt lat="46.36557" lon="6.45526">
        <ele>429.79998779297</ele>
        <time>2013-05-10T13:01:50.000Z</time>
      </trkpt>
      <trkpt lat="46.365" lon="6.45496">
        <ele>428.39999389648</ele>
        <time>2013-05-10T13:01:57.000Z</time>
      </trkpt>
      <trkpt lat="46.36463" lon="6.45464">
        <ele>427.79998779297</ele>
        <time>2013-05-10T13:02:02.000Z</time>
      </trkpt>
      <trkpt lat="46.36414" lon="6.45405">
        <ele>426.79998779297</ele>
        <time>2013-05-10T13:02:09.000Z</time>
      </trkpt>
      <trkpt lat="46.36348" lon="6.45318">
        <ele>426</ele>
        <time>2013-05-10T13:02:19.000Z</time>
      </trkpt>
      <trkpt lat="46.36305" lon="6.45248">
        <ele>425</ele>
        <time>2013-05-10T13:02:26.000Z</time>
      </trkpt>
      <trkpt lat="46.36239" lon="6.45131">
        <ele>422.60000610352</ele>
        <time>2013-05-10T13:02:37.000Z</time>
      </trkpt>
      <trkpt lat="46.36194" lon="6.45063">
        <ele>421</ele>
        <time>2013-05-10T13:02:44.000Z</time>
      </trkpt>
      <trkpt lat="46.36156" lon="6.45037">
        <ele>422</ele>
        <time>2013-05-10T13:02:49.000Z</time>
      </trkpt>
      <trkpt lat="46.36122" lon="6.45027">
        <ele>424</ele>
        <time>2013-05-10T13:02:54.000Z</time>
      </trkpt>
      <trkpt lat="46.36087" lon="6.45026">
        <ele>425.39999389648</ele>
        <time>2013-05-10T13:03:00.000Z</time>
      </trkpt>
      <trkpt lat="46.36056" lon="6.45042">
        <ele>426.79998779297</ele>
        <time>2013-05-10T13:03:06.000Z</time>
      </trkpt>
      <trkpt lat="46.36017" lon="6.4507">
        <ele>428.39999389648</ele>
        <time>2013-05-10T13:03:13.000Z</time>
      </trkpt>
      <trkpt lat="46.35965" lon="6.45106">
        <ele>429.79998779297</ele>
        <time>2013-05-10T13:03:22.000Z</time>
      </trkpt>
      <trkpt lat="46.35918" lon="6.45131">
        <ele>430.20001220703</ele>
        <time>2013-05-10T13:03:30.000Z</time>
      </trkpt>
      <trkpt lat="46.35911" lon="6.45133">
        <ele>430.79998779297</ele>
        <time>2013-05-10T13:03:31.000Z</time>
      </trkpt>
      <trkpt lat="46.35888" lon="6.4512">
        <ele>430.20001220703</ele>
        <time>2013-05-10T13:03:35.000Z</time>
      </trkpt>
      <trkpt lat="46.35878" lon="6.45108">
        <ele>430.20001220703</ele>
        <time>2013-05-10T13:03:37.000Z</time>
      </trkpt>
      <trkpt lat="46.35853" lon="6.45099">
        <ele>430.20001220703</ele>
        <time>2013-05-10T13:03:41.000Z</time>
      </trkpt>
      <trkpt lat="46.35828" lon="6.45106">
        <ele>430.79998779297</ele>
        <time>2013-05-10T13:03:45.000Z</time>
      </trkpt>
      <trkpt lat="46.35822" lon="6.45104">
        <ele>430.79998779297</ele>
        <time>2013-05-10T13:03:46.000Z</time>
      </trkpt>
      <trkpt lat="46.35803" lon="6.45096">
        <ele>430.79998779297</ele>
        <time>2013-05-10T13:03:49.000Z</time>
      </trkpt>
      <trkpt lat="46.35781" lon="6.4507">
        <ele>430.20001220703</ele>
        <time>2013-05-10T13:03:53.000Z</time>
      </trkpt>
      <trkpt lat="46.3574" lon="6.44989">
        <ele>429.20001220703</ele>
        <time>2013-05-10T13:04:02.000Z</time>
      </trkpt>
      <trkpt lat="46.35702" lon="6.44919">
        <ele>427.39999389648</ele>
        <time>2013-05-10T13:04:09.000Z</time>
      </trkpt>
      <trkpt lat="46.35656" lon="6.44854">
        <ele>426.39999389648</ele>
        <time>2013-05-10T13:04:16.000Z</time>
      </trkpt>
      <trkpt lat="46.35604" lon="6.44804">
        <ele>426</ele>
        <time>2013-05-10T13:04:23.000Z</time>
      </trkpt>
      <trkpt lat="46.35561" lon="6.44758">
        <ele>426</ele>
        <time>2013-05-10T13:04:29.000Z</time>
      </trkpt>
      <trkpt lat="46.35517" lon="6.44694">
        <ele>426.39999389648</ele>
        <time>2013-05-10T13:04:36.000Z</time>
      </trkpt>
      <trkpt lat="46.3549" lon="6.44639">
        <ele>427.79998779297</ele>
        <time>2013-05-10T13:04:42.000Z</time>
      </trkpt>
      <trkpt lat="46.35467" lon="6.4458">
        <ele>429.20001220703</ele>
        <time>2013-05-10T13:04:49.000Z</time>
      </trkpt>
      <trkpt lat="46.35436" lon="6.44492">
        <ele>432.20001220703</ele>
        <time>2013-05-10T13:05:00.000Z</time>
      </trkpt>
      <trkpt lat="46.35408" lon="6.44413">
        <ele>434.60000610352</ele>
        <time>2013-05-10T13:05:10.000Z</time>
      </trkpt>
      <trkpt lat="46.35383" lon="6.44338">
        <ele>435</ele>
        <time>2013-05-10T13:05:19.000Z</time>
      </trkpt>
      <trkpt lat="46.35358" lon="6.4427">
        <ele>435</ele>
        <time>2013-05-10T13:05:27.000Z</time>
      </trkpt>
      <trkpt lat="46.3534" lon="6.44215">
        <ele>435</ele>
        <time>2013-05-10T13:05:33.000Z</time>
      </trkpt>
      <trkpt lat="46.35331" lon="6.44189">
        <ele>435.60000610352</ele>
        <time>2013-05-10T13:05:36.000Z</time>
      </trkpt>
      <trkpt lat="46.35326" lon="6.44164">
        <ele>435</ele>
        <time>2013-05-10T13:05:39.000Z</time>
      </trkpt>
      <trkpt lat="46.3531" lon="6.44112">
        <ele>434.60000610352</ele>
        <time>2013-05-10T13:05:45.000Z</time>
      </trkpt>
      <trkpt lat="46.3529" lon="6.44045">
        <ele>434.60000610352</ele>
        <time>2013-05-10T13:05:52.000Z</time>
      </trkpt>
      <trkpt lat="46.35272" lon="6.43991">
        <ele>435</ele>
        <time>2013-05-10T13:05:58.000Z</time>
      </trkpt>
      <trkpt lat="46.3527" lon="6.43966">
        <ele>435</ele>
        <time>2013-05-10T13:06:01.000Z</time>
      </trkpt>
      <trkpt lat="46.35262" lon="6.43943">
        <ele>435.60000610352</ele>
        <time>2013-05-10T13:06:05.000Z</time>
      </trkpt>
      <trkpt lat="46.35256" lon="6.43924">
        <ele>435.60000610352</ele>
        <time>2013-05-10T13:06:09.000Z</time>
      </trkpt>
      <trkpt lat="46.35262" lon="6.43917">
        <ele>435.60000610352</ele>
        <time>2013-05-10T13:06:11.000Z</time>
      </trkpt>
      <trkpt lat="46.35295" lon="6.43885">
        <ele>436</ele>
        <time>2013-05-10T13:06:19.000Z</time>
      </trkpt>
      <trkpt lat="46.35308" lon="6.43869">
        <ele>436.39999389648</ele>
        <time>2013-05-10T13:06:22.000Z</time>
      </trkpt>
      <trkpt lat="46.35325" lon="6.4383">
        <ele>436</ele>
        <time>2013-05-10T13:06:27.000Z</time>
      </trkpt>
      <trkpt lat="46.35343" lon="6.43748">
        <ele>434.60000610352</ele>
        <time>2013-05-10T13:06:35.000Z</time>
      </trkpt>
      <trkpt lat="46.3536" lon="6.43696">
        <ele>433.20001220703</ele>
        <time>2013-05-10T13:06:40.000Z</time>
      </trkpt>
      <trkpt lat="46.35364" lon="6.43686">
        <ele>432.60000610352</ele>
        <time>2013-05-10T13:06:41.000Z</time>
      </trkpt>
      <trkpt lat="46.35398" lon="6.4363">
        <ele>430.20001220703</ele>
        <time>2013-05-10T13:06:47.000Z</time>
      </trkpt>
      <trkpt lat="46.35414" lon="6.43599">
        <ele>429.20001220703</ele>
        <time>2013-05-10T13:06:50.000Z</time>
      </trkpt>
      <trkpt lat="46.35477" lon="6.4349">
        <ele>426.39999389648</ele>
        <time>2013-05-10T13:07:01.000Z</time>
      </trkpt>
      <trkpt lat="46.35514" lon="6.43423">
        <ele>423</ele>
        <time>2013-05-10T13:07:07.000Z</time>
      </trkpt>
      <trkpt lat="46.3556" lon="6.43339">
        <ele>417.20001220703</ele>
        <time>2013-05-10T13:07:14.000Z</time>
      </trkpt>
      <trkpt lat="46.35596" lon="6.43279">
        <ele>413.39999389648</ele>
        <time>2013-05-10T13:07:19.000Z</time>
      </trkpt>
      <trkpt lat="46.35611" lon="6.43239">
        <ele>411.39999389648</ele>
        <time>2013-05-10T13:07:22.000Z</time>
      </trkpt>
      <trkpt lat="46.35612" lon="6.43209">
        <ele>410.60000610352</ele>
        <time>2013-05-10T13:07:24.000Z</time>
      </trkpt>
      <trkpt lat="46.35608" lon="6.43104">
        <ele>408.20001220703</ele>
        <time>2013-05-10T13:07:31.000Z</time>
      </trkpt>
      <trkpt lat="46.35607" lon="6.43019">
        <ele>406.20001220703</ele>
        <time>2013-05-10T13:07:37.000Z</time>
      </trkpt>
      <trkpt lat="46.35611" lon="6.4295">
        <ele>404.79998779297</ele>
        <time>2013-05-10T13:07:42.000Z</time>
      </trkpt>
      <trkpt lat="46.35612" lon="6.42882">
        <ele>404.20001220703</ele>
        <time>2013-05-10T13:07:47.000Z</time>
      </trkpt>
      <trkpt lat="46.35603" lon="6.42805">
        <ele>404.20001220703</ele>
        <time>2013-05-10T13:07:53.000Z</time>
      </trkpt>
      <trkpt lat="46.35592" lon="6.42749">
        <ele>404.79998779297</ele>
        <time>2013-05-10T13:07:58.000Z</time>
      </trkpt>
      <trkpt lat="46.35572" lon="6.42707">
        <ele>405.79998779297</ele>
        <time>2013-05-10T13:08:03.000Z</time>
      </trkpt>
      <trkpt lat="46.35566" lon="6.42672">
        <ele>406.20001220703</ele>
        <time>2013-05-10T13:08:07.000Z</time>
      </trkpt>
      <trkpt lat="46.35582" lon="6.42597">
        <ele>405.20001220703</ele>
        <time>2013-05-10T13:08:15.000Z</time>
      </trkpt>
      <trkpt lat="46.35586" lon="6.42537">
        <ele>406.60000610352</ele>
        <time>2013-05-10T13:08:21.000Z</time>
      </trkpt>
      <trkpt lat="46.35588" lon="6.42481">
        <ele>407.20001220703</ele>
        <time>2013-05-10T13:08:27.000Z</time>
      </trkpt>
      <trkpt lat="46.35589" lon="6.42391">
        <ele>407.20001220703</ele>
        <time>2013-05-10T13:08:36.000Z</time>
      </trkpt>
      <trkpt lat="46.35586" lon="6.42302">
        <ele>408.60000610352</ele>
        <time>2013-05-10T13:08:45.000Z</time>
      </trkpt>
      <trkpt lat="46.35581" lon="6.42244">
        <ele>409.60000610352</ele>
        <time>2013-05-10T13:08:51.000Z</time>
      </trkpt>
      <trkpt lat="46.35582" lon="6.42215">
        <ele>410</ele>
        <time>2013-05-10T13:08:54.000Z</time>
      </trkpt>
      <trkpt lat="46.35572" lon="6.4218">
        <ele>410.60000610352</ele>
        <time>2013-05-10T13:08:58.000Z</time>
      </trkpt>
      <trkpt lat="46.35561" lon="6.42149">
        <ele>411</ele>
        <time>2013-05-10T13:09:02.000Z</time>
      </trkpt>
      <trkpt lat="46.35566" lon="6.42118">
        <ele>411.39999389648</ele>
        <time>2013-05-10T13:09:06.000Z</time>
      </trkpt>
      <trkpt lat="46.35563" lon="6.42066">
        <ele>411.39999389648</ele>
        <time>2013-05-10T13:09:12.000Z</time>
      </trkpt>
      <trkpt lat="46.35559" lon="6.41989">
        <ele>412</ele>
        <time>2013-05-10T13:09:20.000Z</time>
      </trkpt>
      <trkpt lat="46.35558" lon="6.41918">
        <ele>413</ele>
        <time>2013-05-10T13:09:27.000Z</time>
      </trkpt>
      <trkpt lat="46.35558" lon="6.41844">
        <ele>413.39999389648</ele>
        <time>2013-05-10T13:09:34.000Z</time>
      </trkpt>
      <trkpt lat="46.35558" lon="6.41833">
        <ele>413.39999389648</ele>
        <time>2013-05-10T13:09:35.000Z</time>
      </trkpt>
      <trkpt lat="46.3555" lon="6.41779">
        <ele>413</ele>
        <time>2013-05-10T13:09:40.000Z</time>
      </trkpt>
      <trkpt lat="46.3553" lon="6.41702">
        <ele>413</ele>
        <time>2013-05-10T13:09:47.000Z</time>
      </trkpt>
      <trkpt lat="46.35513" lon="6.41618">
        <ele>412</ele>
        <time>2013-05-10T13:09:54.000Z</time>
      </trkpt>
      <trkpt lat="46.35494" lon="6.41521">
        <ele>411.39999389648</ele>
        <time>2013-05-10T13:10:02.000Z</time>
      </trkpt>
      <trkpt lat="46.35476" lon="6.41454">
        <ele>411</ele>
        <time>2013-05-10T13:10:08.000Z</time>
      </trkpt>
      <trkpt lat="46.35446" lon="6.4137">
        <ele>410</ele>
        <time>2013-05-10T13:10:16.000Z</time>
      </trkpt>
      <trkpt lat="46.3541" lon="6.41308">
        <ele>409.60000610352</ele>
        <time>2013-05-10T13:10:23.000Z</time>
      </trkpt>
      <trkpt lat="46.35357" lon="6.4122">
        <ele>409</ele>
        <time>2013-05-10T13:10:33.000Z</time>
      </trkpt>
      <trkpt lat="46.35315" lon="6.41151">
        <ele>408.60000610352</ele>
        <time>2013-05-10T13:10:41.000Z</time>
      </trkpt>
      <trkpt lat="46.3527" lon="6.41082">
        <ele>409</ele>
        <time>2013-05-10T13:10:49.000Z</time>
      </trkpt>
      <trkpt lat="46.35219" lon="6.41008">
        <ele>409.60000610352</ele>
        <time>2013-05-10T13:10:58.000Z</time>
      </trkpt>
      <trkpt lat="46.35161" lon="6.40928">
        <ele>410</ele>
        <time>2013-05-10T13:11:08.000Z</time>
      </trkpt>
      <trkpt lat="46.35144" lon="6.40904">
        <ele>409</ele>
        <time>2013-05-10T13:11:11.000Z</time>
      </trkpt>
      <trkpt lat="46.3513" lon="6.40861">
        <ele>407.20001220703</ele>
        <time>2013-05-10T13:11:15.000Z</time>
      </trkpt>
      <trkpt lat="46.3512" lon="6.40777">
        <ele>404.79998779297</ele>
        <time>2013-05-10T13:11:21.000Z</time>
      </trkpt>
      <trkpt lat="46.35108" lon="6.40735">
        <ele>403.79998779297</ele>
        <time>2013-05-10T13:11:24.000Z</time>
      </trkpt>
      <trkpt lat="46.35078" lon="6.40691">
        <ele>401.79998779297</ele>
        <time>2013-05-10T13:11:28.000Z</time>
      </trkpt>
      <trkpt lat="46.35049" lon="6.4066">
        <ele>401</ele>
        <time>2013-05-10T13:11:32.000Z</time>
      </trkpt>
      <trkpt lat="46.35045" lon="6.40654">
        <ele>400.39999389648</ele>
        <time>2013-05-10T13:11:33.000Z</time>
      </trkpt>
      <trkpt lat="46.3504" lon="6.40633">
        <ele>399</ele>
        <time>2013-05-10T13:11:37.000Z</time>
      </trkpt>
      <trkpt lat="46.35055" lon="6.40612">
        <ele>396.20001220703</ele>
        <time>2013-05-10T13:11:40.000Z</time>
      </trkpt>
      <trkpt lat="46.35078" lon="6.40579">
        <ele>392.20001220703</ele>
        <time>2013-05-10T13:11:43.000Z</time>
      </trkpt>
      <trkpt lat="46.35089" lon="6.40551">
        <ele>389.39999389648</ele>
        <time>2013-05-10T13:11:45.000Z</time>
      </trkpt>
      <trkpt lat="46.3511" lon="6.40487">
        <ele>383.60000610352</ele>
        <time>2013-05-10T13:11:50.000Z</time>
      </trkpt>
      <trkpt lat="46.35117" lon="6.40469">
        <ele>382.20001220703</ele>
        <time>2013-05-10T13:11:52.000Z</time>
      </trkpt>
      <trkpt lat="46.35114" lon="6.40449">
        <ele>380.20001220703</ele>
        <time>2013-05-10T13:11:55.000Z</time>
      </trkpt>
      <trkpt lat="46.35085" lon="6.40405">
        <ele>378.79998779297</ele>
        <time>2013-05-10T13:12:01.000Z</time>
      </trkpt>
      <trkpt lat="46.35058" lon="6.40359">
        <ele>379.79998779297</ele>
        <time>2013-05-10T13:12:07.000Z</time>
      </trkpt>
      <trkpt lat="46.3505" lon="6.40333">
        <ele>379.79998779297</ele>
        <time>2013-05-10T13:12:10.000Z</time>
      </trkpt>
      <trkpt lat="46.3503" lon="6.40313">
        <ele>380.79998779297</ele>
        <time>2013-05-10T13:12:14.000Z</time>
      </trkpt>
      <trkpt lat="46.35013" lon="6.40319">
        <ele>380.79998779297</ele>
        <time>2013-05-10T13:12:17.000Z</time>
      </trkpt>
      <trkpt lat="46.34993" lon="6.40321">
        <ele>381.20001220703</ele>
        <time>2013-05-10T13:12:21.000Z</time>
      </trkpt>
      <trkpt lat="46.34984" lon="6.40316">
        <ele>382.20001220703</ele>
        <time>2013-05-10T13:12:23.000Z</time>
      </trkpt>
      <trkpt lat="46.34955" lon="6.40289">
        <ele>384</ele>
        <time>2013-05-10T13:12:30.000Z</time>
      </trkpt>
      <trkpt lat="46.3495" lon="6.40285">
        <ele>384</ele>
        <time>2013-05-10T13:12:31.000Z</time>
      </trkpt>
      <trkpt lat="46.34935" lon="6.40257">
        <ele>382.60000610352</ele>
        <time>2013-05-10T13:12:35.000Z</time>
      </trkpt>
      <trkpt lat="46.34931" lon="6.40208">
        <ele>381.60000610352</ele>
        <time>2013-05-10T13:12:39.000Z</time>
      </trkpt>
      <trkpt lat="46.34934" lon="6.40184">
        <ele>381.60000610352</ele>
        <time>2013-05-10T13:12:41.000Z</time>
      </trkpt>
      <trkpt lat="46.34946" lon="6.40117">
        <ele>381.60000610352</ele>
        <time>2013-05-10T13:12:46.000Z</time>
      </trkpt>
      <trkpt lat="46.34945" lon="6.40059">
        <ele>381.20001220703</ele>
        <time>2013-05-10T13:12:51.000Z</time>
      </trkpt>
      <trkpt lat="46.34937" lon="6.4001">
        <ele>380.79998779297</ele>
        <time>2013-05-10T13:12:55.000Z</time>
      </trkpt>
      <trkpt lat="46.34909" lon="6.39946">
        <ele>379.20001220703</ele>
        <time>2013-05-10T13:13:01.000Z</time>
      </trkpt>
      <trkpt lat="46.34872" lon="6.39879">
        <ele>378.39999389648</ele>
        <time>2013-05-10T13:13:08.000Z</time>
      </trkpt>
      <trkpt lat="46.3483" lon="6.39823">
        <ele>379.20001220703</ele>
        <time>2013-05-10T13:13:15.000Z</time>
      </trkpt>
      <trkpt lat="46.34789" lon="6.39784">
        <ele>379.79998779297</ele>
        <time>2013-05-10T13:13:21.000Z</time>
      </trkpt>
      <trkpt lat="46.3474" lon="6.39741">
        <ele>380.20001220703</ele>
        <time>2013-05-10T13:13:28.000Z</time>
      </trkpt>
      <trkpt lat="46.34699" lon="6.3971">
        <ele>380.79998779297</ele>
        <time>2013-05-10T13:13:34.000Z</time>
      </trkpt>
      <trkpt lat="46.34653" lon="6.39682">
        <ele>380.79998779297</ele>
        <time>2013-05-10T13:13:41.000Z</time>
      </trkpt>
      <trkpt lat="46.34637" lon="6.39674">
        <ele>380.79998779297</ele>
        <time>2013-05-10T13:13:44.000Z</time>
      </trkpt>
      <trkpt lat="46.34609" lon="6.3966">
        <ele>381.20001220703</ele>
        <time>2013-05-10T13:13:49.000Z</time>
      </trkpt>
      <trkpt lat="46.34591" lon="6.39654">
        <ele>381.60000610352</ele>
        <time>2013-05-10T13:13:52.000Z</time>
      </trkpt>
      <trkpt lat="46.34553" lon="6.39639">
        <ele>382.20001220703</ele>
        <time>2013-05-10T13:13:58.000Z</time>
      </trkpt>
      <trkpt lat="46.34516" lon="6.39625">
        <ele>381.60000610352</ele>
        <time>2013-05-10T13:14:04.000Z</time>
      </trkpt>
      <trkpt lat="46.34469" lon="6.39601">
        <ele>382.20001220703</ele>
        <time>2013-05-10T13:14:11.000Z</time>
      </trkpt>
      <trkpt lat="46.34441" lon="6.39583">
        <ele>381.20001220703</ele>
        <time>2013-05-10T13:14:15.000Z</time>
      </trkpt>
      <trkpt lat="46.34388" lon="6.39539">
        <ele>380.79998779297</ele>
        <time>2013-05-10T13:14:23.000Z</time>
      </trkpt>
      <trkpt lat="46.34345" lon="6.39496">
        <ele>381.20001220703</ele>
        <time>2013-05-10T13:14:30.000Z</time>
      </trkpt>
      <trkpt lat="46.34293" lon="6.39446">
        <ele>381.60000610352</ele>
        <time>2013-05-10T13:14:38.000Z</time>
      </trkpt>
      <trkpt lat="46.34247" lon="6.39398">
        <ele>381.20001220703</ele>
        <time>2013-05-10T13:14:45.000Z</time>
      </trkpt>
      <trkpt lat="46.34204" lon="6.39344">
        <ele>381.20001220703</ele>
        <time>2013-05-10T13:14:52.000Z</time>
      </trkpt>
      <trkpt lat="46.34158" lon="6.39297">
        <ele>381.20001220703</ele>
        <time>2013-05-10T13:14:59.000Z</time>
      </trkpt>
      <trkpt lat="46.34104" lon="6.3924">
        <ele>381.20001220703</ele>
        <time>2013-05-10T13:15:07.000Z</time>
      </trkpt>
      <trkpt lat="46.34054" lon="6.39177">
        <ele>381.60000610352</ele>
        <time>2013-05-10T13:15:15.000Z</time>
      </trkpt>
      <trkpt lat="46.3401" lon="6.39112">
        <ele>381.60000610352</ele>
        <time>2013-05-10T13:15:23.000Z</time>
      </trkpt>
      <trkpt lat="46.3399" lon="6.39089">
        <ele>382.20001220703</ele>
        <time>2013-05-10T13:15:27.000Z</time>
      </trkpt>
      <trkpt lat="46.33982" lon="6.3909">
        <ele>382.20001220703</ele>
        <time>2013-05-10T13:15:28.000Z</time>
      </trkpt>
      <trkpt lat="46.33933" lon="6.39102">
        <ele>382.60000610352</ele>
        <time>2013-05-10T13:15:35.000Z</time>
      </trkpt>
      <trkpt lat="46.33885" lon="6.39115">
        <ele>382.60000610352</ele>
        <time>2013-05-10T13:15:42.000Z</time>
      </trkpt>
      <trkpt lat="46.33831" lon="6.39131">
        <ele>384.60000610352</ele>
        <time>2013-05-10T13:15:50.000Z</time>
      </trkpt>
      <trkpt lat="46.33786" lon="6.39135">
        <ele>386</ele>
        <time>2013-05-10T13:15:57.000Z</time>
      </trkpt>
      <trkpt lat="46.33748" lon="6.39138">
        <ele>386.39999389648</ele>
        <time>2013-05-10T13:16:03.000Z</time>
      </trkpt>
      <trkpt lat="46.33712" lon="6.39148">
        <ele>388.39999389648</ele>
        <time>2013-05-10T13:16:09.000Z</time>
      </trkpt>
      <trkpt lat="46.33668" lon="6.39169">
        <ele>390.79998779297</ele>
        <time>2013-05-10T13:16:17.000Z</time>
      </trkpt>
      <trkpt lat="46.33663" lon="6.39172">
        <ele>391.20001220703</ele>
        <time>2013-05-10T13:16:18.000Z</time>
      </trkpt>
      <trkpt lat="46.33633" lon="6.39185">
        <ele>392.79998779297</ele>
        <time>2013-05-10T13:16:25.000Z</time>
      </trkpt>
      <trkpt lat="46.33617" lon="6.39195">
        <ele>393.60000610352</ele>
        <time>2013-05-10T13:16:31.000Z</time>
      </trkpt>
      <trkpt lat="46.33604" lon="6.39204">
        <ele>395.60000610352</ele>
        <time>2013-05-10T13:16:36.000Z</time>
      </trkpt>
      <trkpt lat="46.3359" lon="6.39215">
        <ele>397</ele>
        <time>2013-05-10T13:16:42.000Z</time>
      </trkpt>
      <trkpt lat="46.33574" lon="6.39227">
        <ele>397.60000610352</ele>
        <time>2013-05-10T13:16:49.000Z</time>
      </trkpt>
      <trkpt lat="46.33557" lon="6.3924">
        <ele>400</ele>
        <time>2013-05-10T13:16:56.000Z</time>
      </trkpt>
      <trkpt lat="46.33538" lon="6.39257">
        <ele>402.39999389648</ele>
        <time>2013-05-10T13:17:04.000Z</time>
      </trkpt>
      <trkpt lat="46.33519" lon="6.39273">
        <ele>404.20001220703</ele>
        <time>2013-05-10T13:17:12.000Z</time>
      </trkpt>
      <trkpt lat="46.33496" lon="6.39293">
        <ele>406.20001220703</ele>
        <time>2013-05-10T13:17:22.000Z</time>
      </trkpt>
      <trkpt lat="46.3348" lon="6.39306">
        <ele>408.20001220703</ele>
        <time>2013-05-10T13:17:29.000Z</time>
      </trkpt>
      <trkpt lat="46.33464" lon="6.39311">
        <ele>409.60000610352</ele>
        <time>2013-05-10T13:17:35.000Z</time>
      </trkpt>
      <trkpt lat="46.33455" lon="6.39299">
        <ele>409.60000610352</ele>
        <time>2013-05-10T13:17:39.000Z</time>
      </trkpt>
      <trkpt lat="46.33446" lon="6.39267">
        <ele>409.60000610352</ele>
        <time>2013-05-10T13:17:44.000Z</time>
      </trkpt>
      <trkpt lat="46.33438" lon="6.39219">
        <ele>409</ele>
        <time>2013-05-10T13:17:50.000Z</time>
      </trkpt>
      <trkpt lat="46.33424" lon="6.39146">
        <ele>409.60000610352</ele>
        <time>2013-05-10T13:17:58.000Z</time>
      </trkpt>
      <trkpt lat="46.33403" lon="6.39037">
        <ele>408.60000610352</ele>
        <time>2013-05-10T13:18:09.000Z</time>
      </trkpt>
      <trkpt lat="46.33383" lon="6.38939">
        <ele>407.20001220703</ele>
        <time>2013-05-10T13:18:18.000Z</time>
      </trkpt>
      <trkpt lat="46.33365" lon="6.38854">
        <ele>406.60000610352</ele>
        <time>2013-05-10T13:18:25.000Z</time>
      </trkpt>
      <trkpt lat="46.3335" lon="6.38777">
        <ele>407.20001220703</ele>
        <time>2013-05-10T13:18:32.000Z</time>
      </trkpt>
      <trkpt lat="46.33333" lon="6.38689">
        <ele>407.20001220703</ele>
        <time>2013-05-10T13:18:41.000Z</time>
      </trkpt>
      <trkpt lat="46.33312" lon="6.38585">
        <ele>406.60000610352</ele>
        <time>2013-05-10T13:18:51.000Z</time>
      </trkpt>
      <trkpt lat="46.3329" lon="6.38474">
        <ele>406.20001220703</ele>
        <time>2013-05-10T13:19:01.000Z</time>
      </trkpt>
      <trkpt lat="46.33267" lon="6.38377">
        <ele>404.20001220703</ele>
        <time>2013-05-10T13:19:09.000Z</time>
      </trkpt>
      <trkpt lat="46.33242" lon="6.38285">
        <ele>401.39999389648</ele>
        <time>2013-05-10T13:19:16.000Z</time>
      </trkpt>
      <trkpt lat="46.332" lon="6.38143">
        <ele>396.60000610352</ele>
        <time>2013-05-10T13:19:26.000Z</time>
      </trkpt>
      <trkpt lat="46.3318" lon="6.38053">
        <ele>395.20001220703</ele>
        <time>2013-05-10T13:19:32.000Z</time>
      </trkpt>
      <trkpt lat="46.33176" lon="6.37981">
        <ele>395.20001220703</ele>
        <time>2013-05-10T13:19:37.000Z</time>
      </trkpt>
      <trkpt lat="46.3318" lon="6.3792">
        <ele>396.60000610352</ele>
        <time>2013-05-10T13:19:42.000Z</time>
      </trkpt>
      <trkpt lat="46.33189" lon="6.37871">
        <ele>397.60000610352</ele>
        <time>2013-05-10T13:19:47.000Z</time>
      </trkpt>
      <trkpt lat="46.33203" lon="6.37811">
        <ele>399.39999389648</ele>
        <time>2013-05-10T13:19:54.000Z</time>
      </trkpt>
      <trkpt lat="46.33219" lon="6.37739">
        <ele>401.39999389648</ele>
        <time>2013-05-10T13:20:03.000Z</time>
      </trkpt>
      <trkpt lat="46.33226" lon="6.37683">
        <ele>402.79998779297</ele>
        <time>2013-05-10T13:20:10.000Z</time>
      </trkpt>
      <trkpt lat="46.33227" lon="6.3765">
        <ele>403.39999389648</ele>
        <time>2013-05-10T13:20:14.000Z</time>
      </trkpt>
      <trkpt lat="46.33221" lon="6.37552">
        <ele>404.20001220703</ele>
        <time>2013-05-10T13:20:25.000Z</time>
      </trkpt>
      <trkpt lat="46.3323" lon="6.37498">
        <ele>404.20001220703</ele>
        <time>2013-05-10T13:20:31.000Z</time>
      </trkpt>
      <trkpt lat="46.33238" lon="6.37461">
        <ele>404.20001220703</ele>
        <time>2013-05-10T13:20:35.000Z</time>
      </trkpt>
      <trkpt lat="46.3325" lon="6.37396">
        <ele>403.79998779297</ele>
        <time>2013-05-10T13:20:43.000Z</time>
      </trkpt>
      <trkpt lat="46.33264" lon="6.37324">
        <ele>403.79998779297</ele>
        <time>2013-05-10T13:20:51.000Z</time>
      </trkpt>
      <trkpt lat="46.33279" lon="6.37246">
        <ele>401.79998779297</ele>
        <time>2013-05-10T13:20:59.000Z</time>
      </trkpt>
      <trkpt lat="46.33294" lon="6.37163">
        <ele>400.39999389648</ele>
        <time>2013-05-10T13:21:07.000Z</time>
      </trkpt>
      <trkpt lat="46.33314" lon="6.37072">
        <ele>398</ele>
        <time>2013-05-10T13:21:15.000Z</time>
      </trkpt>
      <trkpt lat="46.33341" lon="6.36997">
        <ele>396.60000610352</ele>
        <time>2013-05-10T13:21:22.000Z</time>
      </trkpt>
      <trkpt lat="46.3338" lon="6.36894">
        <ele>395.20001220703</ele>
        <time>2013-05-10T13:21:32.000Z</time>
      </trkpt>
      <trkpt lat="46.33416" lon="6.36803">
        <ele>394.20001220703</ele>
        <time>2013-05-10T13:21:41.000Z</time>
      </trkpt>
      <trkpt lat="46.33439" lon="6.36745">
        <ele>392.79998779297</ele>
        <time>2013-05-10T13:21:47.000Z</time>
      </trkpt>
      <trkpt lat="46.33476" lon="6.36643">
        <ele>392.79998779297</ele>
        <time>2013-05-10T13:21:57.000Z</time>
      </trkpt>
      <trkpt lat="46.33517" lon="6.36529">
        <ele>392.79998779297</ele>
        <time>2013-05-10T13:22:08.000Z</time>
      </trkpt>
      <trkpt lat="46.33557" lon="6.36423">
        <ele>392.79998779297</ele>
        <time>2013-05-10T13:22:18.000Z</time>
      </trkpt>
      <trkpt lat="46.33605" lon="6.36295">
        <ele>392.79998779297</ele>
        <time>2013-05-10T13:22:30.000Z</time>
      </trkpt>
      <trkpt lat="46.33637" lon="6.36221">
        <ele>393.20001220703</ele>
        <time>2013-05-10T13:22:37.000Z</time>
      </trkpt>
      <trkpt lat="46.33688" lon="6.36136">
        <ele>392.79998779297</ele>
        <time>2013-05-10T13:22:46.000Z</time>
      </trkpt>
      <trkpt lat="46.33735" lon="6.36061">
        <ele>392.79998779297</ele>
        <time>2013-05-10T13:22:54.000Z</time>
      </trkpt>
      <trkpt lat="46.3379" lon="6.35975">
        <ele>392.79998779297</ele>
        <time>2013-05-10T13:23:03.000Z</time>
      </trkpt>
      <trkpt lat="46.33825" lon="6.35934">
        <ele>392.20001220703</ele>
        <time>2013-05-10T13:23:08.000Z</time>
      </trkpt>
      <trkpt lat="46.33889" lon="6.35881">
        <ele>391.20001220703</ele>
        <time>2013-05-10T13:23:16.000Z</time>
      </trkpt>
      <trkpt lat="46.33979" lon="6.35808">
        <ele>389.79998779297</ele>
        <time>2013-05-10T13:23:27.000Z</time>
      </trkpt>
      <trkpt lat="46.34031" lon="6.35768">
        <ele>388.79998779297</ele>
        <time>2013-05-10T13:23:33.000Z</time>
      </trkpt>
      <trkpt lat="46.34109" lon="6.35707">
        <ele>387</ele>
        <time>2013-05-10T13:23:42.000Z</time>
      </trkpt>
      <trkpt lat="46.34141" lon="6.35683">
        <ele>387.39999389648</ele>
        <time>2013-05-10T13:23:46.000Z</time>
      </trkpt>
      <trkpt lat="46.34174" lon="6.35677">
        <ele>388</ele>
        <time>2013-05-10T13:23:50.000Z</time>
      </trkpt>
      <trkpt lat="46.3419" lon="6.35678">
        <ele>388.39999389648</ele>
        <time>2013-05-10T13:23:52.000Z</time>
      </trkpt>
      <trkpt lat="46.34228" lon="6.35699">
        <ele>388.39999389648</ele>
        <time>2013-05-10T13:23:57.000Z</time>
      </trkpt>
      <trkpt lat="46.34294" lon="6.35776">
        <ele>387.39999389648</ele>
        <time>2013-05-10T13:24:07.000Z</time>
      </trkpt>
      <trkpt lat="46.343" lon="6.35783">
        <ele>387.39999389648</ele>
        <time>2013-05-10T13:24:08.000Z</time>
      </trkpt>
      <trkpt lat="46.3434" lon="6.35799">
        <ele>387.39999389648</ele>
        <time>2013-05-10T13:24:13.000Z</time>
      </trkpt>
      <trkpt lat="46.34398" lon="6.35803">
        <ele>388</ele>
        <time>2013-05-10T13:24:20.000Z</time>
      </trkpt>
      <trkpt lat="46.3444" lon="6.35805">
        <ele>386</ele>
        <time>2013-05-10T13:24:25.000Z</time>
      </trkpt>
      <trkpt lat="46.34492" lon="6.35799">
        <ele>385</ele>
        <time>2013-05-10T13:24:31.000Z</time>
      </trkpt>
      <trkpt lat="46.34553" lon="6.35783">
        <ele>385.60000610352</ele>
        <time>2013-05-10T13:24:38.000Z</time>
      </trkpt>
      <trkpt lat="46.34601" lon="6.35755">
        <ele>386.39999389648</ele>
        <time>2013-05-10T13:24:44.000Z</time>
      </trkpt>
      <trkpt lat="46.34674" lon="6.35702">
        <ele>387.39999389648</ele>
        <time>2013-05-10T13:24:54.000Z</time>
      </trkpt>
      <trkpt lat="46.34728" lon="6.3568">
        <ele>387.39999389648</ele>
        <time>2013-05-10T13:25:01.000Z</time>
      </trkpt>
      <trkpt lat="46.34786" lon="6.35664">
        <ele>387.39999389648</ele>
        <time>2013-05-10T13:25:09.000Z</time>
      </trkpt>
      <trkpt lat="46.34836" lon="6.35651">
        <ele>388.39999389648</ele>
        <time>2013-05-10T13:25:16.000Z</time>
      </trkpt>
      <trkpt lat="46.349" lon="6.35632">
        <ele>389.79998779297</ele>
        <time>2013-05-10T13:25:25.000Z</time>
      </trkpt>
      <trkpt lat="46.34948" lon="6.35619">
        <ele>391.20001220703</ele>
        <time>2013-05-10T13:25:32.000Z</time>
      </trkpt>
      <trkpt lat="46.35004" lon="6.35614">
        <ele>392.79998779297</ele>
        <time>2013-05-10T13:25:40.000Z</time>
      </trkpt>
      <trkpt lat="46.3505" lon="6.35628">
        <ele>393.60000610352</ele>
        <time>2013-05-10T13:25:47.000Z</time>
      </trkpt>
      <trkpt lat="46.35108" lon="6.35653">
        <ele>395.20001220703</ele>
        <time>2013-05-10T13:25:56.000Z</time>
      </trkpt>
      <trkpt lat="46.35141" lon="6.35657">
        <ele>395.20001220703</ele>
        <time>2013-05-10T13:26:01.000Z</time>
      </trkpt>
      <trkpt lat="46.35173" lon="6.35646">
        <ele>395.60000610352</ele>
        <time>2013-05-10T13:26:06.000Z</time>
      </trkpt>
      <trkpt lat="46.35223" lon="6.35616">
        <ele>396.20001220703</ele>
        <time>2013-05-10T13:26:14.000Z</time>
      </trkpt>
      <trkpt lat="46.3527" lon="6.35588">
        <ele>396.60000610352</ele>
        <time>2013-05-10T13:26:21.000Z</time>
      </trkpt>
      <trkpt lat="46.35351" lon="6.35538">
        <ele>396.60000610352</ele>
        <time>2013-05-10T13:26:33.000Z</time>
      </trkpt>
      <trkpt lat="46.35407" lon="6.35505">
        <ele>397</ele>
        <time>2013-05-10T13:26:41.000Z</time>
      </trkpt>
      <trkpt lat="46.35456" lon="6.35473">
        <ele>396.60000610352</ele>
        <time>2013-05-10T13:26:48.000Z</time>
      </trkpt>
      <trkpt lat="46.35502" lon="6.35417">
        <ele>396.20001220703</ele>
        <time>2013-05-10T13:26:56.000Z</time>
      </trkpt>
      <trkpt lat="46.35552" lon="6.35354">
        <ele>396.60000610352</ele>
        <time>2013-05-10T13:27:05.000Z</time>
      </trkpt>
      <trkpt lat="46.35582" lon="6.35301">
        <ele>398</ele>
        <time>2013-05-10T13:27:12.000Z</time>
      </trkpt>
      <trkpt lat="46.35611" lon="6.35249">
        <ele>399</ele>
        <time>2013-05-10T13:27:19.000Z</time>
      </trkpt>
      <trkpt lat="46.35636" lon="6.35224">
        <ele>399.39999389648</ele>
        <time>2013-05-10T13:27:24.000Z</time>
      </trkpt>
      <trkpt lat="46.35646" lon="6.35199">
        <ele>400</ele>
        <time>2013-05-10T13:27:27.000Z</time>
      </trkpt>
      <trkpt lat="46.35661" lon="6.35169">
        <ele>400</ele>
        <time>2013-05-10T13:27:31.000Z</time>
      </trkpt>
      <trkpt lat="46.35718" lon="6.35121">
        <ele>399</ele>
        <time>2013-05-10T13:27:40.000Z</time>
      </trkpt>
      <trkpt lat="46.35773" lon="6.35075">
        <ele>398.60000610352</ele>
        <time>2013-05-10T13:27:48.000Z</time>
      </trkpt>
      <trkpt lat="46.35828" lon="6.35031">
        <ele>399</ele>
        <time>2013-05-10T13:27:56.000Z</time>
      </trkpt>
      <trkpt lat="46.35897" lon="6.34974">
        <ele>400</ele>
        <time>2013-05-10T13:28:07.000Z</time>
      </trkpt>
      <trkpt lat="46.35971" lon="6.34913">
        <ele>400.39999389648</ele>
        <time>2013-05-10T13:28:19.000Z</time>
      </trkpt>
      <trkpt lat="46.36015" lon="6.34881">
        <ele>401</ele>
        <time>2013-05-10T13:28:26.000Z</time>
      </trkpt>
      <trkpt lat="46.36077" lon="6.34851">
        <ele>401.39999389648</ele>
        <time>2013-05-10T13:28:35.000Z</time>
      </trkpt>
      <trkpt lat="46.36133" lon="6.3483">
        <ele>401.79998779297</ele>
        <time>2013-05-10T13:28:43.000Z</time>
      </trkpt>
      <trkpt lat="46.36188" lon="6.34809">
        <ele>401.79998779297</ele>
        <time>2013-05-10T13:28:51.000Z</time>
      </trkpt>
      <trkpt lat="46.36235" lon="6.3479">
        <ele>401.39999389648</ele>
        <time>2013-05-10T13:28:58.000Z</time>
      </trkpt>
      <trkpt lat="46.36277" lon="6.34775">
        <ele>401</ele>
        <time>2013-05-10T13:29:04.000Z</time>
      </trkpt>
      <trkpt lat="46.36321" lon="6.34757">
        <ele>401.39999389648</ele>
        <time>2013-05-10T13:29:10.000Z</time>
      </trkpt>
      <trkpt lat="46.36392" lon="6.3473">
        <ele>401</ele>
        <time>2013-05-10T13:29:20.000Z</time>
      </trkpt>
      <trkpt lat="46.3643" lon="6.34706">
        <ele>401.79998779297</ele>
        <time>2013-05-10T13:29:26.000Z</time>
      </trkpt>
      <trkpt lat="46.36461" lon="6.34675">
        <ele>402.39999389648</ele>
        <time>2013-05-10T13:29:32.000Z</time>
      </trkpt>
      <trkpt lat="46.36483" lon="6.34634">
        <ele>403.39999389648</ele>
        <time>2013-05-10T13:29:38.000Z</time>
      </trkpt>
      <trkpt lat="46.36503" lon="6.34593">
        <ele>404.79998779297</ele>
        <time>2013-05-10T13:29:44.000Z</time>
      </trkpt>
      <trkpt lat="46.36528" lon="6.34541">
        <ele>405.79998779297</ele>
        <time>2013-05-10T13:29:51.000Z</time>
      </trkpt>
      <trkpt lat="46.36565" lon="6.34466">
        <ele>407.20001220703</ele>
        <time>2013-05-10T13:30:01.000Z</time>
      </trkpt>
      <trkpt lat="46.36594" lon="6.34405">
        <ele>407.60000610352</ele>
        <time>2013-05-10T13:30:09.000Z</time>
      </trkpt>
      <trkpt lat="46.36632" lon="6.34322">
        <ele>407.60000610352</ele>
        <time>2013-05-10T13:30:19.000Z</time>
      </trkpt>
      <trkpt lat="46.36671" lon="6.34268">
        <ele>407.60000610352</ele>
        <time>2013-05-10T13:30:26.000Z</time>
      </trkpt>
      <trkpt lat="46.36727" lon="6.342">
        <ele>407.60000610352</ele>
        <time>2013-05-10T13:30:35.000Z</time>
      </trkpt>
      <trkpt lat="46.3675" lon="6.34153">
        <ele>408.60000610352</ele>
        <time>2013-05-10T13:30:40.000Z</time>
      </trkpt>
      <trkpt lat="46.36772" lon="6.34078">
        <ele>408.60000610352</ele>
        <time>2013-05-10T13:30:47.000Z</time>
      </trkpt>
      <trkpt lat="46.36795" lon="6.33994">
        <ele>408.60000610352</ele>
        <time>2013-05-10T13:30:55.000Z</time>
      </trkpt>
      <trkpt lat="46.36802" lon="6.3393">
        <ele>408.20001220703</ele>
        <time>2013-05-10T13:31:01.000Z</time>
      </trkpt>
      <trkpt lat="46.36798" lon="6.33861">
        <ele>407.60000610352</ele>
        <time>2013-05-10T13:31:07.000Z</time>
      </trkpt>
      <trkpt lat="46.3679" lon="6.33773">
        <ele>408.20001220703</ele>
        <time>2013-05-10T13:31:15.000Z</time>
      </trkpt>
      <trkpt lat="46.36783" lon="6.33683">
        <ele>408.60000610352</ele>
        <time>2013-05-10T13:31:24.000Z</time>
      </trkpt>
      <trkpt lat="46.36785" lon="6.33622">
        <ele>408.20001220703</ele>
        <time>2013-05-10T13:31:30.000Z</time>
      </trkpt>
      <trkpt lat="46.36793" lon="6.33522">
        <ele>407.60000610352</ele>
        <time>2013-05-10T13:31:39.000Z</time>
      </trkpt>
      <trkpt lat="46.36801" lon="6.33424">
        <ele>406.60000610352</ele>
        <time>2013-05-10T13:31:47.000Z</time>
      </trkpt>
      <trkpt lat="46.36809" lon="6.3333">
        <ele>405.79998779297</ele>
        <time>2013-05-10T13:31:55.000Z</time>
      </trkpt>
      <trkpt lat="46.36814" lon="6.33267">
        <ele>405.79998779297</ele>
        <time>2013-05-10T13:32:01.000Z</time>
      </trkpt>
      <trkpt lat="46.36815" lon="6.33247">
        <ele>406.20001220703</ele>
        <time>2013-05-10T13:32:03.000Z</time>
      </trkpt>
      <trkpt lat="46.36829" lon="6.33199">
        <ele>406.20001220703</ele>
        <time>2013-05-10T13:32:09.000Z</time>
      </trkpt>
      <trkpt lat="46.36838" lon="6.3316">
        <ele>405.79998779297</ele>
        <time>2013-05-10T13:32:14.000Z</time>
      </trkpt>
      <trkpt lat="46.36851" lon="6.33122">
        <ele>404.20001220703</ele>
        <time>2013-05-10T13:32:19.000Z</time>
      </trkpt>
      <trkpt lat="46.36862" lon="6.33089">
        <ele>402.79998779297</ele>
        <time>2013-05-10T13:32:23.000Z</time>
      </trkpt>
      <trkpt lat="46.36879" lon="6.33056">
        <ele>402.39999389648</ele>
        <time>2013-05-10T13:32:27.000Z</time>
      </trkpt>
      <trkpt lat="46.36888" lon="6.33028">
        <ele>401.79998779297</ele>
        <time>2013-05-10T13:32:30.000Z</time>
      </trkpt>
      <trkpt lat="46.3691" lon="6.32941">
        <ele>401</ele>
        <time>2013-05-10T13:32:38.000Z</time>
      </trkpt>
      <trkpt lat="46.36939" lon="6.3285">
        <ele>398</ele>
        <time>2013-05-10T13:32:47.000Z</time>
      </trkpt>
      <trkpt lat="46.36956" lon="6.32795">
        <ele>396.20001220703</ele>
        <time>2013-05-10T13:32:53.000Z</time>
      </trkpt>
      <trkpt lat="46.36964" lon="6.32763">
        <ele>394.60000610352</ele>
        <time>2013-05-10T13:32:58.000Z</time>
      </trkpt>
      <trkpt lat="46.36965" lon="6.32757">
        <ele>394.60000610352</ele>
        <time>2013-05-10T13:32:59.000Z</time>
      </trkpt>
      <trkpt lat="46.36966" lon="6.32747">
        <ele>394.20001220703</ele>
        <time>2013-05-10T13:33:01.000Z</time>
      </trkpt>
      <trkpt lat="46.36966" lon="6.32735">
        <ele>393.60000610352</ele>
        <time>2013-05-10T13:33:05.000Z</time>
      </trkpt>
      <trkpt lat="46.36962" lon="6.32729">
        <ele>395.20001220703</ele>
        <time>2013-05-10T13:33:10.000Z</time>
      </trkpt>
      <trkpt lat="46.36962" lon="6.32734">
        <ele>395.20001220703</ele>
        <time>2013-05-10T13:33:13.000Z</time>
      </trkpt>
      <trkpt lat="46.36962" lon="6.32735">
        <ele>396.20001220703</ele>
        <time>2013-05-10T13:33:21.000Z</time>
      </trkpt>
      <trkpt lat="46.36964" lon="6.32734">
        <ele>396.60000610352</ele>
        <time>2013-05-10T13:33:26.000Z</time>
      </trkpt>
      <trkpt lat="46.36968" lon="6.32729">
        <ele>397</ele>
        <time>2013-05-10T13:33:31.000Z</time>
      </trkpt>
      <trkpt lat="46.3697" lon="6.32729">
        <ele>396.60000610352</ele>
        <time>2013-05-10T13:33:35.000Z</time>
      </trkpt>
      <trkpt lat="46.36973" lon="6.3273">
        <ele>392.79998779297</ele>
        <time>2013-05-10T13:33:45.000Z</time>
      </trkpt>
      <trkpt lat="46.36974" lon="6.3273">
        <ele>394.20001220703</ele>
        <time>2013-05-10T13:33:46.000Z</time>
      </trkpt>
      <trkpt lat="46.36984" lon="6.3273">
        <ele>399</ele>
        <time>2013-05-10T13:33:53.000Z</time>
      </trkpt>
      <trkpt lat="46.36983" lon="6.32721">
        <ele>399</ele>
        <time>2013-05-10T13:33:58.000Z</time>
      </trkpt>
      <trkpt lat="46.36984" lon="6.32714">
        <ele>398.60000610352</ele>
        <time>2013-05-10T13:34:11.000Z</time>
      </trkpt>
      <trkpt lat="46.36986" lon="6.32712">
        <ele>398</ele>
        <time>2013-05-10T13:34:13.000Z</time>
      </trkpt>
      <trkpt lat="46.36984" lon="6.3246">
        <ele>400</ele>
        <time>2013-05-10T13:38:14.000Z</time>
      </trkpt>
      <trkpt lat="46.36971" lon="6.32433">
        <ele>398.60000610352</ele>
        <time>2013-05-10T13:38:20.000Z</time>
      </trkpt>
      <trkpt lat="46.36953" lon="6.32396">
        <ele>399</ele>
        <time>2013-05-10T13:38:28.000Z</time>
      </trkpt>
      <trkpt lat="46.36931" lon="6.32348">
        <ele>400</ele>
        <time>2013-05-10T13:38:37.000Z</time>
      </trkpt>
      <trkpt lat="46.36913" lon="6.32309">
        <ele>400</ele>
        <time>2013-05-10T13:38:44.000Z</time>
      </trkpt>
      <trkpt lat="46.36889" lon="6.32258">
        <ele>401.39999389648</ele>
        <time>2013-05-10T13:38:53.000Z</time>
      </trkpt>
      <trkpt lat="46.36887" lon="6.32252">
        <ele>401.39999389648</ele>
        <time>2013-05-10T13:38:54.000Z</time>
      </trkpt>
      <trkpt lat="46.36866" lon="6.3221">
        <ele>401.79998779297</ele>
        <time>2013-05-10T13:39:01.000Z</time>
      </trkpt>
      <trkpt lat="46.36843" lon="6.32168">
        <ele>403.39999389648</ele>
        <time>2013-05-10T13:39:08.000Z</time>
      </trkpt>
      <trkpt lat="46.36819" lon="6.32137">
        <ele>404.20001220703</ele>
        <time>2013-05-10T13:39:14.000Z</time>
      </trkpt>
      <trkpt lat="46.36815" lon="6.32133">
        <ele>404.20001220703</ele>
        <time>2013-05-10T13:39:15.000Z</time>
      </trkpt>
      <trkpt lat="46.36784" lon="6.32109">
        <ele>404.20001220703</ele>
        <time>2013-05-10T13:39:21.000Z</time>
      </trkpt>
      <trkpt lat="46.36749" lon="6.32088">
        <ele>403.79998779297</ele>
        <time>2013-05-10T13:39:27.000Z</time>
      </trkpt>
      <trkpt lat="46.36712" lon="6.32076">
        <ele>403.39999389648</ele>
        <time>2013-05-10T13:39:33.000Z</time>
      </trkpt>
      <trkpt lat="46.36666" lon="6.32067">
        <ele>402.79998779297</ele>
        <time>2013-05-10T13:39:40.000Z</time>
      </trkpt>
      <trkpt lat="46.36619" lon="6.32044">
        <ele>402.39999389648</ele>
        <time>2013-05-10T13:39:47.000Z</time>
      </trkpt>
      <trkpt lat="46.36556" lon="6.32004">
        <ele>401.39999389648</ele>
        <time>2013-05-10T13:39:56.000Z</time>
      </trkpt>
      <trkpt lat="46.36508" lon="6.31962">
        <ele>400.39999389648</ele>
        <time>2013-05-10T13:40:03.000Z</time>
      </trkpt>
      <trkpt lat="46.36438" lon="6.31894">
        <ele>399</ele>
        <time>2013-05-10T13:40:13.000Z</time>
      </trkpt>
      <trkpt lat="46.36387" lon="6.31845">
        <ele>398.60000610352</ele>
        <time>2013-05-10T13:40:20.000Z</time>
      </trkpt>
      <trkpt lat="46.36325" lon="6.31785">
        <ele>399.39999389648</ele>
        <time>2013-05-10T13:40:29.000Z</time>
      </trkpt>
      <trkpt lat="46.36266" lon="6.31728">
        <ele>401</ele>
        <time>2013-05-10T13:40:38.000Z</time>
      </trkpt>
      <trkpt lat="46.36216" lon="6.31674">
        <ele>402.79998779297</ele>
        <time>2013-05-10T13:40:46.000Z</time>
      </trkpt>
      <trkpt lat="46.36193" lon="6.31632">
        <ele>403.79998779297</ele>
        <time>2013-05-10T13:40:51.000Z</time>
      </trkpt>
      <trkpt lat="46.3617" lon="6.31569">
        <ele>405.20001220703</ele>
        <time>2013-05-10T13:40:58.000Z</time>
      </trkpt>
      <trkpt lat="46.36149" lon="6.31509">
        <ele>406.20001220703</ele>
        <time>2013-05-10T13:41:05.000Z</time>
      </trkpt>
      <trkpt lat="46.36128" lon="6.3145">
        <ele>405.79998779297</ele>
        <time>2013-05-10T13:41:12.000Z</time>
      </trkpt>
      <trkpt lat="46.36108" lon="6.31389">
        <ele>406.60000610352</ele>
        <time>2013-05-10T13:41:19.000Z</time>
      </trkpt>
      <trkpt lat="46.36078" lon="6.31302">
        <ele>410</ele>
        <time>2013-05-10T13:41:29.000Z</time>
      </trkpt>
      <trkpt lat="46.36056" lon="6.31253">
        <ele>411.39999389648</ele>
        <time>2013-05-10T13:41:35.000Z</time>
      </trkpt>
      <trkpt lat="46.36028" lon="6.312">
        <ele>412.39999389648</ele>
        <time>2013-05-10T13:41:42.000Z</time>
      </trkpt>
      <trkpt lat="46.35983" lon="6.31115">
        <ele>413.79998779297</ele>
        <time>2013-05-10T13:41:54.000Z</time>
      </trkpt>
      <trkpt lat="46.3594" lon="6.31034">
        <ele>414.39999389648</ele>
        <time>2013-05-10T13:42:05.000Z</time>
      </trkpt>
      <trkpt lat="46.35905" lon="6.30967">
        <ele>414.39999389648</ele>
        <time>2013-05-10T13:42:13.000Z</time>
      </trkpt>
      <trkpt lat="46.35857" lon="6.30876">
        <ele>413.79998779297</ele>
        <time>2013-05-10T13:42:23.000Z</time>
      </trkpt>
      <trkpt lat="46.35809" lon="6.30785">
        <ele>414.39999389648</ele>
        <time>2013-05-10T13:42:33.000Z</time>
      </trkpt>
      <trkpt lat="46.35768" lon="6.30706">
        <ele>413.79998779297</ele>
        <time>2013-05-10T13:42:42.000Z</time>
      </trkpt>
      <trkpt lat="46.35729" lon="6.30633">
        <ele>413.79998779297</ele>
        <time>2013-05-10T13:42:50.000Z</time>
      </trkpt>
      <trkpt lat="46.35693" lon="6.30563">
        <ele>415.79998779297</ele>
        <time>2013-05-10T13:42:58.000Z</time>
      </trkpt>
      <trkpt lat="46.35656" lon="6.30495">
        <ele>417.20001220703</ele>
        <time>2013-05-10T13:43:07.000Z</time>
      </trkpt>
      <trkpt lat="46.35615" lon="6.30436">
        <ele>419.20001220703</ele>
        <time>2013-05-10T13:43:16.000Z</time>
      </trkpt>
      <trkpt lat="46.35572" lon="6.30379">
        <ele>421.60000610352</ele>
        <time>2013-05-10T13:43:25.000Z</time>
      </trkpt>
      <trkpt lat="46.35568" lon="6.30372">
        <ele>421.60000610352</ele>
        <time>2013-05-10T13:43:28.000Z</time>
      </trkpt>
      <trkpt lat="46.35563" lon="6.30366">
        <ele>422</ele>
        <time>2013-05-10T13:43:29.000Z</time>
      </trkpt>
      <trkpt lat="46.3553" lon="6.30322">
        <ele>422.60000610352</ele>
        <time>2013-05-10T13:43:34.000Z</time>
      </trkpt>
      <trkpt lat="46.35492" lon="6.30272">
        <ele>423.39999389648</ele>
        <time>2013-05-10T13:43:42.000Z</time>
      </trkpt>
      <trkpt lat="46.35444" lon="6.30209">
        <ele>425.39999389648</ele>
        <time>2013-05-10T13:43:52.000Z</time>
      </trkpt>
      <trkpt lat="46.35402" lon="6.30154">
        <ele>426.79998779297</ele>
        <time>2013-05-10T13:44:01.000Z</time>
      </trkpt>
      <trkpt lat="46.35362" lon="6.301">
        <ele>428.39999389648</ele>
        <time>2013-05-10T13:44:10.000Z</time>
      </trkpt>
      <trkpt lat="46.35311" lon="6.30032">
        <ele>430.79998779297</ele>
        <time>2013-05-10T13:44:21.000Z</time>
      </trkpt>
      <trkpt lat="46.35267" lon="6.29974">
        <ele>433.20001220703</ele>
        <time>2013-05-10T13:44:31.000Z</time>
      </trkpt>
      <trkpt lat="46.35241" lon="6.2993">
        <ele>433.60000610352</ele>
        <time>2013-05-10T13:44:38.000Z</time>
      </trkpt>
      <trkpt lat="46.35229" lon="6.29908">
        <ele>433.60000610352</ele>
        <time>2013-05-10T13:44:41.000Z</time>
      </trkpt>
      <trkpt lat="46.35206" lon="6.29846">
        <ele>434.60000610352</ele>
        <time>2013-05-10T13:44:48.000Z</time>
      </trkpt>
      <trkpt lat="46.35176" lon="6.29748">
        <ele>435.60000610352</ele>
        <time>2013-05-10T13:44:58.000Z</time>
      </trkpt>
      <trkpt lat="46.35152" lon="6.29664">
        <ele>435.60000610352</ele>
        <time>2013-05-10T13:45:06.000Z</time>
      </trkpt>
      <trkpt lat="46.35134" lon="6.29599">
        <ele>435</ele>
        <time>2013-05-10T13:45:12.000Z</time>
      </trkpt>
      <trkpt lat="46.35121" lon="6.2954">
        <ele>434.60000610352</ele>
        <time>2013-05-10T13:45:17.000Z</time>
      </trkpt>
      <trkpt lat="46.35121" lon="6.29478">
        <ele>434</ele>
        <time>2013-05-10T13:45:22.000Z</time>
      </trkpt>
      <trkpt lat="46.35118" lon="6.29394">
        <ele>433.20001220703</ele>
        <time>2013-05-10T13:45:29.000Z</time>
      </trkpt>
      <trkpt lat="46.35101" lon="6.29296">
        <ele>432.20001220703</ele>
        <time>2013-05-10T13:45:37.000Z</time>
      </trkpt>
      <trkpt lat="46.35083" lon="6.29196">
        <ele>430.79998779297</ele>
        <time>2013-05-10T13:45:45.000Z</time>
      </trkpt>
      <trkpt lat="46.35067" lon="6.29171">
        <ele>429.79998779297</ele>
        <time>2013-05-10T13:45:48.000Z</time>
      </trkpt>
      <trkpt lat="46.35059" lon="6.29169">
        <ele>429.79998779297</ele>
        <time>2013-05-10T13:45:49.000Z</time>
      </trkpt>
      <trkpt lat="46.35022" lon="6.29137">
        <ele>428.79998779297</ele>
        <time>2013-05-10T13:45:54.000Z</time>
      </trkpt>
      <trkpt lat="46.3498" lon="6.29087">
        <ele>427.39999389648</ele>
        <time>2013-05-10T13:46:00.000Z</time>
      </trkpt>
      <trkpt lat="46.34932" lon="6.29029">
        <ele>426</ele>
        <time>2013-05-10T13:46:07.000Z</time>
      </trkpt>
      <trkpt lat="46.34882" lon="6.28973">
        <ele>425.39999389648</ele>
        <time>2013-05-10T13:46:14.000Z</time>
      </trkpt>
      <trkpt lat="46.34869" lon="6.28958">
        <ele>425.39999389648</ele>
        <time>2013-05-10T13:46:16.000Z</time>
      </trkpt>
      <trkpt lat="46.3485" lon="6.28924">
        <ele>425</ele>
        <time>2013-05-10T13:46:20.000Z</time>
      </trkpt>
      <trkpt lat="46.34843" lon="6.28918">
        <ele>425.39999389648</ele>
        <time>2013-05-10T13:46:21.000Z</time>
      </trkpt>
      <trkpt lat="46.34795" lon="6.28864">
        <ele>425.39999389648</ele>
        <time>2013-05-10T13:46:28.000Z</time>
      </trkpt>
      <trkpt lat="46.34768" lon="6.28813">
        <ele>425</ele>
        <time>2013-05-10T13:46:33.000Z</time>
      </trkpt>
      <trkpt lat="46.34714" lon="6.28689">
        <ele>423.39999389648</ele>
        <time>2013-05-10T13:46:44.000Z</time>
      </trkpt>
      <trkpt lat="46.34669" lon="6.28589">
        <ele>421.60000610352</ele>
        <time>2013-05-10T13:46:53.000Z</time>
      </trkpt>
      <trkpt lat="46.34663" lon="6.28578">
        <ele>421.60000610352</ele>
        <time>2013-05-10T13:46:54.000Z</time>
      </trkpt>
      <trkpt lat="46.34635" lon="6.28546">
        <ele>421.60000610352</ele>
        <time>2013-05-10T13:46:58.000Z</time>
      </trkpt>
      <trkpt lat="46.34548" lon="6.28487">
        <ele>419.20001220703</ele>
        <time>2013-05-10T13:47:08.000Z</time>
      </trkpt>
      <trkpt lat="46.34474" lon="6.28439">
        <ele>417.79998779297</ele>
        <time>2013-05-10T13:47:16.000Z</time>
      </trkpt>
      <trkpt lat="46.34406" lon="6.28391">
        <ele>415.79998779297</ele>
        <time>2013-05-10T13:47:23.000Z</time>
      </trkpt>
      <trkpt lat="46.34362" lon="6.28339">
        <ele>414.79998779297</ele>
        <time>2013-05-10T13:47:28.000Z</time>
      </trkpt>
      <trkpt lat="46.34305" lon="6.28267">
        <ele>414.79998779297</ele>
        <time>2013-05-10T13:47:35.000Z</time>
      </trkpt>
      <trkpt lat="46.34246" lon="6.28193">
        <ele>415.39999389648</ele>
        <time>2013-05-10T13:47:43.000Z</time>
      </trkpt>
      <trkpt lat="46.34184" lon="6.28115">
        <ele>416.79998779297</ele>
        <time>2013-05-10T13:47:52.000Z</time>
      </trkpt>
      <trkpt lat="46.34116" lon="6.2803">
        <ele>416.20001220703</ele>
        <time>2013-05-10T13:48:02.000Z</time>
      </trkpt>
      <trkpt lat="46.34071" lon="6.27972">
        <ele>416.20001220703</ele>
        <time>2013-05-10T13:48:09.000Z</time>
      </trkpt>
      <trkpt lat="46.34016" lon="6.27908">
        <ele>415.39999389648</ele>
        <time>2013-05-10T13:48:17.000Z</time>
      </trkpt>
      <trkpt lat="46.33971" lon="6.2787">
        <ele>414.79998779297</ele>
        <time>2013-05-10T13:48:23.000Z</time>
      </trkpt>
      <trkpt lat="46.33914" lon="6.27838">
        <ele>415.79998779297</ele>
        <time>2013-05-10T13:48:30.000Z</time>
      </trkpt>
      <trkpt lat="46.33865" lon="6.27811">
        <ele>417.20001220703</ele>
        <time>2013-05-10T13:48:36.000Z</time>
      </trkpt>
      <trkpt lat="46.33808" lon="6.2778">
        <ele>419.20001220703</ele>
        <time>2013-05-10T13:48:43.000Z</time>
      </trkpt>
      <trkpt lat="46.3376" lon="6.27755">
        <ele>422</ele>
        <time>2013-05-10T13:48:49.000Z</time>
      </trkpt>
      <trkpt lat="46.33745" lon="6.27747">
        <ele>422.60000610352</ele>
        <time>2013-05-10T13:48:51.000Z</time>
      </trkpt>
      <trkpt lat="46.33697" lon="6.27721">
        <ele>423</ele>
        <time>2013-05-10T13:48:57.000Z</time>
      </trkpt>
      <trkpt lat="46.3365" lon="6.27694">
        <ele>421</ele>
        <time>2013-05-10T13:49:03.000Z</time>
      </trkpt>
      <trkpt lat="46.33587" lon="6.27655">
        <ele>421</ele>
        <time>2013-05-10T13:49:11.000Z</time>
      </trkpt>
      <trkpt lat="46.33531" lon="6.27622">
        <ele>422</ele>
        <time>2013-05-10T13:49:18.000Z</time>
      </trkpt>
      <trkpt lat="46.33467" lon="6.27591">
        <ele>423.39999389648</ele>
        <time>2013-05-10T13:49:26.000Z</time>
      </trkpt>
      <trkpt lat="46.33391" lon="6.27547">
        <ele>424.39999389648</ele>
        <time>2013-05-10T13:49:36.000Z</time>
      </trkpt>
      <trkpt lat="46.33346" lon="6.27507">
        <ele>423.39999389648</ele>
        <time>2013-05-10T13:49:42.000Z</time>
      </trkpt>
      <trkpt lat="46.33296" lon="6.27447">
        <ele>421.60000610352</ele>
        <time>2013-05-10T13:49:49.000Z</time>
      </trkpt>
      <trkpt lat="46.33242" lon="6.27386">
        <ele>420.20001220703</ele>
        <time>2013-05-10T13:49:56.000Z</time>
      </trkpt>
      <trkpt lat="46.33235" lon="6.27376">
        <ele>420.20001220703</ele>
        <time>2013-05-10T13:49:57.000Z</time>
      </trkpt>
      <trkpt lat="46.33205" lon="6.27318">
        <ele>420.20001220703</ele>
        <time>2013-05-10T13:50:03.000Z</time>
      </trkpt>
      <trkpt lat="46.33186" lon="6.27273">
        <ele>420.60000610352</ele>
        <time>2013-05-10T13:50:08.000Z</time>
      </trkpt>
      <trkpt lat="46.33167" lon="6.27225">
        <ele>420.20001220703</ele>
        <time>2013-05-10T13:50:14.000Z</time>
      </trkpt>
      <trkpt lat="46.33147" lon="6.27185">
        <ele>420.20001220703</ele>
        <time>2013-05-10T13:50:19.000Z</time>
      </trkpt>
      <trkpt lat="46.33132" lon="6.27164">
        <ele>419.60000610352</ele>
        <time>2013-05-10T13:50:22.000Z</time>
      </trkpt>
      <trkpt lat="46.33094" lon="6.27129">
        <ele>420.20001220703</ele>
        <time>2013-05-10T13:50:28.000Z</time>
      </trkpt>
      <trkpt lat="46.33049" lon="6.27094">
        <ele>419.60000610352</ele>
        <time>2013-05-10T13:50:35.000Z</time>
      </trkpt>
      <trkpt lat="46.33031" lon="6.27078">
        <ele>419.60000610352</ele>
        <time>2013-05-10T13:50:38.000Z</time>
      </trkpt>
      <trkpt lat="46.32993" lon="6.2704">
        <ele>419.20001220703</ele>
        <time>2013-05-10T13:50:45.000Z</time>
      </trkpt>
      <trkpt lat="46.32947" lon="6.27002">
        <ele>419.60000610352</ele>
        <time>2013-05-10T13:50:53.000Z</time>
      </trkpt>
      <trkpt lat="46.32919" lon="6.26978">
        <ele>420.20001220703</ele>
        <time>2013-05-10T13:50:58.000Z</time>
      </trkpt>
      <trkpt lat="46.32882" lon="6.26944">
        <ele>421.60000610352</ele>
        <time>2013-05-10T13:51:04.000Z</time>
      </trkpt>
      <trkpt lat="46.32855" lon="6.26912">
        <ele>422.60000610352</ele>
        <time>2013-05-10T13:51:09.000Z</time>
      </trkpt>
      <trkpt lat="46.32841" lon="6.26891">
        <ele>423.39999389648</ele>
        <time>2013-05-10T13:51:12.000Z</time>
      </trkpt>
      <trkpt lat="46.32817" lon="6.26839">
        <ele>424.39999389648</ele>
        <time>2013-05-10T13:51:19.000Z</time>
      </trkpt>
      <trkpt lat="46.32794" lon="6.2681">
        <ele>426</ele>
        <time>2013-05-10T13:51:25.000Z</time>
      </trkpt>
      <trkpt lat="46.32761" lon="6.26788">
        <ele>427.39999389648</ele>
        <time>2013-05-10T13:51:32.000Z</time>
      </trkpt>
      <trkpt lat="46.32722" lon="6.26763">
        <ele>428.79998779297</ele>
        <time>2013-05-10T13:51:40.000Z</time>
      </trkpt>
      <trkpt lat="46.32713" lon="6.26756">
        <ele>429.20001220703</ele>
        <time>2013-05-10T13:51:42.000Z</time>
      </trkpt>
      <trkpt lat="46.32693" lon="6.26753">
        <ele>429.20001220703</ele>
        <time>2013-05-10T13:51:46.000Z</time>
      </trkpt>
      <trkpt lat="46.32669" lon="6.26761">
        <ele>428.79998779297</ele>
        <time>2013-05-10T13:51:51.000Z</time>
      </trkpt>
      <trkpt lat="46.32641" lon="6.26764">
        <ele>428.79998779297</ele>
        <time>2013-05-10T13:51:56.000Z</time>
      </trkpt>
      <trkpt lat="46.32596" lon="6.26771">
        <ele>429.20001220703</ele>
        <time>2013-05-10T13:52:03.000Z</time>
      </trkpt>
      <trkpt lat="46.32556" lon="6.26777">
        <ele>428.79998779297</ele>
        <time>2013-05-10T13:52:09.000Z</time>
      </trkpt>
      <trkpt lat="46.32524" lon="6.26785">
        <ele>429.20001220703</ele>
        <time>2013-05-10T13:52:14.000Z</time>
      </trkpt>
      <trkpt lat="46.3249" lon="6.26796">
        <ele>428.79998779297</ele>
        <time>2013-05-10T13:52:20.000Z</time>
      </trkpt>
      <trkpt lat="46.32445" lon="6.26812">
        <ele>428.39999389648</ele>
        <time>2013-05-10T13:52:27.000Z</time>
      </trkpt>
      <trkpt lat="46.32406" lon="6.26827">
        <ele>428.79998779297</ele>
        <time>2013-05-10T13:52:33.000Z</time>
      </trkpt>
      <trkpt lat="46.3236" lon="6.26844">
        <ele>428.39999389648</ele>
        <time>2013-05-10T13:52:40.000Z</time>
      </trkpt>
      <trkpt lat="46.32319" lon="6.26859">
        <ele>427.79998779297</ele>
        <time>2013-05-10T13:52:47.000Z</time>
      </trkpt>
      <trkpt lat="46.32313" lon="6.26861">
        <ele>427.79998779297</ele>
        <time>2013-05-10T13:52:48.000Z</time>
      </trkpt>
      <trkpt lat="46.32269" lon="6.26878">
        <ele>426.39999389648</ele>
        <time>2013-05-10T13:52:55.000Z</time>
      </trkpt>
      <trkpt lat="46.32242" lon="6.26891">
        <ele>426.39999389648</ele>
        <time>2013-05-10T13:52:59.000Z</time>
      </trkpt>
      <trkpt lat="46.32221" lon="6.26897">
        <ele>426.39999389648</ele>
        <time>2013-05-10T13:53:02.000Z</time>
      </trkpt>
      <trkpt lat="46.32156" lon="6.26921">
        <ele>426</ele>
        <time>2013-05-10T13:53:11.000Z</time>
      </trkpt>
      <trkpt lat="46.32084" lon="6.26947">
        <ele>425</ele>
        <time>2013-05-10T13:53:21.000Z</time>
      </trkpt>
      <trkpt lat="46.32034" lon="6.26952">
        <ele>424.39999389648</ele>
        <time>2013-05-10T13:53:28.000Z</time>
      </trkpt>
      <trkpt lat="46.31979" lon="6.2694">
        <ele>423.39999389648</ele>
        <time>2013-05-10T13:53:36.000Z</time>
      </trkpt>
      <trkpt lat="46.31967" lon="6.26935">
        <ele>423.39999389648</ele>
        <time>2013-05-10T13:53:38.000Z</time>
      </trkpt>
      <trkpt lat="46.3195" lon="6.2692">
        <ele>424</ele>
        <time>2013-05-10T13:53:42.000Z</time>
      </trkpt>
      <trkpt lat="46.31946" lon="6.26915">
        <ele>424.39999389648</ele>
        <time>2013-05-10T13:53:45.000Z</time>
      </trkpt>
      <trkpt lat="46.31942" lon="6.26914">
        <ele>424.39999389648</ele>
        <time>2013-05-10T13:53:48.000Z</time>
      </trkpt>
      <trkpt lat="46.31929" lon="6.26907">
        <ele>425</ele>
        <time>2013-05-10T13:53:55.000Z</time>
      </trkpt>
      <trkpt lat="46.31916" lon="6.26895">
        <ele>424</ele>
        <time>2013-05-10T13:54:00.000Z</time>
      </trkpt>
      <trkpt lat="46.31898" lon="6.26878">
        <ele>425</ele>
        <time>2013-05-10T13:54:05.000Z</time>
      </trkpt>
      <trkpt lat="46.31869" lon="6.26842">
        <ele>425</ele>
        <time>2013-05-10T13:54:13.000Z</time>
      </trkpt>
      <trkpt lat="46.31842" lon="6.26811">
        <ele>424</ele>
        <time>2013-05-10T13:54:19.000Z</time>
      </trkpt>
      <trkpt lat="46.31801" lon="6.26767">
        <ele>423</ele>
        <time>2013-05-10T13:54:27.000Z</time>
      </trkpt>
      <trkpt lat="46.31771" lon="6.26736">
        <ele>422.60000610352</ele>
        <time>2013-05-10T13:54:34.000Z</time>
      </trkpt>
      <trkpt lat="46.31767" lon="6.26727">
        <ele>422</ele>
        <time>2013-05-10T13:54:39.000Z</time>
      </trkpt>
      <trkpt lat="46.31768" lon="6.26726">
        <ele>421.60000610352</ele>
        <time>2013-05-10T13:54:45.000Z</time>
      </trkpt>
      <trkpt lat="46.31768" lon="6.26732">
        <ele>421.60000610352</ele>
        <time>2013-05-10T13:54:50.000Z</time>
      </trkpt>
      <trkpt lat="46.31757" lon="6.26724">
        <ele>421.60000610352</ele>
        <time>2013-05-10T13:54:54.000Z</time>
      </trkpt>
      <trkpt lat="46.31735" lon="6.26702">
        <ele>421</ele>
        <time>2013-05-10T13:55:00.000Z</time>
      </trkpt>
      <trkpt lat="46.3173" lon="6.26697">
        <ele>421</ele>
        <time>2013-05-10T13:55:01.000Z</time>
      </trkpt>
      <trkpt lat="46.3171" lon="6.26677">
        <ele>421.60000610352</ele>
        <time>2013-05-10T13:55:05.000Z</time>
      </trkpt>
      <trkpt lat="46.31693" lon="6.2665">
        <ele>422.60000610352</ele>
        <time>2013-05-10T13:55:09.000Z</time>
      </trkpt>
      <trkpt lat="46.31679" lon="6.2664">
        <ele>423</ele>
        <time>2013-05-10T13:55:12.000Z</time>
      </trkpt>
      <trkpt lat="46.31673" lon="6.26642">
        <ele>423</ele>
        <time>2013-05-10T13:55:13.000Z</time>
      </trkpt>
      <trkpt lat="46.31645" lon="6.26648">
        <ele>424</ele>
        <time>2013-05-10T13:55:18.000Z</time>
      </trkpt>
      <trkpt lat="46.31624" lon="6.26659">
        <ele>425</ele>
        <time>2013-05-10T13:55:22.000Z</time>
      </trkpt>
      <trkpt lat="46.31614" lon="6.26668">
        <ele>425.39999389648</ele>
        <time>2013-05-10T13:55:24.000Z</time>
      </trkpt>
      <trkpt lat="46.31593" lon="6.26672">
        <ele>426.39999389648</ele>
        <time>2013-05-10T13:55:28.000Z</time>
      </trkpt>
      <trkpt lat="46.31584" lon="6.26665">
        <ele>426.79998779297</ele>
        <time>2013-05-10T13:55:30.000Z</time>
      </trkpt>
      <trkpt lat="46.31558" lon="6.2663">
        <ele>428.39999389648</ele>
        <time>2013-05-10T13:55:37.000Z</time>
      </trkpt>
      <trkpt lat="46.3154" lon="6.266">
        <ele>429.20001220703</ele>
        <time>2013-05-10T13:55:42.000Z</time>
      </trkpt>
      <trkpt lat="46.315" lon="6.26551">
        <ele>428.79998779297</ele>
        <time>2013-05-10T13:55:51.000Z</time>
      </trkpt>
      <trkpt lat="46.31456" lon="6.26505">
        <ele>428.79998779297</ele>
        <time>2013-05-10T13:56:00.000Z</time>
      </trkpt>
      <trkpt lat="46.31407" lon="6.26453">
        <ele>428.79998779297</ele>
        <time>2013-05-10T13:56:09.000Z</time>
      </trkpt>
      <trkpt lat="46.31355" lon="6.26398">
        <ele>428.39999389648</ele>
        <time>2013-05-10T13:56:18.000Z</time>
      </trkpt>
      <trkpt lat="46.31289" lon="6.26329">
        <ele>428.79998779297</ele>
        <time>2013-05-10T13:56:29.000Z</time>
      </trkpt>
      <trkpt lat="46.3124" lon="6.26276">
        <ele>428.79998779297</ele>
        <time>2013-05-10T13:56:37.000Z</time>
      </trkpt>
      <trkpt lat="46.31165" lon="6.26197">
        <ele>429.20001220703</ele>
        <time>2013-05-10T13:56:49.000Z</time>
      </trkpt>
      <trkpt lat="46.31111" lon="6.26141">
        <ele>428.79998779297</ele>
        <time>2013-05-10T13:56:58.000Z</time>
      </trkpt>
      <trkpt lat="46.31051" lon="6.26067">
        <ele>428.39999389648</ele>
        <time>2013-05-10T13:57:09.000Z</time>
      </trkpt>
      <trkpt lat="46.30999" lon="6.25994">
        <ele>428.79998779297</ele>
        <time>2013-05-10T13:57:19.000Z</time>
      </trkpt>
      <trkpt lat="46.30958" lon="6.25934">
        <ele>428.79998779297</ele>
        <time>2013-05-10T13:57:27.000Z</time>
      </trkpt>
      <trkpt lat="46.3091" lon="6.25854">
        <ele>428.39999389648</ele>
        <time>2013-05-10T13:57:37.000Z</time>
      </trkpt>
      <trkpt lat="46.30865" lon="6.25775">
        <ele>427.79998779297</ele>
        <time>2013-05-10T13:57:46.000Z</time>
      </trkpt>
      <trkpt lat="46.30826" lon="6.25716">
        <ele>427.79998779297</ele>
        <time>2013-05-10T13:57:53.000Z</time>
      </trkpt>
      <trkpt lat="46.30792" lon="6.25679">
        <ele>426.79998779297</ele>
        <time>2013-05-10T13:57:58.000Z</time>
      </trkpt>
      <trkpt lat="46.30725" lon="6.25624">
        <ele>423</ele>
        <time>2013-05-10T13:58:06.000Z</time>
      </trkpt>
      <trkpt lat="46.30693" lon="6.2559">
        <ele>421.60000610352</ele>
        <time>2013-05-10T13:58:10.000Z</time>
      </trkpt>
      <trkpt lat="46.30656" lon="6.25521">
        <ele>419.20001220703</ele>
        <time>2013-05-10T13:58:16.000Z</time>
      </trkpt>
      <trkpt lat="46.30616" lon="6.25405">
        <ele>415.79998779297</ele>
        <time>2013-05-10T13:58:25.000Z</time>
      </trkpt>
      <trkpt lat="46.30613" lon="6.25391">
        <ele>415.39999389648</ele>
        <time>2013-05-10T13:58:26.000Z</time>
      </trkpt>
      <trkpt lat="46.30611" lon="6.25333">
        <ele>413</ele>
        <time>2013-05-10T13:58:30.000Z</time>
      </trkpt>
      <trkpt lat="46.3062" lon="6.25291">
        <ele>411</ele>
        <time>2013-05-10T13:58:33.000Z</time>
      </trkpt>
      <trkpt lat="46.30642" lon="6.25209">
        <ele>408.20001220703</ele>
        <time>2013-05-10T13:58:39.000Z</time>
      </trkpt>
      <trkpt lat="46.3064" lon="6.25152">
        <ele>406.20001220703</ele>
        <time>2013-05-10T13:58:43.000Z</time>
      </trkpt>
      <trkpt lat="46.30626" lon="6.2511">
        <ele>405.79998779297</ele>
        <time>2013-05-10T13:58:46.000Z</time>
      </trkpt>
      <trkpt lat="46.30557" lon="6.24969">
        <ele>401.39999389648</ele>
        <time>2013-05-10T13:58:57.000Z</time>
      </trkpt>
      <trkpt lat="46.3052" lon="6.24915">
        <ele>399</ele>
        <time>2013-05-10T13:59:02.000Z</time>
      </trkpt>
      <trkpt lat="46.3045" lon="6.24865">
        <ele>395.60000610352</ele>
        <time>2013-05-10T13:59:09.000Z</time>
      </trkpt>
      <trkpt lat="46.3036" lon="6.24805">
        <ele>392.20001220703</ele>
        <time>2013-05-10T13:59:18.000Z</time>
      </trkpt>
      <trkpt lat="46.30313" lon="6.24777">
        <ele>389.79998779297</ele>
        <time>2013-05-10T13:59:23.000Z</time>
      </trkpt>
      <trkpt lat="46.3027" lon="6.24749">
        <ele>388</ele>
        <time>2013-05-10T13:59:28.000Z</time>
      </trkpt>
      <trkpt lat="46.30249" lon="6.24706">
        <ele>387.39999389648</ele>
        <time>2013-05-10T13:59:32.000Z</time>
      </trkpt>
      <trkpt lat="46.3025" lon="6.24679">
        <ele>387.39999389648</ele>
        <time>2013-05-10T13:59:34.000Z</time>
      </trkpt>
      <trkpt lat="46.30257" lon="6.24618">
        <ele>387.39999389648</ele>
        <time>2013-05-10T13:59:39.000Z</time>
      </trkpt>
      <trkpt lat="46.30253" lon="6.24558">
        <ele>387</ele>
        <time>2013-05-10T13:59:44.000Z</time>
      </trkpt>
      <trkpt lat="46.30251" lon="6.24533">
        <ele>386.39999389648</ele>
        <time>2013-05-10T13:59:46.000Z</time>
      </trkpt>
      <trkpt lat="46.30252" lon="6.24496">
        <ele>385.60000610352</ele>
        <time>2013-05-10T13:59:49.000Z</time>
      </trkpt>
      <trkpt lat="46.30239" lon="6.24442">
        <ele>383.60000610352</ele>
        <time>2013-05-10T13:59:54.000Z</time>
      </trkpt>
      <trkpt lat="46.30219" lon="6.24426">
        <ele>383.20001220703</ele>
        <time>2013-05-10T13:59:57.000Z</time>
      </trkpt>
      <trkpt lat="46.30173" lon="6.24414">
        <ele>385</ele>
        <time>2013-05-10T14:00:03.000Z</time>
      </trkpt>
      <trkpt lat="46.30134" lon="6.24388">
        <ele>390.39999389648</ele>
        <time>2013-05-10T14:00:09.000Z</time>
      </trkpt>
      <trkpt lat="46.3012" lon="6.24381">
        <ele>389.79998779297</ele>
        <time>2013-05-10T14:00:11.000Z</time>
      </trkpt>
      <trkpt lat="46.30092" lon="6.24377">
        <ele>389.39999389648</ele>
        <time>2013-05-10T14:00:15.000Z</time>
      </trkpt>
      <trkpt lat="46.30045" lon="6.24386">
        <ele>389.39999389648</ele>
        <time>2013-05-10T14:00:22.000Z</time>
      </trkpt>
      <trkpt lat="46.29991" lon="6.24394">
        <ele>388.79998779297</ele>
        <time>2013-05-10T14:00:30.000Z</time>
      </trkpt>
      <trkpt lat="46.29944" lon="6.24401">
        <ele>389.79998779297</ele>
        <time>2013-05-10T14:00:37.000Z</time>
      </trkpt>
      <trkpt lat="46.29917" lon="6.24403">
        <ele>389.39999389648</ele>
        <time>2013-05-10T14:00:41.000Z</time>
      </trkpt>
      <trkpt lat="46.29866" lon="6.24397">
        <ele>390.39999389648</ele>
        <time>2013-05-10T14:00:49.000Z</time>
      </trkpt>
      <trkpt lat="46.29823" lon="6.24384">
        <ele>392.20001220703</ele>
        <time>2013-05-10T14:00:56.000Z</time>
      </trkpt>
      <trkpt lat="46.29768" lon="6.24369">
        <ele>394.20001220703</ele>
        <time>2013-05-10T14:01:04.000Z</time>
      </trkpt>
      <trkpt lat="46.29712" lon="6.2435">
        <ele>395.20001220703</ele>
        <time>2013-05-10T14:01:13.000Z</time>
      </trkpt>
      <trkpt lat="46.29668" lon="6.24335">
        <ele>394.60000610352</ele>
        <time>2013-05-10T14:01:20.000Z</time>
      </trkpt>
      <trkpt lat="46.29636" lon="6.24322">
        <ele>396.20001220703</ele>
        <time>2013-05-10T14:01:25.000Z</time>
      </trkpt>
      <trkpt lat="46.29612" lon="6.24315">
        <ele>397</ele>
        <time>2013-05-10T14:01:29.000Z</time>
      </trkpt>
      <trkpt lat="46.29569" lon="6.24296">
        <ele>398.60000610352</ele>
        <time>2013-05-10T14:01:36.000Z</time>
      </trkpt>
      <trkpt lat="46.29534" lon="6.24284">
        <ele>400</ele>
        <time>2013-05-10T14:01:42.000Z</time>
      </trkpt>
      <trkpt lat="46.2949" lon="6.24266">
        <ele>402.39999389648</ele>
        <time>2013-05-10T14:01:49.000Z</time>
      </trkpt>
      <trkpt lat="46.29454" lon="6.24246">
        <ele>403.79998779297</ele>
        <time>2013-05-10T14:01:55.000Z</time>
      </trkpt>
      <trkpt lat="46.29431" lon="6.24233">
        <ele>404.79998779297</ele>
        <time>2013-05-10T14:01:59.000Z</time>
      </trkpt>
      <trkpt lat="46.29396" lon="6.24206">
        <ele>404.20001220703</ele>
        <time>2013-05-10T14:02:05.000Z</time>
      </trkpt>
      <trkpt lat="46.29358" lon="6.24169">
        <ele>404.20001220703</ele>
        <time>2013-05-10T14:02:12.000Z</time>
      </trkpt>
      <trkpt lat="46.29305" lon="6.24104">
        <ele>404.79998779297</ele>
        <time>2013-05-10T14:02:22.000Z</time>
      </trkpt>
      <trkpt lat="46.29266" lon="6.2406">
        <ele>405.20001220703</ele>
        <time>2013-05-10T14:02:29.000Z</time>
      </trkpt>
      <trkpt lat="46.29204" lon="6.23999">
        <ele>405.79998779297</ele>
        <time>2013-05-10T14:02:39.000Z</time>
      </trkpt>
      <trkpt lat="46.29139" lon="6.23939">
        <ele>405.20001220703</ele>
        <time>2013-05-10T14:02:49.000Z</time>
      </trkpt>
      <trkpt lat="46.29085" lon="6.23888">
        <ele>405.20001220703</ele>
        <time>2013-05-10T14:02:57.000Z</time>
      </trkpt>
      <trkpt lat="46.29015" lon="6.23822">
        <ele>404.79998779297</ele>
        <time>2013-05-10T14:03:07.000Z</time>
      </trkpt>
      <trkpt lat="46.28953" lon="6.23763">
        <ele>402.79998779297</ele>
        <time>2013-05-10T14:03:15.000Z</time>
      </trkpt>
      <trkpt lat="46.2888" lon="6.23695">
        <ele>401</ele>
        <time>2013-05-10T14:03:24.000Z</time>
      </trkpt>
      <trkpt lat="46.28811" lon="6.23626">
        <ele>401</ele>
        <time>2013-05-10T14:03:33.000Z</time>
      </trkpt>
      <trkpt lat="46.28752" lon="6.23549">
        <ele>401.39999389648</ele>
        <time>2013-05-10T14:03:42.000Z</time>
      </trkpt>
      <trkpt lat="46.28699" lon="6.23463">
        <ele>401</ele>
        <time>2013-05-10T14:03:51.000Z</time>
      </trkpt>
      <trkpt lat="46.28664" lon="6.23405">
        <ele>401.79998779297</ele>
        <time>2013-05-10T14:03:57.000Z</time>
      </trkpt>
      <trkpt lat="46.28631" lon="6.23345">
        <ele>402.39999389648</ele>
        <time>2013-05-10T14:04:03.000Z</time>
      </trkpt>
      <trkpt lat="46.28581" lon="6.23243">
        <ele>403.39999389648</ele>
        <time>2013-05-10T14:04:13.000Z</time>
      </trkpt>
      <trkpt lat="46.28543" lon="6.23162">
        <ele>403.79998779297</ele>
        <time>2013-05-10T14:04:21.000Z</time>
      </trkpt>
      <trkpt lat="46.28504" lon="6.23094">
        <ele>403.39999389648</ele>
        <time>2013-05-10T14:04:28.000Z</time>
      </trkpt>
      <trkpt lat="46.28468" lon="6.23055">
        <ele>402.39999389648</ele>
        <time>2013-05-10T14:04:33.000Z</time>
      </trkpt>
      <trkpt lat="46.28405" lon="6.22995">
        <ele>400.39999389648</ele>
        <time>2013-05-10T14:04:41.000Z</time>
      </trkpt>
      <trkpt lat="46.28354" lon="6.22954">
        <ele>399.39999389648</ele>
        <time>2013-05-10T14:04:47.000Z</time>
      </trkpt>
      <trkpt lat="46.28304" lon="6.22914">
        <ele>398.60000610352</ele>
        <time>2013-05-10T14:04:53.000Z</time>
      </trkpt>
      <trkpt lat="46.28237" lon="6.2286">
        <ele>397.60000610352</ele>
        <time>2013-05-10T14:05:01.000Z</time>
      </trkpt>
      <trkpt lat="46.28176" lon="6.22805">
        <ele>399.39999389648</ele>
        <time>2013-05-10T14:05:09.000Z</time>
      </trkpt>
      <trkpt lat="46.2812" lon="6.22752">
        <ele>400</ele>
        <time>2013-05-10T14:05:17.000Z</time>
      </trkpt>
      <trkpt lat="46.28059" lon="6.227">
        <ele>401</ele>
        <time>2013-05-10T14:05:26.000Z</time>
      </trkpt>
      <trkpt lat="46.28012" lon="6.22656">
        <ele>401.39999389648</ele>
        <time>2013-05-10T14:05:33.000Z</time>
      </trkpt>
      <trkpt lat="46.27972" lon="6.22613">
        <ele>401.39999389648</ele>
        <time>2013-05-10T14:05:39.000Z</time>
      </trkpt>
      <trkpt lat="46.27926" lon="6.22561">
        <ele>401</ele>
        <time>2013-05-10T14:05:46.000Z</time>
      </trkpt>
      <trkpt lat="46.27875" lon="6.22504">
        <ele>402.39999389648</ele>
        <time>2013-05-10T14:05:54.000Z</time>
      </trkpt>
      <trkpt lat="46.27822" lon="6.22451">
        <ele>404.79998779297</ele>
        <time>2013-05-10T14:06:02.000Z</time>
      </trkpt>
      <trkpt lat="46.27763" lon="6.22393">
        <ele>407.60000610352</ele>
        <time>2013-05-10T14:06:11.000Z</time>
      </trkpt>
      <trkpt lat="46.27701" lon="6.22336">
        <ele>411</ele>
        <time>2013-05-10T14:06:20.000Z</time>
      </trkpt>
      <trkpt lat="46.27648" lon="6.22284">
        <ele>410.60000610352</ele>
        <time>2013-05-10T14:06:28.000Z</time>
      </trkpt>
      <trkpt lat="46.27605" lon="6.22248">
        <ele>412</ele>
        <time>2013-05-10T14:06:34.000Z</time>
      </trkpt>
      <trkpt lat="46.27564" lon="6.22226">
        <ele>412.39999389648</ele>
        <time>2013-05-10T14:06:39.000Z</time>
      </trkpt>
      <trkpt lat="46.27505" lon="6.22196">
        <ele>411.39999389648</ele>
        <time>2013-05-10T14:06:46.000Z</time>
      </trkpt>
      <trkpt lat="46.27429" lon="6.22156">
        <ele>409</ele>
        <time>2013-05-10T14:06:55.000Z</time>
      </trkpt>
      <trkpt lat="46.27381" lon="6.22123">
        <ele>408.20001220703</ele>
        <time>2013-05-10T14:07:01.000Z</time>
      </trkpt>
      <trkpt lat="46.27334" lon="6.22086">
        <ele>407.20001220703</ele>
        <time>2013-05-10T14:07:07.000Z</time>
      </trkpt>
      <trkpt lat="46.27284" lon="6.22062">
        <ele>407.20001220703</ele>
        <time>2013-05-10T14:07:13.000Z</time>
      </trkpt>
      <trkpt lat="46.27236" lon="6.22038">
        <ele>405.20001220703</ele>
        <time>2013-05-10T14:07:19.000Z</time>
      </trkpt>
      <trkpt lat="46.27184" lon="6.21996">
        <ele>402.79998779297</ele>
        <time>2013-05-10T14:07:26.000Z</time>
      </trkpt>
      <trkpt lat="46.2712" lon="6.2194">
        <ele>400</ele>
        <time>2013-05-10T14:07:35.000Z</time>
      </trkpt>
      <trkpt lat="46.27064" lon="6.21894">
        <ele>398.60000610352</ele>
        <time>2013-05-10T14:07:43.000Z</time>
      </trkpt>
      <trkpt lat="46.2702" lon="6.21858">
        <ele>398.60000610352</ele>
        <time>2013-05-10T14:07:49.000Z</time>
      </trkpt>
      <trkpt lat="46.26983" lon="6.21828">
        <ele>397</ele>
        <time>2013-05-10T14:07:54.000Z</time>
      </trkpt>
      <trkpt lat="46.26928" lon="6.21796">
        <ele>397</ele>
        <time>2013-05-10T14:08:01.000Z</time>
      </trkpt>
      <trkpt lat="46.26866" lon="6.21766">
        <ele>397.60000610352</ele>
        <time>2013-05-10T14:08:09.000Z</time>
      </trkpt>
      <trkpt lat="46.26805" lon="6.21737">
        <ele>397.60000610352</ele>
        <time>2013-05-10T14:08:17.000Z</time>
      </trkpt>
      <trkpt lat="46.26746" lon="6.21708">
        <ele>397.60000610352</ele>
        <time>2013-05-10T14:08:25.000Z</time>
      </trkpt>
      <trkpt lat="46.26711" lon="6.2169">
        <ele>398</ele>
        <time>2013-05-10T14:08:30.000Z</time>
      </trkpt>
      <trkpt lat="46.26665" lon="6.21656">
        <ele>398</ele>
        <time>2013-05-10T14:08:37.000Z</time>
      </trkpt>
      <trkpt lat="46.26633" lon="6.21627">
        <ele>398.60000610352</ele>
        <time>2013-05-10T14:08:42.000Z</time>
      </trkpt>
      <trkpt lat="46.26575" lon="6.21579">
        <ele>400.39999389648</ele>
        <time>2013-05-10T14:08:51.000Z</time>
      </trkpt>
      <trkpt lat="46.26527" lon="6.21537">
        <ele>401.79998779297</ele>
        <time>2013-05-10T14:08:59.000Z</time>
      </trkpt>
      <trkpt lat="46.2649" lon="6.21496">
        <ele>402.79998779297</ele>
        <time>2013-05-10T14:09:06.000Z</time>
      </trkpt>
      <trkpt lat="46.26449" lon="6.21451">
        <ele>402.39999389648</ele>
        <time>2013-05-10T14:09:14.000Z</time>
      </trkpt>
      <trkpt lat="46.2641" lon="6.21418">
        <ele>402.39999389648</ele>
        <time>2013-05-10T14:09:21.000Z</time>
      </trkpt>
      <trkpt lat="46.26355" lon="6.21385">
        <ele>402.79998779297</ele>
        <time>2013-05-10T14:09:30.000Z</time>
      </trkpt>
      <trkpt lat="46.26304" lon="6.21358">
        <ele>403.39999389648</ele>
        <time>2013-05-10T14:09:38.000Z</time>
      </trkpt>
      <trkpt lat="46.26258" lon="6.21336">
        <ele>404.79998779297</ele>
        <time>2013-05-10T14:09:45.000Z</time>
      </trkpt>
      <trkpt lat="46.2621" lon="6.21316">
        <ele>405.79998779297</ele>
        <time>2013-05-10T14:09:52.000Z</time>
      </trkpt>
      <trkpt lat="46.26141" lon="6.21288">
        <ele>405.79998779297</ele>
        <time>2013-05-10T14:10:02.000Z</time>
      </trkpt>
      <trkpt lat="46.26105" lon="6.21275">
        <ele>407.20001220703</ele>
        <time>2013-05-10T14:10:08.000Z</time>
      </trkpt>
      <trkpt lat="46.26053" lon="6.21259">
        <ele>407.60000610352</ele>
        <time>2013-05-10T14:10:17.000Z</time>
      </trkpt>
      <trkpt lat="46.26002" lon="6.21244">
        <ele>408.60000610352</ele>
        <time>2013-05-10T14:10:25.000Z</time>
      </trkpt>
      <trkpt lat="46.25966" lon="6.2123">
        <ele>409.60000610352</ele>
        <time>2013-05-10T14:10:30.000Z</time>
      </trkpt>
      <trkpt lat="46.25923" lon="6.2119">
        <ele>410</ele>
        <time>2013-05-10T14:10:37.000Z</time>
      </trkpt>
      <trkpt lat="46.25912" lon="6.21176">
        <ele>410.60000610352</ele>
        <time>2013-05-10T14:10:39.000Z</time>
      </trkpt>
      <trkpt lat="46.25887" lon="6.21112">
        <ele>409.60000610352</ele>
        <time>2013-05-10T14:10:46.000Z</time>
      </trkpt>
      <trkpt lat="46.25866" lon="6.21034">
        <ele>408.60000610352</ele>
        <time>2013-05-10T14:10:54.000Z</time>
      </trkpt>
      <trkpt lat="46.2584" lon="6.20971">
        <ele>408.60000610352</ele>
        <time>2013-05-10T14:11:01.000Z</time>
      </trkpt>
      <trkpt lat="46.25822" lon="6.20939">
        <ele>408.60000610352</ele>
        <time>2013-05-10T14:11:05.000Z</time>
      </trkpt>
      <trkpt lat="46.25772" lon="6.20877">
        <ele>410</ele>
        <time>2013-05-10T14:11:14.000Z</time>
      </trkpt>
      <trkpt lat="46.25721" lon="6.20817">
        <ele>411.39999389648</ele>
        <time>2013-05-10T14:11:23.000Z</time>
      </trkpt>
      <trkpt lat="46.25658" lon="6.20744">
        <ele>413</ele>
        <time>2013-05-10T14:11:34.000Z</time>
      </trkpt>
      <trkpt lat="46.25604" lon="6.20684">
        <ele>412.39999389648</ele>
        <time>2013-05-10T14:11:43.000Z</time>
      </trkpt>
      <trkpt lat="46.25552" lon="6.20637">
        <ele>412.39999389648</ele>
        <time>2013-05-10T14:11:51.000Z</time>
      </trkpt>
      <trkpt lat="46.255" lon="6.20592">
        <ele>412.39999389648</ele>
        <time>2013-05-10T14:11:59.000Z</time>
      </trkpt>
      <trkpt lat="46.25435" lon="6.20521">
        <ele>414.39999389648</ele>
        <time>2013-05-10T14:12:10.000Z</time>
      </trkpt>
      <trkpt lat="46.25402" lon="6.20484">
        <ele>416.20001220703</ele>
        <time>2013-05-10T14:12:16.000Z</time>
      </trkpt>
      <trkpt lat="46.25387" lon="6.20467">
        <ele>416.20001220703</ele>
        <time>2013-05-10T14:12:19.000Z</time>
      </trkpt>
      <trkpt lat="46.2538" lon="6.2045">
        <ele>416.20001220703</ele>
        <time>2013-05-10T14:12:23.000Z</time>
      </trkpt>
      <trkpt lat="46.2538" lon="6.20447">
        <ele>415.79998779297</ele>
        <time>2013-05-10T14:12:24.000Z</time>
      </trkpt>
      <trkpt lat="46.2537" lon="6.20435">
        <ele>415.79998779297</ele>
        <time>2013-05-10T14:12:28.000Z</time>
      </trkpt>
      <trkpt lat="46.25366" lon="6.20431">
        <ele>415.39999389648</ele>
        <time>2013-05-10T14:12:29.000Z</time>
      </trkpt>
      <trkpt lat="46.2534" lon="6.20407">
        <ele>414.39999389648</ele>
        <time>2013-05-10T14:12:34.000Z</time>
      </trkpt>
      <trkpt lat="46.25305" lon="6.2037">
        <ele>413.79998779297</ele>
        <time>2013-05-10T14:12:40.000Z</time>
      </trkpt>
      <trkpt lat="46.25265" lon="6.2033">
        <ele>412.39999389648</ele>
        <time>2013-05-10T14:12:46.000Z</time>
      </trkpt>
      <trkpt lat="46.25207" lon="6.2028">
        <ele>410.60000610352</ele>
        <time>2013-05-10T14:12:54.000Z</time>
      </trkpt>
      <trkpt lat="46.25169" lon="6.20249">
        <ele>409.60000610352</ele>
        <time>2013-05-10T14:12:59.000Z</time>
      </trkpt>
      <trkpt lat="46.25116" lon="6.2021">
        <ele>407.60000610352</ele>
        <time>2013-05-10T14:13:06.000Z</time>
      </trkpt>
      <trkpt lat="46.25069" lon="6.20186">
        <ele>407.60000610352</ele>
        <time>2013-05-10T14:13:12.000Z</time>
      </trkpt>
      <trkpt lat="46.25011" lon="6.20154">
        <ele>408.60000610352</ele>
        <time>2013-05-10T14:13:20.000Z</time>
      </trkpt>
      <trkpt lat="46.24951" lon="6.20123">
        <ele>410</ele>
        <time>2013-05-10T14:13:29.000Z</time>
      </trkpt>
      <trkpt lat="46.24907" lon="6.20104">
        <ele>411.39999389648</ele>
        <time>2013-05-10T14:13:36.000Z</time>
      </trkpt>
      <trkpt lat="46.2486" lon="6.20086">
        <ele>412.39999389648</ele>
        <time>2013-05-10T14:13:44.000Z</time>
      </trkpt>
      <trkpt lat="46.248" lon="6.20064">
        <ele>413.79998779297</ele>
        <time>2013-05-10T14:13:54.000Z</time>
      </trkpt>
      <trkpt lat="46.24789" lon="6.2006">
        <ele>414.39999389648</ele>
        <time>2013-05-10T14:13:56.000Z</time>
      </trkpt>
      <trkpt lat="46.24754" lon="6.20051">
        <ele>415.79998779297</ele>
        <time>2013-05-10T14:14:03.000Z</time>
      </trkpt>
      <trkpt lat="46.24734" lon="6.20046">
        <ele>417.20001220703</ele>
        <time>2013-05-10T14:14:07.000Z</time>
      </trkpt>
      <trkpt lat="46.24717" lon="6.20046">
        <ele>417.20001220703</ele>
        <time>2013-05-10T14:14:10.000Z</time>
      </trkpt>
      <trkpt lat="46.24679" lon="6.20059">
        <ele>418.60000610352</ele>
        <time>2013-05-10T14:14:17.000Z</time>
      </trkpt>
      <trkpt lat="46.24646" lon="6.20078">
        <ele>419.60000610352</ele>
        <time>2013-05-10T14:14:23.000Z</time>
      </trkpt>
      <trkpt lat="46.2461" lon="6.20085">
        <ele>421.60000610352</ele>
        <time>2013-05-10T14:14:29.000Z</time>
      </trkpt>
      <trkpt lat="46.24604" lon="6.20084">
        <ele>421.60000610352</ele>
        <time>2013-05-10T14:14:30.000Z</time>
      </trkpt>
      <trkpt lat="46.24563" lon="6.20063">
        <ele>421</ele>
        <time>2013-05-10T14:14:37.000Z</time>
      </trkpt>
      <trkpt lat="46.24514" lon="6.20021">
        <ele>421.60000610352</ele>
        <time>2013-05-10T14:14:46.000Z</time>
      </trkpt>
      <trkpt lat="46.24474" lon="6.19972">
        <ele>421.60000610352</ele>
        <time>2013-05-10T14:14:54.000Z</time>
      </trkpt>
      <trkpt lat="46.24439" lon="6.19931">
        <ele>423.39999389648</ele>
        <time>2013-05-10T14:15:01.000Z</time>
      </trkpt>
      <trkpt lat="46.24411" lon="6.19902">
        <ele>422</ele>
        <time>2013-05-10T14:15:06.000Z</time>
      </trkpt>
      <trkpt lat="46.2435" lon="6.19854">
        <ele>420.60000610352</ele>
        <time>2013-05-10T14:15:16.000Z</time>
      </trkpt>
      <trkpt lat="46.24302" lon="6.1983">
        <ele>420.20001220703</ele>
        <time>2013-05-10T14:15:23.000Z</time>
      </trkpt>
      <trkpt lat="46.24267" lon="6.19819">
        <ele>421.60000610352</ele>
        <time>2013-05-10T14:15:28.000Z</time>
      </trkpt>
      <trkpt lat="46.24247" lon="6.19814">
        <ele>422.60000610352</ele>
        <time>2013-05-10T14:15:31.000Z</time>
      </trkpt>
      <trkpt lat="46.24233" lon="6.19812">
        <ele>423</ele>
        <time>2013-05-10T14:15:33.000Z</time>
      </trkpt>
      <trkpt lat="46.2418" lon="6.19805">
        <ele>421.60000610352</ele>
        <time>2013-05-10T14:15:41.000Z</time>
      </trkpt>
      <trkpt lat="46.24134" lon="6.19798">
        <ele>421</ele>
        <time>2013-05-10T14:15:48.000Z</time>
      </trkpt>
      <trkpt lat="46.241" lon="6.19787">
        <ele>421.60000610352</ele>
        <time>2013-05-10T14:15:53.000Z</time>
      </trkpt>
      <trkpt lat="46.24053" lon="6.19766">
        <ele>424</ele>
        <time>2013-05-10T14:16:01.000Z</time>
      </trkpt>
      <trkpt lat="46.24027" lon="6.19771">
        <ele>425.39999389648</ele>
        <time>2013-05-10T14:16:06.000Z</time>
      </trkpt>
      <trkpt lat="46.24018" lon="6.19779">
        <ele>426</ele>
        <time>2013-05-10T14:16:08.000Z</time>
      </trkpt>
      <trkpt lat="46.23997" lon="6.19801">
        <ele>426.39999389648</ele>
        <time>2013-05-10T14:16:13.000Z</time>
      </trkpt>
      <trkpt lat="46.23972" lon="6.19804">
        <ele>427.39999389648</ele>
        <time>2013-05-10T14:16:18.000Z</time>
      </trkpt>
      <trkpt lat="46.23962" lon="6.19785">
        <ele>426</ele>
        <time>2013-05-10T14:16:21.000Z</time>
      </trkpt>
      <trkpt lat="46.2393" lon="6.19736">
        <ele>426</ele>
        <time>2013-05-10T14:16:28.000Z</time>
      </trkpt>
      <trkpt lat="46.23895" lon="6.19691">
        <ele>424.39999389648</ele>
        <time>2013-05-10T14:16:34.000Z</time>
      </trkpt>
      <trkpt lat="46.23878" lon="6.19668">
        <ele>423.39999389648</ele>
        <time>2013-05-10T14:16:37.000Z</time>
      </trkpt>
      <trkpt lat="46.23858" lon="6.19634">
        <ele>422.60000610352</ele>
        <time>2013-05-10T14:16:41.000Z</time>
      </trkpt>
      <trkpt lat="46.23828" lon="6.19595">
        <ele>420.60000610352</ele>
        <time>2013-05-10T14:16:46.000Z</time>
      </trkpt>
      <trkpt lat="46.23765" lon="6.19553">
        <ele>417.20001220703</ele>
        <time>2013-05-10T14:16:54.000Z</time>
      </trkpt>
      <trkpt lat="46.23714" lon="6.19531">
        <ele>415.79998779297</ele>
        <time>2013-05-10T14:17:00.000Z</time>
      </trkpt>
      <trkpt lat="46.23671" lon="6.1951">
        <ele>413.39999389648</ele>
        <time>2013-05-10T14:17:05.000Z</time>
      </trkpt>
      <trkpt lat="46.23621" lon="6.19471">
        <ele>409</ele>
        <time>2013-05-10T14:17:11.000Z</time>
      </trkpt>
      <trkpt lat="46.23577" lon="6.19433">
        <ele>406.20001220703</ele>
        <time>2013-05-10T14:17:16.000Z</time>
      </trkpt>
      <trkpt lat="46.23497" lon="6.19364">
        <ele>401</ele>
        <time>2013-05-10T14:17:25.000Z</time>
      </trkpt>
      <trkpt lat="46.23448" lon="6.19308">
        <ele>398</ele>
        <time>2013-05-10T14:17:31.000Z</time>
      </trkpt>
      <trkpt lat="46.23384" lon="6.19214">
        <ele>393.60000610352</ele>
        <time>2013-05-10T14:17:40.000Z</time>
      </trkpt>
      <trkpt lat="46.23326" lon="6.19128">
        <ele>389.79998779297</ele>
        <time>2013-05-10T14:17:48.000Z</time>
      </trkpt>
      <trkpt lat="46.2325" lon="6.19015">
        <ele>385.60000610352</ele>
        <time>2013-05-10T14:17:58.000Z</time>
      </trkpt>
      <trkpt lat="46.23207" lon="6.18965">
        <ele>384</ele>
        <time>2013-05-10T14:18:03.000Z</time>
      </trkpt>
      <trkpt lat="46.23152" lon="6.18916">
        <ele>382.60000610352</ele>
        <time>2013-05-10T14:18:09.000Z</time>
      </trkpt>
      <trkpt lat="46.23082" lon="6.18855">
        <ele>382.20001220703</ele>
        <time>2013-05-10T14:18:17.000Z</time>
      </trkpt>
      <trkpt lat="46.23012" lon="6.18794">
        <ele>381.60000610352</ele>
        <time>2013-05-10T14:18:26.000Z</time>
      </trkpt>
      <trkpt lat="46.22958" lon="6.18744">
        <ele>381.60000610352</ele>
        <time>2013-05-10T14:18:33.000Z</time>
      </trkpt>
      <trkpt lat="46.2289" lon="6.18684">
        <ele>381.60000610352</ele>
        <time>2013-05-10T14:18:42.000Z</time>
      </trkpt>
      <trkpt lat="46.22834" lon="6.18634">
        <ele>381.60000610352</ele>
        <time>2013-05-10T14:18:50.000Z</time>
      </trkpt>
      <trkpt lat="46.22787" lon="6.18578">
        <ele>381.20001220703</ele>
        <time>2013-05-10T14:18:58.000Z</time>
      </trkpt>
      <trkpt lat="46.22771" lon="6.18557">
        <ele>381.20001220703</ele>
        <time>2013-05-10T14:19:01.000Z</time>
      </trkpt>
      <trkpt lat="46.22758" lon="6.18535">
        <ele>380.79998779297</ele>
        <time>2013-05-10T14:19:04.000Z</time>
      </trkpt>
      <trkpt lat="46.22727" lon="6.18491">
        <ele>380.79998779297</ele>
        <time>2013-05-10T14:19:11.000Z</time>
      </trkpt>
      <trkpt lat="46.22701" lon="6.18457">
        <ele>381.20001220703</ele>
        <time>2013-05-10T14:19:17.000Z</time>
      </trkpt>
      <trkpt lat="46.22665" lon="6.18421">
        <ele>381.60000610352</ele>
        <time>2013-05-10T14:19:24.000Z</time>
      </trkpt>
      <trkpt lat="46.22617" lon="6.18384">
        <ele>381.20001220703</ele>
        <time>2013-05-10T14:19:32.000Z</time>
      </trkpt>
      <trkpt lat="46.22572" lon="6.1835">
        <ele>380.79998779297</ele>
        <time>2013-05-10T14:19:40.000Z</time>
      </trkpt>
      <trkpt lat="46.22537" lon="6.18324">
        <ele>381.60000610352</ele>
        <time>2013-05-10T14:19:46.000Z</time>
      </trkpt>
      <trkpt lat="46.22519" lon="6.18311">
        <ele>381.20001220703</ele>
        <time>2013-05-10T14:19:49.000Z</time>
      </trkpt>
      <trkpt lat="46.22483" lon="6.18283">
        <ele>381.20001220703</ele>
        <time>2013-05-10T14:19:56.000Z</time>
      </trkpt>
      <trkpt lat="46.22457" lon="6.18263">
        <ele>380.79998779297</ele>
        <time>2013-05-10T14:20:02.000Z</time>
      </trkpt>
      <trkpt lat="46.22433" lon="6.18245">
        <ele>381.20001220703</ele>
        <time>2013-05-10T14:20:08.000Z</time>
      </trkpt>
      <trkpt lat="46.22429" lon="6.18243">
        <ele>381.60000610352</ele>
        <time>2013-05-10T14:20:09.000Z</time>
      </trkpt>
      <trkpt lat="46.22412" lon="6.18228">
        <ele>382.20001220703</ele>
        <time>2013-05-10T14:20:14.000Z</time>
      </trkpt>
      <trkpt lat="46.22387" lon="6.18209">
        <ele>382.60000610352</ele>
        <time>2013-05-10T14:20:22.000Z</time>
      </trkpt>
      <trkpt lat="46.22372" lon="6.18198">
        <ele>383.20001220703</ele>
        <time>2013-05-10T14:20:28.000Z</time>
      </trkpt>
      <trkpt lat="46.22361" lon="6.18189">
        <ele>383.20001220703</ele>
        <time>2013-05-10T14:20:33.000Z</time>
      </trkpt>
      <trkpt lat="46.22345" lon="6.18175">
        <ele>383.60000610352</ele>
        <time>2013-05-10T14:20:40.000Z</time>
      </trkpt>
      <trkpt lat="46.22325" lon="6.18159">
        <ele>383.60000610352</ele>
        <time>2013-05-10T14:20:46.000Z</time>
      </trkpt>
      <trkpt lat="46.22312" lon="6.18151">
        <ele>383.60000610352</ele>
        <time>2013-05-10T14:20:49.000Z</time>
      </trkpt>
      <trkpt lat="46.22303" lon="6.18145">
        <ele>383.20001220703</ele>
        <time>2013-05-10T14:20:51.000Z</time>
      </trkpt>
      <trkpt lat="46.22293" lon="6.18139">
        <ele>383.60000610352</ele>
        <time>2013-05-10T14:20:53.000Z</time>
      </trkpt>
      <trkpt lat="46.22284" lon="6.18131">
        <ele>383.60000610352</ele>
        <time>2013-05-10T14:20:55.000Z</time>
      </trkpt>
      <trkpt lat="46.22264" lon="6.18118">
        <ele>383.60000610352</ele>
        <time>2013-05-10T14:20:59.000Z</time>
      </trkpt>
      <trkpt lat="46.22234" lon="6.18096">
        <ele>385</ele>
        <time>2013-05-10T14:21:05.000Z</time>
      </trkpt>
      <trkpt lat="46.22201" lon="6.18071">
        <ele>385.60000610352</ele>
        <time>2013-05-10T14:21:12.000Z</time>
      </trkpt>
      <trkpt lat="46.22183" lon="6.18056">
        <ele>384.60000610352</ele>
        <time>2013-05-10T14:21:16.000Z</time>
      </trkpt>
      <trkpt lat="46.22155" lon="6.18034">
        <ele>384</ele>
        <time>2013-05-10T14:21:22.000Z</time>
      </trkpt>
      <trkpt lat="46.22141" lon="6.18024">
        <ele>383.20001220703</ele>
        <time>2013-05-10T14:21:25.000Z</time>
      </trkpt>
      <trkpt lat="46.22123" lon="6.18011">
        <ele>382.60000610352</ele>
        <time>2013-05-10T14:21:29.000Z</time>
      </trkpt>
      <trkpt lat="46.22106" lon="6.17998">
        <ele>383.60000610352</ele>
        <time>2013-05-10T14:21:33.000Z</time>
      </trkpt>
      <trkpt lat="46.22093" lon="6.17989">
        <ele>384</ele>
        <time>2013-05-10T14:21:36.000Z</time>
      </trkpt>
      <trkpt lat="46.22059" lon="6.17963">
        <ele>383.20001220703</ele>
        <time>2013-05-10T14:21:43.000Z</time>
      </trkpt>
      <trkpt lat="46.22021" lon="6.17937">
        <ele>382.20001220703</ele>
        <time>2013-05-10T14:21:50.000Z</time>
      </trkpt>
      <trkpt lat="46.21986" lon="6.17913">
        <ele>381.20001220703</ele>
        <time>2013-05-10T14:21:56.000Z</time>
      </trkpt>
      <trkpt lat="46.21941" lon="6.17878">
        <ele>380.79998779297</ele>
        <time>2013-05-10T14:22:04.000Z</time>
      </trkpt>
      <trkpt lat="46.21888" lon="6.17839">
        <ele>380.79998779297</ele>
        <time>2013-05-10T14:22:13.000Z</time>
      </trkpt>
      <trkpt lat="46.2184" lon="6.17803">
        <ele>380.79998779297</ele>
        <time>2013-05-10T14:22:21.000Z</time>
      </trkpt>
      <trkpt lat="46.21787" lon="6.17765">
        <ele>380.20001220703</ele>
        <time>2013-05-10T14:22:30.000Z</time>
      </trkpt>
      <trkpt lat="46.21747" lon="6.17736">
        <ele>380.79998779297</ele>
        <time>2013-05-10T14:22:37.000Z</time>
      </trkpt>
      <trkpt lat="46.21741" lon="6.17731">
        <ele>380.79998779297</ele>
        <time>2013-05-10T14:22:38.000Z</time>
      </trkpt>
      <trkpt lat="46.21692" lon="6.17696">
        <ele>381.20001220703</ele>
        <time>2013-05-10T14:22:46.000Z</time>
      </trkpt>
      <trkpt lat="46.21637" lon="6.17657">
        <ele>380.79998779297</ele>
        <time>2013-05-10T14:22:55.000Z</time>
      </trkpt>
      <trkpt lat="46.21597" lon="6.17629">
        <ele>379.79998779297</ele>
        <time>2013-05-10T14:23:02.000Z</time>
      </trkpt>
      <trkpt lat="46.21556" lon="6.17599">
        <ele>380.20001220703</ele>
        <time>2013-05-10T14:23:09.000Z</time>
      </trkpt>
      <trkpt lat="46.21514" lon="6.1757">
        <ele>379.79998779297</ele>
        <time>2013-05-10T14:23:16.000Z</time>
      </trkpt>
      <trkpt lat="46.2147" lon="6.17539">
        <ele>380.20001220703</ele>
        <time>2013-05-10T14:23:23.000Z</time>
      </trkpt>
      <trkpt lat="46.21435" lon="6.17512">
        <ele>379.79998779297</ele>
        <time>2013-05-10T14:23:29.000Z</time>
      </trkpt>
      <trkpt lat="46.21373" lon="6.17463">
        <ele>379.79998779297</ele>
        <time>2013-05-10T14:23:39.000Z</time>
      </trkpt>
      <trkpt lat="46.21335" lon="6.17438">
        <ele>379.79998779297</ele>
        <time>2013-05-10T14:23:45.000Z</time>
      </trkpt>
      <trkpt lat="46.21319" lon="6.17422">
        <ele>379.79998779297</ele>
        <time>2013-05-10T14:23:48.000Z</time>
      </trkpt>
      <trkpt lat="46.2128" lon="6.17385">
        <ele>379.20001220703</ele>
        <time>2013-05-10T14:23:55.000Z</time>
      </trkpt>
      <trkpt lat="46.21261" lon="6.17363">
        <ele>378.79998779297</ele>
        <time>2013-05-10T14:23:59.000Z</time>
      </trkpt>
      <trkpt lat="46.21244" lon="6.1735">
        <ele>378.79998779297</ele>
        <time>2013-05-10T14:24:02.000Z</time>
      </trkpt>
      <trkpt lat="46.21212" lon="6.17302">
        <ele>379.79998779297</ele>
        <time>2013-05-10T14:24:09.000Z</time>
      </trkpt>
      <trkpt lat="46.21186" lon="6.17247">
        <ele>380.20001220703</ele>
        <time>2013-05-10T14:24:16.000Z</time>
      </trkpt>
      <trkpt lat="46.21166" lon="6.17198">
        <ele>379.79998779297</ele>
        <time>2013-05-10T14:24:22.000Z</time>
      </trkpt>
      <trkpt lat="46.21133" lon="6.17127">
        <ele>379.20001220703</ele>
        <time>2013-05-10T14:24:31.000Z</time>
      </trkpt>
      <trkpt lat="46.21108" lon="6.17069">
        <ele>378.79998779297</ele>
        <time>2013-05-10T14:24:38.000Z</time>
      </trkpt>
      <trkpt lat="46.21077" lon="6.16997">
        <ele>377.79998779297</ele>
        <time>2013-05-10T14:24:47.000Z</time>
      </trkpt>
      <trkpt lat="46.2107" lon="6.16981">
        <ele>378.79998779297</ele>
        <time>2013-05-10T14:24:49.000Z</time>
      </trkpt>
      <trkpt lat="46.21049" lon="6.16935">
        <ele>381.20001220703</ele>
        <time>2013-05-10T14:24:55.000Z</time>
      </trkpt>
      <trkpt lat="46.21022" lon="6.16876">
        <ele>381.60000610352</ele>
        <time>2013-05-10T14:25:03.000Z</time>
      </trkpt>
      <trkpt lat="46.20996" lon="6.16816">
        <ele>381.20001220703</ele>
        <time>2013-05-10T14:25:11.000Z</time>
      </trkpt>
      <trkpt lat="46.20962" lon="6.16738">
        <ele>379.79998779297</ele>
        <time>2013-05-10T14:25:21.000Z</time>
      </trkpt>
      <trkpt lat="46.20936" lon="6.16684">
        <ele>379.79998779297</ele>
        <time>2013-05-10T14:25:28.000Z</time>
      </trkpt>
      <trkpt lat="46.20919" lon="6.16644">
        <ele>379.79998779297</ele>
        <time>2013-05-10T14:25:33.000Z</time>
      </trkpt>
      <trkpt lat="46.20899" lon="6.16598">
        <ele>379.79998779297</ele>
        <time>2013-05-10T14:25:39.000Z</time>
      </trkpt>
      <trkpt lat="46.20872" lon="6.16537">
        <ele>380.20001220703</ele>
        <time>2013-05-10T14:25:47.000Z</time>
      </trkpt>
      <trkpt lat="46.20845" lon="6.16479">
        <ele>378.79998779297</ele>
        <time>2013-05-10T14:25:55.000Z</time>
      </trkpt>
      <trkpt lat="46.20826" lon="6.16426">
        <ele>378.79998779297</ele>
        <time>2013-05-10T14:26:02.000Z</time>
      </trkpt>
      <trkpt lat="46.20808" lon="6.16364">
        <ele>378.39999389648</ele>
        <time>2013-05-10T14:26:10.000Z</time>
      </trkpt>
      <trkpt lat="46.20801" lon="6.16334">
        <ele>378.79998779297</ele>
        <time>2013-05-10T14:26:14.000Z</time>
      </trkpt>
      <trkpt lat="46.20797" lon="6.1632">
        <ele>378.79998779297</ele>
        <time>2013-05-10T14:26:16.000Z</time>
      </trkpt>
      <trkpt lat="46.20784" lon="6.16267">
        <ele>378.79998779297</ele>
        <time>2013-05-10T14:26:23.000Z</time>
      </trkpt>
      <trkpt lat="46.2077" lon="6.16223">
        <ele>378.79998779297</ele>
        <time>2013-05-10T14:26:29.000Z</time>
      </trkpt>
      <trkpt lat="46.20765" lon="6.16209">
        <ele>378.79998779297</ele>
        <time>2013-05-10T14:26:31.000Z</time>
      </trkpt>
      <trkpt lat="46.20761" lon="6.16197">
        <ele>378.79998779297</ele>
        <time>2013-05-10T14:26:33.000Z</time>
      </trkpt>
      <trkpt lat="46.20749" lon="6.16164">
        <ele>379.79998779297</ele>
        <time>2013-05-10T14:26:39.000Z</time>
      </trkpt>
      <trkpt lat="46.20737" lon="6.16137">
        <ele>380.20001220703</ele>
        <time>2013-05-10T14:26:44.000Z</time>
      </trkpt>
      <trkpt lat="46.20729" lon="6.1612">
        <ele>380.20001220703</ele>
        <time>2013-05-10T14:26:47.000Z</time>
      </trkpt>
      <trkpt lat="46.20729" lon="6.16104">
        <ele>380.20001220703</ele>
        <time>2013-05-10T14:26:50.000Z</time>
      </trkpt>
      <trkpt lat="46.2073" lon="6.16088">
        <ele>379.79998779297</ele>
        <time>2013-05-10T14:26:53.000Z</time>
      </trkpt>
      <trkpt lat="46.20728" lon="6.16083">
        <ele>379.79998779297</ele>
        <time>2013-05-10T14:26:54.000Z</time>
      </trkpt>
      <trkpt lat="46.20705" lon="6.16035">
        <ele>378.39999389648</ele>
        <time>2013-05-10T14:27:02.000Z</time>
      </trkpt>
      <trkpt lat="46.2068" lon="6.15982">
        <ele>378.39999389648</ele>
        <time>2013-05-10T14:27:10.000Z</time>
      </trkpt>
      <trkpt lat="46.20667" lon="6.15959">
        <ele>378.79998779297</ele>
        <time>2013-05-10T14:27:14.000Z</time>
      </trkpt>
      <trkpt lat="46.20653" lon="6.15925">
        <ele>379.20001220703</ele>
        <time>2013-05-10T14:27:19.000Z</time>
      </trkpt>
      <trkpt lat="46.20641" lon="6.159">
        <ele>379.79998779297</ele>
        <time>2013-05-10T14:27:23.000Z</time>
      </trkpt>
      <trkpt lat="46.20621" lon="6.15859">
        <ele>380.20001220703</ele>
        <time>2013-05-10T14:27:29.000Z</time>
      </trkpt>
      <trkpt lat="46.20598" lon="6.15814">
        <ele>380.79998779297</ele>
        <time>2013-05-10T14:27:36.000Z</time>
      </trkpt>
      <trkpt lat="46.20583" lon="6.15786">
        <ele>380.20001220703</ele>
        <time>2013-05-10T14:27:42.000Z</time>
      </trkpt>
      <trkpt lat="46.20576" lon="6.15774">
        <ele>380.79998779297</ele>
        <time>2013-05-10T14:27:45.000Z</time>
      </trkpt>
      <trkpt lat="46.20569" lon="6.15761">
        <ele>380.79998779297</ele>
        <time>2013-05-10T14:27:51.000Z</time>
      </trkpt>
      <trkpt lat="46.20569" lon="6.15756">
        <ele>384</ele>
        <time>2013-05-10T14:28:00.000Z</time>
      </trkpt>
      <trkpt lat="46.20569" lon="6.15756">
        <ele>385</ele>
        <time>2013-05-10T14:28:13.000Z</time>
      </trkpt>
      <trkpt lat="46.20569" lon="6.15758">
        <ele>385</ele>
        <time>2013-05-10T14:28:22.000Z</time>
      </trkpt>
      <trkpt lat="46.20569" lon="6.15758">
        <ele>385</ele>
        <time>2013-05-10T14:28:33.000Z</time>
      </trkpt>
      <trkpt lat="46.20569" lon="6.15758">
        <ele>384.60000610352</ele>
        <time>2013-05-10T14:28:40.000Z</time>
      </trkpt>
      <trkpt lat="46.20569" lon="6.1576">
        <ele>382.60000610352</ele>
        <time>2013-05-10T14:29:02.000Z</time>
      </trkpt>
      <trkpt lat="46.20568" lon="6.15758">
        <ele>384.60000610352</ele>
        <time>2013-05-10T14:29:17.000Z</time>
      </trkpt>
      <trkpt lat="46.20568" lon="6.15758">
        <ele>383.60000610352</ele>
        <time>2013-05-10T14:29:26.000Z</time>
      </trkpt>
      <trkpt lat="46.20568" lon="6.15757">
        <ele>383.60000610352</ele>
        <time>2013-05-10T14:29:40.000Z</time>
      </trkpt>
      <trkpt lat="46.20569" lon="6.15757">
        <ele>382.20001220703</ele>
        <time>2013-05-10T14:29:48.000Z</time>
      </trkpt>
      <trkpt lat="46.20559" lon="6.15756">
        <ele>382.60000610352</ele>
        <time>2013-05-10T14:29:54.000Z</time>
      </trkpt>
      <trkpt lat="46.20553" lon="6.15748">
        <ele>382.60000610352</ele>
        <time>2013-05-10T14:29:57.000Z</time>
      </trkpt>
      <trkpt lat="46.2054" lon="6.1572">
        <ele>382.60000610352</ele>
        <time>2013-05-10T14:30:04.000Z</time>
      </trkpt>
      <trkpt lat="46.20527" lon="6.157">
        <ele>383.60000610352</ele>
        <time>2013-05-10T14:30:10.000Z</time>
      </trkpt>
      <trkpt lat="46.20517" lon="6.15679">
        <ele>384.60000610352</ele>
        <time>2013-05-10T14:30:17.000Z</time>
      </trkpt>
      <trkpt lat="46.20513" lon="6.15671">
        <ele>384</ele>
        <time>2013-05-10T14:30:20.000Z</time>
      </trkpt>
      <trkpt lat="46.20512" lon="6.15668">
        <ele>384.60000610352</ele>
        <time>2013-05-10T14:30:24.000Z</time>
      </trkpt>
    </trkseg>
  </trk>
</gpx>